<?xml version="1.0" encoding="UTF-8" standalone="no" ?>
<gpx xmlns="http://www.topografix.com/GPX/1/1" xmlns:xsi="http://www.w3.org/2001/XMLSchema-instance" xsi:schemaLocation="http://www.topografix.com/GPX/1/1 http://www.topografix.com/GPX/1/1/gpx.xsd" version="1.1" creator="VisuGPX - https://www.visugpx.com">
  <metadata>
    <name>[09/10/2016] Boue'Troude</name>
    <desc><![CDATA[Parcours de 45 km dans la forêt de la Londe-Rouvray]]></desc>
  </metadata>
  <trk>
    <name><![CDATA[[09/10/2016] Boue'Troude_1]]></name>
    <trkseg>
      <trkpt lat="49.29866" lon="0.87833">
        <ele>127.121994</ele>
        <time>2016-10-09T06:13:52Z</time>
      </trkpt>
      <trkpt lat="49.29866" lon="0.87833">
        <ele>127.121994</ele>
        <time>2016-10-09T06:13:53Z</time>
      </trkpt>
      <trkpt lat="49.29861" lon="0.87819">
        <ele>127.1</ele>
        <time>2016-10-09T06:15:37Z</time>
      </trkpt>
      <trkpt lat="49.2986" lon="0.87803">
        <ele>127.1</ele>
        <time>2016-10-09T06:15:41Z</time>
      </trkpt>
      <trkpt lat="49.29855" lon="0.87788">
        <ele>127.2</ele>
        <time>2016-10-09T06:15:45Z</time>
      </trkpt>
      <trkpt lat="49.29851" lon="0.87772">
        <ele>127.5</ele>
        <time>2016-10-09T06:15:50Z</time>
      </trkpt>
      <trkpt lat="49.29846" lon="0.87757">
        <ele>127.6</ele>
        <time>2016-10-09T06:15:54Z</time>
      </trkpt>
      <trkpt lat="49.29853" lon="0.87746">
        <ele>127.8</ele>
        <time>2016-10-09T06:15:59Z</time>
      </trkpt>
      <trkpt lat="49.29863" lon="0.87745">
        <ele>128.2</ele>
        <time>2016-10-09T06:16:21Z</time>
      </trkpt>
      <trkpt lat="49.29872" lon="0.8774">
        <ele>128.2</ele>
        <time>2016-10-09T06:16:24Z</time>
      </trkpt>
      <trkpt lat="49.29883" lon="0.87736">
        <ele>128.2</ele>
        <time>2016-10-09T06:16:27Z</time>
      </trkpt>
      <trkpt lat="49.29896" lon="0.87739">
        <ele>128.2</ele>
        <time>2016-10-09T06:16:30Z</time>
      </trkpt>
      <trkpt lat="49.29905" lon="0.87743">
        <ele>128.2</ele>
        <time>2016-10-09T06:16:33Z</time>
      </trkpt>
      <trkpt lat="49.29913" lon="0.87735">
        <ele>128</ele>
        <time>2016-10-09T06:16:36Z</time>
      </trkpt>
      <trkpt lat="49.29918" lon="0.8772">
        <ele>127.6</ele>
        <time>2016-10-09T06:16:40Z</time>
      </trkpt>
      <trkpt lat="49.29918" lon="0.87703">
        <ele>127.4</ele>
        <time>2016-10-09T06:16:43Z</time>
      </trkpt>
      <trkpt lat="49.29919" lon="0.87683">
        <ele>127.2</ele>
        <time>2016-10-09T06:16:46Z</time>
      </trkpt>
      <trkpt lat="49.29922" lon="0.8767">
        <ele>127</ele>
        <time>2016-10-09T06:16:48Z</time>
      </trkpt>
      <trkpt lat="49.29927" lon="0.87654">
        <ele>126.8</ele>
        <time>2016-10-09T06:16:51Z</time>
      </trkpt>
      <trkpt lat="49.29932" lon="0.87639">
        <ele>126.6</ele>
        <time>2016-10-09T06:16:54Z</time>
      </trkpt>
      <trkpt lat="49.29937" lon="0.87625">
        <ele>126.5</ele>
        <time>2016-10-09T06:16:57Z</time>
      </trkpt>
      <trkpt lat="49.29941" lon="0.87611">
        <ele>126.4</ele>
        <time>2016-10-09T06:17:01Z</time>
      </trkpt>
      <trkpt lat="49.29935" lon="0.87598">
        <ele>126.5</ele>
        <time>2016-10-09T06:17:05Z</time>
      </trkpt>
      <trkpt lat="49.29928" lon="0.87586">
        <ele>126.6</ele>
        <time>2016-10-09T06:17:08Z</time>
      </trkpt>
      <trkpt lat="49.29925" lon="0.8757">
        <ele>126.6</ele>
        <time>2016-10-09T06:17:11Z</time>
      </trkpt>
      <trkpt lat="49.29928" lon="0.87553">
        <ele>126.7</ele>
        <time>2016-10-09T06:17:14Z</time>
      </trkpt>
      <trkpt lat="49.29931" lon="0.87539">
        <ele>126.8</ele>
        <time>2016-10-09T06:17:17Z</time>
      </trkpt>
      <trkpt lat="49.29935" lon="0.87525">
        <ele>126.8</ele>
        <time>2016-10-09T06:17:20Z</time>
      </trkpt>
      <trkpt lat="49.29939" lon="0.8751">
        <ele>126.9</ele>
        <time>2016-10-09T06:17:24Z</time>
      </trkpt>
      <trkpt lat="49.29942" lon="0.87495">
        <ele>127</ele>
        <time>2016-10-09T06:17:29Z</time>
      </trkpt>
      <trkpt lat="49.29939" lon="0.8748">
        <ele>127.1</ele>
        <time>2016-10-09T06:17:32Z</time>
      </trkpt>
      <trkpt lat="49.29935" lon="0.87465">
        <ele>127.2</ele>
        <time>2016-10-09T06:17:35Z</time>
      </trkpt>
      <trkpt lat="49.29928" lon="0.87452">
        <ele>127.3</ele>
        <time>2016-10-09T06:17:38Z</time>
      </trkpt>
      <trkpt lat="49.29922" lon="0.87441">
        <ele>127.6</ele>
        <time>2016-10-09T06:17:41Z</time>
      </trkpt>
      <trkpt lat="49.29917" lon="0.87428">
        <ele>127.8</ele>
        <time>2016-10-09T06:17:44Z</time>
      </trkpt>
      <trkpt lat="49.29913" lon="0.87415">
        <ele>128.2</ele>
        <time>2016-10-09T06:17:47Z</time>
      </trkpt>
      <trkpt lat="49.29914" lon="0.87397">
        <ele>128.6</ele>
        <time>2016-10-09T06:17:51Z</time>
      </trkpt>
      <trkpt lat="49.29918" lon="0.87383">
        <ele>128.8</ele>
        <time>2016-10-09T06:17:54Z</time>
      </trkpt>
      <trkpt lat="49.29923" lon="0.87372">
        <ele>129.1</ele>
        <time>2016-10-09T06:17:57Z</time>
      </trkpt>
      <trkpt lat="49.29928" lon="0.87359">
        <ele>129.2</ele>
        <time>2016-10-09T06:18:00Z</time>
      </trkpt>
      <trkpt lat="49.29933" lon="0.87346">
        <ele>129.4</ele>
        <time>2016-10-09T06:18:03Z</time>
      </trkpt>
      <trkpt lat="49.29938" lon="0.87333">
        <ele>129.5</ele>
        <time>2016-10-09T06:18:06Z</time>
      </trkpt>
      <trkpt lat="49.29943" lon="0.8732">
        <ele>129.6</ele>
        <time>2016-10-09T06:18:09Z</time>
      </trkpt>
      <trkpt lat="49.29951" lon="0.87307">
        <ele>129.7</ele>
        <time>2016-10-09T06:18:12Z</time>
      </trkpt>
      <trkpt lat="49.29959" lon="0.87297">
        <ele>129.7</ele>
        <time>2016-10-09T06:18:15Z</time>
      </trkpt>
      <trkpt lat="49.29968" lon="0.87286">
        <ele>129.8</ele>
        <time>2016-10-09T06:18:18Z</time>
      </trkpt>
      <trkpt lat="49.29975" lon="0.87273">
        <ele>129.8</ele>
        <time>2016-10-09T06:18:21Z</time>
      </trkpt>
      <trkpt lat="49.29982" lon="0.87258">
        <ele>129.9</ele>
        <time>2016-10-09T06:18:24Z</time>
      </trkpt>
      <trkpt lat="49.29988" lon="0.87243">
        <ele>129.9</ele>
        <time>2016-10-09T06:18:27Z</time>
      </trkpt>
      <trkpt lat="49.29994" lon="0.87227">
        <ele>129.9</ele>
        <time>2016-10-09T06:18:30Z</time>
      </trkpt>
      <trkpt lat="49.3" lon="0.87211">
        <ele>129.9</ele>
        <time>2016-10-09T06:18:33Z</time>
      </trkpt>
      <trkpt lat="49.30007" lon="0.87198">
        <ele>130</ele>
        <time>2016-10-09T06:18:36Z</time>
      </trkpt>
      <trkpt lat="49.30017" lon="0.87191">
        <ele>130</ele>
        <time>2016-10-09T06:18:39Z</time>
      </trkpt>
      <trkpt lat="49.30029" lon="0.87186">
        <ele>130</ele>
        <time>2016-10-09T06:18:42Z</time>
      </trkpt>
      <trkpt lat="49.30042" lon="0.87184">
        <ele>129.9</ele>
        <time>2016-10-09T06:18:45Z</time>
      </trkpt>
      <trkpt lat="49.30055" lon="0.87182">
        <ele>129.9</ele>
        <time>2016-10-09T06:18:48Z</time>
      </trkpt>
      <trkpt lat="49.30068" lon="0.87182">
        <ele>129.8</ele>
        <time>2016-10-09T06:18:51Z</time>
      </trkpt>
      <trkpt lat="49.30078" lon="0.8718">
        <ele>129.7</ele>
        <time>2016-10-09T06:18:53Z</time>
      </trkpt>
      <trkpt lat="49.30088" lon="0.87177">
        <ele>129.6</ele>
        <time>2016-10-09T06:18:55Z</time>
      </trkpt>
      <trkpt lat="49.30098" lon="0.87177">
        <ele>129.6</ele>
        <time>2016-10-09T06:18:57Z</time>
      </trkpt>
      <trkpt lat="49.30108" lon="0.87179">
        <ele>129.5</ele>
        <time>2016-10-09T06:18:59Z</time>
      </trkpt>
      <trkpt lat="49.30117" lon="0.87179">
        <ele>129.4</ele>
        <time>2016-10-09T06:19:01Z</time>
      </trkpt>
      <trkpt lat="49.3013" lon="0.87177">
        <ele>129.3</ele>
        <time>2016-10-09T06:19:04Z</time>
      </trkpt>
      <trkpt lat="49.30143" lon="0.87176">
        <ele>129</ele>
        <time>2016-10-09T06:19:07Z</time>
      </trkpt>
      <trkpt lat="49.30157" lon="0.87176">
        <ele>128.7</ele>
        <time>2016-10-09T06:19:10Z</time>
      </trkpt>
      <trkpt lat="49.30167" lon="0.87175">
        <ele>128.5</ele>
        <time>2016-10-09T06:19:12Z</time>
      </trkpt>
      <trkpt lat="49.30178" lon="0.87173">
        <ele>128.2</ele>
        <time>2016-10-09T06:19:14Z</time>
      </trkpt>
      <trkpt lat="49.30189" lon="0.87169">
        <ele>127.9</ele>
        <time>2016-10-09T06:19:16Z</time>
      </trkpt>
      <trkpt lat="49.30201" lon="0.87164">
        <ele>127.5</ele>
        <time>2016-10-09T06:19:18Z</time>
      </trkpt>
      <trkpt lat="49.30215" lon="0.87159">
        <ele>127.1</ele>
        <time>2016-10-09T06:19:20Z</time>
      </trkpt>
      <trkpt lat="49.30227" lon="0.87155">
        <ele>126.7</ele>
        <time>2016-10-09T06:19:22Z</time>
      </trkpt>
      <trkpt lat="49.3024" lon="0.87152">
        <ele>126.2</ele>
        <time>2016-10-09T06:19:24Z</time>
      </trkpt>
      <trkpt lat="49.30254" lon="0.87151">
        <ele>125.8</ele>
        <time>2016-10-09T06:19:26Z</time>
      </trkpt>
      <trkpt lat="49.30267" lon="0.87152">
        <ele>125.4</ele>
        <time>2016-10-09T06:19:28Z</time>
      </trkpt>
      <trkpt lat="49.3028" lon="0.87153">
        <ele>125.1</ele>
        <time>2016-10-09T06:19:30Z</time>
      </trkpt>
      <trkpt lat="49.30292" lon="0.87155">
        <ele>124.8</ele>
        <time>2016-10-09T06:19:32Z</time>
      </trkpt>
      <trkpt lat="49.30304" lon="0.87155">
        <ele>124.5</ele>
        <time>2016-10-09T06:19:34Z</time>
      </trkpt>
      <trkpt lat="49.30316" lon="0.87155">
        <ele>124.2</ele>
        <time>2016-10-09T06:19:36Z</time>
      </trkpt>
      <trkpt lat="49.30327" lon="0.87155">
        <ele>124</ele>
        <time>2016-10-09T06:19:38Z</time>
      </trkpt>
      <trkpt lat="49.30339" lon="0.87154">
        <ele>123.8</ele>
        <time>2016-10-09T06:19:40Z</time>
      </trkpt>
      <trkpt lat="49.3035" lon="0.87153">
        <ele>123.6</ele>
        <time>2016-10-09T06:19:42Z</time>
      </trkpt>
      <trkpt lat="49.30361" lon="0.87151">
        <ele>123.5</ele>
        <time>2016-10-09T06:19:44Z</time>
      </trkpt>
      <trkpt lat="49.30372" lon="0.87149">
        <ele>123.3</ele>
        <time>2016-10-09T06:19:46Z</time>
      </trkpt>
      <trkpt lat="49.30383" lon="0.87149">
        <ele>123.2</ele>
        <time>2016-10-09T06:19:48Z</time>
      </trkpt>
      <trkpt lat="49.30394" lon="0.87149">
        <ele>123.1</ele>
        <time>2016-10-09T06:19:50Z</time>
      </trkpt>
      <trkpt lat="49.30405" lon="0.8715">
        <ele>123</ele>
        <time>2016-10-09T06:19:52Z</time>
      </trkpt>
      <trkpt lat="49.30416" lon="0.87152">
        <ele>122.9</ele>
        <time>2016-10-09T06:19:54Z</time>
      </trkpt>
      <trkpt lat="49.30427" lon="0.87154">
        <ele>122.8</ele>
        <time>2016-10-09T06:19:56Z</time>
      </trkpt>
      <trkpt lat="49.30438" lon="0.87157">
        <ele>122.8</ele>
        <time>2016-10-09T06:19:58Z</time>
      </trkpt>
      <trkpt lat="49.30449" lon="0.87159">
        <ele>122.7</ele>
        <time>2016-10-09T06:20:00Z</time>
      </trkpt>
      <trkpt lat="49.30459" lon="0.8716">
        <ele>122.7</ele>
        <time>2016-10-09T06:20:02Z</time>
      </trkpt>
      <trkpt lat="49.30469" lon="0.87161">
        <ele>122.6</ele>
        <time>2016-10-09T06:20:04Z</time>
      </trkpt>
      <trkpt lat="49.3048" lon="0.87162">
        <ele>122.6</ele>
        <time>2016-10-09T06:20:06Z</time>
      </trkpt>
      <trkpt lat="49.3049" lon="0.87162">
        <ele>122.5</ele>
        <time>2016-10-09T06:20:08Z</time>
      </trkpt>
      <trkpt lat="49.30501" lon="0.87162">
        <ele>122.5</ele>
        <time>2016-10-09T06:20:10Z</time>
      </trkpt>
      <trkpt lat="49.30512" lon="0.87161">
        <ele>122.5</ele>
        <time>2016-10-09T06:20:12Z</time>
      </trkpt>
      <trkpt lat="49.30522" lon="0.87159">
        <ele>122.6</ele>
        <time>2016-10-09T06:20:14Z</time>
      </trkpt>
      <trkpt lat="49.30532" lon="0.87157">
        <ele>122.6</ele>
        <time>2016-10-09T06:20:16Z</time>
      </trkpt>
      <trkpt lat="49.30543" lon="0.87155">
        <ele>122.6</ele>
        <time>2016-10-09T06:20:18Z</time>
      </trkpt>
      <trkpt lat="49.30554" lon="0.87152">
        <ele>122.6</ele>
        <time>2016-10-09T06:20:20Z</time>
      </trkpt>
      <trkpt lat="49.30565" lon="0.8715">
        <ele>122.7</ele>
        <time>2016-10-09T06:20:22Z</time>
      </trkpt>
      <trkpt lat="49.30576" lon="0.87148">
        <ele>122.7</ele>
        <time>2016-10-09T06:20:24Z</time>
      </trkpt>
      <trkpt lat="49.30587" lon="0.87146">
        <ele>122.7</ele>
        <time>2016-10-09T06:20:26Z</time>
      </trkpt>
      <trkpt lat="49.306" lon="0.87145">
        <ele>122.7</ele>
        <time>2016-10-09T06:20:28Z</time>
      </trkpt>
      <trkpt lat="49.30612" lon="0.87144">
        <ele>122.7</ele>
        <time>2016-10-09T06:20:30Z</time>
      </trkpt>
      <trkpt lat="49.30625" lon="0.87144">
        <ele>122.7</ele>
        <time>2016-10-09T06:20:32Z</time>
      </trkpt>
      <trkpt lat="49.30638" lon="0.87145">
        <ele>122.6</ele>
        <time>2016-10-09T06:20:34Z</time>
      </trkpt>
      <trkpt lat="49.30651" lon="0.87147">
        <ele>122.5</ele>
        <time>2016-10-09T06:20:36Z</time>
      </trkpt>
      <trkpt lat="49.30663" lon="0.8715">
        <ele>122.4</ele>
        <time>2016-10-09T06:20:38Z</time>
      </trkpt>
      <trkpt lat="49.30676" lon="0.87154">
        <ele>122.3</ele>
        <time>2016-10-09T06:20:40Z</time>
      </trkpt>
      <trkpt lat="49.30688" lon="0.87158">
        <ele>122.2</ele>
        <time>2016-10-09T06:20:42Z</time>
      </trkpt>
      <trkpt lat="49.30701" lon="0.8716">
        <ele>122</ele>
        <time>2016-10-09T06:20:44Z</time>
      </trkpt>
      <trkpt lat="49.30714" lon="0.87163">
        <ele>121.8</ele>
        <time>2016-10-09T06:20:46Z</time>
      </trkpt>
      <trkpt lat="49.30727" lon="0.87164">
        <ele>121.6</ele>
        <time>2016-10-09T06:20:48Z</time>
      </trkpt>
      <trkpt lat="49.3074" lon="0.87165">
        <ele>121.4</ele>
        <time>2016-10-09T06:20:50Z</time>
      </trkpt>
      <trkpt lat="49.30754" lon="0.87165">
        <ele>121.2</ele>
        <time>2016-10-09T06:20:52Z</time>
      </trkpt>
      <trkpt lat="49.30767" lon="0.87163">
        <ele>121</ele>
        <time>2016-10-09T06:20:54Z</time>
      </trkpt>
      <trkpt lat="49.3078" lon="0.87161">
        <ele>120.8</ele>
        <time>2016-10-09T06:20:56Z</time>
      </trkpt>
      <trkpt lat="49.30792" lon="0.87158">
        <ele>120.6</ele>
        <time>2016-10-09T06:20:58Z</time>
      </trkpt>
      <trkpt lat="49.30805" lon="0.87153">
        <ele>120.4</ele>
        <time>2016-10-09T06:21:00Z</time>
      </trkpt>
      <trkpt lat="49.30817" lon="0.87147">
        <ele>120.2</ele>
        <time>2016-10-09T06:21:02Z</time>
      </trkpt>
      <trkpt lat="49.30828" lon="0.87142">
        <ele>120</ele>
        <time>2016-10-09T06:21:04Z</time>
      </trkpt>
      <trkpt lat="49.3084" lon="0.87135">
        <ele>119.8</ele>
        <time>2016-10-09T06:21:06Z</time>
      </trkpt>
      <trkpt lat="49.30852" lon="0.87129">
        <ele>119.6</ele>
        <time>2016-10-09T06:21:08Z</time>
      </trkpt>
      <trkpt lat="49.30865" lon="0.87122">
        <ele>119.4</ele>
        <time>2016-10-09T06:21:10Z</time>
      </trkpt>
      <trkpt lat="49.30877" lon="0.87117">
        <ele>119.2</ele>
        <time>2016-10-09T06:21:12Z</time>
      </trkpt>
      <trkpt lat="49.30889" lon="0.87114">
        <ele>119</ele>
        <time>2016-10-09T06:21:14Z</time>
      </trkpt>
      <trkpt lat="49.30901" lon="0.87112">
        <ele>118.8</ele>
        <time>2016-10-09T06:21:16Z</time>
      </trkpt>
      <trkpt lat="49.30912" lon="0.87113">
        <ele>118.6</ele>
        <time>2016-10-09T06:21:18Z</time>
      </trkpt>
      <trkpt lat="49.30923" lon="0.87115">
        <ele>118.5</ele>
        <time>2016-10-09T06:21:20Z</time>
      </trkpt>
      <trkpt lat="49.30933" lon="0.87117">
        <ele>118.4</ele>
        <time>2016-10-09T06:21:22Z</time>
      </trkpt>
      <trkpt lat="49.30943" lon="0.87118">
        <ele>118.3</ele>
        <time>2016-10-09T06:21:24Z</time>
      </trkpt>
      <trkpt lat="49.30952" lon="0.87118">
        <ele>118.3</ele>
        <time>2016-10-09T06:21:26Z</time>
      </trkpt>
      <trkpt lat="49.30962" lon="0.87117">
        <ele>118.3</ele>
        <time>2016-10-09T06:21:28Z</time>
      </trkpt>
      <trkpt lat="49.30974" lon="0.87112">
        <ele>118.4</ele>
        <time>2016-10-09T06:21:31Z</time>
      </trkpt>
      <trkpt lat="49.30986" lon="0.87106">
        <ele>118.6</ele>
        <time>2016-10-09T06:21:34Z</time>
      </trkpt>
      <trkpt lat="49.30996" lon="0.87098">
        <ele>118.9</ele>
        <time>2016-10-09T06:21:37Z</time>
      </trkpt>
      <trkpt lat="49.31007" lon="0.87092">
        <ele>119.3</ele>
        <time>2016-10-09T06:21:40Z</time>
      </trkpt>
      <trkpt lat="49.31018" lon="0.87087">
        <ele>119.8</ele>
        <time>2016-10-09T06:21:43Z</time>
      </trkpt>
      <trkpt lat="49.3103" lon="0.87083">
        <ele>120.3</ele>
        <time>2016-10-09T06:21:46Z</time>
      </trkpt>
      <trkpt lat="49.31042" lon="0.87081">
        <ele>120.7</ele>
        <time>2016-10-09T06:21:49Z</time>
      </trkpt>
      <trkpt lat="49.31054" lon="0.87079">
        <ele>121.2</ele>
        <time>2016-10-09T06:21:52Z</time>
      </trkpt>
      <trkpt lat="49.31066" lon="0.87076">
        <ele>121.7</ele>
        <time>2016-10-09T06:21:55Z</time>
      </trkpt>
      <trkpt lat="49.31077" lon="0.87074">
        <ele>122.4</ele>
        <time>2016-10-09T06:21:58Z</time>
      </trkpt>
      <trkpt lat="49.31089" lon="0.87072">
        <ele>122.9</ele>
        <time>2016-10-09T06:22:01Z</time>
      </trkpt>
      <trkpt lat="49.31101" lon="0.87069">
        <ele>123.4</ele>
        <time>2016-10-09T06:22:04Z</time>
      </trkpt>
      <trkpt lat="49.31114" lon="0.87069">
        <ele>123.8</ele>
        <time>2016-10-09T06:22:07Z</time>
      </trkpt>
      <trkpt lat="49.31127" lon="0.87074">
        <ele>124.2</ele>
        <time>2016-10-09T06:22:10Z</time>
      </trkpt>
      <trkpt lat="49.31137" lon="0.87088">
        <ele>124.6</ele>
        <time>2016-10-09T06:22:13Z</time>
      </trkpt>
      <trkpt lat="49.31141" lon="0.871">
        <ele>124.8</ele>
        <time>2016-10-09T06:22:15Z</time>
      </trkpt>
      <trkpt lat="49.31143" lon="0.87114">
        <ele>125</ele>
        <time>2016-10-09T06:22:17Z</time>
      </trkpt>
      <trkpt lat="49.31146" lon="0.87127">
        <ele>125.2</ele>
        <time>2016-10-09T06:22:19Z</time>
      </trkpt>
      <trkpt lat="49.31151" lon="0.87145">
        <ele>125.4</ele>
        <time>2016-10-09T06:22:22Z</time>
      </trkpt>
      <trkpt lat="49.31158" lon="0.87156">
        <ele>125.6</ele>
        <time>2016-10-09T06:22:24Z</time>
      </trkpt>
      <trkpt lat="49.31166" lon="0.87162">
        <ele>125.7</ele>
        <time>2016-10-09T06:22:26Z</time>
      </trkpt>
      <trkpt lat="49.31179" lon="0.87165">
        <ele>125.9</ele>
        <time>2016-10-09T06:22:29Z</time>
      </trkpt>
      <trkpt lat="49.31189" lon="0.87167">
        <ele>126</ele>
        <time>2016-10-09T06:22:31Z</time>
      </trkpt>
      <trkpt lat="49.31199" lon="0.87168">
        <ele>126.1</ele>
        <time>2016-10-09T06:22:33Z</time>
      </trkpt>
      <trkpt lat="49.31208" lon="0.87169">
        <ele>126.2</ele>
        <time>2016-10-09T06:22:35Z</time>
      </trkpt>
      <trkpt lat="49.31217" lon="0.8717">
        <ele>126.3</ele>
        <time>2016-10-09T06:22:37Z</time>
      </trkpt>
      <trkpt lat="49.31227" lon="0.8717">
        <ele>126.4</ele>
        <time>2016-10-09T06:22:39Z</time>
      </trkpt>
      <trkpt lat="49.31237" lon="0.87168">
        <ele>126.5</ele>
        <time>2016-10-09T06:22:41Z</time>
      </trkpt>
      <trkpt lat="49.31246" lon="0.87164">
        <ele>126.6</ele>
        <time>2016-10-09T06:22:43Z</time>
      </trkpt>
      <trkpt lat="49.31255" lon="0.8716">
        <ele>126.7</ele>
        <time>2016-10-09T06:22:45Z</time>
      </trkpt>
      <trkpt lat="49.31264" lon="0.87155">
        <ele>126.8</ele>
        <time>2016-10-09T06:22:47Z</time>
      </trkpt>
      <trkpt lat="49.31273" lon="0.8715">
        <ele>126.9</ele>
        <time>2016-10-09T06:22:49Z</time>
      </trkpt>
      <trkpt lat="49.31282" lon="0.87145">
        <ele>127</ele>
        <time>2016-10-09T06:22:51Z</time>
      </trkpt>
      <trkpt lat="49.31291" lon="0.8714">
        <ele>127.1</ele>
        <time>2016-10-09T06:22:53Z</time>
      </trkpt>
      <trkpt lat="49.31299" lon="0.87134">
        <ele>127.2</ele>
        <time>2016-10-09T06:22:55Z</time>
      </trkpt>
      <trkpt lat="49.31308" lon="0.87129">
        <ele>127.2</ele>
        <time>2016-10-09T06:22:57Z</time>
      </trkpt>
      <trkpt lat="49.31317" lon="0.87124">
        <ele>127.3</ele>
        <time>2016-10-09T06:22:59Z</time>
      </trkpt>
      <trkpt lat="49.31326" lon="0.87119">
        <ele>127.3</ele>
        <time>2016-10-09T06:23:01Z</time>
      </trkpt>
      <trkpt lat="49.31335" lon="0.87114">
        <ele>127.4</ele>
        <time>2016-10-09T06:23:03Z</time>
      </trkpt>
      <trkpt lat="49.31344" lon="0.8711">
        <ele>127.4</ele>
        <time>2016-10-09T06:23:05Z</time>
      </trkpt>
      <trkpt lat="49.31354" lon="0.87107">
        <ele>127.5</ele>
        <time>2016-10-09T06:23:07Z</time>
      </trkpt>
      <trkpt lat="49.31363" lon="0.87106">
        <ele>127.5</ele>
        <time>2016-10-09T06:23:09Z</time>
      </trkpt>
      <trkpt lat="49.31373" lon="0.87107">
        <ele>127.5</ele>
        <time>2016-10-09T06:23:11Z</time>
      </trkpt>
      <trkpt lat="49.31382" lon="0.8711">
        <ele>127.6</ele>
        <time>2016-10-09T06:23:13Z</time>
      </trkpt>
      <trkpt lat="49.31392" lon="0.87115">
        <ele>127.6</ele>
        <time>2016-10-09T06:23:15Z</time>
      </trkpt>
      <trkpt lat="49.31401" lon="0.87117">
        <ele>127.7</ele>
        <time>2016-10-09T06:23:17Z</time>
      </trkpt>
      <trkpt lat="49.3141" lon="0.87119">
        <ele>127.7</ele>
        <time>2016-10-09T06:23:19Z</time>
      </trkpt>
      <trkpt lat="49.3142" lon="0.87122">
        <ele>127.8</ele>
        <time>2016-10-09T06:23:21Z</time>
      </trkpt>
      <trkpt lat="49.31429" lon="0.87125">
        <ele>127.9</ele>
        <time>2016-10-09T06:23:23Z</time>
      </trkpt>
      <trkpt lat="49.31439" lon="0.87127">
        <ele>127.9</ele>
        <time>2016-10-09T06:23:25Z</time>
      </trkpt>
      <trkpt lat="49.31449" lon="0.8713">
        <ele>128</ele>
        <time>2016-10-09T06:23:27Z</time>
      </trkpt>
      <trkpt lat="49.31459" lon="0.87132">
        <ele>128.1</ele>
        <time>2016-10-09T06:23:29Z</time>
      </trkpt>
      <trkpt lat="49.31469" lon="0.87134">
        <ele>128.1</ele>
        <time>2016-10-09T06:23:31Z</time>
      </trkpt>
      <trkpt lat="49.31478" lon="0.87136">
        <ele>128.2</ele>
        <time>2016-10-09T06:23:33Z</time>
      </trkpt>
      <trkpt lat="49.31487" lon="0.87139">
        <ele>128.2</ele>
        <time>2016-10-09T06:23:35Z</time>
      </trkpt>
      <trkpt lat="49.31498" lon="0.87143">
        <ele>128.3</ele>
        <time>2016-10-09T06:23:37Z</time>
      </trkpt>
      <trkpt lat="49.31508" lon="0.87149">
        <ele>128.3</ele>
        <time>2016-10-09T06:23:39Z</time>
      </trkpt>
      <trkpt lat="49.31517" lon="0.87157">
        <ele>128.3</ele>
        <time>2016-10-09T06:23:41Z</time>
      </trkpt>
      <trkpt lat="49.31527" lon="0.87166">
        <ele>128.3</ele>
        <time>2016-10-09T06:23:43Z</time>
      </trkpt>
      <trkpt lat="49.31535" lon="0.87176">
        <ele>128.4</ele>
        <time>2016-10-09T06:23:45Z</time>
      </trkpt>
      <trkpt lat="49.31544" lon="0.87187">
        <ele>128.4</ele>
        <time>2016-10-09T06:23:47Z</time>
      </trkpt>
      <trkpt lat="49.31554" lon="0.87198">
        <ele>128.4</ele>
        <time>2016-10-09T06:23:49Z</time>
      </trkpt>
      <trkpt lat="49.31563" lon="0.87209">
        <ele>128.4</ele>
        <time>2016-10-09T06:23:51Z</time>
      </trkpt>
      <trkpt lat="49.31573" lon="0.87221">
        <ele>128.3</ele>
        <time>2016-10-09T06:23:53Z</time>
      </trkpt>
      <trkpt lat="49.31585" lon="0.87232">
        <ele>128.2</ele>
        <time>2016-10-09T06:23:55Z</time>
      </trkpt>
      <trkpt lat="49.31597" lon="0.87242">
        <ele>128</ele>
        <time>2016-10-09T06:23:57Z</time>
      </trkpt>
      <trkpt lat="49.3161" lon="0.87252">
        <ele>127.9</ele>
        <time>2016-10-09T06:23:59Z</time>
      </trkpt>
      <trkpt lat="49.31623" lon="0.87262">
        <ele>127.6</ele>
        <time>2016-10-09T06:24:01Z</time>
      </trkpt>
      <trkpt lat="49.31638" lon="0.87269">
        <ele>127.3</ele>
        <time>2016-10-09T06:24:03Z</time>
      </trkpt>
      <trkpt lat="49.31652" lon="0.87274">
        <ele>126.9</ele>
        <time>2016-10-09T06:24:05Z</time>
      </trkpt>
      <trkpt lat="49.31666" lon="0.8728">
        <ele>126.4</ele>
        <time>2016-10-09T06:24:07Z</time>
      </trkpt>
      <trkpt lat="49.31682" lon="0.87286">
        <ele>126</ele>
        <time>2016-10-09T06:24:09Z</time>
      </trkpt>
      <trkpt lat="49.31695" lon="0.87292">
        <ele>125.4</ele>
        <time>2016-10-09T06:24:11Z</time>
      </trkpt>
      <trkpt lat="49.31708" lon="0.87294">
        <ele>124.8</ele>
        <time>2016-10-09T06:24:13Z</time>
      </trkpt>
      <trkpt lat="49.3172" lon="0.87298">
        <ele>124.2</ele>
        <time>2016-10-09T06:24:15Z</time>
      </trkpt>
      <trkpt lat="49.31736" lon="0.87303">
        <ele>123.6</ele>
        <time>2016-10-09T06:24:17Z</time>
      </trkpt>
      <trkpt lat="49.31747" lon="0.87306">
        <ele>123.3</ele>
        <time>2016-10-09T06:24:18Z</time>
      </trkpt>
      <trkpt lat="49.31756" lon="0.87309">
        <ele>123</ele>
        <time>2016-10-09T06:24:19Z</time>
      </trkpt>
      <trkpt lat="49.31774" lon="0.87317">
        <ele>122.4</ele>
        <time>2016-10-09T06:24:21Z</time>
      </trkpt>
      <trkpt lat="49.31789" lon="0.87326">
        <ele>121.9</ele>
        <time>2016-10-09T06:24:23Z</time>
      </trkpt>
      <trkpt lat="49.31803" lon="0.87337">
        <ele>121.3</ele>
        <time>2016-10-09T06:24:25Z</time>
      </trkpt>
      <trkpt lat="49.31817" lon="0.87348">
        <ele>120.8</ele>
        <time>2016-10-09T06:24:27Z</time>
      </trkpt>
      <trkpt lat="49.31831" lon="0.87357">
        <ele>120.2</ele>
        <time>2016-10-09T06:24:29Z</time>
      </trkpt>
      <trkpt lat="49.31844" lon="0.87364">
        <ele>119.6</ele>
        <time>2016-10-09T06:24:31Z</time>
      </trkpt>
      <trkpt lat="49.31858" lon="0.87377">
        <ele>119</ele>
        <time>2016-10-09T06:24:33Z</time>
      </trkpt>
      <trkpt lat="49.31871" lon="0.87392">
        <ele>118.3</ele>
        <time>2016-10-09T06:24:35Z</time>
      </trkpt>
      <trkpt lat="49.31884" lon="0.87406">
        <ele>117.6</ele>
        <time>2016-10-09T06:24:37Z</time>
      </trkpt>
      <trkpt lat="49.31898" lon="0.87421">
        <ele>117</ele>
        <time>2016-10-09T06:24:39Z</time>
      </trkpt>
      <trkpt lat="49.31913" lon="0.87437">
        <ele>116.3</ele>
        <time>2016-10-09T06:24:41Z</time>
      </trkpt>
      <trkpt lat="49.31926" lon="0.87452">
        <ele>115.6</ele>
        <time>2016-10-09T06:24:43Z</time>
      </trkpt>
      <trkpt lat="49.3194" lon="0.87468">
        <ele>114.9</ele>
        <time>2016-10-09T06:24:45Z</time>
      </trkpt>
      <trkpt lat="49.31953" lon="0.87483">
        <ele>114.2</ele>
        <time>2016-10-09T06:24:47Z</time>
      </trkpt>
      <trkpt lat="49.31966" lon="0.87498">
        <ele>113.5</ele>
        <time>2016-10-09T06:24:49Z</time>
      </trkpt>
      <trkpt lat="49.3198" lon="0.87512">
        <ele>112.9</ele>
        <time>2016-10-09T06:24:51Z</time>
      </trkpt>
      <trkpt lat="49.31992" lon="0.87524">
        <ele>112.2</ele>
        <time>2016-10-09T06:24:53Z</time>
      </trkpt>
      <trkpt lat="49.32004" lon="0.87536">
        <ele>111.6</ele>
        <time>2016-10-09T06:24:55Z</time>
      </trkpt>
      <trkpt lat="49.32014" lon="0.87547">
        <ele>111.1</ele>
        <time>2016-10-09T06:24:57Z</time>
      </trkpt>
      <trkpt lat="49.32025" lon="0.87557">
        <ele>110.6</ele>
        <time>2016-10-09T06:24:59Z</time>
      </trkpt>
      <trkpt lat="49.32035" lon="0.87566">
        <ele>110.1</ele>
        <time>2016-10-09T06:25:01Z</time>
      </trkpt>
      <trkpt lat="49.32045" lon="0.87574">
        <ele>109.7</ele>
        <time>2016-10-09T06:25:03Z</time>
      </trkpt>
      <trkpt lat="49.32056" lon="0.87581">
        <ele>109.3</ele>
        <time>2016-10-09T06:25:05Z</time>
      </trkpt>
      <trkpt lat="49.32064" lon="0.87589">
        <ele>109</ele>
        <time>2016-10-09T06:25:07Z</time>
      </trkpt>
      <trkpt lat="49.32073" lon="0.87596">
        <ele>108.4</ele>
        <time>2016-10-09T06:25:10Z</time>
      </trkpt>
      <trkpt lat="49.32082" lon="0.87602">
        <ele>107.4</ele>
        <time>2016-10-09T06:25:16Z</time>
      </trkpt>
      <trkpt lat="49.3209" lon="0.87609">
        <ele>106.9</ele>
        <time>2016-10-09T06:25:20Z</time>
      </trkpt>
      <trkpt lat="49.32099" lon="0.87596">
        <ele>106.3</ele>
        <time>2016-10-09T06:25:26Z</time>
      </trkpt>
      <trkpt lat="49.32103" lon="0.8758">
        <ele>105.9</ele>
        <time>2016-10-09T06:25:29Z</time>
      </trkpt>
      <trkpt lat="49.32109" lon="0.87563">
        <ele>105.5</ele>
        <time>2016-10-09T06:25:32Z</time>
      </trkpt>
      <trkpt lat="49.32114" lon="0.8755">
        <ele>105.2</ele>
        <time>2016-10-09T06:25:34Z</time>
      </trkpt>
      <trkpt lat="49.32124" lon="0.87537">
        <ele>104.8</ele>
        <time>2016-10-09T06:25:37Z</time>
      </trkpt>
      <trkpt lat="49.32131" lon="0.87526">
        <ele>104.5</ele>
        <time>2016-10-09T06:25:39Z</time>
      </trkpt>
      <trkpt lat="49.32137" lon="0.87509">
        <ele>104</ele>
        <time>2016-10-09T06:25:42Z</time>
      </trkpt>
      <trkpt lat="49.32141" lon="0.87492">
        <ele>103.7</ele>
        <time>2016-10-09T06:25:44Z</time>
      </trkpt>
      <trkpt lat="49.32146" lon="0.87481">
        <ele>103.5</ele>
        <time>2016-10-09T06:25:46Z</time>
      </trkpt>
      <trkpt lat="49.32154" lon="0.87467">
        <ele>103.2</ele>
        <time>2016-10-09T06:25:49Z</time>
      </trkpt>
      <trkpt lat="49.3216" lon="0.87456">
        <ele>103</ele>
        <time>2016-10-09T06:25:51Z</time>
      </trkpt>
      <trkpt lat="49.32168" lon="0.87443">
        <ele>102.8</ele>
        <time>2016-10-09T06:25:53Z</time>
      </trkpt>
      <trkpt lat="49.32176" lon="0.87434">
        <ele>102.7</ele>
        <time>2016-10-09T06:25:55Z</time>
      </trkpt>
      <trkpt lat="49.32185" lon="0.87423">
        <ele>102.5</ele>
        <time>2016-10-09T06:25:57Z</time>
      </trkpt>
      <trkpt lat="49.32192" lon="0.87409">
        <ele>102.4</ele>
        <time>2016-10-09T06:25:59Z</time>
      </trkpt>
      <trkpt lat="49.32199" lon="0.87397">
        <ele>102.2</ele>
        <time>2016-10-09T06:26:01Z</time>
      </trkpt>
      <trkpt lat="49.32207" lon="0.87383">
        <ele>102</ele>
        <time>2016-10-09T06:26:04Z</time>
      </trkpt>
      <trkpt lat="49.32213" lon="0.87371">
        <ele>101.9</ele>
        <time>2016-10-09T06:26:06Z</time>
      </trkpt>
      <trkpt lat="49.32221" lon="0.87356">
        <ele>101.7</ele>
        <time>2016-10-09T06:26:09Z</time>
      </trkpt>
      <trkpt lat="49.32227" lon="0.87344">
        <ele>101.6</ele>
        <time>2016-10-09T06:26:11Z</time>
      </trkpt>
      <trkpt lat="49.32234" lon="0.87331">
        <ele>101.5</ele>
        <time>2016-10-09T06:26:13Z</time>
      </trkpt>
      <trkpt lat="49.3224" lon="0.87319">
        <ele>101.4</ele>
        <time>2016-10-09T06:26:15Z</time>
      </trkpt>
      <trkpt lat="49.32247" lon="0.87303">
        <ele>101.3</ele>
        <time>2016-10-09T06:26:17Z</time>
      </trkpt>
      <trkpt lat="49.32257" lon="0.87286">
        <ele>101</ele>
        <time>2016-10-09T06:26:20Z</time>
      </trkpt>
      <trkpt lat="49.32261" lon="0.87273">
        <ele>100.8</ele>
        <time>2016-10-09T06:26:22Z</time>
      </trkpt>
      <trkpt lat="49.32266" lon="0.87258">
        <ele>100.4</ele>
        <time>2016-10-09T06:26:25Z</time>
      </trkpt>
      <trkpt lat="49.32269" lon="0.87244">
        <ele>100.2</ele>
        <time>2016-10-09T06:26:28Z</time>
      </trkpt>
      <trkpt lat="49.32275" lon="0.87228">
        <ele>100</ele>
        <time>2016-10-09T06:26:30Z</time>
      </trkpt>
      <trkpt lat="49.32275" lon="0.87213">
        <ele>99.9</ele>
        <time>2016-10-09T06:26:32Z</time>
      </trkpt>
      <trkpt lat="49.32279" lon="0.87198">
        <ele>99.8</ele>
        <time>2016-10-09T06:26:34Z</time>
      </trkpt>
      <trkpt lat="49.32281" lon="0.87179">
        <ele>99.6</ele>
        <time>2016-10-09T06:26:37Z</time>
      </trkpt>
      <trkpt lat="49.32285" lon="0.87163">
        <ele>99.5</ele>
        <time>2016-10-09T06:26:40Z</time>
      </trkpt>
      <trkpt lat="49.32289" lon="0.87148">
        <ele>99.4</ele>
        <time>2016-10-09T06:26:43Z</time>
      </trkpt>
      <trkpt lat="49.32296" lon="0.87131">
        <ele>99.3</ele>
        <time>2016-10-09T06:26:46Z</time>
      </trkpt>
      <trkpt lat="49.32301" lon="0.87116">
        <ele>99.3</ele>
        <time>2016-10-09T06:26:48Z</time>
      </trkpt>
      <trkpt lat="49.32307" lon="0.87101">
        <ele>99</ele>
        <time>2016-10-09T06:26:51Z</time>
      </trkpt>
      <trkpt lat="49.32312" lon="0.87089">
        <ele>98.7</ele>
        <time>2016-10-09T06:26:54Z</time>
      </trkpt>
      <trkpt lat="49.32322" lon="0.87078">
        <ele>98.5</ele>
        <time>2016-10-09T06:26:57Z</time>
      </trkpt>
      <trkpt lat="49.32332" lon="0.8707">
        <ele>98.3</ele>
        <time>2016-10-09T06:27:00Z</time>
      </trkpt>
      <trkpt lat="49.32341" lon="0.87056">
        <ele>98.2</ele>
        <time>2016-10-09T06:27:03Z</time>
      </trkpt>
      <trkpt lat="49.32348" lon="0.87046">
        <ele>98.1</ele>
        <time>2016-10-09T06:27:05Z</time>
      </trkpt>
      <trkpt lat="49.32357" lon="0.87033">
        <ele>98</ele>
        <time>2016-10-09T06:27:08Z</time>
      </trkpt>
      <trkpt lat="49.32363" lon="0.87016">
        <ele>97.9</ele>
        <time>2016-10-09T06:27:11Z</time>
      </trkpt>
      <trkpt lat="49.32367" lon="0.86998">
        <ele>97.8</ele>
        <time>2016-10-09T06:27:14Z</time>
      </trkpt>
      <trkpt lat="49.32371" lon="0.86984">
        <ele>97.7</ele>
        <time>2016-10-09T06:27:16Z</time>
      </trkpt>
      <trkpt lat="49.32373" lon="0.86967">
        <ele>97.6</ele>
        <time>2016-10-09T06:27:19Z</time>
      </trkpt>
      <trkpt lat="49.32374" lon="0.86952">
        <ele>97.5</ele>
        <time>2016-10-09T06:27:22Z</time>
      </trkpt>
      <trkpt lat="49.32371" lon="0.86938">
        <ele>97.5</ele>
        <time>2016-10-09T06:27:24Z</time>
      </trkpt>
      <trkpt lat="49.32367" lon="0.86924">
        <ele>97.4</ele>
        <time>2016-10-09T06:27:27Z</time>
      </trkpt>
      <trkpt lat="49.32363" lon="0.86906">
        <ele>97.3</ele>
        <time>2016-10-09T06:27:30Z</time>
      </trkpt>
      <trkpt lat="49.32357" lon="0.86894">
        <ele>97.2</ele>
        <time>2016-10-09T06:27:32Z</time>
      </trkpt>
      <trkpt lat="49.32351" lon="0.86881">
        <ele>97.2</ele>
        <time>2016-10-09T06:27:34Z</time>
      </trkpt>
      <trkpt lat="49.32344" lon="0.86868">
        <ele>97.2</ele>
        <time>2016-10-09T06:27:36Z</time>
      </trkpt>
      <trkpt lat="49.32338" lon="0.86855">
        <ele>97.1</ele>
        <time>2016-10-09T06:27:38Z</time>
      </trkpt>
      <trkpt lat="49.32334" lon="0.8684">
        <ele>97.1</ele>
        <time>2016-10-09T06:27:40Z</time>
      </trkpt>
      <trkpt lat="49.32332" lon="0.86826">
        <ele>97.1</ele>
        <time>2016-10-09T06:27:42Z</time>
      </trkpt>
      <trkpt lat="49.32331" lon="0.86811">
        <ele>97</ele>
        <time>2016-10-09T06:27:44Z</time>
      </trkpt>
      <trkpt lat="49.32332" lon="0.86795">
        <ele>97</ele>
        <time>2016-10-09T06:27:46Z</time>
      </trkpt>
      <trkpt lat="49.32334" lon="0.8678">
        <ele>96.9</ele>
        <time>2016-10-09T06:27:48Z</time>
      </trkpt>
      <trkpt lat="49.32336" lon="0.86766">
        <ele>96.8</ele>
        <time>2016-10-09T06:27:50Z</time>
      </trkpt>
      <trkpt lat="49.32337" lon="0.86751">
        <ele>96.7</ele>
        <time>2016-10-09T06:27:52Z</time>
      </trkpt>
      <trkpt lat="49.32339" lon="0.86737">
        <ele>96.6</ele>
        <time>2016-10-09T06:27:54Z</time>
      </trkpt>
      <trkpt lat="49.32339" lon="0.86721">
        <ele>96.6</ele>
        <time>2016-10-09T06:27:56Z</time>
      </trkpt>
      <trkpt lat="49.32339" lon="0.86707">
        <ele>96.5</ele>
        <time>2016-10-09T06:27:58Z</time>
      </trkpt>
      <trkpt lat="49.3234" lon="0.8669">
        <ele>96.4</ele>
        <time>2016-10-09T06:28:00Z</time>
      </trkpt>
      <trkpt lat="49.32339" lon="0.86672">
        <ele>96.3</ele>
        <time>2016-10-09T06:28:02Z</time>
      </trkpt>
      <trkpt lat="49.32335" lon="0.86652">
        <ele>96.1</ele>
        <time>2016-10-09T06:28:04Z</time>
      </trkpt>
      <trkpt lat="49.32332" lon="0.86635">
        <ele>95.9</ele>
        <time>2016-10-09T06:28:06Z</time>
      </trkpt>
      <trkpt lat="49.32328" lon="0.86623">
        <ele>95.7</ele>
        <time>2016-10-09T06:28:08Z</time>
      </trkpt>
      <trkpt lat="49.32322" lon="0.86604">
        <ele>95.5</ele>
        <time>2016-10-09T06:28:11Z</time>
      </trkpt>
      <trkpt lat="49.32316" lon="0.86588">
        <ele>95.4</ele>
        <time>2016-10-09T06:28:13Z</time>
      </trkpt>
      <trkpt lat="49.32311" lon="0.86572">
        <ele>95.3</ele>
        <time>2016-10-09T06:28:16Z</time>
      </trkpt>
      <trkpt lat="49.32305" lon="0.86556">
        <ele>95.2</ele>
        <time>2016-10-09T06:28:19Z</time>
      </trkpt>
      <trkpt lat="49.32302" lon="0.8654">
        <ele>95.3</ele>
        <time>2016-10-09T06:28:23Z</time>
      </trkpt>
      <trkpt lat="49.3231" lon="0.86553">
        <ele>95.9</ele>
        <time>2016-10-09T06:28:32Z</time>
      </trkpt>
      <trkpt lat="49.32318" lon="0.86562">
        <ele>96.4</ele>
        <time>2016-10-09T06:28:37Z</time>
      </trkpt>
      <trkpt lat="49.32326" lon="0.8657">
        <ele>97.3</ele>
        <time>2016-10-09T06:28:44Z</time>
      </trkpt>
      <trkpt lat="49.32335" lon="0.86575">
        <ele>98.8</ele>
        <time>2016-10-09T06:28:54Z</time>
      </trkpt>
      <trkpt lat="49.32343" lon="0.86582">
        <ele>99.8</ele>
        <time>2016-10-09T06:29:00Z</time>
      </trkpt>
      <trkpt lat="49.32352" lon="0.86591">
        <ele>101.1</ele>
        <time>2016-10-09T06:29:07Z</time>
      </trkpt>
      <trkpt lat="49.3236" lon="0.866">
        <ele>102.7</ele>
        <time>2016-10-09T06:29:14Z</time>
      </trkpt>
      <trkpt lat="49.32368" lon="0.86609">
        <ele>103.9</ele>
        <time>2016-10-09T06:29:19Z</time>
      </trkpt>
      <trkpt lat="49.32376" lon="0.86617">
        <ele>104.9</ele>
        <time>2016-10-09T06:29:23Z</time>
      </trkpt>
      <trkpt lat="49.32383" lon="0.86626">
        <ele>106.1</ele>
        <time>2016-10-09T06:29:28Z</time>
      </trkpt>
      <trkpt lat="49.32391" lon="0.86636">
        <ele>107.3</ele>
        <time>2016-10-09T06:29:33Z</time>
      </trkpt>
      <trkpt lat="49.32398" lon="0.86645">
        <ele>108.2</ele>
        <time>2016-10-09T06:29:37Z</time>
      </trkpt>
      <trkpt lat="49.32407" lon="0.86656">
        <ele>109.1</ele>
        <time>2016-10-09T06:29:41Z</time>
      </trkpt>
      <trkpt lat="49.32415" lon="0.86667">
        <ele>109.9</ele>
        <time>2016-10-09T06:29:45Z</time>
      </trkpt>
      <trkpt lat="49.32422" lon="0.86677">
        <ele>110.7</ele>
        <time>2016-10-09T06:29:49Z</time>
      </trkpt>
      <trkpt lat="49.3243" lon="0.86686">
        <ele>111.6</ele>
        <time>2016-10-09T06:29:53Z</time>
      </trkpt>
      <trkpt lat="49.32439" lon="0.86697">
        <ele>112.3</ele>
        <time>2016-10-09T06:29:57Z</time>
      </trkpt>
      <trkpt lat="49.32448" lon="0.86708">
        <ele>113</ele>
        <time>2016-10-09T06:30:01Z</time>
      </trkpt>
      <trkpt lat="49.32456" lon="0.86718">
        <ele>113.7</ele>
        <time>2016-10-09T06:30:05Z</time>
      </trkpt>
      <trkpt lat="49.32464" lon="0.86729">
        <ele>114.3</ele>
        <time>2016-10-09T06:30:09Z</time>
      </trkpt>
      <trkpt lat="49.32473" lon="0.86739">
        <ele>114.8</ele>
        <time>2016-10-09T06:30:13Z</time>
      </trkpt>
      <trkpt lat="49.3248" lon="0.86749">
        <ele>115.2</ele>
        <time>2016-10-09T06:30:16Z</time>
      </trkpt>
      <trkpt lat="49.32488" lon="0.86758">
        <ele>115.6</ele>
        <time>2016-10-09T06:30:19Z</time>
      </trkpt>
      <trkpt lat="49.32496" lon="0.86768">
        <ele>115.9</ele>
        <time>2016-10-09T06:30:22Z</time>
      </trkpt>
      <trkpt lat="49.32504" lon="0.86778">
        <ele>116.2</ele>
        <time>2016-10-09T06:30:25Z</time>
      </trkpt>
      <trkpt lat="49.32513" lon="0.86789">
        <ele>116.4</ele>
        <time>2016-10-09T06:30:28Z</time>
      </trkpt>
      <trkpt lat="49.32524" lon="0.86798">
        <ele>116.7</ele>
        <time>2016-10-09T06:30:31Z</time>
      </trkpt>
      <trkpt lat="49.32531" lon="0.86809">
        <ele>116.9</ele>
        <time>2016-10-09T06:30:34Z</time>
      </trkpt>
      <trkpt lat="49.32538" lon="0.86821">
        <ele>117.2</ele>
        <time>2016-10-09T06:30:37Z</time>
      </trkpt>
      <trkpt lat="49.32548" lon="0.86824">
        <ele>117.5</ele>
        <time>2016-10-09T06:30:41Z</time>
      </trkpt>
      <trkpt lat="49.32552" lon="0.86807">
        <ele>117.7</ele>
        <time>2016-10-09T06:30:45Z</time>
      </trkpt>
      <trkpt lat="49.32554" lon="0.8679">
        <ele>117.9</ele>
        <time>2016-10-09T06:30:48Z</time>
      </trkpt>
      <trkpt lat="49.32557" lon="0.8677">
        <ele>118</ele>
        <time>2016-10-09T06:30:51Z</time>
      </trkpt>
      <trkpt lat="49.3256" lon="0.86756">
        <ele>118.1</ele>
        <time>2016-10-09T06:30:53Z</time>
      </trkpt>
      <trkpt lat="49.32562" lon="0.86742">
        <ele>118.3</ele>
        <time>2016-10-09T06:30:55Z</time>
      </trkpt>
      <trkpt lat="49.32564" lon="0.86726">
        <ele>118.4</ele>
        <time>2016-10-09T06:30:57Z</time>
      </trkpt>
      <trkpt lat="49.32567" lon="0.86711">
        <ele>118.4</ele>
        <time>2016-10-09T06:30:59Z</time>
      </trkpt>
      <trkpt lat="49.3257" lon="0.86694">
        <ele>118.5</ele>
        <time>2016-10-09T06:31:01Z</time>
      </trkpt>
      <trkpt lat="49.32572" lon="0.86676">
        <ele>118.6</ele>
        <time>2016-10-09T06:31:03Z</time>
      </trkpt>
      <trkpt lat="49.32574" lon="0.86659">
        <ele>118.6</ele>
        <time>2016-10-09T06:31:05Z</time>
      </trkpt>
      <trkpt lat="49.32577" lon="0.86643">
        <ele>118.7</ele>
        <time>2016-10-09T06:31:07Z</time>
      </trkpt>
      <trkpt lat="49.3258" lon="0.86626">
        <ele>118.7</ele>
        <time>2016-10-09T06:31:10Z</time>
      </trkpt>
      <trkpt lat="49.32582" lon="0.86612">
        <ele>118.8</ele>
        <time>2016-10-09T06:31:12Z</time>
      </trkpt>
      <trkpt lat="49.32584" lon="0.86597">
        <ele>118.8</ele>
        <time>2016-10-09T06:31:14Z</time>
      </trkpt>
      <trkpt lat="49.32586" lon="0.86581">
        <ele>118.8</ele>
        <time>2016-10-09T06:31:16Z</time>
      </trkpt>
      <trkpt lat="49.32589" lon="0.86565">
        <ele>118.8</ele>
        <time>2016-10-09T06:31:18Z</time>
      </trkpt>
      <trkpt lat="49.32591" lon="0.86549">
        <ele>118.8</ele>
        <time>2016-10-09T06:31:20Z</time>
      </trkpt>
      <trkpt lat="49.32595" lon="0.86532">
        <ele>118.8</ele>
        <time>2016-10-09T06:31:22Z</time>
      </trkpt>
      <trkpt lat="49.32597" lon="0.86516">
        <ele>118.7</ele>
        <time>2016-10-09T06:31:24Z</time>
      </trkpt>
      <trkpt lat="49.32599" lon="0.86498">
        <ele>118.7</ele>
        <time>2016-10-09T06:31:26Z</time>
      </trkpt>
      <trkpt lat="49.32602" lon="0.86481">
        <ele>118.7</ele>
        <time>2016-10-09T06:31:28Z</time>
      </trkpt>
      <trkpt lat="49.32604" lon="0.86463">
        <ele>118.6</ele>
        <time>2016-10-09T06:31:30Z</time>
      </trkpt>
      <trkpt lat="49.32607" lon="0.86446">
        <ele>118.5</ele>
        <time>2016-10-09T06:31:32Z</time>
      </trkpt>
      <trkpt lat="49.32608" lon="0.86432">
        <ele>118.2</ele>
        <time>2016-10-09T06:31:34Z</time>
      </trkpt>
      <trkpt lat="49.32608" lon="0.86418">
        <ele>117.6</ele>
        <time>2016-10-09T06:31:37Z</time>
      </trkpt>
      <trkpt lat="49.3261" lon="0.86404">
        <ele>116.7</ele>
        <time>2016-10-09T06:31:42Z</time>
      </trkpt>
      <trkpt lat="49.32612" lon="0.86389">
        <ele>115.3</ele>
        <time>2016-10-09T06:31:47Z</time>
      </trkpt>
      <trkpt lat="49.32615" lon="0.86375">
        <ele>113.9</ele>
        <time>2016-10-09T06:31:51Z</time>
      </trkpt>
      <trkpt lat="49.32618" lon="0.86361">
        <ele>111.5</ele>
        <time>2016-10-09T06:31:55Z</time>
      </trkpt>
      <trkpt lat="49.32621" lon="0.86347">
        <ele>108.7</ele>
        <time>2016-10-09T06:31:59Z</time>
      </trkpt>
      <trkpt lat="49.32625" lon="0.86331">
        <ele>105.6</ele>
        <time>2016-10-09T06:32:03Z</time>
      </trkpt>
      <trkpt lat="49.32634" lon="0.86325">
        <ele>100.7</ele>
        <time>2016-10-09T06:32:09Z</time>
      </trkpt>
      <trkpt lat="49.32643" lon="0.86327">
        <ele>98.9</ele>
        <time>2016-10-09T06:32:12Z</time>
      </trkpt>
      <trkpt lat="49.32653" lon="0.86331">
        <ele>97.9</ele>
        <time>2016-10-09T06:32:14Z</time>
      </trkpt>
      <trkpt lat="49.32666" lon="0.86336">
        <ele>96.5</ele>
        <time>2016-10-09T06:32:17Z</time>
      </trkpt>
      <trkpt lat="49.32676" lon="0.86338">
        <ele>95.4</ele>
        <time>2016-10-09T06:32:20Z</time>
      </trkpt>
      <trkpt lat="49.32687" lon="0.86341">
        <ele>94.8</ele>
        <time>2016-10-09T06:32:22Z</time>
      </trkpt>
      <trkpt lat="49.32699" lon="0.86341">
        <ele>94.2</ele>
        <time>2016-10-09T06:32:24Z</time>
      </trkpt>
      <trkpt lat="49.3271" lon="0.86338">
        <ele>93.7</ele>
        <time>2016-10-09T06:32:26Z</time>
      </trkpt>
      <trkpt lat="49.3272" lon="0.86334">
        <ele>93.3</ele>
        <time>2016-10-09T06:32:28Z</time>
      </trkpt>
      <trkpt lat="49.32731" lon="0.86332">
        <ele>92.9</ele>
        <time>2016-10-09T06:32:30Z</time>
      </trkpt>
      <trkpt lat="49.32742" lon="0.86329">
        <ele>92.5</ele>
        <time>2016-10-09T06:32:32Z</time>
      </trkpt>
      <trkpt lat="49.32752" lon="0.86325">
        <ele>92.2</ele>
        <time>2016-10-09T06:32:34Z</time>
      </trkpt>
      <trkpt lat="49.32763" lon="0.8632">
        <ele>91.9</ele>
        <time>2016-10-09T06:32:36Z</time>
      </trkpt>
      <trkpt lat="49.32773" lon="0.86315">
        <ele>91.6</ele>
        <time>2016-10-09T06:32:38Z</time>
      </trkpt>
      <trkpt lat="49.32781" lon="0.86307">
        <ele>91.4</ele>
        <time>2016-10-09T06:32:40Z</time>
      </trkpt>
      <trkpt lat="49.32793" lon="0.86301">
        <ele>91.1</ele>
        <time>2016-10-09T06:32:43Z</time>
      </trkpt>
      <trkpt lat="49.32802" lon="0.86298">
        <ele>90.7</ele>
        <time>2016-10-09T06:32:49Z</time>
      </trkpt>
      <trkpt lat="49.32808" lon="0.86288">
        <ele>90.3</ele>
        <time>2016-10-09T06:32:59Z</time>
      </trkpt>
      <trkpt lat="49.32815" lon="0.86278">
        <ele>89.7</ele>
        <time>2016-10-09T06:33:03Z</time>
      </trkpt>
      <trkpt lat="49.32827" lon="0.86253">
        <ele>89.2</ele>
        <time>2016-10-09T06:33:10Z</time>
      </trkpt>
      <trkpt lat="49.32827" lon="0.86238">
        <ele>89</ele>
        <time>2016-10-09T06:33:12Z</time>
      </trkpt>
      <trkpt lat="49.3283" lon="0.86224">
        <ele>88.8</ele>
        <time>2016-10-09T06:33:15Z</time>
      </trkpt>
      <trkpt lat="49.32838" lon="0.86211">
        <ele>88.6</ele>
        <time>2016-10-09T06:33:19Z</time>
      </trkpt>
      <trkpt lat="49.32844" lon="0.862">
        <ele>88.4</ele>
        <time>2016-10-09T06:33:23Z</time>
      </trkpt>
      <trkpt lat="49.32855" lon="0.86205">
        <ele>88.3</ele>
        <time>2016-10-09T06:33:27Z</time>
      </trkpt>
      <trkpt lat="49.32865" lon="0.86201">
        <ele>88.3</ele>
        <time>2016-10-09T06:33:30Z</time>
      </trkpt>
      <trkpt lat="49.32874" lon="0.86193">
        <ele>88.3</ele>
        <time>2016-10-09T06:33:33Z</time>
      </trkpt>
      <trkpt lat="49.32884" lon="0.86191">
        <ele>88.3</ele>
        <time>2016-10-09T06:33:36Z</time>
      </trkpt>
      <trkpt lat="49.32888" lon="0.86204">
        <ele>88.2</ele>
        <time>2016-10-09T06:33:40Z</time>
      </trkpt>
      <trkpt lat="49.3289" lon="0.8622">
        <ele>88.2</ele>
        <time>2016-10-09T06:33:45Z</time>
      </trkpt>
      <trkpt lat="49.32901" lon="0.86222">
        <ele>88.2</ele>
        <time>2016-10-09T06:33:49Z</time>
      </trkpt>
      <trkpt lat="49.32912" lon="0.86221">
        <ele>88.2</ele>
        <time>2016-10-09T06:33:52Z</time>
      </trkpt>
      <trkpt lat="49.32921" lon="0.86222">
        <ele>88.2</ele>
        <time>2016-10-09T06:33:55Z</time>
      </trkpt>
      <trkpt lat="49.3293" lon="0.86226">
        <ele>88.1</ele>
        <time>2016-10-09T06:33:59Z</time>
      </trkpt>
      <trkpt lat="49.32941" lon="0.86228">
        <ele>88</ele>
        <time>2016-10-09T06:34:03Z</time>
      </trkpt>
      <trkpt lat="49.3295" lon="0.8623">
        <ele>87.8</ele>
        <time>2016-10-09T06:34:05Z</time>
      </trkpt>
      <trkpt lat="49.32961" lon="0.86226">
        <ele>87.6</ele>
        <time>2016-10-09T06:34:08Z</time>
      </trkpt>
      <trkpt lat="49.3297" lon="0.86226">
        <ele>87.5</ele>
        <time>2016-10-09T06:34:10Z</time>
      </trkpt>
      <trkpt lat="49.3298" lon="0.86223">
        <ele>87.4</ele>
        <time>2016-10-09T06:34:13Z</time>
      </trkpt>
      <trkpt lat="49.32991" lon="0.86222">
        <ele>87.5</ele>
        <time>2016-10-09T06:34:17Z</time>
      </trkpt>
      <trkpt lat="49.33003" lon="0.86221">
        <ele>87.7</ele>
        <time>2016-10-09T06:34:20Z</time>
      </trkpt>
      <trkpt lat="49.33014" lon="0.8622">
        <ele>88</ele>
        <time>2016-10-09T06:34:23Z</time>
      </trkpt>
      <trkpt lat="49.33025" lon="0.86219">
        <ele>88.4</ele>
        <time>2016-10-09T06:34:26Z</time>
      </trkpt>
      <trkpt lat="49.33038" lon="0.86217">
        <ele>89.1</ele>
        <time>2016-10-09T06:34:30Z</time>
      </trkpt>
      <trkpt lat="49.33049" lon="0.86214">
        <ele>89.6</ele>
        <time>2016-10-09T06:34:33Z</time>
      </trkpt>
      <trkpt lat="49.33059" lon="0.86212">
        <ele>90.2</ele>
        <time>2016-10-09T06:34:36Z</time>
      </trkpt>
      <trkpt lat="49.3307" lon="0.86211">
        <ele>90.7</ele>
        <time>2016-10-09T06:34:39Z</time>
      </trkpt>
      <trkpt lat="49.3308" lon="0.8621">
        <ele>91.2</ele>
        <time>2016-10-09T06:34:42Z</time>
      </trkpt>
      <trkpt lat="49.33091" lon="0.86208">
        <ele>91.7</ele>
        <time>2016-10-09T06:34:45Z</time>
      </trkpt>
      <trkpt lat="49.331" lon="0.86207">
        <ele>92</ele>
        <time>2016-10-09T06:34:48Z</time>
      </trkpt>
      <trkpt lat="49.3311" lon="0.86204">
        <ele>92.3</ele>
        <time>2016-10-09T06:34:51Z</time>
      </trkpt>
      <trkpt lat="49.33124" lon="0.86202">
        <ele>92.3</ele>
        <time>2016-10-09T06:34:54Z</time>
      </trkpt>
      <trkpt lat="49.33133" lon="0.862">
        <ele>92</ele>
        <time>2016-10-09T06:34:56Z</time>
      </trkpt>
      <trkpt lat="49.33145" lon="0.86193">
        <ele>91.1</ele>
        <time>2016-10-09T06:34:59Z</time>
      </trkpt>
      <trkpt lat="49.33157" lon="0.86185">
        <ele>90.1</ele>
        <time>2016-10-09T06:35:02Z</time>
      </trkpt>
      <trkpt lat="49.33168" lon="0.86175">
        <ele>89.3</ele>
        <time>2016-10-09T06:35:05Z</time>
      </trkpt>
      <trkpt lat="49.33178" lon="0.86162">
        <ele>88.5</ele>
        <time>2016-10-09T06:35:08Z</time>
      </trkpt>
      <trkpt lat="49.33186" lon="0.86147">
        <ele>87.8</ele>
        <time>2016-10-09T06:35:11Z</time>
      </trkpt>
      <trkpt lat="49.33191" lon="0.86133">
        <ele>87.3</ele>
        <time>2016-10-09T06:35:14Z</time>
      </trkpt>
      <trkpt lat="49.33196" lon="0.86118">
        <ele>86.9</ele>
        <time>2016-10-09T06:35:17Z</time>
      </trkpt>
      <trkpt lat="49.33198" lon="0.86101">
        <ele>86.6</ele>
        <time>2016-10-09T06:35:20Z</time>
      </trkpt>
      <trkpt lat="49.33199" lon="0.86084">
        <ele>86.3</ele>
        <time>2016-10-09T06:35:23Z</time>
      </trkpt>
      <trkpt lat="49.33202" lon="0.86065">
        <ele>86.1</ele>
        <time>2016-10-09T06:35:26Z</time>
      </trkpt>
      <trkpt lat="49.33206" lon="0.86045">
        <ele>86</ele>
        <time>2016-10-09T06:35:29Z</time>
      </trkpt>
      <trkpt lat="49.33208" lon="0.86028">
        <ele>86</ele>
        <time>2016-10-09T06:35:32Z</time>
      </trkpt>
      <trkpt lat="49.33208" lon="0.86011">
        <ele>86.1</ele>
        <time>2016-10-09T06:35:35Z</time>
      </trkpt>
      <trkpt lat="49.33209" lon="0.85996">
        <ele>86.1</ele>
        <time>2016-10-09T06:35:38Z</time>
      </trkpt>
      <trkpt lat="49.33211" lon="0.85975">
        <ele>86.3</ele>
        <time>2016-10-09T06:35:41Z</time>
      </trkpt>
      <trkpt lat="49.33212" lon="0.85958">
        <ele>86.4</ele>
        <time>2016-10-09T06:35:44Z</time>
      </trkpt>
      <trkpt lat="49.33215" lon="0.85945">
        <ele>86.5</ele>
        <time>2016-10-09T06:35:46Z</time>
      </trkpt>
      <trkpt lat="49.33218" lon="0.85926">
        <ele>86.6</ele>
        <time>2016-10-09T06:35:49Z</time>
      </trkpt>
      <trkpt lat="49.33217" lon="0.85904">
        <ele>86.8</ele>
        <time>2016-10-09T06:35:52Z</time>
      </trkpt>
      <trkpt lat="49.33215" lon="0.8589">
        <ele>86.9</ele>
        <time>2016-10-09T06:35:54Z</time>
      </trkpt>
      <trkpt lat="49.33217" lon="0.85874">
        <ele>87</ele>
        <time>2016-10-09T06:35:57Z</time>
      </trkpt>
      <trkpt lat="49.33214" lon="0.85856">
        <ele>87.1</ele>
        <time>2016-10-09T06:36:00Z</time>
      </trkpt>
      <trkpt lat="49.33209" lon="0.85839">
        <ele>87.3</ele>
        <time>2016-10-09T06:36:03Z</time>
      </trkpt>
      <trkpt lat="49.33207" lon="0.85824">
        <ele>87.4</ele>
        <time>2016-10-09T06:36:06Z</time>
      </trkpt>
      <trkpt lat="49.33207" lon="0.85808">
        <ele>87.5</ele>
        <time>2016-10-09T06:36:10Z</time>
      </trkpt>
      <trkpt lat="49.33209" lon="0.85791">
        <ele>87.5</ele>
        <time>2016-10-09T06:36:14Z</time>
      </trkpt>
      <trkpt lat="49.33207" lon="0.85776">
        <ele>87.6</ele>
        <time>2016-10-09T06:36:17Z</time>
      </trkpt>
      <trkpt lat="49.33207" lon="0.85762">
        <ele>87.6</ele>
        <time>2016-10-09T06:36:21Z</time>
      </trkpt>
      <trkpt lat="49.33202" lon="0.85748">
        <ele>87.7</ele>
        <time>2016-10-09T06:36:25Z</time>
      </trkpt>
      <trkpt lat="49.33196" lon="0.85736">
        <ele>87.7</ele>
        <time>2016-10-09T06:36:28Z</time>
      </trkpt>
      <trkpt lat="49.33189" lon="0.85724">
        <ele>87.7</ele>
        <time>2016-10-09T06:36:32Z</time>
      </trkpt>
      <trkpt lat="49.33179" lon="0.85717">
        <ele>87.8</ele>
        <time>2016-10-09T06:36:36Z</time>
      </trkpt>
      <trkpt lat="49.33174" lon="0.85704">
        <ele>87.8</ele>
        <time>2016-10-09T06:36:40Z</time>
      </trkpt>
      <trkpt lat="49.33169" lon="0.85689">
        <ele>87.8</ele>
        <time>2016-10-09T06:36:45Z</time>
      </trkpt>
      <trkpt lat="49.33168" lon="0.85671">
        <ele>87.8</ele>
        <time>2016-10-09T06:36:49Z</time>
      </trkpt>
      <trkpt lat="49.33162" lon="0.85659">
        <ele>87.8</ele>
        <time>2016-10-09T06:36:52Z</time>
      </trkpt>
      <trkpt lat="49.33163" lon="0.8564">
        <ele>87.8</ele>
        <time>2016-10-09T06:36:56Z</time>
      </trkpt>
      <trkpt lat="49.3316" lon="0.85624">
        <ele>87.8</ele>
        <time>2016-10-09T06:36:59Z</time>
      </trkpt>
      <trkpt lat="49.33158" lon="0.85602">
        <ele>87.8</ele>
        <time>2016-10-09T06:37:02Z</time>
      </trkpt>
      <trkpt lat="49.33157" lon="0.85583">
        <ele>87.8</ele>
        <time>2016-10-09T06:37:05Z</time>
      </trkpt>
      <trkpt lat="49.33158" lon="0.85564">
        <ele>87.7</ele>
        <time>2016-10-09T06:37:08Z</time>
      </trkpt>
      <trkpt lat="49.33159" lon="0.85549">
        <ele>87.7</ele>
        <time>2016-10-09T06:37:11Z</time>
      </trkpt>
      <trkpt lat="49.3316" lon="0.85533">
        <ele>87.7</ele>
        <time>2016-10-09T06:37:14Z</time>
      </trkpt>
      <trkpt lat="49.33159" lon="0.85518">
        <ele>87.7</ele>
        <time>2016-10-09T06:37:17Z</time>
      </trkpt>
      <trkpt lat="49.33158" lon="0.85502">
        <ele>87.9</ele>
        <time>2016-10-09T06:37:20Z</time>
      </trkpt>
      <trkpt lat="49.33155" lon="0.85488">
        <ele>88</ele>
        <time>2016-10-09T06:37:23Z</time>
      </trkpt>
      <trkpt lat="49.33151" lon="0.85473">
        <ele>88.2</ele>
        <time>2016-10-09T06:37:27Z</time>
      </trkpt>
      <trkpt lat="49.33146" lon="0.85458">
        <ele>88.5</ele>
        <time>2016-10-09T06:37:32Z</time>
      </trkpt>
      <trkpt lat="49.33144" lon="0.85444">
        <ele>88.8</ele>
        <time>2016-10-09T06:37:36Z</time>
      </trkpt>
      <trkpt lat="49.33139" lon="0.85431">
        <ele>89.2</ele>
        <time>2016-10-09T06:37:41Z</time>
      </trkpt>
      <trkpt lat="49.33128" lon="0.85434">
        <ele>89.8</ele>
        <time>2016-10-09T06:37:47Z</time>
      </trkpt>
      <trkpt lat="49.33119" lon="0.85444">
        <ele>90.2</ele>
        <time>2016-10-09T06:37:51Z</time>
      </trkpt>
      <trkpt lat="49.33108" lon="0.85454">
        <ele>90.5</ele>
        <time>2016-10-09T06:37:54Z</time>
      </trkpt>
      <trkpt lat="49.331" lon="0.85461">
        <ele>90.7</ele>
        <time>2016-10-09T06:37:56Z</time>
      </trkpt>
      <trkpt lat="49.33092" lon="0.8547">
        <ele>90.8</ele>
        <time>2016-10-09T06:37:58Z</time>
      </trkpt>
      <trkpt lat="49.33081" lon="0.85477">
        <ele>91</ele>
        <time>2016-10-09T06:38:01Z</time>
      </trkpt>
      <trkpt lat="49.3307" lon="0.8547">
        <ele>91.3</ele>
        <time>2016-10-09T06:38:05Z</time>
      </trkpt>
      <trkpt lat="49.33059" lon="0.85462">
        <ele>91.5</ele>
        <time>2016-10-09T06:38:08Z</time>
      </trkpt>
      <trkpt lat="49.33049" lon="0.85454">
        <ele>91.9</ele>
        <time>2016-10-09T06:38:11Z</time>
      </trkpt>
      <trkpt lat="49.3304" lon="0.85451">
        <ele>92.2</ele>
        <time>2016-10-09T06:38:15Z</time>
      </trkpt>
      <trkpt lat="49.33029" lon="0.85452">
        <ele>92.6</ele>
        <time>2016-10-09T06:38:19Z</time>
      </trkpt>
      <trkpt lat="49.3302" lon="0.85455">
        <ele>92.9</ele>
        <time>2016-10-09T06:38:22Z</time>
      </trkpt>
      <trkpt lat="49.3301" lon="0.85456">
        <ele>93.4</ele>
        <time>2016-10-09T06:38:26Z</time>
      </trkpt>
      <trkpt lat="49.33" lon="0.85454">
        <ele>93.9</ele>
        <time>2016-10-09T06:38:31Z</time>
      </trkpt>
      <trkpt lat="49.32989" lon="0.8545">
        <ele>94.3</ele>
        <time>2016-10-09T06:38:35Z</time>
      </trkpt>
      <trkpt lat="49.32977" lon="0.8545">
        <ele>94.6</ele>
        <time>2016-10-09T06:38:39Z</time>
      </trkpt>
      <trkpt lat="49.32967" lon="0.85452">
        <ele>95</ele>
        <time>2016-10-09T06:38:42Z</time>
      </trkpt>
      <trkpt lat="49.32956" lon="0.85449">
        <ele>95.5</ele>
        <time>2016-10-09T06:38:46Z</time>
      </trkpt>
      <trkpt lat="49.32945" lon="0.85443">
        <ele>96</ele>
        <time>2016-10-09T06:38:50Z</time>
      </trkpt>
      <trkpt lat="49.32937" lon="0.85437">
        <ele>96.4</ele>
        <time>2016-10-09T06:38:54Z</time>
      </trkpt>
      <trkpt lat="49.32925" lon="0.85432">
        <ele>96.8</ele>
        <time>2016-10-09T06:38:58Z</time>
      </trkpt>
      <trkpt lat="49.32914" lon="0.85426">
        <ele>97.1</ele>
        <time>2016-10-09T06:39:01Z</time>
      </trkpt>
      <trkpt lat="49.32906" lon="0.85422">
        <ele>97.3</ele>
        <time>2016-10-09T06:39:04Z</time>
      </trkpt>
      <trkpt lat="49.32896" lon="0.85421">
        <ele>98</ele>
        <time>2016-10-09T06:39:09Z</time>
      </trkpt>
      <trkpt lat="49.32886" lon="0.8542">
        <ele>98.7</ele>
        <time>2016-10-09T06:39:16Z</time>
      </trkpt>
      <trkpt lat="49.32877" lon="0.85419">
        <ele>99</ele>
        <time>2016-10-09T06:39:21Z</time>
      </trkpt>
      <trkpt lat="49.32868" lon="0.8541">
        <ele>99.5</ele>
        <time>2016-10-09T06:39:27Z</time>
      </trkpt>
      <trkpt lat="49.32862" lon="0.85398">
        <ele>100.4</ele>
        <time>2016-10-09T06:39:33Z</time>
      </trkpt>
      <trkpt lat="49.32855" lon="0.85388">
        <ele>101.3</ele>
        <time>2016-10-09T06:39:37Z</time>
      </trkpt>
      <trkpt lat="49.32852" lon="0.85374">
        <ele>102.5</ele>
        <time>2016-10-09T06:39:42Z</time>
      </trkpt>
      <trkpt lat="49.32855" lon="0.8536">
        <ele>103.7</ele>
        <time>2016-10-09T06:39:48Z</time>
      </trkpt>
      <trkpt lat="49.32858" lon="0.85345">
        <ele>104.5</ele>
        <time>2016-10-09T06:39:54Z</time>
      </trkpt>
      <trkpt lat="49.32857" lon="0.85328">
        <ele>105</ele>
        <time>2016-10-09T06:39:59Z</time>
      </trkpt>
      <trkpt lat="49.32858" lon="0.85312">
        <ele>105.3</ele>
        <time>2016-10-09T06:40:03Z</time>
      </trkpt>
      <trkpt lat="49.32863" lon="0.853">
        <ele>105.5</ele>
        <time>2016-10-09T06:40:06Z</time>
      </trkpt>
      <trkpt lat="49.32873" lon="0.8529">
        <ele>105.8</ele>
        <time>2016-10-09T06:40:10Z</time>
      </trkpt>
      <trkpt lat="49.3288" lon="0.85275">
        <ele>106</ele>
        <time>2016-10-09T06:40:14Z</time>
      </trkpt>
      <trkpt lat="49.3289" lon="0.85265">
        <ele>106</ele>
        <time>2016-10-09T06:40:17Z</time>
      </trkpt>
      <trkpt lat="49.32897" lon="0.85257">
        <ele>106</ele>
        <time>2016-10-09T06:40:19Z</time>
      </trkpt>
      <trkpt lat="49.32904" lon="0.85241">
        <ele>105.9</ele>
        <time>2016-10-09T06:40:22Z</time>
      </trkpt>
      <trkpt lat="49.32915" lon="0.85231">
        <ele>105.8</ele>
        <time>2016-10-09T06:40:26Z</time>
      </trkpt>
      <trkpt lat="49.32925" lon="0.85222">
        <ele>105.5</ele>
        <time>2016-10-09T06:40:29Z</time>
      </trkpt>
      <trkpt lat="49.32932" lon="0.85209">
        <ele>105.2</ele>
        <time>2016-10-09T06:40:32Z</time>
      </trkpt>
      <trkpt lat="49.32939" lon="0.85199">
        <ele>104.9</ele>
        <time>2016-10-09T06:40:35Z</time>
      </trkpt>
      <trkpt lat="49.3295" lon="0.85202">
        <ele>104.5</ele>
        <time>2016-10-09T06:40:39Z</time>
      </trkpt>
      <trkpt lat="49.32958" lon="0.85213">
        <ele>104.3</ele>
        <time>2016-10-09T06:40:42Z</time>
      </trkpt>
      <trkpt lat="49.32968" lon="0.8522">
        <ele>104</ele>
        <time>2016-10-09T06:40:44Z</time>
      </trkpt>
      <trkpt lat="49.32979" lon="0.85223">
        <ele>103.6</ele>
        <time>2016-10-09T06:40:46Z</time>
      </trkpt>
      <trkpt lat="49.32988" lon="0.85222">
        <ele>103.2</ele>
        <time>2016-10-09T06:40:48Z</time>
      </trkpt>
      <trkpt lat="49.33002" lon="0.85223">
        <ele>102.8</ele>
        <time>2016-10-09T06:40:50Z</time>
      </trkpt>
      <trkpt lat="49.33015" lon="0.85227">
        <ele>102.3</ele>
        <time>2016-10-09T06:40:52Z</time>
      </trkpt>
      <trkpt lat="49.33029" lon="0.85229">
        <ele>101.9</ele>
        <time>2016-10-09T06:40:54Z</time>
      </trkpt>
      <trkpt lat="49.33043" lon="0.85234">
        <ele>101.3</ele>
        <time>2016-10-09T06:40:56Z</time>
      </trkpt>
      <trkpt lat="49.33052" lon="0.85236">
        <ele>101.1</ele>
        <time>2016-10-09T06:40:57Z</time>
      </trkpt>
      <trkpt lat="49.33068" lon="0.85247">
        <ele>100.5</ele>
        <time>2016-10-09T06:40:59Z</time>
      </trkpt>
      <trkpt lat="49.33077" lon="0.85252">
        <ele>100.2</ele>
        <time>2016-10-09T06:41:00Z</time>
      </trkpt>
      <trkpt lat="49.33089" lon="0.8526">
        <ele>99.5</ele>
        <time>2016-10-09T06:41:02Z</time>
      </trkpt>
      <trkpt lat="49.33101" lon="0.85265">
        <ele>98.7</ele>
        <time>2016-10-09T06:41:04Z</time>
      </trkpt>
      <trkpt lat="49.33115" lon="0.85268">
        <ele>98</ele>
        <time>2016-10-09T06:41:06Z</time>
      </trkpt>
      <trkpt lat="49.33129" lon="0.85264">
        <ele>97.4</ele>
        <time>2016-10-09T06:41:08Z</time>
      </trkpt>
      <trkpt lat="49.33142" lon="0.85262">
        <ele>96.8</ele>
        <time>2016-10-09T06:41:10Z</time>
      </trkpt>
      <trkpt lat="49.33155" lon="0.8526">
        <ele>96.2</ele>
        <time>2016-10-09T06:41:12Z</time>
      </trkpt>
      <trkpt lat="49.33164" lon="0.85258">
        <ele>95.6</ele>
        <time>2016-10-09T06:41:14Z</time>
      </trkpt>
      <trkpt lat="49.33179" lon="0.85257">
        <ele>94.9</ele>
        <time>2016-10-09T06:41:17Z</time>
      </trkpt>
      <trkpt lat="49.3319" lon="0.85259">
        <ele>94.3</ele>
        <time>2016-10-09T06:41:20Z</time>
      </trkpt>
      <trkpt lat="49.33202" lon="0.85258">
        <ele>93.9</ele>
        <time>2016-10-09T06:41:24Z</time>
      </trkpt>
      <trkpt lat="49.33212" lon="0.85256">
        <ele>93.9</ele>
        <time>2016-10-09T06:41:27Z</time>
      </trkpt>
      <trkpt lat="49.33221" lon="0.85256">
        <ele>93.9</ele>
        <time>2016-10-09T06:41:29Z</time>
      </trkpt>
      <trkpt lat="49.33231" lon="0.85254">
        <ele>94</ele>
        <time>2016-10-09T06:41:32Z</time>
      </trkpt>
      <trkpt lat="49.33244" lon="0.85255">
        <ele>94.1</ele>
        <time>2016-10-09T06:41:35Z</time>
      </trkpt>
      <trkpt lat="49.33256" lon="0.85256">
        <ele>94.2</ele>
        <time>2016-10-09T06:41:38Z</time>
      </trkpt>
      <trkpt lat="49.33268" lon="0.85255">
        <ele>94.6</ele>
        <time>2016-10-09T06:41:42Z</time>
      </trkpt>
      <trkpt lat="49.33279" lon="0.85253">
        <ele>94.8</ele>
        <time>2016-10-09T06:41:45Z</time>
      </trkpt>
      <trkpt lat="49.33289" lon="0.85251">
        <ele>95.1</ele>
        <time>2016-10-09T06:41:48Z</time>
      </trkpt>
      <trkpt lat="49.333" lon="0.85248">
        <ele>95.4</ele>
        <time>2016-10-09T06:41:51Z</time>
      </trkpt>
      <trkpt lat="49.33309" lon="0.85243">
        <ele>95.6</ele>
        <time>2016-10-09T06:41:54Z</time>
      </trkpt>
      <trkpt lat="49.33318" lon="0.85237">
        <ele>95.9</ele>
        <time>2016-10-09T06:41:57Z</time>
      </trkpt>
      <trkpt lat="49.33326" lon="0.85229">
        <ele>96.4</ele>
        <time>2016-10-09T06:42:01Z</time>
      </trkpt>
      <trkpt lat="49.33333" lon="0.8522">
        <ele>96.9</ele>
        <time>2016-10-09T06:42:05Z</time>
      </trkpt>
      <trkpt lat="49.33342" lon="0.85212">
        <ele>97.4</ele>
        <time>2016-10-09T06:42:09Z</time>
      </trkpt>
      <trkpt lat="49.3335" lon="0.85205">
        <ele>98</ele>
        <time>2016-10-09T06:42:15Z</time>
      </trkpt>
      <trkpt lat="49.33361" lon="0.85195">
        <ele>98.5</ele>
        <time>2016-10-09T06:42:19Z</time>
      </trkpt>
      <trkpt lat="49.3337" lon="0.85182">
        <ele>98.7</ele>
        <time>2016-10-09T06:42:22Z</time>
      </trkpt>
      <trkpt lat="49.33378" lon="0.85167">
        <ele>98.9</ele>
        <time>2016-10-09T06:42:25Z</time>
      </trkpt>
      <trkpt lat="49.33387" lon="0.85154">
        <ele>99.3</ele>
        <time>2016-10-09T06:42:28Z</time>
      </trkpt>
      <trkpt lat="49.33393" lon="0.85145">
        <ele>99.7</ele>
        <time>2016-10-09T06:42:32Z</time>
      </trkpt>
      <trkpt lat="49.33401" lon="0.85132">
        <ele>100.1</ele>
        <time>2016-10-09T06:42:36Z</time>
      </trkpt>
      <trkpt lat="49.33411" lon="0.85122">
        <ele>100.6</ele>
        <time>2016-10-09T06:42:41Z</time>
      </trkpt>
      <trkpt lat="49.33419" lon="0.85114">
        <ele>101.3</ele>
        <time>2016-10-09T06:42:45Z</time>
      </trkpt>
      <trkpt lat="49.33426" lon="0.85103">
        <ele>101.8</ele>
        <time>2016-10-09T06:42:48Z</time>
      </trkpt>
      <trkpt lat="49.33434" lon="0.85092">
        <ele>102.4</ele>
        <time>2016-10-09T06:42:52Z</time>
      </trkpt>
      <trkpt lat="49.33442" lon="0.85079">
        <ele>102.9</ele>
        <time>2016-10-09T06:42:56Z</time>
      </trkpt>
      <trkpt lat="49.33449" lon="0.85068">
        <ele>103.6</ele>
        <time>2016-10-09T06:43:01Z</time>
      </trkpt>
      <trkpt lat="49.33457" lon="0.85058">
        <ele>104.1</ele>
        <time>2016-10-09T06:43:05Z</time>
      </trkpt>
      <trkpt lat="49.33462" lon="0.85043">
        <ele>104.6</ele>
        <time>2016-10-09T06:43:09Z</time>
      </trkpt>
      <trkpt lat="49.33465" lon="0.85025">
        <ele>105.1</ele>
        <time>2016-10-09T06:43:13Z</time>
      </trkpt>
      <trkpt lat="49.33471" lon="0.8501">
        <ele>105.4</ele>
        <time>2016-10-09T06:43:16Z</time>
      </trkpt>
      <trkpt lat="49.33478" lon="0.84998">
        <ele>105.6</ele>
        <time>2016-10-09T06:43:19Z</time>
      </trkpt>
      <trkpt lat="49.33486" lon="0.84986">
        <ele>105.8</ele>
        <time>2016-10-09T06:43:22Z</time>
      </trkpt>
      <trkpt lat="49.33492" lon="0.84977">
        <ele>106</ele>
        <time>2016-10-09T06:43:25Z</time>
      </trkpt>
      <trkpt lat="49.33501" lon="0.84966">
        <ele>106.5</ele>
        <time>2016-10-09T06:43:29Z</time>
      </trkpt>
      <trkpt lat="49.33509" lon="0.84953">
        <ele>106.9</ele>
        <time>2016-10-09T06:43:33Z</time>
      </trkpt>
      <trkpt lat="49.33515" lon="0.84939">
        <ele>107.3</ele>
        <time>2016-10-09T06:43:37Z</time>
      </trkpt>
      <trkpt lat="49.33521" lon="0.84923">
        <ele>107.7</ele>
        <time>2016-10-09T06:43:41Z</time>
      </trkpt>
      <trkpt lat="49.33529" lon="0.84909">
        <ele>107.9</ele>
        <time>2016-10-09T06:43:44Z</time>
      </trkpt>
      <trkpt lat="49.33536" lon="0.84899">
        <ele>108.1</ele>
        <time>2016-10-09T06:43:47Z</time>
      </trkpt>
      <trkpt lat="49.33546" lon="0.8489">
        <ele>108.3</ele>
        <time>2016-10-09T06:43:50Z</time>
      </trkpt>
      <trkpt lat="49.33555" lon="0.84876">
        <ele>108.4</ele>
        <time>2016-10-09T06:43:53Z</time>
      </trkpt>
      <trkpt lat="49.33563" lon="0.84867">
        <ele>108.5</ele>
        <time>2016-10-09T06:43:56Z</time>
      </trkpt>
      <trkpt lat="49.3357" lon="0.84859">
        <ele>108.6</ele>
        <time>2016-10-09T06:44:00Z</time>
      </trkpt>
      <trkpt lat="49.33577" lon="0.84847">
        <ele>108.7</ele>
        <time>2016-10-09T06:44:05Z</time>
      </trkpt>
      <trkpt lat="49.33587" lon="0.84839">
        <ele>108.8</ele>
        <time>2016-10-09T06:44:10Z</time>
      </trkpt>
      <trkpt lat="49.33598" lon="0.84837">
        <ele>109</ele>
        <time>2016-10-09T06:44:17Z</time>
      </trkpt>
      <trkpt lat="49.33607" lon="0.84849">
        <ele>109.1</ele>
        <time>2016-10-09T06:44:21Z</time>
      </trkpt>
      <trkpt lat="49.33614" lon="0.84862">
        <ele>109.2</ele>
        <time>2016-10-09T06:44:24Z</time>
      </trkpt>
      <trkpt lat="49.3362" lon="0.84873">
        <ele>109.2</ele>
        <time>2016-10-09T06:44:27Z</time>
      </trkpt>
      <trkpt lat="49.33624" lon="0.84887">
        <ele>109.3</ele>
        <time>2016-10-09T06:44:31Z</time>
      </trkpt>
      <trkpt lat="49.33624" lon="0.84902">
        <ele>109.4</ele>
        <time>2016-10-09T06:44:35Z</time>
      </trkpt>
      <trkpt lat="49.33623" lon="0.84916">
        <ele>109.7</ele>
        <time>2016-10-09T06:44:40Z</time>
      </trkpt>
      <trkpt lat="49.33621" lon="0.8493">
        <ele>110</ele>
        <time>2016-10-09T06:44:44Z</time>
      </trkpt>
      <trkpt lat="49.33619" lon="0.84947">
        <ele>110.4</ele>
        <time>2016-10-09T06:44:48Z</time>
      </trkpt>
      <trkpt lat="49.33616" lon="0.8496">
        <ele>110.8</ele>
        <time>2016-10-09T06:44:52Z</time>
      </trkpt>
      <trkpt lat="49.33614" lon="0.84976">
        <ele>111.3</ele>
        <time>2016-10-09T06:44:56Z</time>
      </trkpt>
      <trkpt lat="49.33613" lon="0.8499">
        <ele>111.7</ele>
        <time>2016-10-09T06:44:59Z</time>
      </trkpt>
      <trkpt lat="49.33611" lon="0.85004">
        <ele>112.2</ele>
        <time>2016-10-09T06:45:02Z</time>
      </trkpt>
      <trkpt lat="49.33609" lon="0.85018">
        <ele>112.6</ele>
        <time>2016-10-09T06:45:05Z</time>
      </trkpt>
      <trkpt lat="49.33608" lon="0.85034">
        <ele>112.9</ele>
        <time>2016-10-09T06:45:08Z</time>
      </trkpt>
      <trkpt lat="49.33607" lon="0.85051">
        <ele>113.3</ele>
        <time>2016-10-09T06:45:11Z</time>
      </trkpt>
      <trkpt lat="49.33604" lon="0.85071">
        <ele>113.7</ele>
        <time>2016-10-09T06:45:14Z</time>
      </trkpt>
      <trkpt lat="49.33603" lon="0.8509">
        <ele>114</ele>
        <time>2016-10-09T06:45:17Z</time>
      </trkpt>
      <trkpt lat="49.33601" lon="0.85108">
        <ele>114.4</ele>
        <time>2016-10-09T06:45:20Z</time>
      </trkpt>
      <trkpt lat="49.336" lon="0.85127">
        <ele>114.8</ele>
        <time>2016-10-09T06:45:23Z</time>
      </trkpt>
      <trkpt lat="49.33599" lon="0.85146">
        <ele>115.3</ele>
        <time>2016-10-09T06:45:26Z</time>
      </trkpt>
      <trkpt lat="49.33597" lon="0.85165">
        <ele>115.8</ele>
        <time>2016-10-09T06:45:29Z</time>
      </trkpt>
      <trkpt lat="49.33595" lon="0.85183">
        <ele>116.2</ele>
        <time>2016-10-09T06:45:32Z</time>
      </trkpt>
      <trkpt lat="49.33591" lon="0.85197">
        <ele>116.5</ele>
        <time>2016-10-09T06:45:34Z</time>
      </trkpt>
      <trkpt lat="49.33588" lon="0.85211">
        <ele>116.7</ele>
        <time>2016-10-09T06:45:36Z</time>
      </trkpt>
      <trkpt lat="49.33585" lon="0.85229">
        <ele>117</ele>
        <time>2016-10-09T06:45:39Z</time>
      </trkpt>
      <trkpt lat="49.33583" lon="0.85245">
        <ele>117.1</ele>
        <time>2016-10-09T06:45:41Z</time>
      </trkpt>
      <trkpt lat="49.3358" lon="0.85262">
        <ele>117.3</ele>
        <time>2016-10-09T06:45:43Z</time>
      </trkpt>
      <trkpt lat="49.33577" lon="0.85279">
        <ele>117.5</ele>
        <time>2016-10-09T06:45:45Z</time>
      </trkpt>
      <trkpt lat="49.33576" lon="0.85295">
        <ele>117.7</ele>
        <time>2016-10-09T06:45:47Z</time>
      </trkpt>
      <trkpt lat="49.33575" lon="0.85312">
        <ele>117.8</ele>
        <time>2016-10-09T06:45:49Z</time>
      </trkpt>
      <trkpt lat="49.33574" lon="0.85327">
        <ele>118</ele>
        <time>2016-10-09T06:45:51Z</time>
      </trkpt>
      <trkpt lat="49.3357" lon="0.85344">
        <ele>118.1</ele>
        <time>2016-10-09T06:45:53Z</time>
      </trkpt>
      <trkpt lat="49.33566" lon="0.85359">
        <ele>118.2</ele>
        <time>2016-10-09T06:45:55Z</time>
      </trkpt>
      <trkpt lat="49.33564" lon="0.85375">
        <ele>118.3</ele>
        <time>2016-10-09T06:45:57Z</time>
      </trkpt>
      <trkpt lat="49.33562" lon="0.85393">
        <ele>118.3</ele>
        <time>2016-10-09T06:45:59Z</time>
      </trkpt>
      <trkpt lat="49.3356" lon="0.85407">
        <ele>118.4</ele>
        <time>2016-10-09T06:46:01Z</time>
      </trkpt>
      <trkpt lat="49.33556" lon="0.85421">
        <ele>118.4</ele>
        <time>2016-10-09T06:46:03Z</time>
      </trkpt>
      <trkpt lat="49.33555" lon="0.85435">
        <ele>118.5</ele>
        <time>2016-10-09T06:46:05Z</time>
      </trkpt>
      <trkpt lat="49.33555" lon="0.85456">
        <ele>118.5</ele>
        <time>2016-10-09T06:46:07Z</time>
      </trkpt>
      <trkpt lat="49.33554" lon="0.85472">
        <ele>118.5</ele>
        <time>2016-10-09T06:46:09Z</time>
      </trkpt>
      <trkpt lat="49.3355" lon="0.85487">
        <ele>118.5</ele>
        <time>2016-10-09T06:46:11Z</time>
      </trkpt>
      <trkpt lat="49.33545" lon="0.85504">
        <ele>118.5</ele>
        <time>2016-10-09T06:46:13Z</time>
      </trkpt>
      <trkpt lat="49.33543" lon="0.85518">
        <ele>118.5</ele>
        <time>2016-10-09T06:46:15Z</time>
      </trkpt>
      <trkpt lat="49.3354" lon="0.85532">
        <ele>118.6</ele>
        <time>2016-10-09T06:46:17Z</time>
      </trkpt>
      <trkpt lat="49.33538" lon="0.85548">
        <ele>118.6</ele>
        <time>2016-10-09T06:46:19Z</time>
      </trkpt>
      <trkpt lat="49.33534" lon="0.85566">
        <ele>118.6</ele>
        <time>2016-10-09T06:46:21Z</time>
      </trkpt>
      <trkpt lat="49.33534" lon="0.85582">
        <ele>118.7</ele>
        <time>2016-10-09T06:46:23Z</time>
      </trkpt>
      <trkpt lat="49.33534" lon="0.85598">
        <ele>118.7</ele>
        <time>2016-10-09T06:46:25Z</time>
      </trkpt>
      <trkpt lat="49.33532" lon="0.85618">
        <ele>118.8</ele>
        <time>2016-10-09T06:46:28Z</time>
      </trkpt>
      <trkpt lat="49.33533" lon="0.85633">
        <ele>118.8</ele>
        <time>2016-10-09T06:46:31Z</time>
      </trkpt>
      <trkpt lat="49.33537" lon="0.85647">
        <ele>118.9</ele>
        <time>2016-10-09T06:46:35Z</time>
      </trkpt>
      <trkpt lat="49.33545" lon="0.85655">
        <ele>118.9</ele>
        <time>2016-10-09T06:46:38Z</time>
      </trkpt>
      <trkpt lat="49.33554" lon="0.85659">
        <ele>118.9</ele>
        <time>2016-10-09T06:46:41Z</time>
      </trkpt>
      <trkpt lat="49.33565" lon="0.85663">
        <ele>119</ele>
        <time>2016-10-09T06:46:44Z</time>
      </trkpt>
      <trkpt lat="49.33575" lon="0.85669">
        <ele>119</ele>
        <time>2016-10-09T06:46:47Z</time>
      </trkpt>
      <trkpt lat="49.33586" lon="0.85673">
        <ele>119</ele>
        <time>2016-10-09T06:46:50Z</time>
      </trkpt>
      <trkpt lat="49.33598" lon="0.85678">
        <ele>119.2</ele>
        <time>2016-10-09T06:46:53Z</time>
      </trkpt>
      <trkpt lat="49.33608" lon="0.85681">
        <ele>119.3</ele>
        <time>2016-10-09T06:46:55Z</time>
      </trkpt>
      <trkpt lat="49.33617" lon="0.85686">
        <ele>119.5</ele>
        <time>2016-10-09T06:46:57Z</time>
      </trkpt>
      <trkpt lat="49.33628" lon="0.85691">
        <ele>119.7</ele>
        <time>2016-10-09T06:47:00Z</time>
      </trkpt>
      <trkpt lat="49.33637" lon="0.85695">
        <ele>119.9</ele>
        <time>2016-10-09T06:47:02Z</time>
      </trkpt>
      <trkpt lat="49.33647" lon="0.85697">
        <ele>120</ele>
        <time>2016-10-09T06:47:04Z</time>
      </trkpt>
      <trkpt lat="49.33657" lon="0.857">
        <ele>120.2</ele>
        <time>2016-10-09T06:47:06Z</time>
      </trkpt>
      <trkpt lat="49.33667" lon="0.85704">
        <ele>120.5</ele>
        <time>2016-10-09T06:47:09Z</time>
      </trkpt>
      <trkpt lat="49.33677" lon="0.85709">
        <ele>120.7</ele>
        <time>2016-10-09T06:47:12Z</time>
      </trkpt>
      <trkpt lat="49.33688" lon="0.85714">
        <ele>120.9</ele>
        <time>2016-10-09T06:47:15Z</time>
      </trkpt>
      <trkpt lat="49.33697" lon="0.85717">
        <ele>121.1</ele>
        <time>2016-10-09T06:47:17Z</time>
      </trkpt>
      <trkpt lat="49.3371" lon="0.8572">
        <ele>121.4</ele>
        <time>2016-10-09T06:47:20Z</time>
      </trkpt>
      <trkpt lat="49.33719" lon="0.85724">
        <ele>121.5</ele>
        <time>2016-10-09T06:47:22Z</time>
      </trkpt>
      <trkpt lat="49.33728" lon="0.85728">
        <ele>121.6</ele>
        <time>2016-10-09T06:47:24Z</time>
      </trkpt>
      <trkpt lat="49.33741" lon="0.85734">
        <ele>121.7</ele>
        <time>2016-10-09T06:47:27Z</time>
      </trkpt>
      <trkpt lat="49.3375" lon="0.85738">
        <ele>121.9</ele>
        <time>2016-10-09T06:47:29Z</time>
      </trkpt>
      <trkpt lat="49.33759" lon="0.85739">
        <ele>122.1</ele>
        <time>2016-10-09T06:47:31Z</time>
      </trkpt>
      <trkpt lat="49.33769" lon="0.85742">
        <ele>122.3</ele>
        <time>2016-10-09T06:47:33Z</time>
      </trkpt>
      <trkpt lat="49.33777" lon="0.85747">
        <ele>122.4</ele>
        <time>2016-10-09T06:47:35Z</time>
      </trkpt>
      <trkpt lat="49.33789" lon="0.85755">
        <ele>122.6</ele>
        <time>2016-10-09T06:47:38Z</time>
      </trkpt>
      <trkpt lat="49.33801" lon="0.85758">
        <ele>122.7</ele>
        <time>2016-10-09T06:47:41Z</time>
      </trkpt>
      <trkpt lat="49.3381" lon="0.85759">
        <ele>122.7</ele>
        <time>2016-10-09T06:47:43Z</time>
      </trkpt>
      <trkpt lat="49.33823" lon="0.85761">
        <ele>122.6</ele>
        <time>2016-10-09T06:47:46Z</time>
      </trkpt>
      <trkpt lat="49.33834" lon="0.85766">
        <ele>122.6</ele>
        <time>2016-10-09T06:47:49Z</time>
      </trkpt>
      <trkpt lat="49.33835" lon="0.85786">
        <ele>122.5</ele>
        <time>2016-10-09T06:47:53Z</time>
      </trkpt>
      <trkpt lat="49.33834" lon="0.858">
        <ele>122.5</ele>
        <time>2016-10-09T06:47:55Z</time>
      </trkpt>
      <trkpt lat="49.33832" lon="0.85816">
        <ele>122.5</ele>
        <time>2016-10-09T06:47:57Z</time>
      </trkpt>
      <trkpt lat="49.33831" lon="0.85834">
        <ele>122.4</ele>
        <time>2016-10-09T06:47:59Z</time>
      </trkpt>
      <trkpt lat="49.3383" lon="0.85853">
        <ele>122.4</ele>
        <time>2016-10-09T06:48:01Z</time>
      </trkpt>
      <trkpt lat="49.33829" lon="0.85873">
        <ele>122.4</ele>
        <time>2016-10-09T06:48:03Z</time>
      </trkpt>
      <trkpt lat="49.33826" lon="0.85895">
        <ele>122.3</ele>
        <time>2016-10-09T06:48:05Z</time>
      </trkpt>
      <trkpt lat="49.33824" lon="0.85917">
        <ele>122.3</ele>
        <time>2016-10-09T06:48:07Z</time>
      </trkpt>
      <trkpt lat="49.33819" lon="0.85938">
        <ele>122.3</ele>
        <time>2016-10-09T06:48:09Z</time>
      </trkpt>
      <trkpt lat="49.33813" lon="0.85957">
        <ele>122.2</ele>
        <time>2016-10-09T06:48:11Z</time>
      </trkpt>
      <trkpt lat="49.33807" lon="0.85977">
        <ele>122.2</ele>
        <time>2016-10-09T06:48:13Z</time>
      </trkpt>
      <trkpt lat="49.338" lon="0.85995">
        <ele>122.1</ele>
        <time>2016-10-09T06:48:15Z</time>
      </trkpt>
      <trkpt lat="49.33793" lon="0.86014">
        <ele>122</ele>
        <time>2016-10-09T06:48:17Z</time>
      </trkpt>
      <trkpt lat="49.33791" lon="0.86032">
        <ele>121.8</ele>
        <time>2016-10-09T06:48:19Z</time>
      </trkpt>
      <trkpt lat="49.33793" lon="0.86051">
        <ele>121.7</ele>
        <time>2016-10-09T06:48:21Z</time>
      </trkpt>
      <trkpt lat="49.338" lon="0.86066">
        <ele>121.5</ele>
        <time>2016-10-09T06:48:23Z</time>
      </trkpt>
      <trkpt lat="49.3381" lon="0.86073">
        <ele>121.4</ele>
        <time>2016-10-09T06:48:25Z</time>
      </trkpt>
      <trkpt lat="49.33821" lon="0.86072">
        <ele>121.3</ele>
        <time>2016-10-09T06:48:27Z</time>
      </trkpt>
      <trkpt lat="49.33834" lon="0.86071">
        <ele>121.2</ele>
        <time>2016-10-09T06:48:29Z</time>
      </trkpt>
      <trkpt lat="49.33846" lon="0.86068">
        <ele>121.1</ele>
        <time>2016-10-09T06:48:31Z</time>
      </trkpt>
      <trkpt lat="49.33856" lon="0.86065">
        <ele>120.9</ele>
        <time>2016-10-09T06:48:33Z</time>
      </trkpt>
      <trkpt lat="49.33866" lon="0.86063">
        <ele>120.8</ele>
        <time>2016-10-09T06:48:35Z</time>
      </trkpt>
      <trkpt lat="49.33876" lon="0.8606">
        <ele>120.6</ele>
        <time>2016-10-09T06:48:37Z</time>
      </trkpt>
      <trkpt lat="49.33889" lon="0.86056">
        <ele>120.4</ele>
        <time>2016-10-09T06:48:40Z</time>
      </trkpt>
      <trkpt lat="49.33899" lon="0.86054">
        <ele>120.2</ele>
        <time>2016-10-09T06:48:42Z</time>
      </trkpt>
      <trkpt lat="49.3391" lon="0.86054">
        <ele>120</ele>
        <time>2016-10-09T06:48:44Z</time>
      </trkpt>
      <trkpt lat="49.33923" lon="0.86051">
        <ele>119.8</ele>
        <time>2016-10-09T06:48:47Z</time>
      </trkpt>
      <trkpt lat="49.33933" lon="0.86048">
        <ele>119.6</ele>
        <time>2016-10-09T06:48:50Z</time>
      </trkpt>
      <trkpt lat="49.33943" lon="0.86046">
        <ele>119.5</ele>
        <time>2016-10-09T06:48:52Z</time>
      </trkpt>
      <trkpt lat="49.33953" lon="0.86046">
        <ele>119.5</ele>
        <time>2016-10-09T06:48:54Z</time>
      </trkpt>
      <trkpt lat="49.33967" lon="0.86045">
        <ele>119.3</ele>
        <time>2016-10-09T06:48:57Z</time>
      </trkpt>
      <trkpt lat="49.33977" lon="0.86044">
        <ele>119.2</ele>
        <time>2016-10-09T06:48:59Z</time>
      </trkpt>
      <trkpt lat="49.33986" lon="0.86042">
        <ele>119.1</ele>
        <time>2016-10-09T06:49:01Z</time>
      </trkpt>
      <trkpt lat="49.33996" lon="0.8604">
        <ele>119</ele>
        <time>2016-10-09T06:49:03Z</time>
      </trkpt>
      <trkpt lat="49.34006" lon="0.86045">
        <ele>118.8</ele>
        <time>2016-10-09T06:49:06Z</time>
      </trkpt>
      <trkpt lat="49.34015" lon="0.86052">
        <ele>118.7</ele>
        <time>2016-10-09T06:49:11Z</time>
      </trkpt>
      <trkpt lat="49.34024" lon="0.86058">
        <ele>118.6</ele>
        <time>2016-10-09T06:49:14Z</time>
      </trkpt>
      <trkpt lat="49.34036" lon="0.86063">
        <ele>118.4</ele>
        <time>2016-10-09T06:49:17Z</time>
      </trkpt>
      <trkpt lat="49.34045" lon="0.86068">
        <ele>118.3</ele>
        <time>2016-10-09T06:49:20Z</time>
      </trkpt>
      <trkpt lat="49.34055" lon="0.86072">
        <ele>118.1</ele>
        <time>2016-10-09T06:49:23Z</time>
      </trkpt>
      <trkpt lat="49.34065" lon="0.86078">
        <ele>118.1</ele>
        <time>2016-10-09T06:49:25Z</time>
      </trkpt>
      <trkpt lat="49.34074" lon="0.86079">
        <ele>117.9</ele>
        <time>2016-10-09T06:49:27Z</time>
      </trkpt>
      <trkpt lat="49.34086" lon="0.86082">
        <ele>117.7</ele>
        <time>2016-10-09T06:49:29Z</time>
      </trkpt>
      <trkpt lat="49.34096" lon="0.86085">
        <ele>117.6</ele>
        <time>2016-10-09T06:49:31Z</time>
      </trkpt>
      <trkpt lat="49.34105" lon="0.86088">
        <ele>117.4</ele>
        <time>2016-10-09T06:49:33Z</time>
      </trkpt>
      <trkpt lat="49.34118" lon="0.86093">
        <ele>117.2</ele>
        <time>2016-10-09T06:49:36Z</time>
      </trkpt>
      <trkpt lat="49.34128" lon="0.86096">
        <ele>117.1</ele>
        <time>2016-10-09T06:49:38Z</time>
      </trkpt>
      <trkpt lat="49.34141" lon="0.86103">
        <ele>117</ele>
        <time>2016-10-09T06:49:40Z</time>
      </trkpt>
      <trkpt lat="49.34152" lon="0.86107">
        <ele>116.7</ele>
        <time>2016-10-09T06:49:42Z</time>
      </trkpt>
      <trkpt lat="49.34161" lon="0.8611">
        <ele>116.3</ele>
        <time>2016-10-09T06:49:45Z</time>
      </trkpt>
      <trkpt lat="49.34171" lon="0.86113">
        <ele>116.1</ele>
        <time>2016-10-09T06:49:47Z</time>
      </trkpt>
      <trkpt lat="49.34182" lon="0.86118">
        <ele>115.9</ele>
        <time>2016-10-09T06:49:49Z</time>
      </trkpt>
      <trkpt lat="49.34194" lon="0.86123">
        <ele>115.7</ele>
        <time>2016-10-09T06:49:51Z</time>
      </trkpt>
      <trkpt lat="49.34206" lon="0.86128">
        <ele>115.4</ele>
        <time>2016-10-09T06:49:53Z</time>
      </trkpt>
      <trkpt lat="49.34217" lon="0.86131">
        <ele>115.3</ele>
        <time>2016-10-09T06:49:54Z</time>
      </trkpt>
      <trkpt lat="49.34226" lon="0.86134">
        <ele>115</ele>
        <time>2016-10-09T06:49:56Z</time>
      </trkpt>
      <trkpt lat="49.34237" lon="0.86136">
        <ele>114.4</ele>
        <time>2016-10-09T06:49:59Z</time>
      </trkpt>
      <trkpt lat="49.34248" lon="0.86142">
        <ele>113.8</ele>
        <time>2016-10-09T06:50:02Z</time>
      </trkpt>
      <trkpt lat="49.34256" lon="0.86149">
        <ele>113.4</ele>
        <time>2016-10-09T06:50:04Z</time>
      </trkpt>
      <trkpt lat="49.34268" lon="0.8615">
        <ele>113.1</ele>
        <time>2016-10-09T06:50:06Z</time>
      </trkpt>
      <trkpt lat="49.34283" lon="0.86157">
        <ele>112.6</ele>
        <time>2016-10-09T06:50:09Z</time>
      </trkpt>
      <trkpt lat="49.34291" lon="0.8616">
        <ele>112.1</ele>
        <time>2016-10-09T06:50:11Z</time>
      </trkpt>
      <trkpt lat="49.34299" lon="0.86166">
        <ele>111.5</ele>
        <time>2016-10-09T06:50:13Z</time>
      </trkpt>
      <trkpt lat="49.34309" lon="0.8617">
        <ele>110.9</ele>
        <time>2016-10-09T06:50:15Z</time>
      </trkpt>
      <trkpt lat="49.3432" lon="0.86172">
        <ele>109.3</ele>
        <time>2016-10-09T06:50:19Z</time>
      </trkpt>
      <trkpt lat="49.34332" lon="0.86174">
        <ele>107.9</ele>
        <time>2016-10-09T06:50:22Z</time>
      </trkpt>
      <trkpt lat="49.34341" lon="0.8618">
        <ele>106.8</ele>
        <time>2016-10-09T06:50:24Z</time>
      </trkpt>
      <trkpt lat="49.34354" lon="0.86184">
        <ele>105.9</ele>
        <time>2016-10-09T06:50:26Z</time>
      </trkpt>
      <trkpt lat="49.34364" lon="0.86193">
        <ele>104.7</ele>
        <time>2016-10-09T06:50:29Z</time>
      </trkpt>
      <trkpt lat="49.34374" lon="0.86198">
        <ele>103.7</ele>
        <time>2016-10-09T06:50:32Z</time>
      </trkpt>
      <trkpt lat="49.34384" lon="0.86201">
        <ele>103.1</ele>
        <time>2016-10-09T06:50:35Z</time>
      </trkpt>
      <trkpt lat="49.34389" lon="0.86215">
        <ele>102.6</ele>
        <time>2016-10-09T06:50:39Z</time>
      </trkpt>
      <trkpt lat="49.3439" lon="0.86229">
        <ele>102.5</ele>
        <time>2016-10-09T06:50:41Z</time>
      </trkpt>
      <trkpt lat="49.34389" lon="0.86253">
        <ele>101.8</ele>
        <time>2016-10-09T06:50:44Z</time>
      </trkpt>
      <trkpt lat="49.34387" lon="0.86272">
        <ele>101.2</ele>
        <time>2016-10-09T06:50:46Z</time>
      </trkpt>
      <trkpt lat="49.34384" lon="0.8629">
        <ele>100.6</ele>
        <time>2016-10-09T06:50:48Z</time>
      </trkpt>
      <trkpt lat="49.34384" lon="0.8631">
        <ele>100.2</ele>
        <time>2016-10-09T06:50:50Z</time>
      </trkpt>
      <trkpt lat="49.3438" lon="0.86328">
        <ele>99.6</ele>
        <time>2016-10-09T06:50:53Z</time>
      </trkpt>
      <trkpt lat="49.34378" lon="0.86346">
        <ele>98.9</ele>
        <time>2016-10-09T06:50:55Z</time>
      </trkpt>
      <trkpt lat="49.34376" lon="0.86366">
        <ele>98.3</ele>
        <time>2016-10-09T06:50:57Z</time>
      </trkpt>
      <trkpt lat="49.34369" lon="0.86383">
        <ele>97.6</ele>
        <time>2016-10-09T06:50:59Z</time>
      </trkpt>
      <trkpt lat="49.34367" lon="0.86399">
        <ele>96.9</ele>
        <time>2016-10-09T06:51:01Z</time>
      </trkpt>
      <trkpt lat="49.34367" lon="0.86413">
        <ele>96.4</ele>
        <time>2016-10-09T06:51:03Z</time>
      </trkpt>
      <trkpt lat="49.34363" lon="0.86428">
        <ele>96</ele>
        <time>2016-10-09T06:51:05Z</time>
      </trkpt>
      <trkpt lat="49.34358" lon="0.86443">
        <ele>95.3</ele>
        <time>2016-10-09T06:51:08Z</time>
      </trkpt>
      <trkpt lat="49.3435" lon="0.8645">
        <ele>94.8</ele>
        <time>2016-10-09T06:51:11Z</time>
      </trkpt>
      <trkpt lat="49.3434" lon="0.86455">
        <ele>94.2</ele>
        <time>2016-10-09T06:51:15Z</time>
      </trkpt>
      <trkpt lat="49.34328" lon="0.86459">
        <ele>93.7</ele>
        <time>2016-10-09T06:51:19Z</time>
      </trkpt>
      <trkpt lat="49.34317" lon="0.8646">
        <ele>93.4</ele>
        <time>2016-10-09T06:51:22Z</time>
      </trkpt>
      <trkpt lat="49.34307" lon="0.86458">
        <ele>93.1</ele>
        <time>2016-10-09T06:51:25Z</time>
      </trkpt>
      <trkpt lat="49.34302" lon="0.86475">
        <ele>92.8</ele>
        <time>2016-10-09T06:51:29Z</time>
      </trkpt>
      <trkpt lat="49.34296" lon="0.86486">
        <ele>92.6</ele>
        <time>2016-10-09T06:51:31Z</time>
      </trkpt>
      <trkpt lat="49.34285" lon="0.86501">
        <ele>92.3</ele>
        <time>2016-10-09T06:51:34Z</time>
      </trkpt>
      <trkpt lat="49.34276" lon="0.86514">
        <ele>92</ele>
        <time>2016-10-09T06:51:37Z</time>
      </trkpt>
      <trkpt lat="49.34269" lon="0.86526">
        <ele>91.9</ele>
        <time>2016-10-09T06:51:39Z</time>
      </trkpt>
      <trkpt lat="49.34261" lon="0.86541">
        <ele>91.6</ele>
        <time>2016-10-09T06:51:42Z</time>
      </trkpt>
      <trkpt lat="49.34257" lon="0.86555">
        <ele>91.4</ele>
        <time>2016-10-09T06:51:45Z</time>
      </trkpt>
      <trkpt lat="49.34258" lon="0.86571">
        <ele>91.3</ele>
        <time>2016-10-09T06:51:47Z</time>
      </trkpt>
      <trkpt lat="49.34256" lon="0.86591">
        <ele>91</ele>
        <time>2016-10-09T06:51:49Z</time>
      </trkpt>
      <trkpt lat="49.34254" lon="0.86605">
        <ele>90.8</ele>
        <time>2016-10-09T06:51:51Z</time>
      </trkpt>
      <trkpt lat="49.34255" lon="0.86621">
        <ele>90.5</ele>
        <time>2016-10-09T06:51:53Z</time>
      </trkpt>
      <trkpt lat="49.34251" lon="0.86636">
        <ele>90.3</ele>
        <time>2016-10-09T06:51:55Z</time>
      </trkpt>
      <trkpt lat="49.34254" lon="0.86655">
        <ele>90</ele>
        <time>2016-10-09T06:51:58Z</time>
      </trkpt>
      <trkpt lat="49.34256" lon="0.86676">
        <ele>89.7</ele>
        <time>2016-10-09T06:52:01Z</time>
      </trkpt>
      <trkpt lat="49.34259" lon="0.86689">
        <ele>89.6</ele>
        <time>2016-10-09T06:52:03Z</time>
      </trkpt>
      <trkpt lat="49.34265" lon="0.867">
        <ele>89.4</ele>
        <time>2016-10-09T06:52:05Z</time>
      </trkpt>
      <trkpt lat="49.3427" lon="0.86714">
        <ele>89.1</ele>
        <time>2016-10-09T06:52:08Z</time>
      </trkpt>
      <trkpt lat="49.34275" lon="0.86727">
        <ele>88.8</ele>
        <time>2016-10-09T06:52:10Z</time>
      </trkpt>
      <trkpt lat="49.34279" lon="0.8674">
        <ele>88.6</ele>
        <time>2016-10-09T06:52:12Z</time>
      </trkpt>
      <trkpt lat="49.34282" lon="0.86753">
        <ele>88.3</ele>
        <time>2016-10-09T06:52:14Z</time>
      </trkpt>
      <trkpt lat="49.34284" lon="0.86769">
        <ele>88.1</ele>
        <time>2016-10-09T06:52:17Z</time>
      </trkpt>
      <trkpt lat="49.34285" lon="0.86784">
        <ele>87.8</ele>
        <time>2016-10-09T06:52:20Z</time>
      </trkpt>
      <trkpt lat="49.34289" lon="0.86802">
        <ele>87.6</ele>
        <time>2016-10-09T06:52:23Z</time>
      </trkpt>
      <trkpt lat="49.34291" lon="0.86817">
        <ele>87.5</ele>
        <time>2016-10-09T06:52:26Z</time>
      </trkpt>
      <trkpt lat="49.34286" lon="0.8683">
        <ele>87.3</ele>
        <time>2016-10-09T06:52:30Z</time>
      </trkpt>
      <trkpt lat="49.3429" lon="0.86845">
        <ele>87.3</ele>
        <time>2016-10-09T06:52:32Z</time>
      </trkpt>
      <trkpt lat="49.3429" lon="0.86864">
        <ele>87.2</ele>
        <time>2016-10-09T06:52:35Z</time>
      </trkpt>
      <trkpt lat="49.34287" lon="0.86888">
        <ele>87.1</ele>
        <time>2016-10-09T06:52:38Z</time>
      </trkpt>
      <trkpt lat="49.34284" lon="0.86902">
        <ele>87</ele>
        <time>2016-10-09T06:52:40Z</time>
      </trkpt>
      <trkpt lat="49.34278" lon="0.86914">
        <ele>86.9</ele>
        <time>2016-10-09T06:52:43Z</time>
      </trkpt>
      <trkpt lat="49.34271" lon="0.86926">
        <ele>86.9</ele>
        <time>2016-10-09T06:52:46Z</time>
      </trkpt>
      <trkpt lat="49.34266" lon="0.86938">
        <ele>86.8</ele>
        <time>2016-10-09T06:52:48Z</time>
      </trkpt>
      <trkpt lat="49.34258" lon="0.8695">
        <ele>86.6</ele>
        <time>2016-10-09T06:52:50Z</time>
      </trkpt>
      <trkpt lat="49.34251" lon="0.86965">
        <ele>86.3</ele>
        <time>2016-10-09T06:52:52Z</time>
      </trkpt>
      <trkpt lat="49.34241" lon="0.86978">
        <ele>85.9</ele>
        <time>2016-10-09T06:52:55Z</time>
      </trkpt>
      <trkpt lat="49.3423" lon="0.86988">
        <ele>85.6</ele>
        <time>2016-10-09T06:52:58Z</time>
      </trkpt>
      <trkpt lat="49.34221" lon="0.87">
        <ele>85.4</ele>
        <time>2016-10-09T06:53:01Z</time>
      </trkpt>
      <trkpt lat="49.34215" lon="0.8701">
        <ele>85.3</ele>
        <time>2016-10-09T06:53:03Z</time>
      </trkpt>
      <trkpt lat="49.34208" lon="0.87021">
        <ele>85.1</ele>
        <time>2016-10-09T06:53:05Z</time>
      </trkpt>
      <trkpt lat="49.34199" lon="0.87022">
        <ele>84.9</ele>
        <time>2016-10-09T06:53:08Z</time>
      </trkpt>
      <trkpt lat="49.34188" lon="0.87018">
        <ele>84.7</ele>
        <time>2016-10-09T06:53:12Z</time>
      </trkpt>
      <trkpt lat="49.34185" lon="0.87032">
        <ele>84.6</ele>
        <time>2016-10-09T06:53:15Z</time>
      </trkpt>
      <trkpt lat="49.34186" lon="0.87051">
        <ele>84.5</ele>
        <time>2016-10-09T06:53:18Z</time>
      </trkpt>
      <trkpt lat="49.34186" lon="0.87066">
        <ele>84.4</ele>
        <time>2016-10-09T06:53:20Z</time>
      </trkpt>
      <trkpt lat="49.34186" lon="0.8708">
        <ele>84.1</ele>
        <time>2016-10-09T06:53:22Z</time>
      </trkpt>
      <trkpt lat="49.34186" lon="0.87097">
        <ele>83.8</ele>
        <time>2016-10-09T06:53:25Z</time>
      </trkpt>
      <trkpt lat="49.34187" lon="0.87113">
        <ele>83.6</ele>
        <time>2016-10-09T06:53:27Z</time>
      </trkpt>
      <trkpt lat="49.34187" lon="0.87135">
        <ele>83.4</ele>
        <time>2016-10-09T06:53:29Z</time>
      </trkpt>
      <trkpt lat="49.34189" lon="0.87154">
        <ele>83</ele>
        <time>2016-10-09T06:53:32Z</time>
      </trkpt>
      <trkpt lat="49.3419" lon="0.87174">
        <ele>82.6</ele>
        <time>2016-10-09T06:53:35Z</time>
      </trkpt>
      <trkpt lat="49.34195" lon="0.87191">
        <ele>82.3</ele>
        <time>2016-10-09T06:53:38Z</time>
      </trkpt>
      <trkpt lat="49.34202" lon="0.87205">
        <ele>82</ele>
        <time>2016-10-09T06:53:41Z</time>
      </trkpt>
      <trkpt lat="49.34211" lon="0.8721">
        <ele>81.9</ele>
        <time>2016-10-09T06:53:43Z</time>
      </trkpt>
      <trkpt lat="49.34219" lon="0.87219">
        <ele>81.7</ele>
        <time>2016-10-09T06:53:45Z</time>
      </trkpt>
      <trkpt lat="49.3423" lon="0.87231">
        <ele>81.5</ele>
        <time>2016-10-09T06:53:48Z</time>
      </trkpt>
      <trkpt lat="49.34239" lon="0.87242">
        <ele>81.3</ele>
        <time>2016-10-09T06:53:50Z</time>
      </trkpt>
      <trkpt lat="49.34247" lon="0.87257">
        <ele>81.2</ele>
        <time>2016-10-09T06:53:53Z</time>
      </trkpt>
      <trkpt lat="49.34255" lon="0.87273">
        <ele>81</ele>
        <time>2016-10-09T06:53:56Z</time>
      </trkpt>
      <trkpt lat="49.3426" lon="0.87292">
        <ele>80.9</ele>
        <time>2016-10-09T06:53:59Z</time>
      </trkpt>
      <trkpt lat="49.34264" lon="0.87304">
        <ele>80.9</ele>
        <time>2016-10-09T06:54:01Z</time>
      </trkpt>
      <trkpt lat="49.34267" lon="0.87318">
        <ele>80.8</ele>
        <time>2016-10-09T06:54:03Z</time>
      </trkpt>
      <trkpt lat="49.34272" lon="0.87336">
        <ele>80.7</ele>
        <time>2016-10-09T06:54:06Z</time>
      </trkpt>
      <trkpt lat="49.34275" lon="0.87353">
        <ele>80.7</ele>
        <time>2016-10-09T06:54:09Z</time>
      </trkpt>
      <trkpt lat="49.34276" lon="0.87372">
        <ele>80.6</ele>
        <time>2016-10-09T06:54:12Z</time>
      </trkpt>
      <trkpt lat="49.34276" lon="0.87391">
        <ele>80.6</ele>
        <time>2016-10-09T06:54:15Z</time>
      </trkpt>
      <trkpt lat="49.34274" lon="0.87409">
        <ele>80.6</ele>
        <time>2016-10-09T06:54:18Z</time>
      </trkpt>
      <trkpt lat="49.34279" lon="0.87427">
        <ele>80.6</ele>
        <time>2016-10-09T06:54:21Z</time>
      </trkpt>
      <trkpt lat="49.34282" lon="0.87441">
        <ele>80.6</ele>
        <time>2016-10-09T06:54:23Z</time>
      </trkpt>
      <trkpt lat="49.34284" lon="0.87461">
        <ele>80.6</ele>
        <time>2016-10-09T06:54:26Z</time>
      </trkpt>
      <trkpt lat="49.34285" lon="0.87479">
        <ele>80.6</ele>
        <time>2016-10-09T06:54:29Z</time>
      </trkpt>
      <trkpt lat="49.34291" lon="0.87499">
        <ele>80.5</ele>
        <time>2016-10-09T06:54:32Z</time>
      </trkpt>
      <trkpt lat="49.34295" lon="0.87513">
        <ele>80.3</ele>
        <time>2016-10-09T06:54:34Z</time>
      </trkpt>
      <trkpt lat="49.34298" lon="0.87529">
        <ele>80.2</ele>
        <time>2016-10-09T06:54:36Z</time>
      </trkpt>
      <trkpt lat="49.343" lon="0.87543">
        <ele>80</ele>
        <time>2016-10-09T06:54:38Z</time>
      </trkpt>
      <trkpt lat="49.34301" lon="0.87558">
        <ele>79.8</ele>
        <time>2016-10-09T06:54:40Z</time>
      </trkpt>
      <trkpt lat="49.34301" lon="0.87577">
        <ele>79.5</ele>
        <time>2016-10-09T06:54:43Z</time>
      </trkpt>
      <trkpt lat="49.34302" lon="0.87594">
        <ele>79</ele>
        <time>2016-10-09T06:54:46Z</time>
      </trkpt>
      <trkpt lat="49.34301" lon="0.87612">
        <ele>78.6</ele>
        <time>2016-10-09T06:54:50Z</time>
      </trkpt>
      <trkpt lat="49.34298" lon="0.87629">
        <ele>78.3</ele>
        <time>2016-10-09T06:54:54Z</time>
      </trkpt>
      <trkpt lat="49.34296" lon="0.87645">
        <ele>78.7</ele>
        <time>2016-10-09T06:54:59Z</time>
      </trkpt>
      <trkpt lat="49.34294" lon="0.87661">
        <ele>79.7</ele>
        <time>2016-10-09T06:55:05Z</time>
      </trkpt>
      <trkpt lat="49.34293" lon="0.87675">
        <ele>80.9</ele>
        <time>2016-10-09T06:55:10Z</time>
      </trkpt>
      <trkpt lat="49.34293" lon="0.87689">
        <ele>82.2</ele>
        <time>2016-10-09T06:55:16Z</time>
      </trkpt>
      <trkpt lat="49.34289" lon="0.87705">
        <ele>83.5</ele>
        <time>2016-10-09T06:55:21Z</time>
      </trkpt>
      <trkpt lat="49.34285" lon="0.8772">
        <ele>84.4</ele>
        <time>2016-10-09T06:55:25Z</time>
      </trkpt>
      <trkpt lat="49.34283" lon="0.87736">
        <ele>85.1</ele>
        <time>2016-10-09T06:55:29Z</time>
      </trkpt>
      <trkpt lat="49.34283" lon="0.87752">
        <ele>85.5</ele>
        <time>2016-10-09T06:55:32Z</time>
      </trkpt>
      <trkpt lat="49.34283" lon="0.87768">
        <ele>85.8</ele>
        <time>2016-10-09T06:55:35Z</time>
      </trkpt>
      <trkpt lat="49.34282" lon="0.87786">
        <ele>86.1</ele>
        <time>2016-10-09T06:55:38Z</time>
      </trkpt>
      <trkpt lat="49.34285" lon="0.87802">
        <ele>86.1</ele>
        <time>2016-10-09T06:55:40Z</time>
      </trkpt>
      <trkpt lat="49.3429" lon="0.87815">
        <ele>86.1</ele>
        <time>2016-10-09T06:55:42Z</time>
      </trkpt>
      <trkpt lat="49.34298" lon="0.87835">
        <ele>85.9</ele>
        <time>2016-10-09T06:55:45Z</time>
      </trkpt>
      <trkpt lat="49.34305" lon="0.87853">
        <ele>85.7</ele>
        <time>2016-10-09T06:55:47Z</time>
      </trkpt>
      <trkpt lat="49.3431" lon="0.87873">
        <ele>85.5</ele>
        <time>2016-10-09T06:55:49Z</time>
      </trkpt>
      <trkpt lat="49.34318" lon="0.87894">
        <ele>85.2</ele>
        <time>2016-10-09T06:55:51Z</time>
      </trkpt>
      <trkpt lat="49.34324" lon="0.87916">
        <ele>84.9</ele>
        <time>2016-10-09T06:55:53Z</time>
      </trkpt>
      <trkpt lat="49.34328" lon="0.87933">
        <ele>84.5</ele>
        <time>2016-10-09T06:55:55Z</time>
      </trkpt>
      <trkpt lat="49.34331" lon="0.87947">
        <ele>84.1</ele>
        <time>2016-10-09T06:55:57Z</time>
      </trkpt>
      <trkpt lat="49.34341" lon="0.87966">
        <ele>83.6</ele>
        <time>2016-10-09T06:55:59Z</time>
      </trkpt>
      <trkpt lat="49.34351" lon="0.87987">
        <ele>83.1</ele>
        <time>2016-10-09T06:56:01Z</time>
      </trkpt>
      <trkpt lat="49.34357" lon="0.87999">
        <ele>82.8</ele>
        <time>2016-10-09T06:56:02Z</time>
      </trkpt>
      <trkpt lat="49.34368" lon="0.88023">
        <ele>82.1</ele>
        <time>2016-10-09T06:56:04Z</time>
      </trkpt>
      <trkpt lat="49.34377" lon="0.88039">
        <ele>81.2</ele>
        <time>2016-10-09T06:56:06Z</time>
      </trkpt>
      <trkpt lat="49.34389" lon="0.88052">
        <ele>80.1</ele>
        <time>2016-10-09T06:56:08Z</time>
      </trkpt>
      <trkpt lat="49.34399" lon="0.88058">
        <ele>79.1</ele>
        <time>2016-10-09T06:56:10Z</time>
      </trkpt>
      <trkpt lat="49.34409" lon="0.88063">
        <ele>78.4</ele>
        <time>2016-10-09T06:56:12Z</time>
      </trkpt>
      <trkpt lat="49.34425" lon="0.88071">
        <ele>77.9</ele>
        <time>2016-10-09T06:56:14Z</time>
      </trkpt>
      <trkpt lat="49.34436" lon="0.88076">
        <ele>77.5</ele>
        <time>2016-10-09T06:56:16Z</time>
      </trkpt>
      <trkpt lat="49.34447" lon="0.88081">
        <ele>77.1</ele>
        <time>2016-10-09T06:56:18Z</time>
      </trkpt>
      <trkpt lat="49.34458" lon="0.88086">
        <ele>76.8</ele>
        <time>2016-10-09T06:56:20Z</time>
      </trkpt>
      <trkpt lat="49.34467" lon="0.88089">
        <ele>76.5</ele>
        <time>2016-10-09T06:56:22Z</time>
      </trkpt>
      <trkpt lat="49.34478" lon="0.8809">
        <ele>75.8</ele>
        <time>2016-10-09T06:56:26Z</time>
      </trkpt>
      <trkpt lat="49.34489" lon="0.88097">
        <ele>75.4</ele>
        <time>2016-10-09T06:56:28Z</time>
      </trkpt>
      <trkpt lat="49.34499" lon="0.88102">
        <ele>75</ele>
        <time>2016-10-09T06:56:31Z</time>
      </trkpt>
      <trkpt lat="49.34509" lon="0.88106">
        <ele>74.6</ele>
        <time>2016-10-09T06:56:34Z</time>
      </trkpt>
      <trkpt lat="49.34518" lon="0.8811">
        <ele>74.4</ele>
        <time>2016-10-09T06:56:36Z</time>
      </trkpt>
      <trkpt lat="49.34531" lon="0.88114">
        <ele>74.2</ele>
        <time>2016-10-09T06:56:39Z</time>
      </trkpt>
      <trkpt lat="49.3454" lon="0.88115">
        <ele>74</ele>
        <time>2016-10-09T06:56:41Z</time>
      </trkpt>
      <trkpt lat="49.34552" lon="0.88116">
        <ele>73.9</ele>
        <time>2016-10-09T06:56:44Z</time>
      </trkpt>
      <trkpt lat="49.34561" lon="0.88107">
        <ele>73.9</ele>
        <time>2016-10-09T06:56:47Z</time>
      </trkpt>
      <trkpt lat="49.34568" lon="0.88098">
        <ele>74</ele>
        <time>2016-10-09T06:56:49Z</time>
      </trkpt>
      <trkpt lat="49.34574" lon="0.88087">
        <ele>74.1</ele>
        <time>2016-10-09T06:56:51Z</time>
      </trkpt>
      <trkpt lat="49.34582" lon="0.88072">
        <ele>74.3</ele>
        <time>2016-10-09T06:56:54Z</time>
      </trkpt>
      <trkpt lat="49.34589" lon="0.88058">
        <ele>74.7</ele>
        <time>2016-10-09T06:56:57Z</time>
      </trkpt>
      <trkpt lat="49.34594" lon="0.88043">
        <ele>75</ele>
        <time>2016-10-09T06:57:00Z</time>
      </trkpt>
      <trkpt lat="49.346" lon="0.88032">
        <ele>75.5</ele>
        <time>2016-10-09T06:57:03Z</time>
      </trkpt>
      <trkpt lat="49.34611" lon="0.88023">
        <ele>75.9</ele>
        <time>2016-10-09T06:57:06Z</time>
      </trkpt>
      <trkpt lat="49.34617" lon="0.88011">
        <ele>76.5</ele>
        <time>2016-10-09T06:57:09Z</time>
      </trkpt>
      <trkpt lat="49.34625" lon="0.87999">
        <ele>77.3</ele>
        <time>2016-10-09T06:57:13Z</time>
      </trkpt>
      <trkpt lat="49.34632" lon="0.8799">
        <ele>78</ele>
        <time>2016-10-09T06:57:16Z</time>
      </trkpt>
      <trkpt lat="49.34641" lon="0.87981">
        <ele>78.9</ele>
        <time>2016-10-09T06:57:20Z</time>
      </trkpt>
      <trkpt lat="49.34651" lon="0.8798">
        <ele>79.7</ele>
        <time>2016-10-09T06:57:23Z</time>
      </trkpt>
      <trkpt lat="49.3466" lon="0.87978">
        <ele>80.4</ele>
        <time>2016-10-09T06:57:26Z</time>
      </trkpt>
      <trkpt lat="49.3467" lon="0.87975">
        <ele>81.6</ele>
        <time>2016-10-09T06:57:31Z</time>
      </trkpt>
      <trkpt lat="49.34679" lon="0.87976">
        <ele>82.9</ele>
        <time>2016-10-09T06:57:37Z</time>
      </trkpt>
      <trkpt lat="49.34691" lon="0.87973">
        <ele>83.8</ele>
        <time>2016-10-09T06:57:41Z</time>
      </trkpt>
      <trkpt lat="49.34701" lon="0.87975">
        <ele>84.6</ele>
        <time>2016-10-09T06:57:44Z</time>
      </trkpt>
      <trkpt lat="49.34712" lon="0.87977">
        <ele>85.8</ele>
        <time>2016-10-09T06:57:49Z</time>
      </trkpt>
      <trkpt lat="49.34722" lon="0.87984">
        <ele>86.8</ele>
        <time>2016-10-09T06:57:53Z</time>
      </trkpt>
      <trkpt lat="49.3473" lon="0.8799">
        <ele>87.5</ele>
        <time>2016-10-09T06:57:56Z</time>
      </trkpt>
      <trkpt lat="49.34737" lon="0.88001">
        <ele>88.2</ele>
        <time>2016-10-09T06:57:59Z</time>
      </trkpt>
      <trkpt lat="49.34743" lon="0.88012">
        <ele>89</ele>
        <time>2016-10-09T06:58:02Z</time>
      </trkpt>
      <trkpt lat="49.34749" lon="0.88027">
        <ele>90.2</ele>
        <time>2016-10-09T06:58:07Z</time>
      </trkpt>
      <trkpt lat="49.34754" lon="0.88039">
        <ele>91.3</ele>
        <time>2016-10-09T06:58:11Z</time>
      </trkpt>
      <trkpt lat="49.34758" lon="0.88052">
        <ele>92.4</ele>
        <time>2016-10-09T06:58:15Z</time>
      </trkpt>
      <trkpt lat="49.34762" lon="0.88066">
        <ele>93.7</ele>
        <time>2016-10-09T06:58:20Z</time>
      </trkpt>
      <trkpt lat="49.34765" lon="0.88082">
        <ele>95.2</ele>
        <time>2016-10-09T06:58:26Z</time>
      </trkpt>
      <trkpt lat="49.34767" lon="0.88098">
        <ele>96.8</ele>
        <time>2016-10-09T06:58:32Z</time>
      </trkpt>
      <trkpt lat="49.34769" lon="0.88112">
        <ele>98.1</ele>
        <time>2016-10-09T06:58:37Z</time>
      </trkpt>
      <trkpt lat="49.3477" lon="0.88128">
        <ele>99.5</ele>
        <time>2016-10-09T06:58:42Z</time>
      </trkpt>
      <trkpt lat="49.34772" lon="0.88142">
        <ele>100.9</ele>
        <time>2016-10-09T06:58:47Z</time>
      </trkpt>
      <trkpt lat="49.34774" lon="0.88155">
        <ele>102.3</ele>
        <time>2016-10-09T06:58:52Z</time>
      </trkpt>
      <trkpt lat="49.34776" lon="0.88168">
        <ele>103.7</ele>
        <time>2016-10-09T06:58:57Z</time>
      </trkpt>
      <trkpt lat="49.34778" lon="0.88183">
        <ele>105.3</ele>
        <time>2016-10-09T06:59:03Z</time>
      </trkpt>
      <trkpt lat="49.34771" lon="0.88192">
        <ele>106.8</ele>
        <time>2016-10-09T06:59:09Z</time>
      </trkpt>
      <trkpt lat="49.34762" lon="0.88201">
        <ele>108.2</ele>
        <time>2016-10-09T06:59:15Z</time>
      </trkpt>
      <trkpt lat="49.34754" lon="0.8821">
        <ele>109.5</ele>
        <time>2016-10-09T06:59:20Z</time>
      </trkpt>
      <trkpt lat="49.34745" lon="0.88216">
        <ele>110.5</ele>
        <time>2016-10-09T06:59:24Z</time>
      </trkpt>
      <trkpt lat="49.34737" lon="0.88222">
        <ele>111.2</ele>
        <time>2016-10-09T06:59:28Z</time>
      </trkpt>
      <trkpt lat="49.34728" lon="0.88231">
        <ele>111.7</ele>
        <time>2016-10-09T06:59:31Z</time>
      </trkpt>
      <trkpt lat="49.34721" lon="0.88243">
        <ele>112.1</ele>
        <time>2016-10-09T06:59:34Z</time>
      </trkpt>
      <trkpt lat="49.34713" lon="0.88252">
        <ele>112.5</ele>
        <time>2016-10-09T06:59:37Z</time>
      </trkpt>
      <trkpt lat="49.34705" lon="0.88265">
        <ele>112.9</ele>
        <time>2016-10-09T06:59:40Z</time>
      </trkpt>
      <trkpt lat="49.34697" lon="0.88278">
        <ele>113.2</ele>
        <time>2016-10-09T06:59:43Z</time>
      </trkpt>
      <trkpt lat="49.34693" lon="0.88292">
        <ele>113.4</ele>
        <time>2016-10-09T06:59:45Z</time>
      </trkpt>
      <trkpt lat="49.34692" lon="0.88306">
        <ele>113.6</ele>
        <time>2016-10-09T06:59:47Z</time>
      </trkpt>
      <trkpt lat="49.34689" lon="0.88326">
        <ele>113.8</ele>
        <time>2016-10-09T06:59:50Z</time>
      </trkpt>
      <trkpt lat="49.34685" lon="0.88345">
        <ele>113.9</ele>
        <time>2016-10-09T06:59:53Z</time>
      </trkpt>
      <trkpt lat="49.34681" lon="0.88363">
        <ele>114.1</ele>
        <time>2016-10-09T06:59:56Z</time>
      </trkpt>
      <trkpt lat="49.34677" lon="0.88383">
        <ele>114.2</ele>
        <time>2016-10-09T06:59:59Z</time>
      </trkpt>
      <trkpt lat="49.34673" lon="0.88397">
        <ele>114.1</ele>
        <time>2016-10-09T07:00:01Z</time>
      </trkpt>
      <trkpt lat="49.34667" lon="0.88412">
        <ele>114.1</ele>
        <time>2016-10-09T07:00:03Z</time>
      </trkpt>
      <trkpt lat="49.34664" lon="0.88427">
        <ele>114</ele>
        <time>2016-10-09T07:00:05Z</time>
      </trkpt>
      <trkpt lat="49.34661" lon="0.88441">
        <ele>113.8</ele>
        <time>2016-10-09T07:00:07Z</time>
      </trkpt>
      <trkpt lat="49.34662" lon="0.88458">
        <ele>113.6</ele>
        <time>2016-10-09T07:00:09Z</time>
      </trkpt>
      <trkpt lat="49.34662" lon="0.88472">
        <ele>113.4</ele>
        <time>2016-10-09T07:00:11Z</time>
      </trkpt>
      <trkpt lat="49.34664" lon="0.88487">
        <ele>113.3</ele>
        <time>2016-10-09T07:00:14Z</time>
      </trkpt>
      <trkpt lat="49.34662" lon="0.88501">
        <ele>113.5</ele>
        <time>2016-10-09T07:00:19Z</time>
      </trkpt>
      <trkpt lat="49.34659" lon="0.88517">
        <ele>114</ele>
        <time>2016-10-09T07:00:23Z</time>
      </trkpt>
      <trkpt lat="49.34656" lon="0.88532">
        <ele>114.4</ele>
        <time>2016-10-09T07:00:26Z</time>
      </trkpt>
      <trkpt lat="49.34652" lon="0.88545">
        <ele>114.7</ele>
        <time>2016-10-09T07:00:29Z</time>
      </trkpt>
      <trkpt lat="49.34649" lon="0.8856">
        <ele>115.1</ele>
        <time>2016-10-09T07:00:32Z</time>
      </trkpt>
      <trkpt lat="49.34647" lon="0.88578">
        <ele>115.5</ele>
        <time>2016-10-09T07:00:36Z</time>
      </trkpt>
      <trkpt lat="49.3464" lon="0.88596">
        <ele>115.7</ele>
        <time>2016-10-09T07:00:39Z</time>
      </trkpt>
      <trkpt lat="49.34636" lon="0.8861">
        <ele>115.9</ele>
        <time>2016-10-09T07:00:41Z</time>
      </trkpt>
      <trkpt lat="49.34633" lon="0.88624">
        <ele>116.1</ele>
        <time>2016-10-09T07:00:43Z</time>
      </trkpt>
      <trkpt lat="49.34627" lon="0.88641">
        <ele>116.3</ele>
        <time>2016-10-09T07:00:46Z</time>
      </trkpt>
      <trkpt lat="49.3462" lon="0.88659">
        <ele>116.5</ele>
        <time>2016-10-09T07:00:49Z</time>
      </trkpt>
      <trkpt lat="49.34615" lon="0.88679">
        <ele>116.7</ele>
        <time>2016-10-09T07:00:52Z</time>
      </trkpt>
      <trkpt lat="49.34612" lon="0.88693">
        <ele>116.8</ele>
        <time>2016-10-09T07:00:54Z</time>
      </trkpt>
      <trkpt lat="49.34605" lon="0.88714">
        <ele>116.8</ele>
        <time>2016-10-09T07:00:57Z</time>
      </trkpt>
      <trkpt lat="49.34601" lon="0.8873">
        <ele>116.8</ele>
        <time>2016-10-09T07:00:59Z</time>
      </trkpt>
      <trkpt lat="49.34596" lon="0.88744">
        <ele>116.7</ele>
        <time>2016-10-09T07:01:01Z</time>
      </trkpt>
      <trkpt lat="49.34591" lon="0.88762">
        <ele>116.7</ele>
        <time>2016-10-09T07:01:04Z</time>
      </trkpt>
      <trkpt lat="49.34585" lon="0.88781">
        <ele>116.5</ele>
        <time>2016-10-09T07:01:07Z</time>
      </trkpt>
      <trkpt lat="49.34578" lon="0.88795">
        <ele>116.4</ele>
        <time>2016-10-09T07:01:09Z</time>
      </trkpt>
      <trkpt lat="49.34572" lon="0.88811">
        <ele>116.3</ele>
        <time>2016-10-09T07:01:11Z</time>
      </trkpt>
      <trkpt lat="49.34567" lon="0.88824">
        <ele>116.1</ele>
        <time>2016-10-09T07:01:13Z</time>
      </trkpt>
      <trkpt lat="49.34556" lon="0.88831">
        <ele>115.7</ele>
        <time>2016-10-09T07:01:16Z</time>
      </trkpt>
      <trkpt lat="49.34551" lon="0.88845">
        <ele>115.1</ele>
        <time>2016-10-09T07:01:19Z</time>
      </trkpt>
      <trkpt lat="49.34551" lon="0.8886">
        <ele>114.3</ele>
        <time>2016-10-09T07:01:22Z</time>
      </trkpt>
      <trkpt lat="49.34557" lon="0.88874">
        <ele>113.7</ele>
        <time>2016-10-09T07:01:24Z</time>
      </trkpt>
      <trkpt lat="49.34565" lon="0.88886">
        <ele>113.2</ele>
        <time>2016-10-09T07:01:26Z</time>
      </trkpt>
      <trkpt lat="49.34573" lon="0.88903">
        <ele>112.5</ele>
        <time>2016-10-09T07:01:29Z</time>
      </trkpt>
      <trkpt lat="49.3458" lon="0.88914">
        <ele>112</ele>
        <time>2016-10-09T07:01:31Z</time>
      </trkpt>
      <trkpt lat="49.34588" lon="0.88924">
        <ele>111.5</ele>
        <time>2016-10-09T07:01:34Z</time>
      </trkpt>
      <trkpt lat="49.34597" lon="0.88938">
        <ele>111.3</ele>
        <time>2016-10-09T07:01:37Z</time>
      </trkpt>
      <trkpt lat="49.34603" lon="0.8895">
        <ele>111.6</ele>
        <time>2016-10-09T07:01:41Z</time>
      </trkpt>
      <trkpt lat="49.34611" lon="0.88964">
        <ele>112.2</ele>
        <time>2016-10-09T07:01:45Z</time>
      </trkpt>
      <trkpt lat="49.34616" lon="0.88978">
        <ele>113.1</ele>
        <time>2016-10-09T07:01:49Z</time>
      </trkpt>
      <trkpt lat="49.34621" lon="0.88989">
        <ele>113.8</ele>
        <time>2016-10-09T07:01:52Z</time>
      </trkpt>
      <trkpt lat="49.34631" lon="0.88996">
        <ele>114.7</ele>
        <time>2016-10-09T07:01:56Z</time>
      </trkpt>
      <trkpt lat="49.3464" lon="0.88999">
        <ele>115.4</ele>
        <time>2016-10-09T07:01:59Z</time>
      </trkpt>
      <trkpt lat="49.3465" lon="0.89002">
        <ele>116.1</ele>
        <time>2016-10-09T07:02:02Z</time>
      </trkpt>
      <trkpt lat="49.3466" lon="0.89003">
        <ele>116.6</ele>
        <time>2016-10-09T07:02:05Z</time>
      </trkpt>
      <trkpt lat="49.3467" lon="0.89003">
        <ele>117.1</ele>
        <time>2016-10-09T07:02:08Z</time>
      </trkpt>
      <trkpt lat="49.34679" lon="0.89002">
        <ele>117.5</ele>
        <time>2016-10-09T07:02:11Z</time>
      </trkpt>
      <trkpt lat="49.3469" lon="0.89001">
        <ele>117.9</ele>
        <time>2016-10-09T07:02:14Z</time>
      </trkpt>
      <trkpt lat="49.34701" lon="0.89005">
        <ele>118.3</ele>
        <time>2016-10-09T07:02:17Z</time>
      </trkpt>
      <trkpt lat="49.34705" lon="0.89019">
        <ele>118.6</ele>
        <time>2016-10-09T07:02:20Z</time>
      </trkpt>
      <trkpt lat="49.34705" lon="0.89037">
        <ele>118.9</ele>
        <time>2016-10-09T07:02:23Z</time>
      </trkpt>
      <trkpt lat="49.34705" lon="0.89056">
        <ele>119.2</ele>
        <time>2016-10-09T07:02:26Z</time>
      </trkpt>
      <trkpt lat="49.34707" lon="0.89075">
        <ele>119.5</ele>
        <time>2016-10-09T07:02:29Z</time>
      </trkpt>
      <trkpt lat="49.34707" lon="0.89094">
        <ele>119.9</ele>
        <time>2016-10-09T07:02:32Z</time>
      </trkpt>
      <trkpt lat="49.34707" lon="0.89114">
        <ele>120.2</ele>
        <time>2016-10-09T07:02:35Z</time>
      </trkpt>
      <trkpt lat="49.34706" lon="0.89134">
        <ele>120.4</ele>
        <time>2016-10-09T07:02:38Z</time>
      </trkpt>
      <trkpt lat="49.34703" lon="0.89154">
        <ele>120.7</ele>
        <time>2016-10-09T07:02:41Z</time>
      </trkpt>
      <trkpt lat="49.34702" lon="0.89168">
        <ele>120.8</ele>
        <time>2016-10-09T07:02:43Z</time>
      </trkpt>
      <trkpt lat="49.34702" lon="0.89182">
        <ele>121</ele>
        <time>2016-10-09T07:02:45Z</time>
      </trkpt>
      <trkpt lat="49.34702" lon="0.89203">
        <ele>121.2</ele>
        <time>2016-10-09T07:02:48Z</time>
      </trkpt>
      <trkpt lat="49.34702" lon="0.89217">
        <ele>121.4</ele>
        <time>2016-10-09T07:02:50Z</time>
      </trkpt>
      <trkpt lat="49.34701" lon="0.89232">
        <ele>121.5</ele>
        <time>2016-10-09T07:02:52Z</time>
      </trkpt>
      <trkpt lat="49.347" lon="0.89247">
        <ele>121.6</ele>
        <time>2016-10-09T07:02:54Z</time>
      </trkpt>
      <trkpt lat="49.34698" lon="0.89262">
        <ele>121.8</ele>
        <time>2016-10-09T07:02:56Z</time>
      </trkpt>
      <trkpt lat="49.34695" lon="0.89278">
        <ele>122</ele>
        <time>2016-10-09T07:02:58Z</time>
      </trkpt>
      <trkpt lat="49.34693" lon="0.89295">
        <ele>122.1</ele>
        <time>2016-10-09T07:03:00Z</time>
      </trkpt>
      <trkpt lat="49.3469" lon="0.89312">
        <ele>122.3</ele>
        <time>2016-10-09T07:03:02Z</time>
      </trkpt>
      <trkpt lat="49.34688" lon="0.89329">
        <ele>122.4</ele>
        <time>2016-10-09T07:03:04Z</time>
      </trkpt>
      <trkpt lat="49.34688" lon="0.89346">
        <ele>122.5</ele>
        <time>2016-10-09T07:03:06Z</time>
      </trkpt>
      <trkpt lat="49.3469" lon="0.89364">
        <ele>122.6</ele>
        <time>2016-10-09T07:03:08Z</time>
      </trkpt>
      <trkpt lat="49.34694" lon="0.89381">
        <ele>122.7</ele>
        <time>2016-10-09T07:03:10Z</time>
      </trkpt>
      <trkpt lat="49.347" lon="0.89397">
        <ele>122.9</ele>
        <time>2016-10-09T07:03:12Z</time>
      </trkpt>
      <trkpt lat="49.34705" lon="0.89412">
        <ele>123</ele>
        <time>2016-10-09T07:03:14Z</time>
      </trkpt>
      <trkpt lat="49.34711" lon="0.89428">
        <ele>123.1</ele>
        <time>2016-10-09T07:03:16Z</time>
      </trkpt>
      <trkpt lat="49.34717" lon="0.89443">
        <ele>123.2</ele>
        <time>2016-10-09T07:03:18Z</time>
      </trkpt>
      <trkpt lat="49.34722" lon="0.89458">
        <ele>123.3</ele>
        <time>2016-10-09T07:03:20Z</time>
      </trkpt>
      <trkpt lat="49.34726" lon="0.89473">
        <ele>123.3</ele>
        <time>2016-10-09T07:03:22Z</time>
      </trkpt>
      <trkpt lat="49.34725" lon="0.89489">
        <ele>123.4</ele>
        <time>2016-10-09T07:03:24Z</time>
      </trkpt>
      <trkpt lat="49.34716" lon="0.89497">
        <ele>123.5</ele>
        <time>2016-10-09T07:03:26Z</time>
      </trkpt>
      <trkpt lat="49.34705" lon="0.89495">
        <ele>123.5</ele>
        <time>2016-10-09T07:03:28Z</time>
      </trkpt>
      <trkpt lat="49.34693" lon="0.89488">
        <ele>123.6</ele>
        <time>2016-10-09T07:03:30Z</time>
      </trkpt>
      <trkpt lat="49.34681" lon="0.89483">
        <ele>123.6</ele>
        <time>2016-10-09T07:03:32Z</time>
      </trkpt>
      <trkpt lat="49.34668" lon="0.89479">
        <ele>123.6</ele>
        <time>2016-10-09T07:03:34Z</time>
      </trkpt>
      <trkpt lat="49.34654" lon="0.89479">
        <ele>123.6</ele>
        <time>2016-10-09T07:03:36Z</time>
      </trkpt>
      <trkpt lat="49.3464" lon="0.89482">
        <ele>123.6</ele>
        <time>2016-10-09T07:03:38Z</time>
      </trkpt>
      <trkpt lat="49.34626" lon="0.89485">
        <ele>123.6</ele>
        <time>2016-10-09T07:03:40Z</time>
      </trkpt>
      <trkpt lat="49.34612" lon="0.89484">
        <ele>123.4</ele>
        <time>2016-10-09T07:03:42Z</time>
      </trkpt>
      <trkpt lat="49.34598" lon="0.89486">
        <ele>123.1</ele>
        <time>2016-10-09T07:03:44Z</time>
      </trkpt>
      <trkpt lat="49.34589" lon="0.89488">
        <ele>122.4</ele>
        <time>2016-10-09T07:03:47Z</time>
      </trkpt>
      <trkpt lat="49.34589" lon="0.89504">
        <ele>120.3</ele>
        <time>2016-10-09T07:03:59Z</time>
      </trkpt>
      <trkpt lat="49.34592" lon="0.89519">
        <ele>120</ele>
        <time>2016-10-09T07:04:01Z</time>
      </trkpt>
      <trkpt lat="49.34599" lon="0.89536">
        <ele>119.5</ele>
        <time>2016-10-09T07:04:03Z</time>
      </trkpt>
      <trkpt lat="49.34607" lon="0.89553">
        <ele>119</ele>
        <time>2016-10-09T07:04:05Z</time>
      </trkpt>
      <trkpt lat="49.34618" lon="0.89569">
        <ele>118.3</ele>
        <time>2016-10-09T07:04:07Z</time>
      </trkpt>
      <trkpt lat="49.34629" lon="0.89586">
        <ele>117.5</ele>
        <time>2016-10-09T07:04:09Z</time>
      </trkpt>
      <trkpt lat="49.34641" lon="0.89607">
        <ele>116.6</ele>
        <time>2016-10-09T07:04:11Z</time>
      </trkpt>
      <trkpt lat="49.34646" lon="0.89619">
        <ele>116.1</ele>
        <time>2016-10-09T07:04:12Z</time>
      </trkpt>
      <trkpt lat="49.3465" lon="0.89632">
        <ele>115.6</ele>
        <time>2016-10-09T07:04:13Z</time>
      </trkpt>
      <trkpt lat="49.34654" lon="0.89646">
        <ele>115</ele>
        <time>2016-10-09T07:04:14Z</time>
      </trkpt>
      <trkpt lat="49.34658" lon="0.89661">
        <ele>114.3</ele>
        <time>2016-10-09T07:04:15Z</time>
      </trkpt>
      <trkpt lat="49.34663" lon="0.89675">
        <ele>113.6</ele>
        <time>2016-10-09T07:04:16Z</time>
      </trkpt>
      <trkpt lat="49.34668" lon="0.89689">
        <ele>112.9</ele>
        <time>2016-10-09T07:04:17Z</time>
      </trkpt>
      <trkpt lat="49.34674" lon="0.89702">
        <ele>112.3</ele>
        <time>2016-10-09T07:04:18Z</time>
      </trkpt>
      <trkpt lat="49.34677" lon="0.89717">
        <ele>111.7</ele>
        <time>2016-10-09T07:04:19Z</time>
      </trkpt>
      <trkpt lat="49.3468" lon="0.89731">
        <ele>111.1</ele>
        <time>2016-10-09T07:04:20Z</time>
      </trkpt>
      <trkpt lat="49.34685" lon="0.89755">
        <ele>109.9</ele>
        <time>2016-10-09T07:04:22Z</time>
      </trkpt>
      <trkpt lat="49.34684" lon="0.89778">
        <ele>108.7</ele>
        <time>2016-10-09T07:04:24Z</time>
      </trkpt>
      <trkpt lat="49.34688" lon="0.89793">
        <ele>107.6</ele>
        <time>2016-10-09T07:04:26Z</time>
      </trkpt>
      <trkpt lat="49.34692" lon="0.89809">
        <ele>106.2</ele>
        <time>2016-10-09T07:04:29Z</time>
      </trkpt>
      <trkpt lat="49.34696" lon="0.89822">
        <ele>104.8</ele>
        <time>2016-10-09T07:04:34Z</time>
      </trkpt>
      <trkpt lat="49.34698" lon="0.89835">
        <ele>104.1</ele>
        <time>2016-10-09T07:04:38Z</time>
      </trkpt>
      <trkpt lat="49.34703" lon="0.89847">
        <ele>103.9</ele>
        <time>2016-10-09T07:04:41Z</time>
      </trkpt>
      <trkpt lat="49.34705" lon="0.89862">
        <ele>103.8</ele>
        <time>2016-10-09T07:04:46Z</time>
      </trkpt>
      <trkpt lat="49.34712" lon="0.89873">
        <ele>104</ele>
        <time>2016-10-09T07:04:50Z</time>
      </trkpt>
      <trkpt lat="49.34719" lon="0.89884">
        <ele>104.3</ele>
        <time>2016-10-09T07:04:54Z</time>
      </trkpt>
      <trkpt lat="49.34728" lon="0.89891">
        <ele>105.1</ele>
        <time>2016-10-09T07:05:03Z</time>
      </trkpt>
      <trkpt lat="49.34737" lon="0.89902">
        <ele>105.5</ele>
        <time>2016-10-09T07:05:08Z</time>
      </trkpt>
      <trkpt lat="49.34745" lon="0.89911">
        <ele>106.1</ele>
        <time>2016-10-09T07:05:13Z</time>
      </trkpt>
      <trkpt lat="49.34754" lon="0.8992">
        <ele>107.1</ele>
        <time>2016-10-09T07:05:21Z</time>
      </trkpt>
      <trkpt lat="49.34762" lon="0.89926">
        <ele>107.6</ele>
        <time>2016-10-09T07:05:26Z</time>
      </trkpt>
      <trkpt lat="49.34771" lon="0.89929">
        <ele>108.4</ele>
        <time>2016-10-09T07:05:31Z</time>
      </trkpt>
      <trkpt lat="49.34783" lon="0.89932">
        <ele>109.1</ele>
        <time>2016-10-09T07:05:36Z</time>
      </trkpt>
      <trkpt lat="49.34792" lon="0.89939">
        <ele>109.7</ele>
        <time>2016-10-09T07:05:40Z</time>
      </trkpt>
      <trkpt lat="49.34801" lon="0.89946">
        <ele>110.6</ele>
        <time>2016-10-09T07:05:46Z</time>
      </trkpt>
      <trkpt lat="49.3481" lon="0.89955">
        <ele>111.9</ele>
        <time>2016-10-09T07:05:56Z</time>
      </trkpt>
      <trkpt lat="49.34819" lon="0.89962">
        <ele>113.2</ele>
        <time>2016-10-09T07:06:06Z</time>
      </trkpt>
      <trkpt lat="49.34825" lon="0.89974">
        <ele>114.1</ele>
        <time>2016-10-09T07:06:13Z</time>
      </trkpt>
      <trkpt lat="49.34821" lon="0.8999">
        <ele>114.6</ele>
        <time>2016-10-09T07:06:17Z</time>
      </trkpt>
      <trkpt lat="49.34819" lon="0.90007">
        <ele>115.2</ele>
        <time>2016-10-09T07:06:21Z</time>
      </trkpt>
      <trkpt lat="49.34815" lon="0.9002">
        <ele>115.9</ele>
        <time>2016-10-09T07:06:24Z</time>
      </trkpt>
      <trkpt lat="49.34808" lon="0.9003">
        <ele>116.6</ele>
        <time>2016-10-09T07:06:27Z</time>
      </trkpt>
      <trkpt lat="49.34799" lon="0.90038">
        <ele>117.4</ele>
        <time>2016-10-09T07:06:30Z</time>
      </trkpt>
      <trkpt lat="49.34788" lon="0.90045">
        <ele>118.2</ele>
        <time>2016-10-09T07:06:33Z</time>
      </trkpt>
      <trkpt lat="49.34776" lon="0.90054">
        <ele>118.8</ele>
        <time>2016-10-09T07:06:36Z</time>
      </trkpt>
      <trkpt lat="49.34769" lon="0.90063">
        <ele>119.2</ele>
        <time>2016-10-09T07:06:38Z</time>
      </trkpt>
      <trkpt lat="49.34759" lon="0.90076">
        <ele>119.8</ele>
        <time>2016-10-09T07:06:41Z</time>
      </trkpt>
      <trkpt lat="49.34748" lon="0.90089">
        <ele>120.3</ele>
        <time>2016-10-09T07:06:44Z</time>
      </trkpt>
      <trkpt lat="49.34741" lon="0.90096">
        <ele>120.6</ele>
        <time>2016-10-09T07:06:46Z</time>
      </trkpt>
      <trkpt lat="49.34733" lon="0.90104">
        <ele>121</ele>
        <time>2016-10-09T07:06:48Z</time>
      </trkpt>
      <trkpt lat="49.34725" lon="0.90112">
        <ele>121.3</ele>
        <time>2016-10-09T07:06:50Z</time>
      </trkpt>
      <trkpt lat="49.34716" lon="0.90118">
        <ele>121.6</ele>
        <time>2016-10-09T07:06:52Z</time>
      </trkpt>
      <trkpt lat="49.34707" lon="0.90124">
        <ele>121.9</ele>
        <time>2016-10-09T07:06:54Z</time>
      </trkpt>
      <trkpt lat="49.34698" lon="0.9013">
        <ele>122.1</ele>
        <time>2016-10-09T07:06:56Z</time>
      </trkpt>
      <trkpt lat="49.34689" lon="0.90135">
        <ele>122.4</ele>
        <time>2016-10-09T07:06:58Z</time>
      </trkpt>
      <trkpt lat="49.34681" lon="0.90141">
        <ele>122.6</ele>
        <time>2016-10-09T07:07:00Z</time>
      </trkpt>
      <trkpt lat="49.34672" lon="0.90148">
        <ele>122.8</ele>
        <time>2016-10-09T07:07:02Z</time>
      </trkpt>
      <trkpt lat="49.34664" lon="0.90157">
        <ele>123</ele>
        <time>2016-10-09T07:07:04Z</time>
      </trkpt>
      <trkpt lat="49.34658" lon="0.90167">
        <ele>123.2</ele>
        <time>2016-10-09T07:07:06Z</time>
      </trkpt>
      <trkpt lat="49.3465" lon="0.90178">
        <ele>123.4</ele>
        <time>2016-10-09T07:07:08Z</time>
      </trkpt>
      <trkpt lat="49.34641" lon="0.9019">
        <ele>123.6</ele>
        <time>2016-10-09T07:07:10Z</time>
      </trkpt>
      <trkpt lat="49.34632" lon="0.90201">
        <ele>123.7</ele>
        <time>2016-10-09T07:07:12Z</time>
      </trkpt>
      <trkpt lat="49.34624" lon="0.90213">
        <ele>123.8</ele>
        <time>2016-10-09T07:07:14Z</time>
      </trkpt>
      <trkpt lat="49.34614" lon="0.90225">
        <ele>123.9</ele>
        <time>2016-10-09T07:07:16Z</time>
      </trkpt>
      <trkpt lat="49.34606" lon="0.9024">
        <ele>123.8</ele>
        <time>2016-10-09T07:07:18Z</time>
      </trkpt>
      <trkpt lat="49.34601" lon="0.90258">
        <ele>123.7</ele>
        <time>2016-10-09T07:07:20Z</time>
      </trkpt>
      <trkpt lat="49.34599" lon="0.90277">
        <ele>123.6</ele>
        <time>2016-10-09T07:07:22Z</time>
      </trkpt>
      <trkpt lat="49.34599" lon="0.90296">
        <ele>123.5</ele>
        <time>2016-10-09T07:07:24Z</time>
      </trkpt>
      <trkpt lat="49.346" lon="0.90315">
        <ele>123.5</ele>
        <time>2016-10-09T07:07:26Z</time>
      </trkpt>
      <trkpt lat="49.34599" lon="0.90334">
        <ele>123.5</ele>
        <time>2016-10-09T07:07:28Z</time>
      </trkpt>
      <trkpt lat="49.34599" lon="0.90353">
        <ele>123.4</ele>
        <time>2016-10-09T07:07:30Z</time>
      </trkpt>
      <trkpt lat="49.34599" lon="0.90372">
        <ele>123.5</ele>
        <time>2016-10-09T07:07:32Z</time>
      </trkpt>
      <trkpt lat="49.34599" lon="0.90391">
        <ele>123.6</ele>
        <time>2016-10-09T07:07:34Z</time>
      </trkpt>
      <trkpt lat="49.346" lon="0.9041">
        <ele>123.6</ele>
        <time>2016-10-09T07:07:36Z</time>
      </trkpt>
      <trkpt lat="49.34602" lon="0.90428">
        <ele>123.7</ele>
        <time>2016-10-09T07:07:38Z</time>
      </trkpt>
      <trkpt lat="49.34604" lon="0.90446">
        <ele>123.8</ele>
        <time>2016-10-09T07:07:40Z</time>
      </trkpt>
      <trkpt lat="49.34607" lon="0.90464">
        <ele>123.9</ele>
        <time>2016-10-09T07:07:42Z</time>
      </trkpt>
      <trkpt lat="49.34609" lon="0.9048">
        <ele>124</ele>
        <time>2016-10-09T07:07:44Z</time>
      </trkpt>
      <trkpt lat="49.34612" lon="0.90497">
        <ele>124.2</ele>
        <time>2016-10-09T07:07:46Z</time>
      </trkpt>
      <trkpt lat="49.34616" lon="0.90513">
        <ele>124.4</ele>
        <time>2016-10-09T07:07:48Z</time>
      </trkpt>
      <trkpt lat="49.34619" lon="0.90529">
        <ele>124.5</ele>
        <time>2016-10-09T07:07:50Z</time>
      </trkpt>
      <trkpt lat="49.34623" lon="0.90545">
        <ele>124.7</ele>
        <time>2016-10-09T07:07:52Z</time>
      </trkpt>
      <trkpt lat="49.34628" lon="0.9056">
        <ele>124.9</ele>
        <time>2016-10-09T07:07:54Z</time>
      </trkpt>
      <trkpt lat="49.34634" lon="0.90574">
        <ele>125.2</ele>
        <time>2016-10-09T07:07:56Z</time>
      </trkpt>
      <trkpt lat="49.34639" lon="0.90587">
        <ele>125.5</ele>
        <time>2016-10-09T07:07:58Z</time>
      </trkpt>
      <trkpt lat="49.34645" lon="0.90601">
        <ele>125.7</ele>
        <time>2016-10-09T07:08:00Z</time>
      </trkpt>
      <trkpt lat="49.34651" lon="0.90612">
        <ele>126</ele>
        <time>2016-10-09T07:08:02Z</time>
      </trkpt>
      <trkpt lat="49.34657" lon="0.90624">
        <ele>126.2</ele>
        <time>2016-10-09T07:08:04Z</time>
      </trkpt>
      <trkpt lat="49.34662" lon="0.90636">
        <ele>126.5</ele>
        <time>2016-10-09T07:08:06Z</time>
      </trkpt>
      <trkpt lat="49.34667" lon="0.90647">
        <ele>126.7</ele>
        <time>2016-10-09T07:08:08Z</time>
      </trkpt>
      <trkpt lat="49.34673" lon="0.90659">
        <ele>127</ele>
        <time>2016-10-09T07:08:10Z</time>
      </trkpt>
      <trkpt lat="49.34678" lon="0.9067">
        <ele>127.3</ele>
        <time>2016-10-09T07:08:12Z</time>
      </trkpt>
      <trkpt lat="49.34684" lon="0.90682">
        <ele>127.6</ele>
        <time>2016-10-09T07:08:14Z</time>
      </trkpt>
      <trkpt lat="49.3469" lon="0.90694">
        <ele>127.8</ele>
        <time>2016-10-09T07:08:16Z</time>
      </trkpt>
      <trkpt lat="49.34695" lon="0.90706">
        <ele>128.1</ele>
        <time>2016-10-09T07:08:18Z</time>
      </trkpt>
      <trkpt lat="49.34699" lon="0.9072">
        <ele>128.4</ele>
        <time>2016-10-09T07:08:20Z</time>
      </trkpt>
      <trkpt lat="49.34702" lon="0.90733">
        <ele>128.6</ele>
        <time>2016-10-09T07:08:22Z</time>
      </trkpt>
      <trkpt lat="49.34699" lon="0.90752">
        <ele>129</ele>
        <time>2016-10-09T07:08:25Z</time>
      </trkpt>
      <trkpt lat="49.3469" lon="0.90759">
        <ele>129.2</ele>
        <time>2016-10-09T07:08:27Z</time>
      </trkpt>
      <trkpt lat="49.34681" lon="0.90766">
        <ele>129.4</ele>
        <time>2016-10-09T07:08:29Z</time>
      </trkpt>
      <trkpt lat="49.34671" lon="0.90774">
        <ele>129.5</ele>
        <time>2016-10-09T07:08:31Z</time>
      </trkpt>
      <trkpt lat="49.34661" lon="0.90783">
        <ele>129.6</ele>
        <time>2016-10-09T07:08:33Z</time>
      </trkpt>
      <trkpt lat="49.34648" lon="0.90793">
        <ele>129.6</ele>
        <time>2016-10-09T07:08:35Z</time>
      </trkpt>
      <trkpt lat="49.34636" lon="0.90804">
        <ele>129.5</ele>
        <time>2016-10-09T07:08:37Z</time>
      </trkpt>
      <trkpt lat="49.34624" lon="0.90817">
        <ele>129.4</ele>
        <time>2016-10-09T07:08:39Z</time>
      </trkpt>
      <trkpt lat="49.34611" lon="0.9083">
        <ele>129.2</ele>
        <time>2016-10-09T07:08:41Z</time>
      </trkpt>
      <trkpt lat="49.34598" lon="0.90843">
        <ele>129.1</ele>
        <time>2016-10-09T07:08:43Z</time>
      </trkpt>
      <trkpt lat="49.34585" lon="0.90857">
        <ele>128.9</ele>
        <time>2016-10-09T07:08:45Z</time>
      </trkpt>
      <trkpt lat="49.34572" lon="0.90871">
        <ele>128.7</ele>
        <time>2016-10-09T07:08:47Z</time>
      </trkpt>
      <trkpt lat="49.34558" lon="0.90885">
        <ele>128.5</ele>
        <time>2016-10-09T07:08:49Z</time>
      </trkpt>
      <trkpt lat="49.34545" lon="0.90898">
        <ele>128.2</ele>
        <time>2016-10-09T07:08:51Z</time>
      </trkpt>
      <trkpt lat="49.34532" lon="0.90911">
        <ele>127.9</ele>
        <time>2016-10-09T07:08:53Z</time>
      </trkpt>
      <trkpt lat="49.34519" lon="0.90925">
        <ele>127.6</ele>
        <time>2016-10-09T07:08:55Z</time>
      </trkpt>
      <trkpt lat="49.34507" lon="0.90938">
        <ele>127.3</ele>
        <time>2016-10-09T07:08:57Z</time>
      </trkpt>
      <trkpt lat="49.34496" lon="0.90951">
        <ele>126.9</ele>
        <time>2016-10-09T07:08:59Z</time>
      </trkpt>
      <trkpt lat="49.34484" lon="0.90964">
        <ele>126.7</ele>
        <time>2016-10-09T07:09:01Z</time>
      </trkpt>
      <trkpt lat="49.34473" lon="0.90976">
        <ele>126.3</ele>
        <time>2016-10-09T07:09:03Z</time>
      </trkpt>
      <trkpt lat="49.34464" lon="0.90979">
        <ele>126</ele>
        <time>2016-10-09T07:09:05Z</time>
      </trkpt>
      <trkpt lat="49.34457" lon="0.90963">
        <ele>125.6</ele>
        <time>2016-10-09T07:09:08Z</time>
      </trkpt>
      <trkpt lat="49.34456" lon="0.90947">
        <ele>125.3</ele>
        <time>2016-10-09T07:09:10Z</time>
      </trkpt>
      <trkpt lat="49.34455" lon="0.90931">
        <ele>125.1</ele>
        <time>2016-10-09T07:09:12Z</time>
      </trkpt>
      <trkpt lat="49.34453" lon="0.90914">
        <ele>124.9</ele>
        <time>2016-10-09T07:09:14Z</time>
      </trkpt>
      <trkpt lat="49.34452" lon="0.90897">
        <ele>124.7</ele>
        <time>2016-10-09T07:09:16Z</time>
      </trkpt>
      <trkpt lat="49.3445" lon="0.9088">
        <ele>124.5</ele>
        <time>2016-10-09T07:09:18Z</time>
      </trkpt>
      <trkpt lat="49.34449" lon="0.90863">
        <ele>124.4</ele>
        <time>2016-10-09T07:09:20Z</time>
      </trkpt>
      <trkpt lat="49.34447" lon="0.90846">
        <ele>124.2</ele>
        <time>2016-10-09T07:09:22Z</time>
      </trkpt>
      <trkpt lat="49.34445" lon="0.90829">
        <ele>124.1</ele>
        <time>2016-10-09T07:09:24Z</time>
      </trkpt>
      <trkpt lat="49.34443" lon="0.90812">
        <ele>124</ele>
        <time>2016-10-09T07:09:26Z</time>
      </trkpt>
      <trkpt lat="49.34441" lon="0.90795">
        <ele>123.9</ele>
        <time>2016-10-09T07:09:28Z</time>
      </trkpt>
      <trkpt lat="49.34437" lon="0.90779">
        <ele>123.8</ele>
        <time>2016-10-09T07:09:30Z</time>
      </trkpt>
      <trkpt lat="49.34432" lon="0.90764">
        <ele>123.7</ele>
        <time>2016-10-09T07:09:32Z</time>
      </trkpt>
      <trkpt lat="49.34425" lon="0.90748">
        <ele>123.7</ele>
        <time>2016-10-09T07:09:34Z</time>
      </trkpt>
      <trkpt lat="49.34418" lon="0.90733">
        <ele>123.6</ele>
        <time>2016-10-09T07:09:36Z</time>
      </trkpt>
      <trkpt lat="49.34411" lon="0.90718">
        <ele>123.6</ele>
        <time>2016-10-09T07:09:38Z</time>
      </trkpt>
      <trkpt lat="49.34404" lon="0.90702">
        <ele>123.5</ele>
        <time>2016-10-09T07:09:40Z</time>
      </trkpt>
      <trkpt lat="49.34398" lon="0.90687">
        <ele>123.5</ele>
        <time>2016-10-09T07:09:42Z</time>
      </trkpt>
      <trkpt lat="49.34391" lon="0.90671">
        <ele>123.5</ele>
        <time>2016-10-09T07:09:44Z</time>
      </trkpt>
      <trkpt lat="49.34384" lon="0.90656">
        <ele>123.4</ele>
        <time>2016-10-09T07:09:46Z</time>
      </trkpt>
      <trkpt lat="49.34378" lon="0.90641">
        <ele>123.4</ele>
        <time>2016-10-09T07:09:48Z</time>
      </trkpt>
      <trkpt lat="49.34371" lon="0.90625">
        <ele>123.4</ele>
        <time>2016-10-09T07:09:50Z</time>
      </trkpt>
      <trkpt lat="49.34365" lon="0.90611">
        <ele>123.4</ele>
        <time>2016-10-09T07:09:52Z</time>
      </trkpt>
      <trkpt lat="49.34358" lon="0.90595">
        <ele>123.3</ele>
        <time>2016-10-09T07:09:54Z</time>
      </trkpt>
      <trkpt lat="49.34352" lon="0.90578">
        <ele>123.3</ele>
        <time>2016-10-09T07:09:56Z</time>
      </trkpt>
      <trkpt lat="49.34348" lon="0.90561">
        <ele>123.3</ele>
        <time>2016-10-09T07:09:58Z</time>
      </trkpt>
      <trkpt lat="49.34347" lon="0.90543">
        <ele>123.3</ele>
        <time>2016-10-09T07:10:00Z</time>
      </trkpt>
      <trkpt lat="49.34347" lon="0.90524">
        <ele>123.3</ele>
        <time>2016-10-09T07:10:02Z</time>
      </trkpt>
      <trkpt lat="49.34347" lon="0.90506">
        <ele>123.2</ele>
        <time>2016-10-09T07:10:04Z</time>
      </trkpt>
      <trkpt lat="49.34349" lon="0.90487">
        <ele>123.2</ele>
        <time>2016-10-09T07:10:06Z</time>
      </trkpt>
      <trkpt lat="49.34351" lon="0.90468">
        <ele>123.2</ele>
        <time>2016-10-09T07:10:08Z</time>
      </trkpt>
      <trkpt lat="49.34355" lon="0.90449">
        <ele>123.2</ele>
        <time>2016-10-09T07:10:10Z</time>
      </trkpt>
      <trkpt lat="49.34359" lon="0.9043">
        <ele>123.2</ele>
        <time>2016-10-09T07:10:12Z</time>
      </trkpt>
      <trkpt lat="49.34363" lon="0.90412">
        <ele>123.1</ele>
        <time>2016-10-09T07:10:14Z</time>
      </trkpt>
      <trkpt lat="49.34365" lon="0.90393">
        <ele>123.1</ele>
        <time>2016-10-09T07:10:16Z</time>
      </trkpt>
      <trkpt lat="49.34369" lon="0.90377">
        <ele>123.1</ele>
        <time>2016-10-09T07:10:18Z</time>
      </trkpt>
      <trkpt lat="49.34372" lon="0.90363">
        <ele>123</ele>
        <time>2016-10-09T07:10:20Z</time>
      </trkpt>
      <trkpt lat="49.34372" lon="0.90346">
        <ele>122.9</ele>
        <time>2016-10-09T07:10:22Z</time>
      </trkpt>
      <trkpt lat="49.3437" lon="0.90328">
        <ele>122.8</ele>
        <time>2016-10-09T07:10:24Z</time>
      </trkpt>
      <trkpt lat="49.34367" lon="0.90309">
        <ele>122.7</ele>
        <time>2016-10-09T07:10:26Z</time>
      </trkpt>
      <trkpt lat="49.34366" lon="0.90292">
        <ele>122.6</ele>
        <time>2016-10-09T07:10:28Z</time>
      </trkpt>
      <trkpt lat="49.34365" lon="0.90274">
        <ele>122.4</ele>
        <time>2016-10-09T07:10:30Z</time>
      </trkpt>
      <trkpt lat="49.34362" lon="0.90256">
        <ele>122.3</ele>
        <time>2016-10-09T07:10:32Z</time>
      </trkpt>
      <trkpt lat="49.34355" lon="0.90237">
        <ele>122.1</ele>
        <time>2016-10-09T07:10:34Z</time>
      </trkpt>
      <trkpt lat="49.34349" lon="0.9022">
        <ele>122</ele>
        <time>2016-10-09T07:10:36Z</time>
      </trkpt>
      <trkpt lat="49.34345" lon="0.90203">
        <ele>121.5</ele>
        <time>2016-10-09T07:10:40Z</time>
      </trkpt>
      <trkpt lat="49.34339" lon="0.9019">
        <ele>121.2</ele>
        <time>2016-10-09T07:10:43Z</time>
      </trkpt>
      <trkpt lat="49.34335" lon="0.90178">
        <ele>121</ele>
        <time>2016-10-09T07:10:45Z</time>
      </trkpt>
      <trkpt lat="49.3433" lon="0.90166">
        <ele>120.5</ele>
        <time>2016-10-09T07:10:51Z</time>
      </trkpt>
      <trkpt lat="49.34323" lon="0.90156">
        <ele>119.8</ele>
        <time>2016-10-09T07:11:07Z</time>
      </trkpt>
      <trkpt lat="49.34321" lon="0.90143">
        <ele>119.2</ele>
        <time>2016-10-09T07:12:17Z</time>
      </trkpt>
      <trkpt lat="49.34315" lon="0.90132">
        <ele>119.2</ele>
        <time>2016-10-09T07:12:31Z</time>
      </trkpt>
      <trkpt lat="49.34323" lon="0.90139">
        <ele>119.2</ele>
        <time>2016-10-09T07:16:16Z</time>
      </trkpt>
      <trkpt lat="49.34315" lon="0.90131">
        <ele>119.2</ele>
        <time>2016-10-09T07:16:58Z</time>
      </trkpt>
      <trkpt lat="49.34306" lon="0.90127">
        <ele>119.2</ele>
        <time>2016-10-09T07:17:22Z</time>
      </trkpt>
      <trkpt lat="49.34296" lon="0.90131">
        <ele>119.2</ele>
        <time>2016-10-09T07:17:42Z</time>
      </trkpt>
      <trkpt lat="49.34287" lon="0.90134">
        <ele>119.2</ele>
        <time>2016-10-09T07:17:46Z</time>
      </trkpt>
      <trkpt lat="49.34278" lon="0.90142">
        <ele>119.2</ele>
        <time>2016-10-09T07:17:52Z</time>
      </trkpt>
      <trkpt lat="49.34267" lon="0.90145">
        <ele>119.2</ele>
        <time>2016-10-09T07:17:56Z</time>
      </trkpt>
      <trkpt lat="49.34257" lon="0.90151">
        <ele>119.2</ele>
        <time>2016-10-09T07:18:00Z</time>
      </trkpt>
      <trkpt lat="49.34247" lon="0.90155">
        <ele>119.2</ele>
        <time>2016-10-09T07:18:03Z</time>
      </trkpt>
      <trkpt lat="49.34238" lon="0.9016">
        <ele>119.3</ele>
        <time>2016-10-09T07:18:06Z</time>
      </trkpt>
      <trkpt lat="49.34227" lon="0.90165">
        <ele>119.3</ele>
        <time>2016-10-09T07:18:09Z</time>
      </trkpt>
      <trkpt lat="49.34218" lon="0.90173">
        <ele>119.3</ele>
        <time>2016-10-09T07:18:12Z</time>
      </trkpt>
      <trkpt lat="49.3421" lon="0.90185">
        <ele>119.3</ele>
        <time>2016-10-09T07:18:15Z</time>
      </trkpt>
      <trkpt lat="49.34203" lon="0.90195">
        <ele>119.3</ele>
        <time>2016-10-09T07:18:19Z</time>
      </trkpt>
      <trkpt lat="49.34195" lon="0.90202">
        <ele>119.3</ele>
        <time>2016-10-09T07:18:23Z</time>
      </trkpt>
      <trkpt lat="49.34187" lon="0.90215">
        <ele>119.4</ele>
        <time>2016-10-09T07:18:26Z</time>
      </trkpt>
      <trkpt lat="49.34178" lon="0.90226">
        <ele>119.4</ele>
        <time>2016-10-09T07:18:28Z</time>
      </trkpt>
      <trkpt lat="49.34169" lon="0.90235">
        <ele>119.4</ele>
        <time>2016-10-09T07:18:30Z</time>
      </trkpt>
      <trkpt lat="49.3416" lon="0.90245">
        <ele>119.4</ele>
        <time>2016-10-09T07:18:32Z</time>
      </trkpt>
      <trkpt lat="49.34149" lon="0.90252">
        <ele>119.4</ele>
        <time>2016-10-09T07:18:34Z</time>
      </trkpt>
      <trkpt lat="49.34138" lon="0.90261">
        <ele>119.4</ele>
        <time>2016-10-09T07:18:36Z</time>
      </trkpt>
      <trkpt lat="49.3413" lon="0.90272">
        <ele>119.5</ele>
        <time>2016-10-09T07:18:39Z</time>
      </trkpt>
      <trkpt lat="49.34122" lon="0.90282">
        <ele>119.5</ele>
        <time>2016-10-09T07:18:41Z</time>
      </trkpt>
      <trkpt lat="49.34113" lon="0.90295">
        <ele>119.5</ele>
        <time>2016-10-09T07:18:43Z</time>
      </trkpt>
      <trkpt lat="49.34103" lon="0.90307">
        <ele>119.5</ele>
        <time>2016-10-09T07:18:45Z</time>
      </trkpt>
      <trkpt lat="49.34093" lon="0.90317">
        <ele>119.5</ele>
        <time>2016-10-09T07:18:47Z</time>
      </trkpt>
      <trkpt lat="49.34082" lon="0.90327">
        <ele>119.5</ele>
        <time>2016-10-09T07:18:50Z</time>
      </trkpt>
      <trkpt lat="49.34075" lon="0.90336">
        <ele>119.4</ele>
        <time>2016-10-09T07:18:52Z</time>
      </trkpt>
      <trkpt lat="49.34069" lon="0.90351">
        <ele>119.4</ele>
        <time>2016-10-09T07:18:54Z</time>
      </trkpt>
      <trkpt lat="49.34064" lon="0.90368">
        <ele>119.4</ele>
        <time>2016-10-09T07:18:56Z</time>
      </trkpt>
      <trkpt lat="49.34059" lon="0.90382">
        <ele>119.4</ele>
        <time>2016-10-09T07:18:58Z</time>
      </trkpt>
      <trkpt lat="49.34055" lon="0.90396">
        <ele>119.4</ele>
        <time>2016-10-09T07:19:00Z</time>
      </trkpt>
      <trkpt lat="49.34048" lon="0.90414">
        <ele>119.3</ele>
        <time>2016-10-09T07:19:03Z</time>
      </trkpt>
      <trkpt lat="49.3404" lon="0.90426">
        <ele>119.3</ele>
        <time>2016-10-09T07:19:05Z</time>
      </trkpt>
      <trkpt lat="49.34029" lon="0.90438">
        <ele>119.3</ele>
        <time>2016-10-09T07:19:07Z</time>
      </trkpt>
      <trkpt lat="49.34021" lon="0.90448">
        <ele>119.3</ele>
        <time>2016-10-09T07:19:09Z</time>
      </trkpt>
      <trkpt lat="49.34013" lon="0.90462">
        <ele>119.2</ele>
        <time>2016-10-09T07:19:11Z</time>
      </trkpt>
      <trkpt lat="49.34006" lon="0.90477">
        <ele>119.2</ele>
        <time>2016-10-09T07:19:13Z</time>
      </trkpt>
      <trkpt lat="49.34003" lon="0.90496">
        <ele>119.1</ele>
        <time>2016-10-09T07:19:15Z</time>
      </trkpt>
      <trkpt lat="49.34002" lon="0.90515">
        <ele>119</ele>
        <time>2016-10-09T07:19:17Z</time>
      </trkpt>
      <trkpt lat="49.34" lon="0.90534">
        <ele>118.9</ele>
        <time>2016-10-09T07:19:19Z</time>
      </trkpt>
      <trkpt lat="49.33998" lon="0.90551">
        <ele>118.8</ele>
        <time>2016-10-09T07:19:21Z</time>
      </trkpt>
      <trkpt lat="49.33995" lon="0.90567">
        <ele>118.8</ele>
        <time>2016-10-09T07:19:23Z</time>
      </trkpt>
      <trkpt lat="49.33993" lon="0.90586">
        <ele>118.7</ele>
        <time>2016-10-09T07:19:25Z</time>
      </trkpt>
      <trkpt lat="49.33989" lon="0.90605">
        <ele>118.6</ele>
        <time>2016-10-09T07:19:27Z</time>
      </trkpt>
      <trkpt lat="49.33988" lon="0.9062">
        <ele>118.5</ele>
        <time>2016-10-09T07:19:29Z</time>
      </trkpt>
      <trkpt lat="49.33987" lon="0.90639">
        <ele>118.5</ele>
        <time>2016-10-09T07:19:31Z</time>
      </trkpt>
      <trkpt lat="49.33985" lon="0.90661">
        <ele>118.4</ele>
        <time>2016-10-09T07:19:33Z</time>
      </trkpt>
      <trkpt lat="49.33983" lon="0.9068">
        <ele>118.3</ele>
        <time>2016-10-09T07:19:35Z</time>
      </trkpt>
      <trkpt lat="49.33982" lon="0.90697">
        <ele>118.2</ele>
        <time>2016-10-09T07:19:37Z</time>
      </trkpt>
      <trkpt lat="49.33981" lon="0.90719">
        <ele>118.1</ele>
        <time>2016-10-09T07:19:39Z</time>
      </trkpt>
      <trkpt lat="49.33979" lon="0.90743">
        <ele>117.8</ele>
        <time>2016-10-09T07:19:41Z</time>
      </trkpt>
      <trkpt lat="49.33978" lon="0.90765">
        <ele>117.5</ele>
        <time>2016-10-09T07:19:43Z</time>
      </trkpt>
      <trkpt lat="49.33977" lon="0.90784">
        <ele>117.2</ele>
        <time>2016-10-09T07:19:45Z</time>
      </trkpt>
      <trkpt lat="49.33975" lon="0.9081">
        <ele>116.8</ele>
        <time>2016-10-09T07:19:47Z</time>
      </trkpt>
      <trkpt lat="49.33975" lon="0.90835">
        <ele>116.4</ele>
        <time>2016-10-09T07:19:49Z</time>
      </trkpt>
      <trkpt lat="49.33977" lon="0.90859">
        <ele>115.9</ele>
        <time>2016-10-09T07:19:51Z</time>
      </trkpt>
      <trkpt lat="49.3398" lon="0.90881">
        <ele>115.5</ele>
        <time>2016-10-09T07:19:53Z</time>
      </trkpt>
      <trkpt lat="49.33985" lon="0.909">
        <ele>115.2</ele>
        <time>2016-10-09T07:19:55Z</time>
      </trkpt>
      <trkpt lat="49.3399" lon="0.90919">
        <ele>114.7</ele>
        <time>2016-10-09T07:19:57Z</time>
      </trkpt>
      <trkpt lat="49.3399" lon="0.90941">
        <ele>114.2</ele>
        <time>2016-10-09T07:19:59Z</time>
      </trkpt>
      <trkpt lat="49.3399" lon="0.90964">
        <ele>113.9</ele>
        <time>2016-10-09T07:20:01Z</time>
      </trkpt>
      <trkpt lat="49.33989" lon="0.90982">
        <ele>113.5</ele>
        <time>2016-10-09T07:20:03Z</time>
      </trkpt>
      <trkpt lat="49.33985" lon="0.91002">
        <ele>113.2</ele>
        <time>2016-10-09T07:20:05Z</time>
      </trkpt>
      <trkpt lat="49.33979" lon="0.91025">
        <ele>112.9</ele>
        <time>2016-10-09T07:20:07Z</time>
      </trkpt>
      <trkpt lat="49.3398" lon="0.91049">
        <ele>112.6</ele>
        <time>2016-10-09T07:20:09Z</time>
      </trkpt>
      <trkpt lat="49.33978" lon="0.91067">
        <ele>112.3</ele>
        <time>2016-10-09T07:20:11Z</time>
      </trkpt>
      <trkpt lat="49.33977" lon="0.91084">
        <ele>112</ele>
        <time>2016-10-09T07:20:13Z</time>
      </trkpt>
      <trkpt lat="49.33978" lon="0.91105">
        <ele>111.8</ele>
        <time>2016-10-09T07:20:15Z</time>
      </trkpt>
      <trkpt lat="49.33978" lon="0.91122">
        <ele>111.6</ele>
        <time>2016-10-09T07:20:17Z</time>
      </trkpt>
      <trkpt lat="49.33977" lon="0.91141">
        <ele>111.4</ele>
        <time>2016-10-09T07:20:19Z</time>
      </trkpt>
      <trkpt lat="49.33975" lon="0.91158">
        <ele>111.3</ele>
        <time>2016-10-09T07:20:21Z</time>
      </trkpt>
      <trkpt lat="49.33974" lon="0.91173">
        <ele>111.3</ele>
        <time>2016-10-09T07:20:23Z</time>
      </trkpt>
      <trkpt lat="49.33973" lon="0.91189">
        <ele>111.3</ele>
        <time>2016-10-09T07:20:25Z</time>
      </trkpt>
      <trkpt lat="49.33971" lon="0.91205">
        <ele>111.3</ele>
        <time>2016-10-09T07:20:27Z</time>
      </trkpt>
      <trkpt lat="49.33966" lon="0.9122">
        <ele>111.4</ele>
        <time>2016-10-09T07:20:29Z</time>
      </trkpt>
      <trkpt lat="49.33962" lon="0.91234">
        <ele>111.4</ele>
        <time>2016-10-09T07:20:31Z</time>
      </trkpt>
      <trkpt lat="49.33961" lon="0.91251">
        <ele>111.5</ele>
        <time>2016-10-09T07:20:33Z</time>
      </trkpt>
      <trkpt lat="49.33959" lon="0.9127">
        <ele>111.6</ele>
        <time>2016-10-09T07:20:36Z</time>
      </trkpt>
      <trkpt lat="49.33957" lon="0.91283">
        <ele>111.6</ele>
        <time>2016-10-09T07:20:38Z</time>
      </trkpt>
      <trkpt lat="49.33953" lon="0.91297">
        <ele>111.7</ele>
        <time>2016-10-09T07:20:40Z</time>
      </trkpt>
      <trkpt lat="49.33953" lon="0.91311">
        <ele>111.8</ele>
        <time>2016-10-09T07:20:42Z</time>
      </trkpt>
      <trkpt lat="49.33951" lon="0.91329">
        <ele>111.9</ele>
        <time>2016-10-09T07:20:45Z</time>
      </trkpt>
      <trkpt lat="49.33948" lon="0.91349">
        <ele>112</ele>
        <time>2016-10-09T07:20:48Z</time>
      </trkpt>
      <trkpt lat="49.33945" lon="0.91364">
        <ele>112</ele>
        <time>2016-10-09T07:20:50Z</time>
      </trkpt>
      <trkpt lat="49.3394" lon="0.91381">
        <ele>112.1</ele>
        <time>2016-10-09T07:20:52Z</time>
      </trkpt>
      <trkpt lat="49.33937" lon="0.91397">
        <ele>112.1</ele>
        <time>2016-10-09T07:20:54Z</time>
      </trkpt>
      <trkpt lat="49.33933" lon="0.91412">
        <ele>112.2</ele>
        <time>2016-10-09T07:20:56Z</time>
      </trkpt>
      <trkpt lat="49.33927" lon="0.91425">
        <ele>112.2</ele>
        <time>2016-10-09T07:20:58Z</time>
      </trkpt>
      <trkpt lat="49.33922" lon="0.91438">
        <ele>112.3</ele>
        <time>2016-10-09T07:21:00Z</time>
      </trkpt>
      <trkpt lat="49.33916" lon="0.9145">
        <ele>112.3</ele>
        <time>2016-10-09T07:21:02Z</time>
      </trkpt>
      <trkpt lat="49.3391" lon="0.91467">
        <ele>112.4</ele>
        <time>2016-10-09T07:21:05Z</time>
      </trkpt>
      <trkpt lat="49.33903" lon="0.91483">
        <ele>112.4</ele>
        <time>2016-10-09T07:21:08Z</time>
      </trkpt>
      <trkpt lat="49.33894" lon="0.91497">
        <ele>112.4</ele>
        <time>2016-10-09T07:21:11Z</time>
      </trkpt>
      <trkpt lat="49.33886" lon="0.91511">
        <ele>112.4</ele>
        <time>2016-10-09T07:21:14Z</time>
      </trkpt>
      <trkpt lat="49.33876" lon="0.91523">
        <ele>112.3</ele>
        <time>2016-10-09T07:21:17Z</time>
      </trkpt>
      <trkpt lat="49.33867" lon="0.91533">
        <ele>112.1</ele>
        <time>2016-10-09T07:21:20Z</time>
      </trkpt>
      <trkpt lat="49.33859" lon="0.9154">
        <ele>112</ele>
        <time>2016-10-09T07:21:22Z</time>
      </trkpt>
      <trkpt lat="49.33852" lon="0.91552">
        <ele>111.9</ele>
        <time>2016-10-09T07:21:24Z</time>
      </trkpt>
      <trkpt lat="49.33846" lon="0.91563">
        <ele>111.8</ele>
        <time>2016-10-09T07:21:26Z</time>
      </trkpt>
      <trkpt lat="49.33838" lon="0.91574">
        <ele>111.7</ele>
        <time>2016-10-09T07:21:28Z</time>
      </trkpt>
      <trkpt lat="49.33829" lon="0.9158">
        <ele>111.6</ele>
        <time>2016-10-09T07:21:30Z</time>
      </trkpt>
      <trkpt lat="49.33815" lon="0.91591">
        <ele>111.3</ele>
        <time>2016-10-09T07:21:33Z</time>
      </trkpt>
      <trkpt lat="49.33805" lon="0.91595">
        <ele>110.9</ele>
        <time>2016-10-09T07:21:35Z</time>
      </trkpt>
      <trkpt lat="49.33795" lon="0.91603">
        <ele>110.6</ele>
        <time>2016-10-09T07:21:37Z</time>
      </trkpt>
      <trkpt lat="49.33785" lon="0.91611">
        <ele>110.3</ele>
        <time>2016-10-09T07:21:39Z</time>
      </trkpt>
      <trkpt lat="49.33774" lon="0.91622">
        <ele>110.1</ele>
        <time>2016-10-09T07:21:41Z</time>
      </trkpt>
      <trkpt lat="49.33764" lon="0.91632">
        <ele>109.8</ele>
        <time>2016-10-09T07:21:43Z</time>
      </trkpt>
      <trkpt lat="49.33757" lon="0.91643">
        <ele>109.5</ele>
        <time>2016-10-09T07:21:45Z</time>
      </trkpt>
      <trkpt lat="49.33748" lon="0.91652">
        <ele>109.2</ele>
        <time>2016-10-09T07:21:47Z</time>
      </trkpt>
      <trkpt lat="49.33735" lon="0.91658">
        <ele>108.8</ele>
        <time>2016-10-09T07:21:49Z</time>
      </trkpt>
      <trkpt lat="49.33724" lon="0.91665">
        <ele>108.4</ele>
        <time>2016-10-09T07:21:51Z</time>
      </trkpt>
      <trkpt lat="49.33712" lon="0.91673">
        <ele>107.8</ele>
        <time>2016-10-09T07:21:53Z</time>
      </trkpt>
      <trkpt lat="49.33701" lon="0.91674">
        <ele>107.1</ele>
        <time>2016-10-09T07:21:55Z</time>
      </trkpt>
      <trkpt lat="49.3369" lon="0.91671">
        <ele>106.2</ele>
        <time>2016-10-09T07:21:57Z</time>
      </trkpt>
      <trkpt lat="49.33678" lon="0.91665">
        <ele>105.3</ele>
        <time>2016-10-09T07:21:59Z</time>
      </trkpt>
      <trkpt lat="49.33668" lon="0.91661">
        <ele>104.3</ele>
        <time>2016-10-09T07:22:01Z</time>
      </trkpt>
      <trkpt lat="49.33657" lon="0.91663">
        <ele>103</ele>
        <time>2016-10-09T07:22:03Z</time>
      </trkpt>
      <trkpt lat="49.33648" lon="0.91668">
        <ele>101.4</ele>
        <time>2016-10-09T07:22:05Z</time>
      </trkpt>
      <trkpt lat="49.33639" lon="0.91673">
        <ele>99.2</ele>
        <time>2016-10-09T07:22:08Z</time>
      </trkpt>
      <trkpt lat="49.33628" lon="0.91678">
        <ele>96.5</ele>
        <time>2016-10-09T07:22:12Z</time>
      </trkpt>
      <trkpt lat="49.3362" lon="0.91683">
        <ele>94.3</ele>
        <time>2016-10-09T07:22:15Z</time>
      </trkpt>
      <trkpt lat="49.33609" lon="0.91686">
        <ele>90.2</ele>
        <time>2016-10-09T07:22:20Z</time>
      </trkpt>
      <trkpt lat="49.33597" lon="0.91688">
        <ele>86.7</ele>
        <time>2016-10-09T07:22:24Z</time>
      </trkpt>
      <trkpt lat="49.33587" lon="0.91688">
        <ele>83.9</ele>
        <time>2016-10-09T07:22:27Z</time>
      </trkpt>
      <trkpt lat="49.33578" lon="0.91686">
        <ele>80.1</ele>
        <time>2016-10-09T07:22:31Z</time>
      </trkpt>
      <trkpt lat="49.33568" lon="0.9168">
        <ele>77.1</ele>
        <time>2016-10-09T07:22:34Z</time>
      </trkpt>
      <trkpt lat="49.33559" lon="0.9168">
        <ele>74.1</ele>
        <time>2016-10-09T07:22:37Z</time>
      </trkpt>
      <trkpt lat="49.33547" lon="0.91687">
        <ele>70.3</ele>
        <time>2016-10-09T07:22:41Z</time>
      </trkpt>
      <trkpt lat="49.33539" lon="0.91697">
        <ele>66.7</ele>
        <time>2016-10-09T07:22:45Z</time>
      </trkpt>
      <trkpt lat="49.3353" lon="0.91704">
        <ele>62.7</ele>
        <time>2016-10-09T07:22:50Z</time>
      </trkpt>
      <trkpt lat="49.33521" lon="0.91715">
        <ele>60</ele>
        <time>2016-10-09T07:22:54Z</time>
      </trkpt>
      <trkpt lat="49.33519" lon="0.9173">
        <ele>58.3</ele>
        <time>2016-10-09T07:22:57Z</time>
      </trkpt>
      <trkpt lat="49.33516" lon="0.91745">
        <ele>56.9</ele>
        <time>2016-10-09T07:23:00Z</time>
      </trkpt>
      <trkpt lat="49.33514" lon="0.91762">
        <ele>55.7</ele>
        <time>2016-10-09T07:23:03Z</time>
      </trkpt>
      <trkpt lat="49.33513" lon="0.91778">
        <ele>54.8</ele>
        <time>2016-10-09T07:23:06Z</time>
      </trkpt>
      <trkpt lat="49.33507" lon="0.9179">
        <ele>53.7</ele>
        <time>2016-10-09T07:23:10Z</time>
      </trkpt>
      <trkpt lat="49.33499" lon="0.91802">
        <ele>53</ele>
        <time>2016-10-09T07:23:13Z</time>
      </trkpt>
      <trkpt lat="49.33491" lon="0.91812">
        <ele>52.3</ele>
        <time>2016-10-09T07:23:17Z</time>
      </trkpt>
      <trkpt lat="49.33482" lon="0.91818">
        <ele>51.5</ele>
        <time>2016-10-09T07:23:22Z</time>
      </trkpt>
      <trkpt lat="49.33473" lon="0.91824">
        <ele>50.5</ele>
        <time>2016-10-09T07:23:31Z</time>
      </trkpt>
      <trkpt lat="49.33465" lon="0.91833">
        <ele>50</ele>
        <time>2016-10-09T07:23:38Z</time>
      </trkpt>
      <trkpt lat="49.33457" lon="0.9184">
        <ele>49.9</ele>
        <time>2016-10-09T07:23:54Z</time>
      </trkpt>
      <trkpt lat="49.33448" lon="0.91846">
        <ele>51.1</ele>
        <time>2016-10-09T07:24:02Z</time>
      </trkpt>
      <trkpt lat="49.3344" lon="0.91856">
        <ele>52</ele>
        <time>2016-10-09T07:24:09Z</time>
      </trkpt>
      <trkpt lat="49.33434" lon="0.91869">
        <ele>52.4</ele>
        <time>2016-10-09T07:24:12Z</time>
      </trkpt>
      <trkpt lat="49.3343" lon="0.91883">
        <ele>52.6</ele>
        <time>2016-10-09T07:24:15Z</time>
      </trkpt>
      <trkpt lat="49.33432" lon="0.91898">
        <ele>52.9</ele>
        <time>2016-10-09T07:24:21Z</time>
      </trkpt>
      <trkpt lat="49.33437" lon="0.91911">
        <ele>52.9</ele>
        <time>2016-10-09T07:24:24Z</time>
      </trkpt>
      <trkpt lat="49.33438" lon="0.91928">
        <ele>53</ele>
        <time>2016-10-09T07:24:28Z</time>
      </trkpt>
      <trkpt lat="49.33442" lon="0.91942">
        <ele>53</ele>
        <time>2016-10-09T07:24:32Z</time>
      </trkpt>
      <trkpt lat="49.33448" lon="0.91952">
        <ele>53</ele>
        <time>2016-10-09T07:24:35Z</time>
      </trkpt>
      <trkpt lat="49.33456" lon="0.91962">
        <ele>53</ele>
        <time>2016-10-09T07:24:38Z</time>
      </trkpt>
      <trkpt lat="49.33465" lon="0.91971">
        <ele>53</ele>
        <time>2016-10-09T07:24:41Z</time>
      </trkpt>
      <trkpt lat="49.33471" lon="0.91985">
        <ele>53.1</ele>
        <time>2016-10-09T07:24:45Z</time>
      </trkpt>
      <trkpt lat="49.33469" lon="0.92003">
        <ele>53</ele>
        <time>2016-10-09T07:24:47Z</time>
      </trkpt>
      <trkpt lat="49.33468" lon="0.92021">
        <ele>52.9</ele>
        <time>2016-10-09T07:24:49Z</time>
      </trkpt>
      <trkpt lat="49.33465" lon="0.92041">
        <ele>52.6</ele>
        <time>2016-10-09T07:24:51Z</time>
      </trkpt>
      <trkpt lat="49.33459" lon="0.9206">
        <ele>52.2</ele>
        <time>2016-10-09T07:24:53Z</time>
      </trkpt>
      <trkpt lat="49.33459" lon="0.92077">
        <ele>51.9</ele>
        <time>2016-10-09T07:24:55Z</time>
      </trkpt>
      <trkpt lat="49.33462" lon="0.92093">
        <ele>51.7</ele>
        <time>2016-10-09T07:24:57Z</time>
      </trkpt>
      <trkpt lat="49.33466" lon="0.92106">
        <ele>51.4</ele>
        <time>2016-10-09T07:24:59Z</time>
      </trkpt>
      <trkpt lat="49.33473" lon="0.92124">
        <ele>51.1</ele>
        <time>2016-10-09T07:25:02Z</time>
      </trkpt>
      <trkpt lat="49.33477" lon="0.92139">
        <ele>50.9</ele>
        <time>2016-10-09T07:25:05Z</time>
      </trkpt>
      <trkpt lat="49.33478" lon="0.92154">
        <ele>50.7</ele>
        <time>2016-10-09T07:25:08Z</time>
      </trkpt>
      <trkpt lat="49.33482" lon="0.92166">
        <ele>50.5</ele>
        <time>2016-10-09T07:25:11Z</time>
      </trkpt>
      <trkpt lat="49.33492" lon="0.92172">
        <ele>50.4</ele>
        <time>2016-10-09T07:25:16Z</time>
      </trkpt>
      <trkpt lat="49.33501" lon="0.92168">
        <ele>51.9</ele>
        <time>2016-10-09T07:25:33Z</time>
      </trkpt>
      <trkpt lat="49.33509" lon="0.92159">
        <ele>52.7</ele>
        <time>2016-10-09T07:25:48Z</time>
      </trkpt>
      <trkpt lat="49.33517" lon="0.92155">
        <ele>53.5</ele>
        <time>2016-10-09T07:25:55Z</time>
      </trkpt>
      <trkpt lat="49.33525" lon="0.92147">
        <ele>55</ele>
        <time>2016-10-09T07:26:02Z</time>
      </trkpt>
      <trkpt lat="49.33532" lon="0.92138">
        <ele>56.4</ele>
        <time>2016-10-09T07:26:08Z</time>
      </trkpt>
      <trkpt lat="49.33541" lon="0.9213">
        <ele>57.9</ele>
        <time>2016-10-09T07:26:14Z</time>
      </trkpt>
      <trkpt lat="49.33548" lon="0.92119">
        <ele>59.6</ele>
        <time>2016-10-09T07:26:21Z</time>
      </trkpt>
      <trkpt lat="49.33556" lon="0.9211">
        <ele>61.5</ele>
        <time>2016-10-09T07:26:28Z</time>
      </trkpt>
      <trkpt lat="49.33563" lon="0.92098">
        <ele>63</ele>
        <time>2016-10-09T07:26:34Z</time>
      </trkpt>
      <trkpt lat="49.33569" lon="0.92086">
        <ele>63.8</ele>
        <time>2016-10-09T07:26:38Z</time>
      </trkpt>
      <trkpt lat="49.33574" lon="0.92073">
        <ele>64.6</ele>
        <time>2016-10-09T07:26:43Z</time>
      </trkpt>
      <trkpt lat="49.33583" lon="0.92063">
        <ele>65.2</ele>
        <time>2016-10-09T07:26:48Z</time>
      </trkpt>
      <trkpt lat="49.33592" lon="0.92061">
        <ele>65.5</ele>
        <time>2016-10-09T07:26:52Z</time>
      </trkpt>
      <trkpt lat="49.33601" lon="0.92061">
        <ele>65.9</ele>
        <time>2016-10-09T07:26:59Z</time>
      </trkpt>
      <trkpt lat="49.33611" lon="0.92061">
        <ele>66.2</ele>
        <time>2016-10-09T07:27:03Z</time>
      </trkpt>
      <trkpt lat="49.33621" lon="0.9206">
        <ele>66.5</ele>
        <time>2016-10-09T07:27:07Z</time>
      </trkpt>
      <trkpt lat="49.3363" lon="0.92061">
        <ele>67.2</ele>
        <time>2016-10-09T07:27:13Z</time>
      </trkpt>
      <trkpt lat="49.3364" lon="0.92064">
        <ele>68.6</ele>
        <time>2016-10-09T07:27:19Z</time>
      </trkpt>
      <trkpt lat="49.33651" lon="0.92064">
        <ele>69.6</ele>
        <time>2016-10-09T07:27:24Z</time>
      </trkpt>
      <trkpt lat="49.3366" lon="0.92064">
        <ele>70.3</ele>
        <time>2016-10-09T07:27:28Z</time>
      </trkpt>
      <trkpt lat="49.3367" lon="0.92062">
        <ele>71.4</ele>
        <time>2016-10-09T07:27:34Z</time>
      </trkpt>
      <trkpt lat="49.33681" lon="0.92062">
        <ele>72.1</ele>
        <time>2016-10-09T07:27:38Z</time>
      </trkpt>
      <trkpt lat="49.33691" lon="0.92063">
        <ele>72.9</ele>
        <time>2016-10-09T07:27:43Z</time>
      </trkpt>
      <trkpt lat="49.33702" lon="0.92067">
        <ele>74</ele>
        <time>2016-10-09T07:27:49Z</time>
      </trkpt>
      <trkpt lat="49.33712" lon="0.9207">
        <ele>75.6</ele>
        <time>2016-10-09T07:27:56Z</time>
      </trkpt>
      <trkpt lat="49.33722" lon="0.92074">
        <ele>76.8</ele>
        <time>2016-10-09T07:28:02Z</time>
      </trkpt>
      <trkpt lat="49.33729" lon="0.92082">
        <ele>78.1</ele>
        <time>2016-10-09T07:28:08Z</time>
      </trkpt>
      <trkpt lat="49.33739" lon="0.92085">
        <ele>79.2</ele>
        <time>2016-10-09T07:28:14Z</time>
      </trkpt>
      <trkpt lat="49.33748" lon="0.92083">
        <ele>79.8</ele>
        <time>2016-10-09T07:28:18Z</time>
      </trkpt>
      <trkpt lat="49.33758" lon="0.92083">
        <ele>80.2</ele>
        <time>2016-10-09T07:28:22Z</time>
      </trkpt>
      <trkpt lat="49.33768" lon="0.92088">
        <ele>80.6</ele>
        <time>2016-10-09T07:28:26Z</time>
      </trkpt>
      <trkpt lat="49.33779" lon="0.92092">
        <ele>80.8</ele>
        <time>2016-10-09T07:28:29Z</time>
      </trkpt>
      <trkpt lat="49.33787" lon="0.921">
        <ele>81</ele>
        <time>2016-10-09T07:28:33Z</time>
      </trkpt>
      <trkpt lat="49.33796" lon="0.9211">
        <ele>81.3</ele>
        <time>2016-10-09T07:28:38Z</time>
      </trkpt>
      <trkpt lat="49.33806" lon="0.92108">
        <ele>81.6</ele>
        <time>2016-10-09T07:28:43Z</time>
      </trkpt>
      <trkpt lat="49.33818" lon="0.9211">
        <ele>81.8</ele>
        <time>2016-10-09T07:28:47Z</time>
      </trkpt>
      <trkpt lat="49.33825" lon="0.92118">
        <ele>82</ele>
        <time>2016-10-09T07:28:51Z</time>
      </trkpt>
      <trkpt lat="49.33834" lon="0.92127">
        <ele>82.5</ele>
        <time>2016-10-09T07:28:55Z</time>
      </trkpt>
      <trkpt lat="49.33843" lon="0.92134">
        <ele>83.2</ele>
        <time>2016-10-09T07:29:00Z</time>
      </trkpt>
      <trkpt lat="49.33851" lon="0.92145">
        <ele>84.2</ele>
        <time>2016-10-09T07:29:05Z</time>
      </trkpt>
      <trkpt lat="49.33857" lon="0.92156">
        <ele>85.1</ele>
        <time>2016-10-09T07:29:11Z</time>
      </trkpt>
      <trkpt lat="49.33862" lon="0.92168">
        <ele>85.8</ele>
        <time>2016-10-09T07:29:16Z</time>
      </trkpt>
      <trkpt lat="49.33866" lon="0.92181">
        <ele>86.6</ele>
        <time>2016-10-09T07:29:21Z</time>
      </trkpt>
      <trkpt lat="49.3387" lon="0.92193">
        <ele>87.4</ele>
        <time>2016-10-09T07:29:27Z</time>
      </trkpt>
      <trkpt lat="49.33871" lon="0.9221">
        <ele>88.5</ele>
        <time>2016-10-09T07:29:33Z</time>
      </trkpt>
      <trkpt lat="49.33877" lon="0.9222">
        <ele>89.6</ele>
        <time>2016-10-09T07:29:38Z</time>
      </trkpt>
      <trkpt lat="49.33877" lon="0.92235">
        <ele>90.6</ele>
        <time>2016-10-09T07:29:43Z</time>
      </trkpt>
      <trkpt lat="49.33878" lon="0.92251">
        <ele>91.6</ele>
        <time>2016-10-09T07:29:49Z</time>
      </trkpt>
      <trkpt lat="49.33886" lon="0.92266">
        <ele>92.1</ele>
        <time>2016-10-09T07:29:52Z</time>
      </trkpt>
      <trkpt lat="49.33893" lon="0.92275">
        <ele>92.3</ele>
        <time>2016-10-09T07:29:54Z</time>
      </trkpt>
      <trkpt lat="49.33898" lon="0.92287">
        <ele>92.4</ele>
        <time>2016-10-09T07:29:56Z</time>
      </trkpt>
      <trkpt lat="49.33899" lon="0.92302">
        <ele>92.6</ele>
        <time>2016-10-09T07:30:00Z</time>
      </trkpt>
      <trkpt lat="49.33903" lon="0.92317">
        <ele>93.2</ele>
        <time>2016-10-09T07:30:05Z</time>
      </trkpt>
      <trkpt lat="49.3391" lon="0.92329">
        <ele>93.6</ele>
        <time>2016-10-09T07:30:08Z</time>
      </trkpt>
      <trkpt lat="49.33913" lon="0.92342">
        <ele>94.2</ele>
        <time>2016-10-09T07:30:12Z</time>
      </trkpt>
      <trkpt lat="49.33917" lon="0.92356">
        <ele>95</ele>
        <time>2016-10-09T07:30:17Z</time>
      </trkpt>
      <trkpt lat="49.33924" lon="0.92368">
        <ele>95.8</ele>
        <time>2016-10-09T07:30:23Z</time>
      </trkpt>
      <trkpt lat="49.33931" lon="0.92378">
        <ele>96.3</ele>
        <time>2016-10-09T07:30:27Z</time>
      </trkpt>
      <trkpt lat="49.33938" lon="0.92389">
        <ele>96.8</ele>
        <time>2016-10-09T07:30:32Z</time>
      </trkpt>
      <trkpt lat="49.33946" lon="0.92398">
        <ele>97.3</ele>
        <time>2016-10-09T07:30:36Z</time>
      </trkpt>
      <trkpt lat="49.33955" lon="0.92406">
        <ele>97.7</ele>
        <time>2016-10-09T07:30:41Z</time>
      </trkpt>
      <trkpt lat="49.33963" lon="0.92415">
        <ele>98</ele>
        <time>2016-10-09T07:30:47Z</time>
      </trkpt>
      <trkpt lat="49.33972" lon="0.92424">
        <ele>98.7</ele>
        <time>2016-10-09T07:30:53Z</time>
      </trkpt>
      <trkpt lat="49.33979" lon="0.92436">
        <ele>99.6</ele>
        <time>2016-10-09T07:30:58Z</time>
      </trkpt>
      <trkpt lat="49.33986" lon="0.92447">
        <ele>100.4</ele>
        <time>2016-10-09T07:31:02Z</time>
      </trkpt>
      <trkpt lat="49.33993" lon="0.92459">
        <ele>101.7</ele>
        <time>2016-10-09T07:31:08Z</time>
      </trkpt>
      <trkpt lat="49.34" lon="0.9247">
        <ele>103</ele>
        <time>2016-10-09T07:31:14Z</time>
      </trkpt>
      <trkpt lat="49.34006" lon="0.92482">
        <ele>104.2</ele>
        <time>2016-10-09T07:31:20Z</time>
      </trkpt>
      <trkpt lat="49.34012" lon="0.92492">
        <ele>105</ele>
        <time>2016-10-09T07:31:24Z</time>
      </trkpt>
      <trkpt lat="49.34018" lon="0.92504">
        <ele>105.9</ele>
        <time>2016-10-09T07:31:29Z</time>
      </trkpt>
      <trkpt lat="49.34026" lon="0.92514">
        <ele>106.7</ele>
        <time>2016-10-09T07:31:34Z</time>
      </trkpt>
      <trkpt lat="49.34032" lon="0.92526">
        <ele>107.1</ele>
        <time>2016-10-09T07:31:38Z</time>
      </trkpt>
      <trkpt lat="49.34036" lon="0.92542">
        <ele>107.5</ele>
        <time>2016-10-09T07:31:42Z</time>
      </trkpt>
      <trkpt lat="49.34042" lon="0.92556">
        <ele>107.8</ele>
        <time>2016-10-09T07:31:46Z</time>
      </trkpt>
      <trkpt lat="49.34049" lon="0.92567">
        <ele>108</ele>
        <time>2016-10-09T07:31:48Z</time>
      </trkpt>
      <trkpt lat="49.34055" lon="0.92578">
        <ele>108.2</ele>
        <time>2016-10-09T07:31:51Z</time>
      </trkpt>
      <trkpt lat="49.34056" lon="0.92595">
        <ele>108.4</ele>
        <time>2016-10-09T07:31:55Z</time>
      </trkpt>
      <trkpt lat="49.34054" lon="0.9261">
        <ele>108.8</ele>
        <time>2016-10-09T07:32:01Z</time>
      </trkpt>
      <trkpt lat="49.34047" lon="0.92621">
        <ele>109.3</ele>
        <time>2016-10-09T07:32:10Z</time>
      </trkpt>
      <trkpt lat="49.34038" lon="0.92628">
        <ele>109.8</ele>
        <time>2016-10-09T07:32:16Z</time>
      </trkpt>
      <trkpt lat="49.34028" lon="0.92628">
        <ele>110.3</ele>
        <time>2016-10-09T07:32:21Z</time>
      </trkpt>
      <trkpt lat="49.34019" lon="0.92636">
        <ele>111</ele>
        <time>2016-10-09T07:32:27Z</time>
      </trkpt>
      <trkpt lat="49.34011" lon="0.92647">
        <ele>111.3</ele>
        <time>2016-10-09T07:32:32Z</time>
      </trkpt>
      <trkpt lat="49.34008" lon="0.92661">
        <ele>111.7</ele>
        <time>2016-10-09T07:32:37Z</time>
      </trkpt>
      <trkpt lat="49.34012" lon="0.92676">
        <ele>112</ele>
        <time>2016-10-09T07:32:42Z</time>
      </trkpt>
      <trkpt lat="49.34011" lon="0.92694">
        <ele>112.3</ele>
        <time>2016-10-09T07:32:47Z</time>
      </trkpt>
      <trkpt lat="49.34002" lon="0.92697">
        <ele>112.5</ele>
        <time>2016-10-09T07:32:51Z</time>
      </trkpt>
      <trkpt lat="49.33993" lon="0.92704">
        <ele>112.6</ele>
        <time>2016-10-09T07:32:55Z</time>
      </trkpt>
      <trkpt lat="49.33982" lon="0.92705">
        <ele>112.8</ele>
        <time>2016-10-09T07:32:58Z</time>
      </trkpt>
      <trkpt lat="49.33973" lon="0.92706">
        <ele>113</ele>
        <time>2016-10-09T07:33:02Z</time>
      </trkpt>
      <trkpt lat="49.33969" lon="0.92719">
        <ele>113.2</ele>
        <time>2016-10-09T07:33:06Z</time>
      </trkpt>
      <trkpt lat="49.3396" lon="0.9273">
        <ele>113.3</ele>
        <time>2016-10-09T07:33:10Z</time>
      </trkpt>
      <trkpt lat="49.33951" lon="0.92736">
        <ele>113.5</ele>
        <time>2016-10-09T07:33:15Z</time>
      </trkpt>
      <trkpt lat="49.33943" lon="0.92747">
        <ele>113.6</ele>
        <time>2016-10-09T07:33:18Z</time>
      </trkpt>
      <trkpt lat="49.33935" lon="0.92761">
        <ele>113.7</ele>
        <time>2016-10-09T07:33:21Z</time>
      </trkpt>
      <trkpt lat="49.33931" lon="0.92774">
        <ele>113.7</ele>
        <time>2016-10-09T07:33:26Z</time>
      </trkpt>
      <trkpt lat="49.33929" lon="0.92788">
        <ele>113.8</ele>
        <time>2016-10-09T07:33:29Z</time>
      </trkpt>
      <trkpt lat="49.33925" lon="0.92801">
        <ele>113.9</ele>
        <time>2016-10-09T07:33:33Z</time>
      </trkpt>
      <trkpt lat="49.33916" lon="0.928">
        <ele>113.9</ele>
        <time>2016-10-09T07:33:37Z</time>
      </trkpt>
      <trkpt lat="49.33904" lon="0.92801">
        <ele>113.9</ele>
        <time>2016-10-09T07:33:40Z</time>
      </trkpt>
      <trkpt lat="49.33897" lon="0.92813">
        <ele>113.9</ele>
        <time>2016-10-09T07:33:44Z</time>
      </trkpt>
      <trkpt lat="49.33896" lon="0.92828">
        <ele>113.8</ele>
        <time>2016-10-09T07:33:47Z</time>
      </trkpt>
      <trkpt lat="49.3389" lon="0.9284">
        <ele>113.5</ele>
        <time>2016-10-09T07:33:51Z</time>
      </trkpt>
      <trkpt lat="49.33889" lon="0.92856">
        <ele>112.9</ele>
        <time>2016-10-09T07:33:55Z</time>
      </trkpt>
      <trkpt lat="49.3389" lon="0.92872">
        <ele>112.3</ele>
        <time>2016-10-09T07:33:59Z</time>
      </trkpt>
      <trkpt lat="49.33896" lon="0.92889">
        <ele>111.8</ele>
        <time>2016-10-09T07:34:03Z</time>
      </trkpt>
      <trkpt lat="49.339" lon="0.92906">
        <ele>111.4</ele>
        <time>2016-10-09T07:34:06Z</time>
      </trkpt>
      <trkpt lat="49.33905" lon="0.92918">
        <ele>111.2</ele>
        <time>2016-10-09T07:34:08Z</time>
      </trkpt>
      <trkpt lat="49.33907" lon="0.92934">
        <ele>110.9</ele>
        <time>2016-10-09T07:34:11Z</time>
      </trkpt>
      <trkpt lat="49.33909" lon="0.9295">
        <ele>110.6</ele>
        <time>2016-10-09T07:34:14Z</time>
      </trkpt>
      <trkpt lat="49.33908" lon="0.92964">
        <ele>110.1</ele>
        <time>2016-10-09T07:34:17Z</time>
      </trkpt>
      <trkpt lat="49.33904" lon="0.92978">
        <ele>109.1</ele>
        <time>2016-10-09T07:34:20Z</time>
      </trkpt>
      <trkpt lat="49.33907" lon="0.92997">
        <ele>108</ele>
        <time>2016-10-09T07:34:23Z</time>
      </trkpt>
      <trkpt lat="49.33914" lon="0.93014">
        <ele>107</ele>
        <time>2016-10-09T07:34:26Z</time>
      </trkpt>
      <trkpt lat="49.33917" lon="0.93028">
        <ele>106.4</ele>
        <time>2016-10-09T07:34:28Z</time>
      </trkpt>
      <trkpt lat="49.33918" lon="0.93044">
        <ele>105.9</ele>
        <time>2016-10-09T07:34:30Z</time>
      </trkpt>
      <trkpt lat="49.3392" lon="0.93063">
        <ele>105.2</ele>
        <time>2016-10-09T07:34:32Z</time>
      </trkpt>
      <trkpt lat="49.33923" lon="0.9308">
        <ele>104.4</ele>
        <time>2016-10-09T07:34:34Z</time>
      </trkpt>
      <trkpt lat="49.33929" lon="0.93093">
        <ele>103.6</ele>
        <time>2016-10-09T07:34:36Z</time>
      </trkpt>
      <trkpt lat="49.3393" lon="0.9311">
        <ele>102.7</ele>
        <time>2016-10-09T07:34:39Z</time>
      </trkpt>
      <trkpt lat="49.33934" lon="0.93125">
        <ele>102.2</ele>
        <time>2016-10-09T07:34:42Z</time>
      </trkpt>
      <trkpt lat="49.33939" lon="0.93138">
        <ele>101.8</ele>
        <time>2016-10-09T07:34:45Z</time>
      </trkpt>
      <trkpt lat="49.33942" lon="0.93152">
        <ele>101.6</ele>
        <time>2016-10-09T07:34:48Z</time>
      </trkpt>
      <trkpt lat="49.33945" lon="0.9317">
        <ele>101.5</ele>
        <time>2016-10-09T07:34:52Z</time>
      </trkpt>
      <trkpt lat="49.33952" lon="0.93182">
        <ele>101.8</ele>
        <time>2016-10-09T07:34:57Z</time>
      </trkpt>
      <trkpt lat="49.33958" lon="0.93193">
        <ele>102.4</ele>
        <time>2016-10-09T07:35:02Z</time>
      </trkpt>
      <trkpt lat="49.33966" lon="0.93201">
        <ele>103.6</ele>
        <time>2016-10-09T07:35:09Z</time>
      </trkpt>
      <trkpt lat="49.33971" lon="0.93213">
        <ele>104.8</ele>
        <time>2016-10-09T07:35:16Z</time>
      </trkpt>
      <trkpt lat="49.33975" lon="0.93226">
        <ele>105.7</ele>
        <time>2016-10-09T07:35:22Z</time>
      </trkpt>
      <trkpt lat="49.33974" lon="0.9324">
        <ele>106.2</ele>
        <time>2016-10-09T07:35:26Z</time>
      </trkpt>
      <trkpt lat="49.33971" lon="0.93257">
        <ele>106.7</ele>
        <time>2016-10-09T07:35:31Z</time>
      </trkpt>
      <trkpt lat="49.3397" lon="0.93271">
        <ele>107</ele>
        <time>2016-10-09T07:35:35Z</time>
      </trkpt>
      <trkpt lat="49.33967" lon="0.93285">
        <ele>107.1</ele>
        <time>2016-10-09T07:35:39Z</time>
      </trkpt>
      <trkpt lat="49.33965" lon="0.933">
        <ele>107</ele>
        <time>2016-10-09T07:35:44Z</time>
      </trkpt>
      <trkpt lat="49.33961" lon="0.93315">
        <ele>106.8</ele>
        <time>2016-10-09T07:35:47Z</time>
      </trkpt>
      <trkpt lat="49.33959" lon="0.93331">
        <ele>106.5</ele>
        <time>2016-10-09T07:35:50Z</time>
      </trkpt>
      <trkpt lat="49.33954" lon="0.93344">
        <ele>106.1</ele>
        <time>2016-10-09T07:35:53Z</time>
      </trkpt>
      <trkpt lat="49.33951" lon="0.93362">
        <ele>105.5</ele>
        <time>2016-10-09T07:35:56Z</time>
      </trkpt>
      <trkpt lat="49.3395" lon="0.93378">
        <ele>105.1</ele>
        <time>2016-10-09T07:35:59Z</time>
      </trkpt>
      <trkpt lat="49.33949" lon="0.93392">
        <ele>104.6</ele>
        <time>2016-10-09T07:36:02Z</time>
      </trkpt>
      <trkpt lat="49.33944" lon="0.93406">
        <ele>104</ele>
        <time>2016-10-09T07:36:05Z</time>
      </trkpt>
      <trkpt lat="49.3394" lon="0.93421">
        <ele>103.5</ele>
        <time>2016-10-09T07:36:08Z</time>
      </trkpt>
      <trkpt lat="49.3394" lon="0.93436">
        <ele>103.1</ele>
        <time>2016-10-09T07:36:10Z</time>
      </trkpt>
      <trkpt lat="49.33938" lon="0.93455">
        <ele>102.1</ele>
        <time>2016-10-09T07:36:14Z</time>
      </trkpt>
      <trkpt lat="49.33933" lon="0.93471">
        <ele>101.5</ele>
        <time>2016-10-09T07:36:17Z</time>
      </trkpt>
      <trkpt lat="49.33929" lon="0.93485">
        <ele>101.2</ele>
        <time>2016-10-09T07:36:19Z</time>
      </trkpt>
      <trkpt lat="49.33929" lon="0.935">
        <ele>101</ele>
        <time>2016-10-09T07:36:22Z</time>
      </trkpt>
      <trkpt lat="49.33927" lon="0.93514">
        <ele>101</ele>
        <time>2016-10-09T07:36:25Z</time>
      </trkpt>
      <trkpt lat="49.33922" lon="0.93528">
        <ele>101.2</ele>
        <time>2016-10-09T07:36:29Z</time>
      </trkpt>
      <trkpt lat="49.33917" lon="0.93542">
        <ele>101.5</ele>
        <time>2016-10-09T07:36:32Z</time>
      </trkpt>
      <trkpt lat="49.33914" lon="0.93555">
        <ele>101.8</ele>
        <time>2016-10-09T07:36:36Z</time>
      </trkpt>
      <trkpt lat="49.3391" lon="0.93569">
        <ele>102.3</ele>
        <time>2016-10-09T07:36:40Z</time>
      </trkpt>
      <trkpt lat="49.33905" lon="0.93582">
        <ele>102.9</ele>
        <time>2016-10-09T07:36:44Z</time>
      </trkpt>
      <trkpt lat="49.33904" lon="0.93597">
        <ele>103.7</ele>
        <time>2016-10-09T07:36:50Z</time>
      </trkpt>
      <trkpt lat="49.339" lon="0.93613">
        <ele>104.2</ele>
        <time>2016-10-09T07:36:55Z</time>
      </trkpt>
      <trkpt lat="49.33901" lon="0.93628">
        <ele>104.5</ele>
        <time>2016-10-09T07:36:59Z</time>
      </trkpt>
      <trkpt lat="49.33901" lon="0.93642">
        <ele>104.9</ele>
        <time>2016-10-09T07:37:04Z</time>
      </trkpt>
      <trkpt lat="49.33898" lon="0.93657">
        <ele>105.2</ele>
        <time>2016-10-09T07:37:08Z</time>
      </trkpt>
      <trkpt lat="49.33893" lon="0.9367">
        <ele>105.6</ele>
        <time>2016-10-09T07:37:11Z</time>
      </trkpt>
      <trkpt lat="49.33891" lon="0.93685">
        <ele>106.2</ele>
        <time>2016-10-09T07:37:16Z</time>
      </trkpt>
      <trkpt lat="49.33886" lon="0.937">
        <ele>107.2</ele>
        <time>2016-10-09T07:37:22Z</time>
      </trkpt>
      <trkpt lat="49.33876" lon="0.93705">
        <ele>108.1</ele>
        <time>2016-10-09T07:37:28Z</time>
      </trkpt>
      <trkpt lat="49.33868" lon="0.93713">
        <ele>108.5</ele>
        <time>2016-10-09T07:37:33Z</time>
      </trkpt>
      <trkpt lat="49.33858" lon="0.93721">
        <ele>108.8</ele>
        <time>2016-10-09T07:37:37Z</time>
      </trkpt>
      <trkpt lat="49.33845" lon="0.93721">
        <ele>108.9</ele>
        <time>2016-10-09T07:37:40Z</time>
      </trkpt>
      <trkpt lat="49.33834" lon="0.93723">
        <ele>108.9</ele>
        <time>2016-10-09T07:37:43Z</time>
      </trkpt>
      <trkpt lat="49.33822" lon="0.93722">
        <ele>108.7</ele>
        <time>2016-10-09T07:37:46Z</time>
      </trkpt>
      <trkpt lat="49.33812" lon="0.93723">
        <ele>108.1</ele>
        <time>2016-10-09T07:37:48Z</time>
      </trkpt>
      <trkpt lat="49.33797" lon="0.93722">
        <ele>107</ele>
        <time>2016-10-09T07:37:51Z</time>
      </trkpt>
      <trkpt lat="49.33784" lon="0.93722">
        <ele>105.7</ele>
        <time>2016-10-09T07:37:54Z</time>
      </trkpt>
      <trkpt lat="49.33771" lon="0.93718">
        <ele>104.7</ele>
        <time>2016-10-09T07:37:57Z</time>
      </trkpt>
      <trkpt lat="49.33758" lon="0.93711">
        <ele>103.5</ele>
        <time>2016-10-09T07:38:00Z</time>
      </trkpt>
      <trkpt lat="49.33747" lon="0.9371">
        <ele>102.5</ele>
        <time>2016-10-09T07:38:02Z</time>
      </trkpt>
      <trkpt lat="49.33733" lon="0.93704">
        <ele>101.5</ele>
        <time>2016-10-09T07:38:04Z</time>
      </trkpt>
      <trkpt lat="49.33724" lon="0.93701">
        <ele>100.6</ele>
        <time>2016-10-09T07:38:06Z</time>
      </trkpt>
      <trkpt lat="49.33713" lon="0.937">
        <ele>99.4</ele>
        <time>2016-10-09T07:38:09Z</time>
      </trkpt>
      <trkpt lat="49.33703" lon="0.93695">
        <ele>98.5</ele>
        <time>2016-10-09T07:38:12Z</time>
      </trkpt>
      <trkpt lat="49.33693" lon="0.93691">
        <ele>97.8</ele>
        <time>2016-10-09T07:38:15Z</time>
      </trkpt>
      <trkpt lat="49.33683" lon="0.93686">
        <ele>97.3</ele>
        <time>2016-10-09T07:38:18Z</time>
      </trkpt>
      <trkpt lat="49.33674" lon="0.93684">
        <ele>96.9</ele>
        <time>2016-10-09T07:38:21Z</time>
      </trkpt>
      <trkpt lat="49.33664" lon="0.93681">
        <ele>96.6</ele>
        <time>2016-10-09T07:38:24Z</time>
      </trkpt>
      <trkpt lat="49.33654" lon="0.93679">
        <ele>96.2</ele>
        <time>2016-10-09T07:38:26Z</time>
      </trkpt>
      <trkpt lat="49.33642" lon="0.93673">
        <ele>94.9</ele>
        <time>2016-10-09T07:38:30Z</time>
      </trkpt>
      <trkpt lat="49.33631" lon="0.93677">
        <ele>93.1</ele>
        <time>2016-10-09T07:38:34Z</time>
      </trkpt>
      <trkpt lat="49.33622" lon="0.9369">
        <ele>91.4</ele>
        <time>2016-10-09T07:38:39Z</time>
      </trkpt>
      <trkpt lat="49.33615" lon="0.93702">
        <ele>91</ele>
        <time>2016-10-09T07:38:42Z</time>
      </trkpt>
      <trkpt lat="49.3361" lon="0.93716">
        <ele>90.8</ele>
        <time>2016-10-09T07:38:47Z</time>
      </trkpt>
      <trkpt lat="49.33601" lon="0.93728">
        <ele>90.8</ele>
        <time>2016-10-09T07:38:53Z</time>
      </trkpt>
      <trkpt lat="49.33596" lon="0.93741">
        <ele>90.8</ele>
        <time>2016-10-09T07:38:56Z</time>
      </trkpt>
      <trkpt lat="49.33598" lon="0.93755">
        <ele>91</ele>
        <time>2016-10-09T07:39:02Z</time>
      </trkpt>
      <trkpt lat="49.33606" lon="0.93764">
        <ele>92.2</ele>
        <time>2016-10-09T07:39:11Z</time>
      </trkpt>
      <trkpt lat="49.33612" lon="0.93774">
        <ele>93.3</ele>
        <time>2016-10-09T07:39:17Z</time>
      </trkpt>
      <trkpt lat="49.33618" lon="0.93787">
        <ele>94.5</ele>
        <time>2016-10-09T07:39:23Z</time>
      </trkpt>
      <trkpt lat="49.33621" lon="0.93801">
        <ele>95.6</ele>
        <time>2016-10-09T07:39:29Z</time>
      </trkpt>
      <trkpt lat="49.33626" lon="0.93813">
        <ele>96.4</ele>
        <time>2016-10-09T07:39:34Z</time>
      </trkpt>
      <trkpt lat="49.33634" lon="0.93821">
        <ele>98.3</ele>
        <time>2016-10-09T07:39:42Z</time>
      </trkpt>
      <trkpt lat="49.33641" lon="0.93834">
        <ele>100.1</ele>
        <time>2016-10-09T07:39:49Z</time>
      </trkpt>
      <trkpt lat="49.3365" lon="0.93843">
        <ele>101.6</ele>
        <time>2016-10-09T07:39:54Z</time>
      </trkpt>
      <trkpt lat="49.33657" lon="0.93856">
        <ele>103.1</ele>
        <time>2016-10-09T07:39:59Z</time>
      </trkpt>
      <trkpt lat="49.33662" lon="0.93872">
        <ele>104.5</ele>
        <time>2016-10-09T07:40:04Z</time>
      </trkpt>
      <trkpt lat="49.33667" lon="0.93887">
        <ele>105.6</ele>
        <time>2016-10-09T07:40:08Z</time>
      </trkpt>
      <trkpt lat="49.3367" lon="0.93901">
        <ele>106.4</ele>
        <time>2016-10-09T07:40:11Z</time>
      </trkpt>
      <trkpt lat="49.33673" lon="0.93915">
        <ele>107.1</ele>
        <time>2016-10-09T07:40:14Z</time>
      </trkpt>
      <trkpt lat="49.33676" lon="0.93931">
        <ele>107.9</ele>
        <time>2016-10-09T07:40:18Z</time>
      </trkpt>
      <trkpt lat="49.3368" lon="0.93945">
        <ele>108.4</ele>
        <time>2016-10-09T07:40:21Z</time>
      </trkpt>
      <trkpt lat="49.3368" lon="0.93962">
        <ele>108.8</ele>
        <time>2016-10-09T07:40:24Z</time>
      </trkpt>
      <trkpt lat="49.33682" lon="0.93976">
        <ele>109.3</ele>
        <time>2016-10-09T07:40:27Z</time>
      </trkpt>
      <trkpt lat="49.33688" lon="0.93988">
        <ele>109.8</ele>
        <time>2016-10-09T07:40:30Z</time>
      </trkpt>
      <trkpt lat="49.33695" lon="0.94002">
        <ele>110.3</ele>
        <time>2016-10-09T07:40:33Z</time>
      </trkpt>
      <trkpt lat="49.33701" lon="0.94015">
        <ele>110.7</ele>
        <time>2016-10-09T07:40:36Z</time>
      </trkpt>
      <trkpt lat="49.33707" lon="0.94026">
        <ele>111.2</ele>
        <time>2016-10-09T07:40:39Z</time>
      </trkpt>
      <trkpt lat="49.33704" lon="0.94039">
        <ele>111.7</ele>
        <time>2016-10-09T07:40:42Z</time>
      </trkpt>
      <trkpt lat="49.33701" lon="0.94053">
        <ele>111.9</ele>
        <time>2016-10-09T07:40:44Z</time>
      </trkpt>
      <trkpt lat="49.33695" lon="0.94068">
        <ele>112.2</ele>
        <time>2016-10-09T07:40:47Z</time>
      </trkpt>
      <trkpt lat="49.33692" lon="0.94085">
        <ele>112.3</ele>
        <time>2016-10-09T07:40:50Z</time>
      </trkpt>
      <trkpt lat="49.3369" lon="0.94105">
        <ele>111.9</ele>
        <time>2016-10-09T07:40:53Z</time>
      </trkpt>
      <trkpt lat="49.33684" lon="0.94126">
        <ele>111.6</ele>
        <time>2016-10-09T07:40:56Z</time>
      </trkpt>
      <trkpt lat="49.33682" lon="0.94143">
        <ele>111.4</ele>
        <time>2016-10-09T07:40:58Z</time>
      </trkpt>
      <trkpt lat="49.33679" lon="0.9416">
        <ele>111</ele>
        <time>2016-10-09T07:41:00Z</time>
      </trkpt>
      <trkpt lat="49.33679" lon="0.94177">
        <ele>110.5</ele>
        <time>2016-10-09T07:41:02Z</time>
      </trkpt>
      <trkpt lat="49.33681" lon="0.94192">
        <ele>110.1</ele>
        <time>2016-10-09T07:41:04Z</time>
      </trkpt>
      <trkpt lat="49.3368" lon="0.94211">
        <ele>109.7</ele>
        <time>2016-10-09T07:41:06Z</time>
      </trkpt>
      <trkpt lat="49.33682" lon="0.94226">
        <ele>109.3</ele>
        <time>2016-10-09T07:41:08Z</time>
      </trkpt>
      <trkpt lat="49.33681" lon="0.94247">
        <ele>109</ele>
        <time>2016-10-09T07:41:10Z</time>
      </trkpt>
      <trkpt lat="49.3368" lon="0.94268">
        <ele>108.6</ele>
        <time>2016-10-09T07:41:12Z</time>
      </trkpt>
      <trkpt lat="49.33683" lon="0.94282">
        <ele>108</ele>
        <time>2016-10-09T07:41:14Z</time>
      </trkpt>
      <trkpt lat="49.33684" lon="0.94299">
        <ele>107.5</ele>
        <time>2016-10-09T07:41:16Z</time>
      </trkpt>
      <trkpt lat="49.33686" lon="0.94319">
        <ele>106.6</ele>
        <time>2016-10-09T07:41:19Z</time>
      </trkpt>
      <trkpt lat="49.33682" lon="0.94341">
        <ele>105.9</ele>
        <time>2016-10-09T07:41:21Z</time>
      </trkpt>
      <trkpt lat="49.33679" lon="0.9436">
        <ele>105.2</ele>
        <time>2016-10-09T07:41:23Z</time>
      </trkpt>
      <trkpt lat="49.33675" lon="0.94379">
        <ele>104.4</ele>
        <time>2016-10-09T07:41:25Z</time>
      </trkpt>
      <trkpt lat="49.33674" lon="0.94401">
        <ele>103.5</ele>
        <time>2016-10-09T07:41:27Z</time>
      </trkpt>
      <trkpt lat="49.33672" lon="0.94421">
        <ele>102.5</ele>
        <time>2016-10-09T07:41:29Z</time>
      </trkpt>
      <trkpt lat="49.33668" lon="0.9444">
        <ele>101.4</ele>
        <time>2016-10-09T07:41:31Z</time>
      </trkpt>
      <trkpt lat="49.33668" lon="0.94459">
        <ele>100.1</ele>
        <time>2016-10-09T07:41:33Z</time>
      </trkpt>
      <trkpt lat="49.33661" lon="0.94478">
        <ele>98.8</ele>
        <time>2016-10-09T07:41:35Z</time>
      </trkpt>
      <trkpt lat="49.33652" lon="0.94493">
        <ele>97.4</ele>
        <time>2016-10-09T07:41:37Z</time>
      </trkpt>
      <trkpt lat="49.33646" lon="0.94511">
        <ele>95.9</ele>
        <time>2016-10-09T07:41:39Z</time>
      </trkpt>
      <trkpt lat="49.33642" lon="0.94528">
        <ele>94.4</ele>
        <time>2016-10-09T07:41:41Z</time>
      </trkpt>
      <trkpt lat="49.33636" lon="0.94545">
        <ele>92.7</ele>
        <time>2016-10-09T07:41:43Z</time>
      </trkpt>
      <trkpt lat="49.33629" lon="0.94562">
        <ele>90.8</ele>
        <time>2016-10-09T07:41:45Z</time>
      </trkpt>
      <trkpt lat="49.33626" lon="0.94582">
        <ele>89.1</ele>
        <time>2016-10-09T07:41:47Z</time>
      </trkpt>
      <trkpt lat="49.33622" lon="0.94598">
        <ele>86.3</ele>
        <time>2016-10-09T07:41:50Z</time>
      </trkpt>
      <trkpt lat="49.33619" lon="0.94612">
        <ele>83.8</ele>
        <time>2016-10-09T07:41:53Z</time>
      </trkpt>
      <trkpt lat="49.33617" lon="0.94629">
        <ele>81.5</ele>
        <time>2016-10-09T07:41:56Z</time>
      </trkpt>
      <trkpt lat="49.33619" lon="0.94645">
        <ele>79.3</ele>
        <time>2016-10-09T07:41:59Z</time>
      </trkpt>
      <trkpt lat="49.3362" lon="0.94665">
        <ele>77.6</ele>
        <time>2016-10-09T07:42:02Z</time>
      </trkpt>
      <trkpt lat="49.33623" lon="0.9468">
        <ele>75.9</ele>
        <time>2016-10-09T07:42:05Z</time>
      </trkpt>
      <trkpt lat="49.33625" lon="0.94696">
        <ele>74.4</ele>
        <time>2016-10-09T07:42:08Z</time>
      </trkpt>
      <trkpt lat="49.33631" lon="0.94714">
        <ele>72.8</ele>
        <time>2016-10-09T07:42:11Z</time>
      </trkpt>
      <trkpt lat="49.33633" lon="0.9473">
        <ele>71.4</ele>
        <time>2016-10-09T07:42:14Z</time>
      </trkpt>
      <trkpt lat="49.33641" lon="0.94747">
        <ele>70.3</ele>
        <time>2016-10-09T07:42:17Z</time>
      </trkpt>
      <trkpt lat="49.33647" lon="0.9476">
        <ele>69.3</ele>
        <time>2016-10-09T07:42:20Z</time>
      </trkpt>
      <trkpt lat="49.33653" lon="0.94776">
        <ele>68</ele>
        <time>2016-10-09T07:42:24Z</time>
      </trkpt>
      <trkpt lat="49.33659" lon="0.94789">
        <ele>67.1</ele>
        <time>2016-10-09T07:42:27Z</time>
      </trkpt>
      <trkpt lat="49.33663" lon="0.94805">
        <ele>66</ele>
        <time>2016-10-09T07:42:30Z</time>
      </trkpt>
      <trkpt lat="49.33669" lon="0.94824">
        <ele>65</ele>
        <time>2016-10-09T07:42:33Z</time>
      </trkpt>
      <trkpt lat="49.33671" lon="0.94837">
        <ele>64.4</ele>
        <time>2016-10-09T07:42:35Z</time>
      </trkpt>
      <trkpt lat="49.33678" lon="0.94851">
        <ele>63.7</ele>
        <time>2016-10-09T07:42:38Z</time>
      </trkpt>
      <trkpt lat="49.33685" lon="0.94868">
        <ele>63</ele>
        <time>2016-10-09T07:42:41Z</time>
      </trkpt>
      <trkpt lat="49.33692" lon="0.94885">
        <ele>62.3</ele>
        <time>2016-10-09T07:42:44Z</time>
      </trkpt>
      <trkpt lat="49.33701" lon="0.94896">
        <ele>61.4</ele>
        <time>2016-10-09T07:42:47Z</time>
      </trkpt>
      <trkpt lat="49.33708" lon="0.94904">
        <ele>60.6</ele>
        <time>2016-10-09T07:42:50Z</time>
      </trkpt>
      <trkpt lat="49.33717" lon="0.94914">
        <ele>59.6</ele>
        <time>2016-10-09T07:42:53Z</time>
      </trkpt>
      <trkpt lat="49.33725" lon="0.94924">
        <ele>58.4</ele>
        <time>2016-10-09T07:42:57Z</time>
      </trkpt>
      <trkpt lat="49.33722" lon="0.94938">
        <ele>55.9</ele>
        <time>2016-10-09T07:43:06Z</time>
      </trkpt>
      <trkpt lat="49.33714" lon="0.94945">
        <ele>55.4</ele>
        <time>2016-10-09T07:43:08Z</time>
      </trkpt>
      <trkpt lat="49.33703" lon="0.94958">
        <ele>54.4</ele>
        <time>2016-10-09T07:43:11Z</time>
      </trkpt>
      <trkpt lat="49.33695" lon="0.9497">
        <ele>53.5</ele>
        <time>2016-10-09T07:43:13Z</time>
      </trkpt>
      <trkpt lat="49.33686" lon="0.94982">
        <ele>52.6</ele>
        <time>2016-10-09T07:43:15Z</time>
      </trkpt>
      <trkpt lat="49.33676" lon="0.94995">
        <ele>50.9</ele>
        <time>2016-10-09T07:43:18Z</time>
      </trkpt>
      <trkpt lat="49.33668" lon="0.95004">
        <ele>48.8</ele>
        <time>2016-10-09T07:43:21Z</time>
      </trkpt>
      <trkpt lat="49.33665" lon="0.95019">
        <ele>45.7</ele>
        <time>2016-10-09T07:43:25Z</time>
      </trkpt>
      <trkpt lat="49.33661" lon="0.95036">
        <ele>43.6</ele>
        <time>2016-10-09T07:43:28Z</time>
      </trkpt>
      <trkpt lat="49.33661" lon="0.95056">
        <ele>41.5</ele>
        <time>2016-10-09T07:43:31Z</time>
      </trkpt>
      <trkpt lat="49.33663" lon="0.95071">
        <ele>40.2</ele>
        <time>2016-10-09T07:43:33Z</time>
      </trkpt>
      <trkpt lat="49.33664" lon="0.95089">
        <ele>39.1</ele>
        <time>2016-10-09T07:43:35Z</time>
      </trkpt>
      <trkpt lat="49.33669" lon="0.95112">
        <ele>36</ele>
        <time>2016-10-09T07:43:39Z</time>
      </trkpt>
      <trkpt lat="49.33672" lon="0.95128">
        <ele>36.1</ele>
        <time>2016-10-09T07:43:42Z</time>
      </trkpt>
      <trkpt lat="49.33677" lon="0.95145">
        <ele>35.2</ele>
        <time>2016-10-09T07:43:45Z</time>
      </trkpt>
      <trkpt lat="49.33678" lon="0.9516">
        <ele>34.5</ele>
        <time>2016-10-09T07:43:48Z</time>
      </trkpt>
      <trkpt lat="49.33679" lon="0.95177">
        <ele>33.9</ele>
        <time>2016-10-09T07:43:51Z</time>
      </trkpt>
      <trkpt lat="49.33681" lon="0.95192">
        <ele>33.5</ele>
        <time>2016-10-09T07:43:53Z</time>
      </trkpt>
      <trkpt lat="49.33683" lon="0.95206">
        <ele>33.2</ele>
        <time>2016-10-09T07:43:55Z</time>
      </trkpt>
      <trkpt lat="49.33686" lon="0.95226">
        <ele>32.8</ele>
        <time>2016-10-09T07:43:58Z</time>
      </trkpt>
      <trkpt lat="49.33689" lon="0.95247">
        <ele>32</ele>
        <time>2016-10-09T07:44:02Z</time>
      </trkpt>
      <trkpt lat="49.33692" lon="0.95268">
        <ele>32.1</ele>
        <time>2016-10-09T07:44:05Z</time>
      </trkpt>
      <trkpt lat="49.33697" lon="0.95283">
        <ele>31.9</ele>
        <time>2016-10-09T07:44:07Z</time>
      </trkpt>
      <trkpt lat="49.337" lon="0.95296">
        <ele>31.8</ele>
        <time>2016-10-09T07:44:09Z</time>
      </trkpt>
      <trkpt lat="49.33703" lon="0.95315">
        <ele>31.7</ele>
        <time>2016-10-09T07:44:12Z</time>
      </trkpt>
      <trkpt lat="49.33701" lon="0.95334">
        <ele>31.6</ele>
        <time>2016-10-09T07:44:15Z</time>
      </trkpt>
      <trkpt lat="49.33702" lon="0.95352">
        <ele>31.6</ele>
        <time>2016-10-09T07:44:18Z</time>
      </trkpt>
      <trkpt lat="49.33696" lon="0.9537">
        <ele>31.6</ele>
        <time>2016-10-09T07:44:21Z</time>
      </trkpt>
      <trkpt lat="49.33689" lon="0.95386">
        <ele>31.5</ele>
        <time>2016-10-09T07:44:24Z</time>
      </trkpt>
      <trkpt lat="49.33683" lon="0.954">
        <ele>31.2</ele>
        <time>2016-10-09T07:44:28Z</time>
      </trkpt>
      <trkpt lat="49.33681" lon="0.95416">
        <ele>31</ele>
        <time>2016-10-09T07:44:31Z</time>
      </trkpt>
      <trkpt lat="49.33677" lon="0.95432">
        <ele>30.8</ele>
        <time>2016-10-09T07:44:34Z</time>
      </trkpt>
      <trkpt lat="49.33676" lon="0.95448">
        <ele>30.4</ele>
        <time>2016-10-09T07:44:37Z</time>
      </trkpt>
      <trkpt lat="49.33672" lon="0.9546">
        <ele>30.2</ele>
        <time>2016-10-09T07:44:40Z</time>
      </trkpt>
      <trkpt lat="49.33672" lon="0.95477">
        <ele>29.9</ele>
        <time>2016-10-09T07:44:43Z</time>
      </trkpt>
      <trkpt lat="49.33669" lon="0.95491">
        <ele>29.7</ele>
        <time>2016-10-09T07:44:46Z</time>
      </trkpt>
      <trkpt lat="49.33666" lon="0.95508">
        <ele>29.6</ele>
        <time>2016-10-09T07:44:49Z</time>
      </trkpt>
      <trkpt lat="49.3366" lon="0.95522">
        <ele>29.5</ele>
        <time>2016-10-09T07:44:51Z</time>
      </trkpt>
      <trkpt lat="49.33655" lon="0.95536">
        <ele>29.4</ele>
        <time>2016-10-09T07:44:53Z</time>
      </trkpt>
      <trkpt lat="49.33653" lon="0.9555">
        <ele>29.4</ele>
        <time>2016-10-09T07:44:55Z</time>
      </trkpt>
      <trkpt lat="49.33648" lon="0.95563">
        <ele>29.3</ele>
        <time>2016-10-09T07:44:58Z</time>
      </trkpt>
      <trkpt lat="49.33646" lon="0.95578">
        <ele>29.4</ele>
        <time>2016-10-09T07:45:01Z</time>
      </trkpt>
      <trkpt lat="49.33645" lon="0.95594">
        <ele>29.5</ele>
        <time>2016-10-09T07:45:04Z</time>
      </trkpt>
      <trkpt lat="49.33644" lon="0.95612">
        <ele>29.7</ele>
        <time>2016-10-09T07:45:07Z</time>
      </trkpt>
      <trkpt lat="49.33644" lon="0.9563">
        <ele>30</ele>
        <time>2016-10-09T07:45:10Z</time>
      </trkpt>
      <trkpt lat="49.33643" lon="0.95645">
        <ele>30.2</ele>
        <time>2016-10-09T07:45:12Z</time>
      </trkpt>
      <trkpt lat="49.33644" lon="0.95664">
        <ele>30.6</ele>
        <time>2016-10-09T07:45:15Z</time>
      </trkpt>
      <trkpt lat="49.33647" lon="0.95679">
        <ele>31.1</ele>
        <time>2016-10-09T07:45:18Z</time>
      </trkpt>
      <trkpt lat="49.33649" lon="0.95695">
        <ele>31.5</ele>
        <time>2016-10-09T07:45:21Z</time>
      </trkpt>
      <trkpt lat="49.33651" lon="0.95712">
        <ele>31.9</ele>
        <time>2016-10-09T07:45:24Z</time>
      </trkpt>
      <trkpt lat="49.33652" lon="0.95727">
        <ele>32.2</ele>
        <time>2016-10-09T07:45:27Z</time>
      </trkpt>
      <trkpt lat="49.33655" lon="0.95744">
        <ele>32.5</ele>
        <time>2016-10-09T07:45:30Z</time>
      </trkpt>
      <trkpt lat="49.33653" lon="0.95758">
        <ele>32.7</ele>
        <time>2016-10-09T07:45:32Z</time>
      </trkpt>
      <trkpt lat="49.33651" lon="0.95774">
        <ele>32.9</ele>
        <time>2016-10-09T07:45:35Z</time>
      </trkpt>
      <trkpt lat="49.33654" lon="0.95789">
        <ele>33.1</ele>
        <time>2016-10-09T07:45:38Z</time>
      </trkpt>
      <trkpt lat="49.33658" lon="0.95804">
        <ele>33.5</ele>
        <time>2016-10-09T07:45:42Z</time>
      </trkpt>
      <trkpt lat="49.33666" lon="0.95815">
        <ele>34.3</ele>
        <time>2016-10-09T07:45:47Z</time>
      </trkpt>
      <trkpt lat="49.33675" lon="0.95821">
        <ele>35</ele>
        <time>2016-10-09T07:45:51Z</time>
      </trkpt>
      <trkpt lat="49.33683" lon="0.95832">
        <ele>36.2</ele>
        <time>2016-10-09T07:45:56Z</time>
      </trkpt>
      <trkpt lat="49.33684" lon="0.95847">
        <ele>37.1</ele>
        <time>2016-10-09T07:46:01Z</time>
      </trkpt>
      <trkpt lat="49.33678" lon="0.95858">
        <ele>37.5</ele>
        <time>2016-10-09T07:46:04Z</time>
      </trkpt>
      <trkpt lat="49.33667" lon="0.9586">
        <ele>37.8</ele>
        <time>2016-10-09T07:46:08Z</time>
      </trkpt>
      <trkpt lat="49.33655" lon="0.95851">
        <ele>37.9</ele>
        <time>2016-10-09T07:46:11Z</time>
      </trkpt>
      <trkpt lat="49.33646" lon="0.95844">
        <ele>37.8</ele>
        <time>2016-10-09T07:46:13Z</time>
      </trkpt>
      <trkpt lat="49.33636" lon="0.95834">
        <ele>37.6</ele>
        <time>2016-10-09T07:46:15Z</time>
      </trkpt>
      <trkpt lat="49.33625" lon="0.95823">
        <ele>37.3</ele>
        <time>2016-10-09T07:46:17Z</time>
      </trkpt>
      <trkpt lat="49.33613" lon="0.95811">
        <ele>37</ele>
        <time>2016-10-09T07:46:19Z</time>
      </trkpt>
      <trkpt lat="49.33601" lon="0.95797">
        <ele>36.5</ele>
        <time>2016-10-09T07:46:21Z</time>
      </trkpt>
      <trkpt lat="49.33587" lon="0.95786">
        <ele>36.1</ele>
        <time>2016-10-09T07:46:23Z</time>
      </trkpt>
      <trkpt lat="49.33575" lon="0.95772">
        <ele>35.5</ele>
        <time>2016-10-09T07:46:25Z</time>
      </trkpt>
      <trkpt lat="49.33563" lon="0.95761">
        <ele>34.8</ele>
        <time>2016-10-09T07:46:27Z</time>
      </trkpt>
      <trkpt lat="49.33551" lon="0.95764">
        <ele>33.8</ele>
        <time>2016-10-09T07:46:30Z</time>
      </trkpt>
      <trkpt lat="49.33545" lon="0.95776">
        <ele>33.2</ele>
        <time>2016-10-09T07:46:32Z</time>
      </trkpt>
      <trkpt lat="49.33539" lon="0.95792">
        <ele>32.4</ele>
        <time>2016-10-09T07:46:35Z</time>
      </trkpt>
      <trkpt lat="49.33533" lon="0.95809">
        <ele>31.9</ele>
        <time>2016-10-09T07:46:38Z</time>
      </trkpt>
      <trkpt lat="49.33528" lon="0.95823">
        <ele>31.6</ele>
        <time>2016-10-09T07:46:40Z</time>
      </trkpt>
      <trkpt lat="49.3352" lon="0.95836">
        <ele>31.3</ele>
        <time>2016-10-09T07:46:42Z</time>
      </trkpt>
      <trkpt lat="49.33509" lon="0.95847">
        <ele>31</ele>
        <time>2016-10-09T07:46:44Z</time>
      </trkpt>
      <trkpt lat="49.33498" lon="0.95856">
        <ele>30.7</ele>
        <time>2016-10-09T07:46:46Z</time>
      </trkpt>
      <trkpt lat="49.33486" lon="0.95864">
        <ele>30.5</ele>
        <time>2016-10-09T07:46:48Z</time>
      </trkpt>
      <trkpt lat="49.33474" lon="0.95871">
        <ele>30.2</ele>
        <time>2016-10-09T07:46:50Z</time>
      </trkpt>
      <trkpt lat="49.33465" lon="0.95874">
        <ele>30</ele>
        <time>2016-10-09T07:46:52Z</time>
      </trkpt>
      <trkpt lat="49.33452" lon="0.95881">
        <ele>29.7</ele>
        <time>2016-10-09T07:46:54Z</time>
      </trkpt>
      <trkpt lat="49.33438" lon="0.95884">
        <ele>29.5</ele>
        <time>2016-10-09T07:46:56Z</time>
      </trkpt>
      <trkpt lat="49.33425" lon="0.95883">
        <ele>29.2</ele>
        <time>2016-10-09T07:46:58Z</time>
      </trkpt>
      <trkpt lat="49.33413" lon="0.9588">
        <ele>28.9</ele>
        <time>2016-10-09T07:47:00Z</time>
      </trkpt>
      <trkpt lat="49.334" lon="0.95881">
        <ele>28.6</ele>
        <time>2016-10-09T07:47:02Z</time>
      </trkpt>
      <trkpt lat="49.33387" lon="0.95882">
        <ele>28.3</ele>
        <time>2016-10-09T07:47:04Z</time>
      </trkpt>
      <trkpt lat="49.33376" lon="0.95876">
        <ele>28</ele>
        <time>2016-10-09T07:47:06Z</time>
      </trkpt>
      <trkpt lat="49.33372" lon="0.95864">
        <ele>27.7</ele>
        <time>2016-10-09T07:47:08Z</time>
      </trkpt>
      <trkpt lat="49.33371" lon="0.95843">
        <ele>27.4</ele>
        <time>2016-10-09T07:47:11Z</time>
      </trkpt>
      <trkpt lat="49.33373" lon="0.95824">
        <ele>27.1</ele>
        <time>2016-10-09T07:47:14Z</time>
      </trkpt>
      <trkpt lat="49.33377" lon="0.95807">
        <ele>27.1</ele>
        <time>2016-10-09T07:47:17Z</time>
      </trkpt>
      <trkpt lat="49.3338" lon="0.95789">
        <ele>27.3</ele>
        <time>2016-10-09T07:47:20Z</time>
      </trkpt>
      <trkpt lat="49.33382" lon="0.95771">
        <ele>27.5</ele>
        <time>2016-10-09T07:47:23Z</time>
      </trkpt>
      <trkpt lat="49.33385" lon="0.95753">
        <ele>27.9</ele>
        <time>2016-10-09T07:47:26Z</time>
      </trkpt>
      <trkpt lat="49.33388" lon="0.95737">
        <ele>28.5</ele>
        <time>2016-10-09T07:47:29Z</time>
      </trkpt>
      <trkpt lat="49.3339" lon="0.95721">
        <ele>29.1</ele>
        <time>2016-10-09T07:47:32Z</time>
      </trkpt>
      <trkpt lat="49.3339" lon="0.95706">
        <ele>29.7</ele>
        <time>2016-10-09T07:47:35Z</time>
      </trkpt>
      <trkpt lat="49.3339" lon="0.9569">
        <ele>30.3</ele>
        <time>2016-10-09T07:47:38Z</time>
      </trkpt>
      <trkpt lat="49.33389" lon="0.95674">
        <ele>30.9</ele>
        <time>2016-10-09T07:47:41Z</time>
      </trkpt>
      <trkpt lat="49.33385" lon="0.95658">
        <ele>31.6</ele>
        <time>2016-10-09T07:47:44Z</time>
      </trkpt>
      <trkpt lat="49.3338" lon="0.95643">
        <ele>32.2</ele>
        <time>2016-10-09T07:47:47Z</time>
      </trkpt>
      <trkpt lat="49.33374" lon="0.95631">
        <ele>32.9</ele>
        <time>2016-10-09T07:47:50Z</time>
      </trkpt>
      <trkpt lat="49.33367" lon="0.95619">
        <ele>33.5</ele>
        <time>2016-10-09T07:47:53Z</time>
      </trkpt>
      <trkpt lat="49.33365" lon="0.95604">
        <ele>34.1</ele>
        <time>2016-10-09T07:47:56Z</time>
      </trkpt>
      <trkpt lat="49.33367" lon="0.95587">
        <ele>35</ele>
        <time>2016-10-09T07:48:00Z</time>
      </trkpt>
      <trkpt lat="49.33371" lon="0.95575">
        <ele>35.9</ele>
        <time>2016-10-09T07:48:04Z</time>
      </trkpt>
      <trkpt lat="49.33377" lon="0.95562">
        <ele>37.4</ele>
        <time>2016-10-09T07:48:10Z</time>
      </trkpt>
      <trkpt lat="49.33386" lon="0.95553">
        <ele>38.6</ele>
        <time>2016-10-09T07:48:15Z</time>
      </trkpt>
      <trkpt lat="49.33394" lon="0.95544">
        <ele>39.8</ele>
        <time>2016-10-09T07:48:20Z</time>
      </trkpt>
      <trkpt lat="49.33401" lon="0.95531">
        <ele>41</ele>
        <time>2016-10-09T07:48:25Z</time>
      </trkpt>
      <trkpt lat="49.33408" lon="0.95521">
        <ele>41.9</ele>
        <time>2016-10-09T07:48:29Z</time>
      </trkpt>
      <trkpt lat="49.33415" lon="0.95509">
        <ele>43.2</ele>
        <time>2016-10-09T07:48:34Z</time>
      </trkpt>
      <trkpt lat="49.33421" lon="0.95496">
        <ele>44.4</ele>
        <time>2016-10-09T07:48:39Z</time>
      </trkpt>
      <trkpt lat="49.33428" lon="0.95484">
        <ele>45.7</ele>
        <time>2016-10-09T07:48:44Z</time>
      </trkpt>
      <trkpt lat="49.33432" lon="0.95471">
        <ele>46.7</ele>
        <time>2016-10-09T07:48:48Z</time>
      </trkpt>
      <trkpt lat="49.33436" lon="0.95456">
        <ele>47.8</ele>
        <time>2016-10-09T07:48:52Z</time>
      </trkpt>
      <trkpt lat="49.3344" lon="0.95442">
        <ele>48.8</ele>
        <time>2016-10-09T07:48:56Z</time>
      </trkpt>
      <trkpt lat="49.33444" lon="0.95428">
        <ele>49.8</ele>
        <time>2016-10-09T07:49:00Z</time>
      </trkpt>
      <trkpt lat="49.3345" lon="0.95413">
        <ele>51.1</ele>
        <time>2016-10-09T07:49:05Z</time>
      </trkpt>
      <trkpt lat="49.33453" lon="0.95399">
        <ele>52.1</ele>
        <time>2016-10-09T07:49:09Z</time>
      </trkpt>
      <trkpt lat="49.33456" lon="0.95384">
        <ele>53.2</ele>
        <time>2016-10-09T07:49:13Z</time>
      </trkpt>
      <trkpt lat="49.33461" lon="0.95369">
        <ele>54.1</ele>
        <time>2016-10-09T07:49:17Z</time>
      </trkpt>
      <trkpt lat="49.33464" lon="0.95355">
        <ele>54.7</ele>
        <time>2016-10-09T07:49:20Z</time>
      </trkpt>
      <trkpt lat="49.33468" lon="0.95341">
        <ele>55.3</ele>
        <time>2016-10-09T07:49:23Z</time>
      </trkpt>
      <trkpt lat="49.33469" lon="0.95323">
        <ele>55.7</ele>
        <time>2016-10-09T07:49:26Z</time>
      </trkpt>
      <trkpt lat="49.33472" lon="0.95308">
        <ele>55.9</ele>
        <time>2016-10-09T07:49:28Z</time>
      </trkpt>
      <trkpt lat="49.33473" lon="0.95289">
        <ele>56</ele>
        <time>2016-10-09T07:49:30Z</time>
      </trkpt>
      <trkpt lat="49.33474" lon="0.9527">
        <ele>56</ele>
        <time>2016-10-09T07:49:32Z</time>
      </trkpt>
      <trkpt lat="49.33476" lon="0.95255">
        <ele>55.8</ele>
        <time>2016-10-09T07:49:34Z</time>
      </trkpt>
      <trkpt lat="49.33478" lon="0.95233">
        <ele>55.6</ele>
        <time>2016-10-09T07:49:37Z</time>
      </trkpt>
      <trkpt lat="49.3348" lon="0.95219">
        <ele>55.5</ele>
        <time>2016-10-09T07:49:39Z</time>
      </trkpt>
      <trkpt lat="49.33481" lon="0.95198">
        <ele>55.3</ele>
        <time>2016-10-09T07:49:42Z</time>
      </trkpt>
      <trkpt lat="49.33481" lon="0.95182">
        <ele>55.3</ele>
        <time>2016-10-09T07:49:44Z</time>
      </trkpt>
      <trkpt lat="49.33481" lon="0.95165">
        <ele>55.4</ele>
        <time>2016-10-09T07:49:47Z</time>
      </trkpt>
      <trkpt lat="49.33481" lon="0.95146">
        <ele>55.4</ele>
        <time>2016-10-09T07:49:50Z</time>
      </trkpt>
      <trkpt lat="49.33481" lon="0.95132">
        <ele>55.4</ele>
        <time>2016-10-09T07:49:52Z</time>
      </trkpt>
      <trkpt lat="49.33476" lon="0.95114">
        <ele>55.5</ele>
        <time>2016-10-09T07:49:54Z</time>
      </trkpt>
      <trkpt lat="49.33472" lon="0.95094">
        <ele>55.5</ele>
        <time>2016-10-09T07:49:57Z</time>
      </trkpt>
      <trkpt lat="49.33467" lon="0.95076">
        <ele>55.5</ele>
        <time>2016-10-09T07:49:59Z</time>
      </trkpt>
      <trkpt lat="49.33463" lon="0.9506">
        <ele>55.7</ele>
        <time>2016-10-09T07:50:01Z</time>
      </trkpt>
      <trkpt lat="49.33456" lon="0.95045">
        <ele>55.8</ele>
        <time>2016-10-09T07:50:03Z</time>
      </trkpt>
      <trkpt lat="49.33449" lon="0.95032">
        <ele>55.9</ele>
        <time>2016-10-09T07:50:05Z</time>
      </trkpt>
      <trkpt lat="49.33443" lon="0.95016">
        <ele>56.1</ele>
        <time>2016-10-09T07:50:07Z</time>
      </trkpt>
      <trkpt lat="49.33436" lon="0.94996">
        <ele>56.3</ele>
        <time>2016-10-09T07:50:10Z</time>
      </trkpt>
      <trkpt lat="49.33431" lon="0.94983">
        <ele>56.5</ele>
        <time>2016-10-09T07:50:12Z</time>
      </trkpt>
      <trkpt lat="49.3343" lon="0.9497">
        <ele>56.7</ele>
        <time>2016-10-09T07:50:14Z</time>
      </trkpt>
      <trkpt lat="49.33436" lon="0.94951">
        <ele>57</ele>
        <time>2016-10-09T07:50:17Z</time>
      </trkpt>
      <trkpt lat="49.33436" lon="0.94933">
        <ele>56.7</ele>
        <time>2016-10-09T07:50:19Z</time>
      </trkpt>
      <trkpt lat="49.33437" lon="0.94918">
        <ele>56.4</ele>
        <time>2016-10-09T07:50:21Z</time>
      </trkpt>
      <trkpt lat="49.33437" lon="0.94903">
        <ele>55.6</ele>
        <time>2016-10-09T07:50:23Z</time>
      </trkpt>
      <trkpt lat="49.33439" lon="0.94889">
        <ele>55</ele>
        <time>2016-10-09T07:50:25Z</time>
      </trkpt>
      <trkpt lat="49.3344" lon="0.94868">
        <ele>54</ele>
        <time>2016-10-09T07:50:28Z</time>
      </trkpt>
      <trkpt lat="49.3344" lon="0.9485">
        <ele>53</ele>
        <time>2016-10-09T07:50:30Z</time>
      </trkpt>
      <trkpt lat="49.33439" lon="0.94836">
        <ele>52</ele>
        <time>2016-10-09T07:50:32Z</time>
      </trkpt>
      <trkpt lat="49.33444" lon="0.9482">
        <ele>50.9</ele>
        <time>2016-10-09T07:50:34Z</time>
      </trkpt>
      <trkpt lat="49.33447" lon="0.94806">
        <ele>49.8</ele>
        <time>2016-10-09T07:50:36Z</time>
      </trkpt>
      <trkpt lat="49.33448" lon="0.94789">
        <ele>48.5</ele>
        <time>2016-10-09T07:50:38Z</time>
      </trkpt>
      <trkpt lat="49.33449" lon="0.94771">
        <ele>46.4</ele>
        <time>2016-10-09T07:50:41Z</time>
      </trkpt>
      <trkpt lat="49.33448" lon="0.94752">
        <ele>43.8</ele>
        <time>2016-10-09T07:50:45Z</time>
      </trkpt>
      <trkpt lat="49.33451" lon="0.94735">
        <ele>42.1</ele>
        <time>2016-10-09T07:50:48Z</time>
      </trkpt>
      <trkpt lat="49.33453" lon="0.94719">
        <ele>40.7</ele>
        <time>2016-10-09T07:50:51Z</time>
      </trkpt>
      <trkpt lat="49.33453" lon="0.94705">
        <ele>39.7</ele>
        <time>2016-10-09T07:50:53Z</time>
      </trkpt>
      <trkpt lat="49.33451" lon="0.94689">
        <ele>38.3</ele>
        <time>2016-10-09T07:50:56Z</time>
      </trkpt>
      <trkpt lat="49.33447" lon="0.94674">
        <ele>37.2</ele>
        <time>2016-10-09T07:50:59Z</time>
      </trkpt>
      <trkpt lat="49.33444" lon="0.94657">
        <ele>36.1</ele>
        <time>2016-10-09T07:51:03Z</time>
      </trkpt>
      <trkpt lat="49.33438" lon="0.94645">
        <ele>35.4</ele>
        <time>2016-10-09T07:51:06Z</time>
      </trkpt>
      <trkpt lat="49.33433" lon="0.94628">
        <ele>34.8</ele>
        <time>2016-10-09T07:51:09Z</time>
      </trkpt>
      <trkpt lat="49.33429" lon="0.94616">
        <ele>34.5</ele>
        <time>2016-10-09T07:51:11Z</time>
      </trkpt>
      <trkpt lat="49.33424" lon="0.94597">
        <ele>34.3</ele>
        <time>2016-10-09T07:51:14Z</time>
      </trkpt>
      <trkpt lat="49.33422" lon="0.94584">
        <ele>34.2</ele>
        <time>2016-10-09T07:51:17Z</time>
      </trkpt>
      <trkpt lat="49.33415" lon="0.94572">
        <ele>34.4</ele>
        <time>2016-10-09T07:51:20Z</time>
      </trkpt>
      <trkpt lat="49.33409" lon="0.94557">
        <ele>35</ele>
        <time>2016-10-09T07:51:24Z</time>
      </trkpt>
      <trkpt lat="49.33402" lon="0.94547">
        <ele>35.7</ele>
        <time>2016-10-09T07:51:28Z</time>
      </trkpt>
      <trkpt lat="49.334" lon="0.94532">
        <ele>36.6</ele>
        <time>2016-10-09T07:51:33Z</time>
      </trkpt>
      <trkpt lat="49.33397" lon="0.94518">
        <ele>37.2</ele>
        <time>2016-10-09T07:51:37Z</time>
      </trkpt>
      <trkpt lat="49.33395" lon="0.94504">
        <ele>37.8</ele>
        <time>2016-10-09T07:51:41Z</time>
      </trkpt>
      <trkpt lat="49.33393" lon="0.94487">
        <ele>38.6</ele>
        <time>2016-10-09T07:51:46Z</time>
      </trkpt>
      <trkpt lat="49.33386" lon="0.94472">
        <ele>39</ele>
        <time>2016-10-09T07:51:50Z</time>
      </trkpt>
      <trkpt lat="49.3338" lon="0.94462">
        <ele>39.4</ele>
        <time>2016-10-09T07:51:53Z</time>
      </trkpt>
      <trkpt lat="49.33378" lon="0.94448">
        <ele>40.3</ele>
        <time>2016-10-09T07:51:58Z</time>
      </trkpt>
      <trkpt lat="49.33379" lon="0.94431">
        <ele>41.1</ele>
        <time>2016-10-09T07:52:04Z</time>
      </trkpt>
      <trkpt lat="49.33378" lon="0.94415">
        <ele>41.8</ele>
        <time>2016-10-09T07:52:10Z</time>
      </trkpt>
      <trkpt lat="49.33373" lon="0.94398">
        <ele>42.5</ele>
        <time>2016-10-09T07:52:15Z</time>
      </trkpt>
      <trkpt lat="49.3337" lon="0.94384">
        <ele>43.2</ele>
        <time>2016-10-09T07:52:19Z</time>
      </trkpt>
      <trkpt lat="49.33368" lon="0.9437">
        <ele>43.9</ele>
        <time>2016-10-09T07:52:24Z</time>
      </trkpt>
      <trkpt lat="49.33366" lon="0.94355">
        <ele>45.1</ele>
        <time>2016-10-09T07:52:30Z</time>
      </trkpt>
      <trkpt lat="49.33364" lon="0.94341">
        <ele>46.1</ele>
        <time>2016-10-09T07:52:35Z</time>
      </trkpt>
      <trkpt lat="49.3336" lon="0.94325">
        <ele>47.5</ele>
        <time>2016-10-09T07:52:41Z</time>
      </trkpt>
      <trkpt lat="49.3336" lon="0.94311">
        <ele>48.5</ele>
        <time>2016-10-09T07:52:47Z</time>
      </trkpt>
      <trkpt lat="49.33361" lon="0.94296">
        <ele>49.1</ele>
        <time>2016-10-09T07:52:51Z</time>
      </trkpt>
      <trkpt lat="49.33362" lon="0.94281">
        <ele>49.6</ele>
        <time>2016-10-09T07:52:56Z</time>
      </trkpt>
      <trkpt lat="49.33361" lon="0.94267">
        <ele>50</ele>
        <time>2016-10-09T07:53:01Z</time>
      </trkpt>
      <trkpt lat="49.33359" lon="0.94253">
        <ele>50.3</ele>
        <time>2016-10-09T07:53:07Z</time>
      </trkpt>
      <trkpt lat="49.33362" lon="0.94239">
        <ele>50.5</ele>
        <time>2016-10-09T07:53:11Z</time>
      </trkpt>
      <trkpt lat="49.3336" lon="0.94224">
        <ele>50.6</ele>
        <time>2016-10-09T07:53:15Z</time>
      </trkpt>
      <trkpt lat="49.33356" lon="0.94211">
        <ele>50.7</ele>
        <time>2016-10-09T07:53:22Z</time>
      </trkpt>
      <trkpt lat="49.33352" lon="0.94196">
        <ele>50.8</ele>
        <time>2016-10-09T07:53:28Z</time>
      </trkpt>
      <trkpt lat="49.33347" lon="0.94182">
        <ele>50.8</ele>
        <time>2016-10-09T07:53:31Z</time>
      </trkpt>
      <trkpt lat="49.33348" lon="0.9416">
        <ele>50.5</ele>
        <time>2016-10-09T07:53:34Z</time>
      </trkpt>
      <trkpt lat="49.33347" lon="0.94144">
        <ele>50.1</ele>
        <time>2016-10-09T07:53:36Z</time>
      </trkpt>
      <trkpt lat="49.33345" lon="0.94127">
        <ele>49.7</ele>
        <time>2016-10-09T07:53:38Z</time>
      </trkpt>
      <trkpt lat="49.33347" lon="0.94109">
        <ele>48.6</ele>
        <time>2016-10-09T07:53:41Z</time>
      </trkpt>
      <trkpt lat="49.33347" lon="0.94088">
        <ele>47.7</ele>
        <time>2016-10-09T07:53:43Z</time>
      </trkpt>
      <trkpt lat="49.33348" lon="0.94067">
        <ele>46.8</ele>
        <time>2016-10-09T07:53:45Z</time>
      </trkpt>
      <trkpt lat="49.3335" lon="0.94046">
        <ele>45.8</ele>
        <time>2016-10-09T07:53:47Z</time>
      </trkpt>
      <trkpt lat="49.33348" lon="0.94024">
        <ele>44.8</ele>
        <time>2016-10-09T07:53:49Z</time>
      </trkpt>
      <trkpt lat="49.33348" lon="0.9401">
        <ele>44.3</ele>
        <time>2016-10-09T07:53:50Z</time>
      </trkpt>
      <trkpt lat="49.33347" lon="0.93985">
        <ele>43.1</ele>
        <time>2016-10-09T07:53:52Z</time>
      </trkpt>
      <trkpt lat="49.33347" lon="0.93961">
        <ele>42.1</ele>
        <time>2016-10-09T07:53:54Z</time>
      </trkpt>
      <trkpt lat="49.33345" lon="0.93939">
        <ele>41.1</ele>
        <time>2016-10-09T07:53:56Z</time>
      </trkpt>
      <trkpt lat="49.33342" lon="0.93919">
        <ele>40.1</ele>
        <time>2016-10-09T07:53:58Z</time>
      </trkpt>
      <trkpt lat="49.33338" lon="0.93901">
        <ele>39.3</ele>
        <time>2016-10-09T07:54:00Z</time>
      </trkpt>
      <trkpt lat="49.33334" lon="0.93887">
        <ele>38.6</ele>
        <time>2016-10-09T07:54:02Z</time>
      </trkpt>
      <trkpt lat="49.33328" lon="0.93869">
        <ele>37.6</ele>
        <time>2016-10-09T07:54:05Z</time>
      </trkpt>
      <trkpt lat="49.33321" lon="0.93852">
        <ele>36.8</ele>
        <time>2016-10-09T07:54:08Z</time>
      </trkpt>
      <trkpt lat="49.33316" lon="0.93838">
        <ele>36.4</ele>
        <time>2016-10-09T07:54:10Z</time>
      </trkpt>
      <trkpt lat="49.33312" lon="0.93824">
        <ele>35.9</ele>
        <time>2016-10-09T07:54:12Z</time>
      </trkpt>
      <trkpt lat="49.33308" lon="0.93812">
        <ele>35.6</ele>
        <time>2016-10-09T07:54:14Z</time>
      </trkpt>
      <trkpt lat="49.33304" lon="0.93799">
        <ele>35.3</ele>
        <time>2016-10-09T07:54:16Z</time>
      </trkpt>
      <trkpt lat="49.33298" lon="0.9378">
        <ele>34.8</ele>
        <time>2016-10-09T07:54:19Z</time>
      </trkpt>
      <trkpt lat="49.33293" lon="0.93761">
        <ele>34.5</ele>
        <time>2016-10-09T07:54:22Z</time>
      </trkpt>
      <trkpt lat="49.33291" lon="0.93745">
        <ele>34.2</ele>
        <time>2016-10-09T07:54:25Z</time>
      </trkpt>
      <trkpt lat="49.33287" lon="0.93725">
        <ele>34</ele>
        <time>2016-10-09T07:54:28Z</time>
      </trkpt>
      <trkpt lat="49.33284" lon="0.93711">
        <ele>33.9</ele>
        <time>2016-10-09T07:54:30Z</time>
      </trkpt>
      <trkpt lat="49.33283" lon="0.93693">
        <ele>33.7</ele>
        <time>2016-10-09T07:54:33Z</time>
      </trkpt>
      <trkpt lat="49.33282" lon="0.93676">
        <ele>33.6</ele>
        <time>2016-10-09T07:54:36Z</time>
      </trkpt>
      <trkpt lat="49.33281" lon="0.93659">
        <ele>33.6</ele>
        <time>2016-10-09T07:54:39Z</time>
      </trkpt>
      <trkpt lat="49.33282" lon="0.9364">
        <ele>33.7</ele>
        <time>2016-10-09T07:54:42Z</time>
      </trkpt>
      <trkpt lat="49.33286" lon="0.93623">
        <ele>33.7</ele>
        <time>2016-10-09T07:54:45Z</time>
      </trkpt>
      <trkpt lat="49.3329" lon="0.93606">
        <ele>33.8</ele>
        <time>2016-10-09T07:54:48Z</time>
      </trkpt>
      <trkpt lat="49.33297" lon="0.93592">
        <ele>33.8</ele>
        <time>2016-10-09T07:54:51Z</time>
      </trkpt>
      <trkpt lat="49.33306" lon="0.93579">
        <ele>33.8</ele>
        <time>2016-10-09T07:54:54Z</time>
      </trkpt>
      <trkpt lat="49.33316" lon="0.93566">
        <ele>33.8</ele>
        <time>2016-10-09T07:54:57Z</time>
      </trkpt>
      <trkpt lat="49.33324" lon="0.93551">
        <ele>33.8</ele>
        <time>2016-10-09T07:55:00Z</time>
      </trkpt>
      <trkpt lat="49.33333" lon="0.93538">
        <ele>33.8</ele>
        <time>2016-10-09T07:55:03Z</time>
      </trkpt>
      <trkpt lat="49.33343" lon="0.93526">
        <ele>33.9</ele>
        <time>2016-10-09T07:55:06Z</time>
      </trkpt>
      <trkpt lat="49.33347" lon="0.93508">
        <ele>33.9</ele>
        <time>2016-10-09T07:55:09Z</time>
      </trkpt>
      <trkpt lat="49.33351" lon="0.93491">
        <ele>33.9</ele>
        <time>2016-10-09T07:55:12Z</time>
      </trkpt>
      <trkpt lat="49.33355" lon="0.93478">
        <ele>33.9</ele>
        <time>2016-10-09T07:55:15Z</time>
      </trkpt>
      <trkpt lat="49.33363" lon="0.93463">
        <ele>33.9</ele>
        <time>2016-10-09T07:55:18Z</time>
      </trkpt>
      <trkpt lat="49.3337" lon="0.93446">
        <ele>34</ele>
        <time>2016-10-09T07:55:21Z</time>
      </trkpt>
      <trkpt lat="49.33378" lon="0.93433">
        <ele>34</ele>
        <time>2016-10-09T07:55:24Z</time>
      </trkpt>
      <trkpt lat="49.33383" lon="0.93415">
        <ele>34.1</ele>
        <time>2016-10-09T07:55:27Z</time>
      </trkpt>
      <trkpt lat="49.33377" lon="0.93402">
        <ele>34.3</ele>
        <time>2016-10-09T07:55:31Z</time>
      </trkpt>
      <trkpt lat="49.33369" lon="0.93395">
        <ele>34.7</ele>
        <time>2016-10-09T07:55:35Z</time>
      </trkpt>
      <trkpt lat="49.33359" lon="0.93391">
        <ele>35.4</ele>
        <time>2016-10-09T07:55:39Z</time>
      </trkpt>
      <trkpt lat="49.33351" lon="0.93383">
        <ele>36.6</ele>
        <time>2016-10-09T07:55:44Z</time>
      </trkpt>
      <trkpt lat="49.33343" lon="0.93374">
        <ele>38.4</ele>
        <time>2016-10-09T07:55:50Z</time>
      </trkpt>
      <trkpt lat="49.3334" lon="0.93359">
        <ele>41.1</ele>
        <time>2016-10-09T07:55:58Z</time>
      </trkpt>
      <trkpt lat="49.3334" lon="0.93344">
        <ele>43.6</ele>
        <time>2016-10-09T07:56:06Z</time>
      </trkpt>
      <trkpt lat="49.33347" lon="0.93332">
        <ele>45.5</ele>
        <time>2016-10-09T07:56:13Z</time>
      </trkpt>
      <trkpt lat="49.33353" lon="0.9332">
        <ele>46.8</ele>
        <time>2016-10-09T07:56:19Z</time>
      </trkpt>
      <trkpt lat="49.33359" lon="0.93308">
        <ele>47.5</ele>
        <time>2016-10-09T07:56:23Z</time>
      </trkpt>
      <trkpt lat="49.33365" lon="0.93295">
        <ele>48.2</ele>
        <time>2016-10-09T07:56:27Z</time>
      </trkpt>
      <trkpt lat="49.33373" lon="0.93282">
        <ele>48.7</ele>
        <time>2016-10-09T07:56:31Z</time>
      </trkpt>
      <trkpt lat="49.33382" lon="0.93272">
        <ele>49.2</ele>
        <time>2016-10-09T07:56:35Z</time>
      </trkpt>
      <trkpt lat="49.3339" lon="0.93263">
        <ele>49.5</ele>
        <time>2016-10-09T07:56:38Z</time>
      </trkpt>
      <trkpt lat="49.33398" lon="0.93254">
        <ele>49.8</ele>
        <time>2016-10-09T07:56:42Z</time>
      </trkpt>
      <trkpt lat="49.33405" lon="0.93244">
        <ele>50.4</ele>
        <time>2016-10-09T07:56:50Z</time>
      </trkpt>
      <trkpt lat="49.33413" lon="0.93234">
        <ele>51</ele>
        <time>2016-10-09T07:56:58Z</time>
      </trkpt>
      <trkpt lat="49.33421" lon="0.93223">
        <ele>51.5</ele>
        <time>2016-10-09T07:57:03Z</time>
      </trkpt>
      <trkpt lat="49.33431" lon="0.93216">
        <ele>52.2</ele>
        <time>2016-10-09T07:57:07Z</time>
      </trkpt>
      <trkpt lat="49.33441" lon="0.93211">
        <ele>52.7</ele>
        <time>2016-10-09T07:57:11Z</time>
      </trkpt>
      <trkpt lat="49.33452" lon="0.93207">
        <ele>53.4</ele>
        <time>2016-10-09T07:57:15Z</time>
      </trkpt>
      <trkpt lat="49.33461" lon="0.93201">
        <ele>54.1</ele>
        <time>2016-10-09T07:57:19Z</time>
      </trkpt>
      <trkpt lat="49.33469" lon="0.93196">
        <ele>54.6</ele>
        <time>2016-10-09T07:57:22Z</time>
      </trkpt>
      <trkpt lat="49.33478" lon="0.93192">
        <ele>55.4</ele>
        <time>2016-10-09T07:57:26Z</time>
      </trkpt>
      <trkpt lat="49.33486" lon="0.93182">
        <ele>56.2</ele>
        <time>2016-10-09T07:57:30Z</time>
      </trkpt>
      <trkpt lat="49.33491" lon="0.93168">
        <ele>57.3</ele>
        <time>2016-10-09T07:57:35Z</time>
      </trkpt>
      <trkpt lat="49.33495" lon="0.93151">
        <ele>58.4</ele>
        <time>2016-10-09T07:57:40Z</time>
      </trkpt>
      <trkpt lat="49.33497" lon="0.93135">
        <ele>59</ele>
        <time>2016-10-09T07:57:43Z</time>
      </trkpt>
      <trkpt lat="49.33498" lon="0.93114">
        <ele>59.4</ele>
        <time>2016-10-09T07:57:46Z</time>
      </trkpt>
      <trkpt lat="49.33496" lon="0.931">
        <ele>59.6</ele>
        <time>2016-10-09T07:57:48Z</time>
      </trkpt>
      <trkpt lat="49.33494" lon="0.93086">
        <ele>59.8</ele>
        <time>2016-10-09T07:57:50Z</time>
      </trkpt>
      <trkpt lat="49.33491" lon="0.93071">
        <ele>59.9</ele>
        <time>2016-10-09T07:57:52Z</time>
      </trkpt>
      <trkpt lat="49.33489" lon="0.93056">
        <ele>59.9</ele>
        <time>2016-10-09T07:57:54Z</time>
      </trkpt>
      <trkpt lat="49.33485" lon="0.9304">
        <ele>59.9</ele>
        <time>2016-10-09T07:57:56Z</time>
      </trkpt>
      <trkpt lat="49.33483" lon="0.93023">
        <ele>59.7</ele>
        <time>2016-10-09T07:57:58Z</time>
      </trkpt>
      <trkpt lat="49.33483" lon="0.93004">
        <ele>59.4</ele>
        <time>2016-10-09T07:58:00Z</time>
      </trkpt>
      <trkpt lat="49.33484" lon="0.92985">
        <ele>59.1</ele>
        <time>2016-10-09T07:58:02Z</time>
      </trkpt>
      <trkpt lat="49.33483" lon="0.92967">
        <ele>58.6</ele>
        <time>2016-10-09T07:58:04Z</time>
      </trkpt>
      <trkpt lat="49.33483" lon="0.92946">
        <ele>57.8</ele>
        <time>2016-10-09T07:58:06Z</time>
      </trkpt>
      <trkpt lat="49.33482" lon="0.92921">
        <ele>57.1</ele>
        <time>2016-10-09T07:58:08Z</time>
      </trkpt>
      <trkpt lat="49.3348" lon="0.92894">
        <ele>56.1</ele>
        <time>2016-10-09T07:58:10Z</time>
      </trkpt>
      <trkpt lat="49.33478" lon="0.9288">
        <ele>55.7</ele>
        <time>2016-10-09T07:58:11Z</time>
      </trkpt>
      <trkpt lat="49.33477" lon="0.92866">
        <ele>55.2</ele>
        <time>2016-10-09T07:58:12Z</time>
      </trkpt>
      <trkpt lat="49.33476" lon="0.92852">
        <ele>54.6</ele>
        <time>2016-10-09T07:58:13Z</time>
      </trkpt>
      <trkpt lat="49.33474" lon="0.92837">
        <ele>54</ele>
        <time>2016-10-09T07:58:14Z</time>
      </trkpt>
      <trkpt lat="49.33472" lon="0.92823">
        <ele>53.4</ele>
        <time>2016-10-09T07:58:15Z</time>
      </trkpt>
      <trkpt lat="49.33467" lon="0.92798">
        <ele>52.3</ele>
        <time>2016-10-09T07:58:17Z</time>
      </trkpt>
      <trkpt lat="49.33459" lon="0.92778">
        <ele>51.3</ele>
        <time>2016-10-09T07:58:19Z</time>
      </trkpt>
      <trkpt lat="49.33451" lon="0.92764">
        <ele>50.3</ele>
        <time>2016-10-09T07:58:21Z</time>
      </trkpt>
      <trkpt lat="49.33443" lon="0.92747">
        <ele>49.5</ele>
        <time>2016-10-09T07:58:23Z</time>
      </trkpt>
      <trkpt lat="49.33442" lon="0.9273">
        <ele>48.5</ele>
        <time>2016-10-09T07:58:25Z</time>
      </trkpt>
      <trkpt lat="49.33442" lon="0.92713">
        <ele>47.7</ele>
        <time>2016-10-09T07:58:27Z</time>
      </trkpt>
      <trkpt lat="49.33443" lon="0.92697">
        <ele>47</ele>
        <time>2016-10-09T07:58:29Z</time>
      </trkpt>
      <trkpt lat="49.33445" lon="0.92679">
        <ele>46.4</ele>
        <time>2016-10-09T07:58:31Z</time>
      </trkpt>
      <trkpt lat="49.33449" lon="0.92662">
        <ele>45.9</ele>
        <time>2016-10-09T07:58:33Z</time>
      </trkpt>
      <trkpt lat="49.33452" lon="0.92648">
        <ele>45.4</ele>
        <time>2016-10-09T07:58:35Z</time>
      </trkpt>
      <trkpt lat="49.33452" lon="0.92629">
        <ele>44.9</ele>
        <time>2016-10-09T07:58:38Z</time>
      </trkpt>
      <trkpt lat="49.33446" lon="0.92619">
        <ele>44.5</ele>
        <time>2016-10-09T07:58:40Z</time>
      </trkpt>
      <trkpt lat="49.33437" lon="0.92613">
        <ele>44.3</ele>
        <time>2016-10-09T07:58:42Z</time>
      </trkpt>
      <trkpt lat="49.33428" lon="0.92607">
        <ele>44.1</ele>
        <time>2016-10-09T07:58:44Z</time>
      </trkpt>
      <trkpt lat="49.33419" lon="0.92604">
        <ele>43.9</ele>
        <time>2016-10-09T07:58:46Z</time>
      </trkpt>
      <trkpt lat="49.33409" lon="0.92596">
        <ele>43.8</ele>
        <time>2016-10-09T07:58:48Z</time>
      </trkpt>
      <trkpt lat="49.334" lon="0.9259">
        <ele>43.7</ele>
        <time>2016-10-09T07:58:50Z</time>
      </trkpt>
      <trkpt lat="49.33391" lon="0.92585">
        <ele>43.6</ele>
        <time>2016-10-09T07:58:52Z</time>
      </trkpt>
      <trkpt lat="49.33382" lon="0.9258">
        <ele>43.6</ele>
        <time>2016-10-09T07:58:54Z</time>
      </trkpt>
      <trkpt lat="49.33373" lon="0.92575">
        <ele>43.5</ele>
        <time>2016-10-09T07:58:56Z</time>
      </trkpt>
      <trkpt lat="49.33365" lon="0.92568">
        <ele>43.5</ele>
        <time>2016-10-09T07:58:58Z</time>
      </trkpt>
      <trkpt lat="49.33357" lon="0.92561">
        <ele>43.5</ele>
        <time>2016-10-09T07:59:00Z</time>
      </trkpt>
      <trkpt lat="49.3335" lon="0.92551">
        <ele>43.5</ele>
        <time>2016-10-09T07:59:02Z</time>
      </trkpt>
      <trkpt lat="49.33341" lon="0.92538">
        <ele>43.7</ele>
        <time>2016-10-09T07:59:05Z</time>
      </trkpt>
      <trkpt lat="49.3333" lon="0.92528">
        <ele>43.7</ele>
        <time>2016-10-09T07:59:08Z</time>
      </trkpt>
      <trkpt lat="49.33317" lon="0.9253">
        <ele>43.9</ele>
        <time>2016-10-09T07:59:11Z</time>
      </trkpt>
      <trkpt lat="49.33308" lon="0.92533">
        <ele>44</ele>
        <time>2016-10-09T07:59:13Z</time>
      </trkpt>
      <trkpt lat="49.33299" lon="0.92535">
        <ele>44.1</ele>
        <time>2016-10-09T07:59:15Z</time>
      </trkpt>
      <trkpt lat="49.3329" lon="0.92539">
        <ele>44.2</ele>
        <time>2016-10-09T07:59:17Z</time>
      </trkpt>
      <trkpt lat="49.3328" lon="0.92542">
        <ele>44.3</ele>
        <time>2016-10-09T07:59:19Z</time>
      </trkpt>
      <trkpt lat="49.3327" lon="0.92546">
        <ele>44.4</ele>
        <time>2016-10-09T07:59:21Z</time>
      </trkpt>
      <trkpt lat="49.3326" lon="0.9255">
        <ele>44.6</ele>
        <time>2016-10-09T07:59:23Z</time>
      </trkpt>
      <trkpt lat="49.3325" lon="0.92553">
        <ele>44.7</ele>
        <time>2016-10-09T07:59:25Z</time>
      </trkpt>
      <trkpt lat="49.3324" lon="0.92556">
        <ele>44.9</ele>
        <time>2016-10-09T07:59:27Z</time>
      </trkpt>
      <trkpt lat="49.3323" lon="0.9256">
        <ele>45.1</ele>
        <time>2016-10-09T07:59:29Z</time>
      </trkpt>
      <trkpt lat="49.3322" lon="0.92563">
        <ele>45.3</ele>
        <time>2016-10-09T07:59:31Z</time>
      </trkpt>
      <trkpt lat="49.3321" lon="0.92566">
        <ele>45.4</ele>
        <time>2016-10-09T07:59:33Z</time>
      </trkpt>
      <trkpt lat="49.33201" lon="0.9257">
        <ele>45.6</ele>
        <time>2016-10-09T07:59:35Z</time>
      </trkpt>
      <trkpt lat="49.33192" lon="0.92572">
        <ele>45.8</ele>
        <time>2016-10-09T07:59:37Z</time>
      </trkpt>
      <trkpt lat="49.33182" lon="0.92577">
        <ele>46</ele>
        <time>2016-10-09T07:59:39Z</time>
      </trkpt>
      <trkpt lat="49.33169" lon="0.92583">
        <ele>46.3</ele>
        <time>2016-10-09T07:59:42Z</time>
      </trkpt>
      <trkpt lat="49.3316" lon="0.92587">
        <ele>46.5</ele>
        <time>2016-10-09T07:59:44Z</time>
      </trkpt>
      <trkpt lat="49.3315" lon="0.92591">
        <ele>46.7</ele>
        <time>2016-10-09T07:59:46Z</time>
      </trkpt>
      <trkpt lat="49.3314" lon="0.92595">
        <ele>46.9</ele>
        <time>2016-10-09T07:59:48Z</time>
      </trkpt>
      <trkpt lat="49.33131" lon="0.926">
        <ele>47.1</ele>
        <time>2016-10-09T07:59:50Z</time>
      </trkpt>
      <trkpt lat="49.33123" lon="0.92606">
        <ele>47.3</ele>
        <time>2016-10-09T07:59:52Z</time>
      </trkpt>
      <trkpt lat="49.33111" lon="0.92612">
        <ele>47.6</ele>
        <time>2016-10-09T07:59:55Z</time>
      </trkpt>
      <trkpt lat="49.33102" lon="0.92616">
        <ele>47.8</ele>
        <time>2016-10-09T07:59:57Z</time>
      </trkpt>
      <trkpt lat="49.33093" lon="0.92621">
        <ele>48.1</ele>
        <time>2016-10-09T07:59:59Z</time>
      </trkpt>
      <trkpt lat="49.33081" lon="0.92627">
        <ele>48.3</ele>
        <time>2016-10-09T08:00:01Z</time>
      </trkpt>
      <trkpt lat="49.33072" lon="0.92632">
        <ele>48.6</ele>
        <time>2016-10-09T08:00:03Z</time>
      </trkpt>
      <trkpt lat="49.33062" lon="0.92638">
        <ele>48.8</ele>
        <time>2016-10-09T08:00:05Z</time>
      </trkpt>
      <trkpt lat="49.33053" lon="0.92641">
        <ele>49</ele>
        <time>2016-10-09T08:00:07Z</time>
      </trkpt>
      <trkpt lat="49.33043" lon="0.92647">
        <ele>49.3</ele>
        <time>2016-10-09T08:00:09Z</time>
      </trkpt>
      <trkpt lat="49.33034" lon="0.92652">
        <ele>49.6</ele>
        <time>2016-10-09T08:00:11Z</time>
      </trkpt>
      <trkpt lat="49.33024" lon="0.92657">
        <ele>49.8</ele>
        <time>2016-10-09T08:00:13Z</time>
      </trkpt>
      <trkpt lat="49.33015" lon="0.92663">
        <ele>50</ele>
        <time>2016-10-09T08:00:15Z</time>
      </trkpt>
      <trkpt lat="49.33006" lon="0.92668">
        <ele>50.2</ele>
        <time>2016-10-09T08:00:17Z</time>
      </trkpt>
      <trkpt lat="49.32997" lon="0.92672">
        <ele>50.3</ele>
        <time>2016-10-09T08:00:19Z</time>
      </trkpt>
      <trkpt lat="49.32988" lon="0.92678">
        <ele>50.6</ele>
        <time>2016-10-09T08:00:21Z</time>
      </trkpt>
      <trkpt lat="49.32979" lon="0.92684">
        <ele>50.8</ele>
        <time>2016-10-09T08:00:23Z</time>
      </trkpt>
      <trkpt lat="49.3297" lon="0.9269">
        <ele>51</ele>
        <time>2016-10-09T08:00:25Z</time>
      </trkpt>
      <trkpt lat="49.32962" lon="0.92695">
        <ele>51.2</ele>
        <time>2016-10-09T08:00:27Z</time>
      </trkpt>
      <trkpt lat="49.32953" lon="0.927">
        <ele>51.4</ele>
        <time>2016-10-09T08:00:29Z</time>
      </trkpt>
      <trkpt lat="49.32944" lon="0.92707">
        <ele>51.6</ele>
        <time>2016-10-09T08:00:31Z</time>
      </trkpt>
      <trkpt lat="49.32932" lon="0.92714">
        <ele>52</ele>
        <time>2016-10-09T08:00:34Z</time>
      </trkpt>
      <trkpt lat="49.32923" lon="0.9271">
        <ele>52.6</ele>
        <time>2016-10-09T08:00:39Z</time>
      </trkpt>
      <trkpt lat="49.32919" lon="0.92696">
        <ele>53.3</ele>
        <time>2016-10-09T08:00:44Z</time>
      </trkpt>
      <trkpt lat="49.32916" lon="0.9268">
        <ele>53.9</ele>
        <time>2016-10-09T08:00:47Z</time>
      </trkpt>
      <trkpt lat="49.32912" lon="0.92667">
        <ele>54.7</ele>
        <time>2016-10-09T08:00:51Z</time>
      </trkpt>
      <trkpt lat="49.32908" lon="0.92654">
        <ele>55.7</ele>
        <time>2016-10-09T08:00:55Z</time>
      </trkpt>
      <trkpt lat="49.32906" lon="0.92637">
        <ele>57.3</ele>
        <time>2016-10-09T08:01:00Z</time>
      </trkpt>
      <trkpt lat="49.32908" lon="0.92618">
        <ele>58.9</ele>
        <time>2016-10-09T08:01:05Z</time>
      </trkpt>
      <trkpt lat="49.32908" lon="0.926">
        <ele>60.2</ele>
        <time>2016-10-09T08:01:10Z</time>
      </trkpt>
      <trkpt lat="49.32907" lon="0.92584">
        <ele>60.9</ele>
        <time>2016-10-09T08:01:13Z</time>
      </trkpt>
      <trkpt lat="49.32906" lon="0.92569">
        <ele>61.4</ele>
        <time>2016-10-09T08:01:16Z</time>
      </trkpt>
      <trkpt lat="49.32908" lon="0.92551">
        <ele>61.6</ele>
        <time>2016-10-09T08:01:19Z</time>
      </trkpt>
      <trkpt lat="49.32913" lon="0.92536">
        <ele>61.7</ele>
        <time>2016-10-09T08:01:22Z</time>
      </trkpt>
      <trkpt lat="49.32908" lon="0.92523">
        <ele>61.6</ele>
        <time>2016-10-09T08:01:25Z</time>
      </trkpt>
      <trkpt lat="49.329" lon="0.92509">
        <ele>61.6</ele>
        <time>2016-10-09T08:01:29Z</time>
      </trkpt>
      <trkpt lat="49.32893" lon="0.92491">
        <ele>61.5</ele>
        <time>2016-10-09T08:01:32Z</time>
      </trkpt>
      <trkpt lat="49.32888" lon="0.92479">
        <ele>61.5</ele>
        <time>2016-10-09T08:01:36Z</time>
      </trkpt>
      <trkpt lat="49.32881" lon="0.92465">
        <ele>61.7</ele>
        <time>2016-10-09T08:01:41Z</time>
      </trkpt>
      <trkpt lat="49.32876" lon="0.9245">
        <ele>62</ele>
        <time>2016-10-09T08:01:45Z</time>
      </trkpt>
      <trkpt lat="49.32876" lon="0.92434">
        <ele>62.4</ele>
        <time>2016-10-09T08:01:50Z</time>
      </trkpt>
      <trkpt lat="49.32874" lon="0.9242">
        <ele>62.7</ele>
        <time>2016-10-09T08:01:54Z</time>
      </trkpt>
      <trkpt lat="49.32871" lon="0.92404">
        <ele>63.1</ele>
        <time>2016-10-09T08:01:58Z</time>
      </trkpt>
      <trkpt lat="49.32865" lon="0.92392">
        <ele>63.4</ele>
        <time>2016-10-09T08:02:02Z</time>
      </trkpt>
      <trkpt lat="49.32863" lon="0.92377">
        <ele>63.7</ele>
        <time>2016-10-09T08:02:06Z</time>
      </trkpt>
      <trkpt lat="49.32862" lon="0.92359">
        <ele>64.1</ele>
        <time>2016-10-09T08:02:10Z</time>
      </trkpt>
      <trkpt lat="49.32859" lon="0.92344">
        <ele>64.5</ele>
        <time>2016-10-09T08:02:14Z</time>
      </trkpt>
      <trkpt lat="49.32854" lon="0.92329">
        <ele>64.9</ele>
        <time>2016-10-09T08:02:18Z</time>
      </trkpt>
      <trkpt lat="49.32849" lon="0.92313">
        <ele>65.3</ele>
        <time>2016-10-09T08:02:22Z</time>
      </trkpt>
      <trkpt lat="49.32842" lon="0.92299">
        <ele>65.7</ele>
        <time>2016-10-09T08:02:26Z</time>
      </trkpt>
      <trkpt lat="49.32835" lon="0.92286">
        <ele>66.1</ele>
        <time>2016-10-09T08:02:30Z</time>
      </trkpt>
      <trkpt lat="49.32829" lon="0.92272">
        <ele>66.5</ele>
        <time>2016-10-09T08:02:33Z</time>
      </trkpt>
      <trkpt lat="49.32822" lon="0.92256">
        <ele>67.2</ele>
        <time>2016-10-09T08:02:37Z</time>
      </trkpt>
      <trkpt lat="49.32816" lon="0.92245">
        <ele>67.6</ele>
        <time>2016-10-09T08:02:40Z</time>
      </trkpt>
      <trkpt lat="49.3281" lon="0.92233">
        <ele>68</ele>
        <time>2016-10-09T08:02:43Z</time>
      </trkpt>
      <trkpt lat="49.32804" lon="0.92221">
        <ele>68.9</ele>
        <time>2016-10-09T08:02:50Z</time>
      </trkpt>
      <trkpt lat="49.32796" lon="0.92211">
        <ele>69.3</ele>
        <time>2016-10-09T08:02:53Z</time>
      </trkpt>
      <trkpt lat="49.32789" lon="0.92204">
        <ele>69.6</ele>
        <time>2016-10-09T08:02:56Z</time>
      </trkpt>
      <trkpt lat="49.32781" lon="0.92196">
        <ele>69.9</ele>
        <time>2016-10-09T08:02:59Z</time>
      </trkpt>
      <trkpt lat="49.32773" lon="0.92185">
        <ele>70.3</ele>
        <time>2016-10-09T08:03:02Z</time>
      </trkpt>
      <trkpt lat="49.32763" lon="0.92176">
        <ele>70.8</ele>
        <time>2016-10-09T08:03:06Z</time>
      </trkpt>
      <trkpt lat="49.32759" lon="0.92162">
        <ele>71.4</ele>
        <time>2016-10-09T08:03:11Z</time>
      </trkpt>
      <trkpt lat="49.3275" lon="0.92154">
        <ele>71.9</ele>
        <time>2016-10-09T08:03:14Z</time>
      </trkpt>
      <trkpt lat="49.32741" lon="0.92145">
        <ele>72.3</ele>
        <time>2016-10-09T08:03:17Z</time>
      </trkpt>
      <trkpt lat="49.32734" lon="0.92129">
        <ele>72.8</ele>
        <time>2016-10-09T08:03:20Z</time>
      </trkpt>
      <trkpt lat="49.32726" lon="0.92122">
        <ele>73.2</ele>
        <time>2016-10-09T08:03:23Z</time>
      </trkpt>
      <trkpt lat="49.32716" lon="0.92112">
        <ele>73.6</ele>
        <time>2016-10-09T08:03:26Z</time>
      </trkpt>
      <trkpt lat="49.32707" lon="0.92101">
        <ele>74</ele>
        <time>2016-10-09T08:03:29Z</time>
      </trkpt>
      <trkpt lat="49.32699" lon="0.92091">
        <ele>74.3</ele>
        <time>2016-10-09T08:03:32Z</time>
      </trkpt>
      <trkpt lat="49.32689" lon="0.92082">
        <ele>74.6</ele>
        <time>2016-10-09T08:03:34Z</time>
      </trkpt>
      <trkpt lat="49.32678" lon="0.92074">
        <ele>74.9</ele>
        <time>2016-10-09T08:03:37Z</time>
      </trkpt>
      <trkpt lat="49.32667" lon="0.92065">
        <ele>75.1</ele>
        <time>2016-10-09T08:03:40Z</time>
      </trkpt>
      <trkpt lat="49.32656" lon="0.92055">
        <ele>75.3</ele>
        <time>2016-10-09T08:03:43Z</time>
      </trkpt>
      <trkpt lat="49.32648" lon="0.92046">
        <ele>75.5</ele>
        <time>2016-10-09T08:03:46Z</time>
      </trkpt>
      <trkpt lat="49.32638" lon="0.92037">
        <ele>75.8</ele>
        <time>2016-10-09T08:03:49Z</time>
      </trkpt>
      <trkpt lat="49.3263" lon="0.9203">
        <ele>75.9</ele>
        <time>2016-10-09T08:03:51Z</time>
      </trkpt>
      <trkpt lat="49.32617" lon="0.92023">
        <ele>76.2</ele>
        <time>2016-10-09T08:03:54Z</time>
      </trkpt>
      <trkpt lat="49.32609" lon="0.92012">
        <ele>76.5</ele>
        <time>2016-10-09T08:03:57Z</time>
      </trkpt>
      <trkpt lat="49.32601" lon="0.91997">
        <ele>76.8</ele>
        <time>2016-10-09T08:04:01Z</time>
      </trkpt>
      <trkpt lat="49.32596" lon="0.91983">
        <ele>77</ele>
        <time>2016-10-09T08:04:04Z</time>
      </trkpt>
      <trkpt lat="49.32589" lon="0.91967">
        <ele>77.2</ele>
        <time>2016-10-09T08:04:08Z</time>
      </trkpt>
      <trkpt lat="49.32587" lon="0.91953">
        <ele>77.4</ele>
        <time>2016-10-09T08:04:11Z</time>
      </trkpt>
      <trkpt lat="49.32584" lon="0.91936">
        <ele>77.7</ele>
        <time>2016-10-09T08:04:14Z</time>
      </trkpt>
      <trkpt lat="49.32583" lon="0.91917">
        <ele>77.9</ele>
        <time>2016-10-09T08:04:17Z</time>
      </trkpt>
      <trkpt lat="49.32581" lon="0.91902">
        <ele>78.2</ele>
        <time>2016-10-09T08:04:20Z</time>
      </trkpt>
      <trkpt lat="49.3258" lon="0.91885">
        <ele>78.5</ele>
        <time>2016-10-09T08:04:23Z</time>
      </trkpt>
      <trkpt lat="49.3258" lon="0.91868">
        <ele>78.9</ele>
        <time>2016-10-09T08:04:26Z</time>
      </trkpt>
      <trkpt lat="49.32578" lon="0.91849">
        <ele>79.4</ele>
        <time>2016-10-09T08:04:29Z</time>
      </trkpt>
      <trkpt lat="49.32577" lon="0.9183">
        <ele>79.9</ele>
        <time>2016-10-09T08:04:32Z</time>
      </trkpt>
      <trkpt lat="49.32576" lon="0.9181">
        <ele>80.3</ele>
        <time>2016-10-09T08:04:35Z</time>
      </trkpt>
      <trkpt lat="49.32576" lon="0.9179">
        <ele>80.7</ele>
        <time>2016-10-09T08:04:38Z</time>
      </trkpt>
      <trkpt lat="49.32579" lon="0.91771">
        <ele>81</ele>
        <time>2016-10-09T08:04:41Z</time>
      </trkpt>
      <trkpt lat="49.32584" lon="0.91753">
        <ele>81.3</ele>
        <time>2016-10-09T08:04:44Z</time>
      </trkpt>
      <trkpt lat="49.32589" lon="0.91735">
        <ele>81.7</ele>
        <time>2016-10-09T08:04:47Z</time>
      </trkpt>
      <trkpt lat="49.32594" lon="0.91719">
        <ele>82</ele>
        <time>2016-10-09T08:04:50Z</time>
      </trkpt>
      <trkpt lat="49.326" lon="0.91705">
        <ele>82.4</ele>
        <time>2016-10-09T08:04:53Z</time>
      </trkpt>
      <trkpt lat="49.32605" lon="0.91692">
        <ele>82.8</ele>
        <time>2016-10-09T08:04:56Z</time>
      </trkpt>
      <trkpt lat="49.32612" lon="0.91677">
        <ele>83.2</ele>
        <time>2016-10-09T08:04:59Z</time>
      </trkpt>
      <trkpt lat="49.32615" lon="0.91661">
        <ele>83.6</ele>
        <time>2016-10-09T08:05:02Z</time>
      </trkpt>
      <trkpt lat="49.32619" lon="0.91646">
        <ele>84</ele>
        <time>2016-10-09T08:05:05Z</time>
      </trkpt>
      <trkpt lat="49.32626" lon="0.91631">
        <ele>84.5</ele>
        <time>2016-10-09T08:05:08Z</time>
      </trkpt>
      <trkpt lat="49.32632" lon="0.91617">
        <ele>85.1</ele>
        <time>2016-10-09T08:05:11Z</time>
      </trkpt>
      <trkpt lat="49.32634" lon="0.91633">
        <ele>86.4</ele>
        <time>2016-10-09T08:05:19Z</time>
      </trkpt>
      <trkpt lat="49.32631" lon="0.91646">
        <ele>87.5</ele>
        <time>2016-10-09T08:05:24Z</time>
      </trkpt>
      <trkpt lat="49.32629" lon="0.91661">
        <ele>88.7</ele>
        <time>2016-10-09T08:05:29Z</time>
      </trkpt>
      <trkpt lat="49.32625" lon="0.91677">
        <ele>89.7</ele>
        <time>2016-10-09T08:05:33Z</time>
      </trkpt>
      <trkpt lat="49.32623" lon="0.91691">
        <ele>90.3</ele>
        <time>2016-10-09T08:05:36Z</time>
      </trkpt>
      <trkpt lat="49.32621" lon="0.91704">
        <ele>90.7</ele>
        <time>2016-10-09T08:05:39Z</time>
      </trkpt>
      <trkpt lat="49.32618" lon="0.9172">
        <ele>91.2</ele>
        <time>2016-10-09T08:05:42Z</time>
      </trkpt>
      <trkpt lat="49.32616" lon="0.91737">
        <ele>91.7</ele>
        <time>2016-10-09T08:05:46Z</time>
      </trkpt>
      <trkpt lat="49.32615" lon="0.91754">
        <ele>92.1</ele>
        <time>2016-10-09T08:05:49Z</time>
      </trkpt>
      <trkpt lat="49.32619" lon="0.9177">
        <ele>92.3</ele>
        <time>2016-10-09T08:05:52Z</time>
      </trkpt>
      <trkpt lat="49.32628" lon="0.91777">
        <ele>92.6</ele>
        <time>2016-10-09T08:05:55Z</time>
      </trkpt>
      <trkpt lat="49.32636" lon="0.91783">
        <ele>92.8</ele>
        <time>2016-10-09T08:05:58Z</time>
      </trkpt>
      <trkpt lat="49.32646" lon="0.91789">
        <ele>93.4</ele>
        <time>2016-10-09T08:06:02Z</time>
      </trkpt>
      <trkpt lat="49.32655" lon="0.91796">
        <ele>93.9</ele>
        <time>2016-10-09T08:06:05Z</time>
      </trkpt>
      <trkpt lat="49.32664" lon="0.91803">
        <ele>94.3</ele>
        <time>2016-10-09T08:06:08Z</time>
      </trkpt>
      <trkpt lat="49.32673" lon="0.91809">
        <ele>94.8</ele>
        <time>2016-10-09T08:06:11Z</time>
      </trkpt>
      <trkpt lat="49.32684" lon="0.91815">
        <ele>95.1</ele>
        <time>2016-10-09T08:06:14Z</time>
      </trkpt>
      <trkpt lat="49.32694" lon="0.91816">
        <ele>95.4</ele>
        <time>2016-10-09T08:06:16Z</time>
      </trkpt>
      <trkpt lat="49.32704" lon="0.91823">
        <ele>95.7</ele>
        <time>2016-10-09T08:06:19Z</time>
      </trkpt>
      <trkpt lat="49.32713" lon="0.91828">
        <ele>95.9</ele>
        <time>2016-10-09T08:06:21Z</time>
      </trkpt>
      <trkpt lat="49.32724" lon="0.91835">
        <ele>96.1</ele>
        <time>2016-10-09T08:06:24Z</time>
      </trkpt>
      <trkpt lat="49.32733" lon="0.9184">
        <ele>96.2</ele>
        <time>2016-10-09T08:06:26Z</time>
      </trkpt>
      <trkpt lat="49.32743" lon="0.91844">
        <ele>96.4</ele>
        <time>2016-10-09T08:06:28Z</time>
      </trkpt>
      <trkpt lat="49.32754" lon="0.91847">
        <ele>96.5</ele>
        <time>2016-10-09T08:06:30Z</time>
      </trkpt>
      <trkpt lat="49.32763" lon="0.91849">
        <ele>96.6</ele>
        <time>2016-10-09T08:06:32Z</time>
      </trkpt>
      <trkpt lat="49.32773" lon="0.91852">
        <ele>96.7</ele>
        <time>2016-10-09T08:06:34Z</time>
      </trkpt>
      <trkpt lat="49.32782" lon="0.91856">
        <ele>96.9</ele>
        <time>2016-10-09T08:06:36Z</time>
      </trkpt>
      <trkpt lat="49.32791" lon="0.91859">
        <ele>97</ele>
        <time>2016-10-09T08:06:38Z</time>
      </trkpt>
      <trkpt lat="49.32802" lon="0.91864">
        <ele>97.2</ele>
        <time>2016-10-09T08:06:41Z</time>
      </trkpt>
      <trkpt lat="49.32815" lon="0.91866">
        <ele>97.4</ele>
        <time>2016-10-09T08:06:43Z</time>
      </trkpt>
      <trkpt lat="49.32824" lon="0.91868">
        <ele>97.5</ele>
        <time>2016-10-09T08:06:45Z</time>
      </trkpt>
      <trkpt lat="49.32835" lon="0.91874">
        <ele>97.7</ele>
        <time>2016-10-09T08:06:48Z</time>
      </trkpt>
      <trkpt lat="49.32847" lon="0.91878">
        <ele>97.8</ele>
        <time>2016-10-09T08:06:51Z</time>
      </trkpt>
      <trkpt lat="49.32859" lon="0.91881">
        <ele>97.9</ele>
        <time>2016-10-09T08:06:53Z</time>
      </trkpt>
      <trkpt lat="49.32872" lon="0.91886">
        <ele>98.1</ele>
        <time>2016-10-09T08:06:56Z</time>
      </trkpt>
      <trkpt lat="49.32883" lon="0.91888">
        <ele>98.3</ele>
        <time>2016-10-09T08:06:58Z</time>
      </trkpt>
      <trkpt lat="49.32892" lon="0.91891">
        <ele>98.4</ele>
        <time>2016-10-09T08:07:00Z</time>
      </trkpt>
      <trkpt lat="49.32901" lon="0.91896">
        <ele>98.5</ele>
        <time>2016-10-09T08:07:02Z</time>
      </trkpt>
      <trkpt lat="49.32913" lon="0.91901">
        <ele>98.7</ele>
        <time>2016-10-09T08:07:05Z</time>
      </trkpt>
      <trkpt lat="49.32923" lon="0.91904">
        <ele>98.8</ele>
        <time>2016-10-09T08:07:07Z</time>
      </trkpt>
      <trkpt lat="49.32933" lon="0.91909">
        <ele>98.8</ele>
        <time>2016-10-09T08:07:09Z</time>
      </trkpt>
      <trkpt lat="49.32945" lon="0.91913">
        <ele>98.9</ele>
        <time>2016-10-09T08:07:11Z</time>
      </trkpt>
      <trkpt lat="49.32954" lon="0.91908">
        <ele>98.8</ele>
        <time>2016-10-09T08:07:14Z</time>
      </trkpt>
      <trkpt lat="49.32965" lon="0.91897">
        <ele>98.7</ele>
        <time>2016-10-09T08:07:17Z</time>
      </trkpt>
      <trkpt lat="49.32974" lon="0.91879">
        <ele>98.6</ele>
        <time>2016-10-09T08:07:20Z</time>
      </trkpt>
      <trkpt lat="49.32979" lon="0.91866">
        <ele>98.4</ele>
        <time>2016-10-09T08:07:22Z</time>
      </trkpt>
      <trkpt lat="49.32987" lon="0.91855">
        <ele>98.3</ele>
        <time>2016-10-09T08:07:24Z</time>
      </trkpt>
      <trkpt lat="49.32993" lon="0.91842">
        <ele>98.1</ele>
        <time>2016-10-09T08:07:26Z</time>
      </trkpt>
      <trkpt lat="49.32998" lon="0.91826">
        <ele>97.9</ele>
        <time>2016-10-09T08:07:28Z</time>
      </trkpt>
      <trkpt lat="49.33003" lon="0.9181">
        <ele>97.7</ele>
        <time>2016-10-09T08:07:30Z</time>
      </trkpt>
      <trkpt lat="49.33007" lon="0.91796">
        <ele>97.4</ele>
        <time>2016-10-09T08:07:32Z</time>
      </trkpt>
      <trkpt lat="49.33009" lon="0.91781">
        <ele>97.1</ele>
        <time>2016-10-09T08:07:34Z</time>
      </trkpt>
      <trkpt lat="49.33013" lon="0.91767">
        <ele>96.9</ele>
        <time>2016-10-09T08:07:36Z</time>
      </trkpt>
      <trkpt lat="49.33017" lon="0.91751">
        <ele>96.7</ele>
        <time>2016-10-09T08:07:38Z</time>
      </trkpt>
      <trkpt lat="49.33021" lon="0.91736">
        <ele>96.5</ele>
        <time>2016-10-09T08:07:40Z</time>
      </trkpt>
      <trkpt lat="49.33023" lon="0.91722">
        <ele>96.3</ele>
        <time>2016-10-09T08:07:42Z</time>
      </trkpt>
      <trkpt lat="49.33028" lon="0.91708">
        <ele>96.1</ele>
        <time>2016-10-09T08:07:44Z</time>
      </trkpt>
      <trkpt lat="49.33029" lon="0.91692">
        <ele>95.8</ele>
        <time>2016-10-09T08:07:46Z</time>
      </trkpt>
      <trkpt lat="49.33036" lon="0.9168">
        <ele>95.4</ele>
        <time>2016-10-09T08:07:48Z</time>
      </trkpt>
      <trkpt lat="49.3304" lon="0.91667">
        <ele>94.9</ele>
        <time>2016-10-09T08:07:50Z</time>
      </trkpt>
      <trkpt lat="49.33043" lon="0.91648">
        <ele>93.6</ele>
        <time>2016-10-09T08:07:54Z</time>
      </trkpt>
      <trkpt lat="49.33042" lon="0.91629">
        <ele>92.2</ele>
        <time>2016-10-09T08:07:57Z</time>
      </trkpt>
      <trkpt lat="49.3305" lon="0.91615">
        <ele>89.6</ele>
        <time>2016-10-09T08:08:02Z</time>
      </trkpt>
      <trkpt lat="49.33063" lon="0.91609">
        <ele>88.3</ele>
        <time>2016-10-09T08:08:05Z</time>
      </trkpt>
      <trkpt lat="49.33073" lon="0.9161">
        <ele>86.7</ele>
        <time>2016-10-09T08:08:08Z</time>
      </trkpt>
      <trkpt lat="49.33083" lon="0.91621">
        <ele>85.4</ele>
        <time>2016-10-09T08:08:11Z</time>
      </trkpt>
      <trkpt lat="49.33091" lon="0.91627">
        <ele>84.6</ele>
        <time>2016-10-09T08:08:13Z</time>
      </trkpt>
      <trkpt lat="49.33099" lon="0.91635">
        <ele>83.7</ele>
        <time>2016-10-09T08:08:16Z</time>
      </trkpt>
      <trkpt lat="49.33108" lon="0.9164">
        <ele>83.2</ele>
        <time>2016-10-09T08:08:18Z</time>
      </trkpt>
      <trkpt lat="49.33117" lon="0.91649">
        <ele>82.7</ele>
        <time>2016-10-09T08:08:20Z</time>
      </trkpt>
      <trkpt lat="49.33124" lon="0.91658">
        <ele>82.4</ele>
        <time>2016-10-09T08:08:22Z</time>
      </trkpt>
      <trkpt lat="49.33133" lon="0.91666">
        <ele>82</ele>
        <time>2016-10-09T08:08:24Z</time>
      </trkpt>
      <trkpt lat="49.33143" lon="0.91674">
        <ele>81.8</ele>
        <time>2016-10-09T08:08:26Z</time>
      </trkpt>
      <trkpt lat="49.33149" lon="0.91685">
        <ele>81.5</ele>
        <time>2016-10-09T08:08:28Z</time>
      </trkpt>
      <trkpt lat="49.3315" lon="0.91704">
        <ele>81</ele>
        <time>2016-10-09T08:08:31Z</time>
      </trkpt>
      <trkpt lat="49.33154" lon="0.9172">
        <ele>80.8</ele>
        <time>2016-10-09T08:08:33Z</time>
      </trkpt>
      <trkpt lat="49.3316" lon="0.91735">
        <ele>80.4</ele>
        <time>2016-10-09T08:08:35Z</time>
      </trkpt>
      <trkpt lat="49.33164" lon="0.91753">
        <ele>79.6</ele>
        <time>2016-10-09T08:08:38Z</time>
      </trkpt>
      <trkpt lat="49.33165" lon="0.91768">
        <ele>79</ele>
        <time>2016-10-09T08:08:40Z</time>
      </trkpt>
      <trkpt lat="49.33165" lon="0.9179">
        <ele>78.1</ele>
        <time>2016-10-09T08:08:43Z</time>
      </trkpt>
      <trkpt lat="49.33164" lon="0.91808">
        <ele>77.5</ele>
        <time>2016-10-09T08:08:45Z</time>
      </trkpt>
      <trkpt lat="49.33165" lon="0.91825">
        <ele>76.7</ele>
        <time>2016-10-09T08:08:47Z</time>
      </trkpt>
      <trkpt lat="49.33168" lon="0.91841">
        <ele>75.8</ele>
        <time>2016-10-09T08:08:49Z</time>
      </trkpt>
      <trkpt lat="49.33174" lon="0.91855">
        <ele>74.9</ele>
        <time>2016-10-09T08:08:51Z</time>
      </trkpt>
      <trkpt lat="49.33179" lon="0.9187">
        <ele>73.9</ele>
        <time>2016-10-09T08:08:53Z</time>
      </trkpt>
      <trkpt lat="49.33183" lon="0.91889">
        <ele>72.8</ele>
        <time>2016-10-09T08:08:55Z</time>
      </trkpt>
      <trkpt lat="49.33187" lon="0.91908">
        <ele>71.7</ele>
        <time>2016-10-09T08:08:57Z</time>
      </trkpt>
      <trkpt lat="49.33193" lon="0.91928">
        <ele>70.6</ele>
        <time>2016-10-09T08:08:59Z</time>
      </trkpt>
      <trkpt lat="49.33202" lon="0.91944">
        <ele>69.5</ele>
        <time>2016-10-09T08:09:01Z</time>
      </trkpt>
      <trkpt lat="49.3321" lon="0.91958">
        <ele>68.4</ele>
        <time>2016-10-09T08:09:03Z</time>
      </trkpt>
      <trkpt lat="49.33219" lon="0.91967">
        <ele>67.4</ele>
        <time>2016-10-09T08:09:05Z</time>
      </trkpt>
      <trkpt lat="49.33226" lon="0.91976">
        <ele>66.5</ele>
        <time>2016-10-09T08:09:07Z</time>
      </trkpt>
      <trkpt lat="49.33236" lon="0.91983">
        <ele>65.2</ele>
        <time>2016-10-09T08:09:10Z</time>
      </trkpt>
      <trkpt lat="49.33247" lon="0.91989">
        <ele>64.1</ele>
        <time>2016-10-09T08:09:13Z</time>
      </trkpt>
      <trkpt lat="49.33256" lon="0.91996">
        <ele>63.5</ele>
        <time>2016-10-09T08:09:15Z</time>
      </trkpt>
      <trkpt lat="49.33264" lon="0.92004">
        <ele>62.9</ele>
        <time>2016-10-09T08:09:17Z</time>
      </trkpt>
      <trkpt lat="49.33275" lon="0.92013">
        <ele>62.3</ele>
        <time>2016-10-09T08:09:19Z</time>
      </trkpt>
      <trkpt lat="49.33284" lon="0.92025">
        <ele>61.7</ele>
        <time>2016-10-09T08:09:21Z</time>
      </trkpt>
      <trkpt lat="49.33291" lon="0.92037">
        <ele>61.1</ele>
        <time>2016-10-09T08:09:23Z</time>
      </trkpt>
      <trkpt lat="49.33299" lon="0.92046">
        <ele>60.4</ele>
        <time>2016-10-09T08:09:25Z</time>
      </trkpt>
      <trkpt lat="49.33312" lon="0.92057">
        <ele>59.8</ele>
        <time>2016-10-09T08:09:27Z</time>
      </trkpt>
      <trkpt lat="49.33325" lon="0.92066">
        <ele>59.2</ele>
        <time>2016-10-09T08:09:29Z</time>
      </trkpt>
      <trkpt lat="49.33333" lon="0.92075">
        <ele>58.4</ele>
        <time>2016-10-09T08:09:31Z</time>
      </trkpt>
      <trkpt lat="49.33343" lon="0.92079">
        <ele>57.6</ele>
        <time>2016-10-09T08:09:33Z</time>
      </trkpt>
      <trkpt lat="49.33353" lon="0.92078">
        <ele>56.7</ele>
        <time>2016-10-09T08:09:35Z</time>
      </trkpt>
      <trkpt lat="49.33364" lon="0.9208">
        <ele>55.4</ele>
        <time>2016-10-09T08:09:38Z</time>
      </trkpt>
      <trkpt lat="49.33375" lon="0.92086">
        <ele>54.2</ele>
        <time>2016-10-09T08:09:41Z</time>
      </trkpt>
      <trkpt lat="49.3338" lon="0.92074">
        <ele>52.9</ele>
        <time>2016-10-09T08:09:45Z</time>
      </trkpt>
      <trkpt lat="49.3338" lon="0.92057">
        <ele>52.1</ele>
        <time>2016-10-09T08:09:48Z</time>
      </trkpt>
      <trkpt lat="49.3338" lon="0.92038">
        <ele>51.4</ele>
        <time>2016-10-09T08:09:51Z</time>
      </trkpt>
      <trkpt lat="49.33379" lon="0.92024">
        <ele>51.1</ele>
        <time>2016-10-09T08:09:53Z</time>
      </trkpt>
      <trkpt lat="49.33379" lon="0.92004">
        <ele>51</ele>
        <time>2016-10-09T08:09:56Z</time>
      </trkpt>
      <trkpt lat="49.3338" lon="0.91986">
        <ele>51.1</ele>
        <time>2016-10-09T08:09:59Z</time>
      </trkpt>
      <trkpt lat="49.3338" lon="0.91969">
        <ele>51.2</ele>
        <time>2016-10-09T08:10:02Z</time>
      </trkpt>
      <trkpt lat="49.3338" lon="0.91953">
        <ele>51.6</ele>
        <time>2016-10-09T08:10:05Z</time>
      </trkpt>
      <trkpt lat="49.33381" lon="0.91936">
        <ele>52.1</ele>
        <time>2016-10-09T08:10:09Z</time>
      </trkpt>
      <trkpt lat="49.33388" lon="0.9192">
        <ele>52.7</ele>
        <time>2016-10-09T08:10:13Z</time>
      </trkpt>
      <trkpt lat="49.33399" lon="0.91914">
        <ele>52.7</ele>
        <time>2016-10-09T08:10:16Z</time>
      </trkpt>
      <trkpt lat="49.33409" lon="0.91918">
        <ele>52.6</ele>
        <time>2016-10-09T08:10:19Z</time>
      </trkpt>
      <trkpt lat="49.33414" lon="0.91906">
        <ele>52.3</ele>
        <time>2016-10-09T08:10:31Z</time>
      </trkpt>
      <trkpt lat="49.33417" lon="0.91893">
        <ele>51.9</ele>
        <time>2016-10-09T08:10:49Z</time>
      </trkpt>
      <trkpt lat="49.33421" lon="0.91877">
        <ele>51.8</ele>
        <time>2016-10-09T08:10:55Z</time>
      </trkpt>
      <trkpt lat="49.33424" lon="0.9186">
        <ele>51.8</ele>
        <time>2016-10-09T08:10:59Z</time>
      </trkpt>
      <trkpt lat="49.33421" lon="0.91845">
        <ele>51.8</ele>
        <time>2016-10-09T08:11:02Z</time>
      </trkpt>
      <trkpt lat="49.33415" lon="0.91827">
        <ele>51.7</ele>
        <time>2016-10-09T08:11:05Z</time>
      </trkpt>
      <trkpt lat="49.3341" lon="0.91814">
        <ele>51.7</ele>
        <time>2016-10-09T08:11:07Z</time>
      </trkpt>
      <trkpt lat="49.33406" lon="0.918">
        <ele>51.7</ele>
        <time>2016-10-09T08:11:09Z</time>
      </trkpt>
      <trkpt lat="49.33406" lon="0.91784">
        <ele>51.7</ele>
        <time>2016-10-09T08:11:11Z</time>
      </trkpt>
      <trkpt lat="49.33406" lon="0.91767">
        <ele>51.7</ele>
        <time>2016-10-09T08:11:13Z</time>
      </trkpt>
      <trkpt lat="49.33408" lon="0.9175">
        <ele>51.7</ele>
        <time>2016-10-09T08:11:15Z</time>
      </trkpt>
      <trkpt lat="49.3341" lon="0.91734">
        <ele>51.7</ele>
        <time>2016-10-09T08:11:17Z</time>
      </trkpt>
      <trkpt lat="49.33413" lon="0.91719">
        <ele>51.7</ele>
        <time>2016-10-09T08:11:19Z</time>
      </trkpt>
      <trkpt lat="49.33415" lon="0.91702">
        <ele>51.7</ele>
        <time>2016-10-09T08:11:21Z</time>
      </trkpt>
      <trkpt lat="49.33418" lon="0.91686">
        <ele>51.7</ele>
        <time>2016-10-09T08:11:23Z</time>
      </trkpt>
      <trkpt lat="49.33415" lon="0.91669">
        <ele>51.7</ele>
        <time>2016-10-09T08:11:25Z</time>
      </trkpt>
      <trkpt lat="49.33407" lon="0.91658">
        <ele>51.7</ele>
        <time>2016-10-09T08:11:27Z</time>
      </trkpt>
      <trkpt lat="49.33397" lon="0.91654">
        <ele>51.7</ele>
        <time>2016-10-09T08:11:29Z</time>
      </trkpt>
      <trkpt lat="49.33389" lon="0.91646">
        <ele>51.7</ele>
        <time>2016-10-09T08:11:31Z</time>
      </trkpt>
      <trkpt lat="49.33385" lon="0.91633">
        <ele>51.8</ele>
        <time>2016-10-09T08:11:33Z</time>
      </trkpt>
      <trkpt lat="49.33391" lon="0.91615">
        <ele>51.9</ele>
        <time>2016-10-09T08:11:36Z</time>
      </trkpt>
      <trkpt lat="49.33397" lon="0.91596">
        <ele>52.1</ele>
        <time>2016-10-09T08:11:39Z</time>
      </trkpt>
      <trkpt lat="49.33401" lon="0.91579">
        <ele>52</ele>
        <time>2016-10-09T08:11:41Z</time>
      </trkpt>
      <trkpt lat="49.33406" lon="0.91563">
        <ele>51.9</ele>
        <time>2016-10-09T08:11:43Z</time>
      </trkpt>
      <trkpt lat="49.33413" lon="0.91548">
        <ele>51.7</ele>
        <time>2016-10-09T08:11:45Z</time>
      </trkpt>
      <trkpt lat="49.33421" lon="0.91531">
        <ele>51.2</ele>
        <time>2016-10-09T08:11:48Z</time>
      </trkpt>
      <trkpt lat="49.33427" lon="0.91517">
        <ele>50.7</ele>
        <time>2016-10-09T08:11:51Z</time>
      </trkpt>
      <trkpt lat="49.33433" lon="0.91503">
        <ele>50.5</ele>
        <time>2016-10-09T08:11:54Z</time>
      </trkpt>
      <trkpt lat="49.33435" lon="0.91489">
        <ele>50.3</ele>
        <time>2016-10-09T08:11:56Z</time>
      </trkpt>
      <trkpt lat="49.33442" lon="0.91473">
        <ele>50.2</ele>
        <time>2016-10-09T08:11:59Z</time>
      </trkpt>
      <trkpt lat="49.33448" lon="0.91457">
        <ele>50.1</ele>
        <time>2016-10-09T08:12:01Z</time>
      </trkpt>
      <trkpt lat="49.33456" lon="0.91443">
        <ele>50.1</ele>
        <time>2016-10-09T08:12:03Z</time>
      </trkpt>
      <trkpt lat="49.33463" lon="0.91429">
        <ele>50</ele>
        <time>2016-10-09T08:12:05Z</time>
      </trkpt>
      <trkpt lat="49.33468" lon="0.91411">
        <ele>50</ele>
        <time>2016-10-09T08:12:07Z</time>
      </trkpt>
      <trkpt lat="49.33472" lon="0.91395">
        <ele>50</ele>
        <time>2016-10-09T08:12:09Z</time>
      </trkpt>
      <trkpt lat="49.33474" lon="0.9138">
        <ele>49.9</ele>
        <time>2016-10-09T08:12:11Z</time>
      </trkpt>
      <trkpt lat="49.33478" lon="0.91362">
        <ele>49.9</ele>
        <time>2016-10-09T08:12:13Z</time>
      </trkpt>
      <trkpt lat="49.33482" lon="0.91342">
        <ele>50</ele>
        <time>2016-10-09T08:12:16Z</time>
      </trkpt>
      <trkpt lat="49.3349" lon="0.91334">
        <ele>50.3</ele>
        <time>2016-10-09T08:12:20Z</time>
      </trkpt>
      <trkpt lat="49.33501" lon="0.91321">
        <ele>50.5</ele>
        <time>2016-10-09T08:12:24Z</time>
      </trkpt>
      <trkpt lat="49.33511" lon="0.91314">
        <ele>50.8</ele>
        <time>2016-10-09T08:12:27Z</time>
      </trkpt>
      <trkpt lat="49.3352" lon="0.91307">
        <ele>51.1</ele>
        <time>2016-10-09T08:12:30Z</time>
      </trkpt>
      <trkpt lat="49.3353" lon="0.91303">
        <ele>51.3</ele>
        <time>2016-10-09T08:12:32Z</time>
      </trkpt>
      <trkpt lat="49.33539" lon="0.91294">
        <ele>51.7</ele>
        <time>2016-10-09T08:12:35Z</time>
      </trkpt>
      <trkpt lat="49.33548" lon="0.91284">
        <ele>52.1</ele>
        <time>2016-10-09T08:12:38Z</time>
      </trkpt>
      <trkpt lat="49.3356" lon="0.91282">
        <ele>52.4</ele>
        <time>2016-10-09T08:12:41Z</time>
      </trkpt>
      <trkpt lat="49.33569" lon="0.91281">
        <ele>52.8</ele>
        <time>2016-10-09T08:12:44Z</time>
      </trkpt>
      <trkpt lat="49.33578" lon="0.91268">
        <ele>53.1</ele>
        <time>2016-10-09T08:12:47Z</time>
      </trkpt>
      <trkpt lat="49.33585" lon="0.91258">
        <ele>53.4</ele>
        <time>2016-10-09T08:12:50Z</time>
      </trkpt>
      <trkpt lat="49.33593" lon="0.91248">
        <ele>53.9</ele>
        <time>2016-10-09T08:12:53Z</time>
      </trkpt>
      <trkpt lat="49.33601" lon="0.91239">
        <ele>54.3</ele>
        <time>2016-10-09T08:12:56Z</time>
      </trkpt>
      <trkpt lat="49.33609" lon="0.9123">
        <ele>54.7</ele>
        <time>2016-10-09T08:12:59Z</time>
      </trkpt>
      <trkpt lat="49.33614" lon="0.91218">
        <ele>55.3</ele>
        <time>2016-10-09T08:13:02Z</time>
      </trkpt>
      <trkpt lat="49.3362" lon="0.91203">
        <ele>56</ele>
        <time>2016-10-09T08:13:06Z</time>
      </trkpt>
      <trkpt lat="49.33623" lon="0.91189">
        <ele>56.7</ele>
        <time>2016-10-09T08:13:09Z</time>
      </trkpt>
      <trkpt lat="49.33626" lon="0.91173">
        <ele>57.7</ele>
        <time>2016-10-09T08:13:13Z</time>
      </trkpt>
      <trkpt lat="49.33632" lon="0.91162">
        <ele>58.3</ele>
        <time>2016-10-09T08:13:16Z</time>
      </trkpt>
      <trkpt lat="49.33639" lon="0.91147">
        <ele>59.4</ele>
        <time>2016-10-09T08:13:21Z</time>
      </trkpt>
      <trkpt lat="49.33645" lon="0.91136">
        <ele>59.9</ele>
        <time>2016-10-09T08:13:24Z</time>
      </trkpt>
      <trkpt lat="49.3365" lon="0.91122">
        <ele>60.5</ele>
        <time>2016-10-09T08:13:27Z</time>
      </trkpt>
      <trkpt lat="49.33655" lon="0.91108">
        <ele>61</ele>
        <time>2016-10-09T08:13:30Z</time>
      </trkpt>
      <trkpt lat="49.33658" lon="0.91093">
        <ele>61.6</ele>
        <time>2016-10-09T08:13:33Z</time>
      </trkpt>
      <trkpt lat="49.33664" lon="0.91079">
        <ele>62.1</ele>
        <time>2016-10-09T08:13:36Z</time>
      </trkpt>
      <trkpt lat="49.33669" lon="0.91067">
        <ele>62.8</ele>
        <time>2016-10-09T08:13:39Z</time>
      </trkpt>
      <trkpt lat="49.33674" lon="0.91054">
        <ele>63.4</ele>
        <time>2016-10-09T08:13:42Z</time>
      </trkpt>
      <trkpt lat="49.33679" lon="0.91041">
        <ele>64</ele>
        <time>2016-10-09T08:13:45Z</time>
      </trkpt>
      <trkpt lat="49.33674" lon="0.91027">
        <ele>64.5</ele>
        <time>2016-10-09T08:13:48Z</time>
      </trkpt>
      <trkpt lat="49.33668" lon="0.91011">
        <ele>65.2</ele>
        <time>2016-10-09T08:13:52Z</time>
      </trkpt>
      <trkpt lat="49.33664" lon="0.90991">
        <ele>66</ele>
        <time>2016-10-09T08:13:56Z</time>
      </trkpt>
      <trkpt lat="49.3366" lon="0.90975">
        <ele>66.6</ele>
        <time>2016-10-09T08:13:59Z</time>
      </trkpt>
      <trkpt lat="49.33659" lon="0.90961">
        <ele>67.1</ele>
        <time>2016-10-09T08:14:02Z</time>
      </trkpt>
      <trkpt lat="49.33661" lon="0.90944">
        <ele>67.8</ele>
        <time>2016-10-09T08:14:06Z</time>
      </trkpt>
      <trkpt lat="49.3366" lon="0.90929">
        <ele>67.9</ele>
        <time>2016-10-09T08:14:10Z</time>
      </trkpt>
      <trkpt lat="49.33662" lon="0.90913">
        <ele>67.7</ele>
        <time>2016-10-09T08:14:14Z</time>
      </trkpt>
      <trkpt lat="49.3366" lon="0.90892">
        <ele>67.3</ele>
        <time>2016-10-09T08:14:17Z</time>
      </trkpt>
      <trkpt lat="49.33658" lon="0.90877">
        <ele>66.7</ele>
        <time>2016-10-09T08:14:19Z</time>
      </trkpt>
      <trkpt lat="49.33658" lon="0.90859">
        <ele>65.6</ele>
        <time>2016-10-09T08:14:22Z</time>
      </trkpt>
      <trkpt lat="49.33663" lon="0.90843">
        <ele>63.9</ele>
        <time>2016-10-09T08:14:26Z</time>
      </trkpt>
      <trkpt lat="49.33673" lon="0.90853">
        <ele>60.3</ele>
        <time>2016-10-09T08:14:35Z</time>
      </trkpt>
      <trkpt lat="49.33679" lon="0.90866">
        <ele>59.1</ele>
        <time>2016-10-09T08:14:38Z</time>
      </trkpt>
      <trkpt lat="49.33693" lon="0.90865">
        <ele>58</ele>
        <time>2016-10-09T08:14:41Z</time>
      </trkpt>
      <trkpt lat="49.33695" lon="0.90848">
        <ele>57</ele>
        <time>2016-10-09T08:14:44Z</time>
      </trkpt>
      <trkpt lat="49.33696" lon="0.90831">
        <ele>56.3</ele>
        <time>2016-10-09T08:14:46Z</time>
      </trkpt>
      <trkpt lat="49.33697" lon="0.90813">
        <ele>55.4</ele>
        <time>2016-10-09T08:14:49Z</time>
      </trkpt>
      <trkpt lat="49.33693" lon="0.90796">
        <ele>54.4</ele>
        <time>2016-10-09T08:14:52Z</time>
      </trkpt>
      <trkpt lat="49.33692" lon="0.90779">
        <ele>53.4</ele>
        <time>2016-10-09T08:14:55Z</time>
      </trkpt>
      <trkpt lat="49.33693" lon="0.90761">
        <ele>52.9</ele>
        <time>2016-10-09T08:14:57Z</time>
      </trkpt>
      <trkpt lat="49.33694" lon="0.90745">
        <ele>52.4</ele>
        <time>2016-10-09T08:14:59Z</time>
      </trkpt>
      <trkpt lat="49.337" lon="0.90729">
        <ele>52</ele>
        <time>2016-10-09T08:15:01Z</time>
      </trkpt>
      <trkpt lat="49.33703" lon="0.90713">
        <ele>51.7</ele>
        <time>2016-10-09T08:15:03Z</time>
      </trkpt>
      <trkpt lat="49.33708" lon="0.90697">
        <ele>51.4</ele>
        <time>2016-10-09T08:15:05Z</time>
      </trkpt>
      <trkpt lat="49.33711" lon="0.90681">
        <ele>51.3</ele>
        <time>2016-10-09T08:15:07Z</time>
      </trkpt>
      <trkpt lat="49.33715" lon="0.90666">
        <ele>51.2</ele>
        <time>2016-10-09T08:15:09Z</time>
      </trkpt>
      <trkpt lat="49.33719" lon="0.9065">
        <ele>51.1</ele>
        <time>2016-10-09T08:15:11Z</time>
      </trkpt>
      <trkpt lat="49.33723" lon="0.90634">
        <ele>51.1</ele>
        <time>2016-10-09T08:15:13Z</time>
      </trkpt>
      <trkpt lat="49.33722" lon="0.90616">
        <ele>51.1</ele>
        <time>2016-10-09T08:15:15Z</time>
      </trkpt>
      <trkpt lat="49.33723" lon="0.90601">
        <ele>51.1</ele>
        <time>2016-10-09T08:15:17Z</time>
      </trkpt>
      <trkpt lat="49.33723" lon="0.90584">
        <ele>51.2</ele>
        <time>2016-10-09T08:15:19Z</time>
      </trkpt>
      <trkpt lat="49.33723" lon="0.90563">
        <ele>51.2</ele>
        <time>2016-10-09T08:15:21Z</time>
      </trkpt>
      <trkpt lat="49.33724" lon="0.90542">
        <ele>51.2</ele>
        <time>2016-10-09T08:15:23Z</time>
      </trkpt>
      <trkpt lat="49.33721" lon="0.9052">
        <ele>51.2</ele>
        <time>2016-10-09T08:15:25Z</time>
      </trkpt>
      <trkpt lat="49.33718" lon="0.90501">
        <ele>51.2</ele>
        <time>2016-10-09T08:15:27Z</time>
      </trkpt>
      <trkpt lat="49.33717" lon="0.90486">
        <ele>51.2</ele>
        <time>2016-10-09T08:15:29Z</time>
      </trkpt>
      <trkpt lat="49.33717" lon="0.90466">
        <ele>51.3</ele>
        <time>2016-10-09T08:15:32Z</time>
      </trkpt>
      <trkpt lat="49.33716" lon="0.90452">
        <ele>51.4</ele>
        <time>2016-10-09T08:15:34Z</time>
      </trkpt>
      <trkpt lat="49.33716" lon="0.90438">
        <ele>51.5</ele>
        <time>2016-10-09T08:15:36Z</time>
      </trkpt>
      <trkpt lat="49.33719" lon="0.90424">
        <ele>51.7</ele>
        <time>2016-10-09T08:15:39Z</time>
      </trkpt>
      <trkpt lat="49.33721" lon="0.90409">
        <ele>52</ele>
        <time>2016-10-09T08:15:42Z</time>
      </trkpt>
      <trkpt lat="49.33723" lon="0.90394">
        <ele>52.5</ele>
        <time>2016-10-09T08:15:45Z</time>
      </trkpt>
      <trkpt lat="49.33725" lon="0.90378">
        <ele>53</ele>
        <time>2016-10-09T08:15:48Z</time>
      </trkpt>
      <trkpt lat="49.33727" lon="0.90362">
        <ele>53.5</ele>
        <time>2016-10-09T08:15:51Z</time>
      </trkpt>
      <trkpt lat="49.33729" lon="0.90346">
        <ele>53.9</ele>
        <time>2016-10-09T08:15:54Z</time>
      </trkpt>
      <trkpt lat="49.3373" lon="0.9033">
        <ele>54.4</ele>
        <time>2016-10-09T08:15:57Z</time>
      </trkpt>
      <trkpt lat="49.33733" lon="0.90314">
        <ele>54.9</ele>
        <time>2016-10-09T08:16:00Z</time>
      </trkpt>
      <trkpt lat="49.33739" lon="0.90299">
        <ele>55.7</ele>
        <time>2016-10-09T08:16:04Z</time>
      </trkpt>
      <trkpt lat="49.33744" lon="0.90285">
        <ele>56.4</ele>
        <time>2016-10-09T08:16:08Z</time>
      </trkpt>
      <trkpt lat="49.33742" lon="0.9027">
        <ele>57.4</ele>
        <time>2016-10-09T08:16:13Z</time>
      </trkpt>
      <trkpt lat="49.3374" lon="0.90256">
        <ele>58.5</ele>
        <time>2016-10-09T08:16:17Z</time>
      </trkpt>
      <trkpt lat="49.3374" lon="0.90242">
        <ele>59.5</ele>
        <time>2016-10-09T08:16:21Z</time>
      </trkpt>
      <trkpt lat="49.33743" lon="0.90228">
        <ele>61</ele>
        <time>2016-10-09T08:16:27Z</time>
      </trkpt>
      <trkpt lat="49.33745" lon="0.90213">
        <ele>62.6</ele>
        <time>2016-10-09T08:16:33Z</time>
      </trkpt>
      <trkpt lat="49.33749" lon="0.90197">
        <ele>63.8</ele>
        <time>2016-10-09T08:16:38Z</time>
      </trkpt>
      <trkpt lat="49.3375" lon="0.90181">
        <ele>64.7</ele>
        <time>2016-10-09T08:16:42Z</time>
      </trkpt>
      <trkpt lat="49.33754" lon="0.90167">
        <ele>65.5</ele>
        <time>2016-10-09T08:16:46Z</time>
      </trkpt>
      <trkpt lat="49.33757" lon="0.9015">
        <ele>66</ele>
        <time>2016-10-09T08:16:49Z</time>
      </trkpt>
      <trkpt lat="49.33757" lon="0.90134">
        <ele>66.6</ele>
        <time>2016-10-09T08:16:52Z</time>
      </trkpt>
      <trkpt lat="49.33764" lon="0.90123">
        <ele>67</ele>
        <time>2016-10-09T08:16:55Z</time>
      </trkpt>
      <trkpt lat="49.33769" lon="0.90108">
        <ele>67.4</ele>
        <time>2016-10-09T08:16:58Z</time>
      </trkpt>
      <trkpt lat="49.33775" lon="0.90096">
        <ele>67.8</ele>
        <time>2016-10-09T08:17:01Z</time>
      </trkpt>
      <trkpt lat="49.33779" lon="0.90081">
        <ele>68.1</ele>
        <time>2016-10-09T08:17:04Z</time>
      </trkpt>
      <trkpt lat="49.33784" lon="0.90067">
        <ele>68.5</ele>
        <time>2016-10-09T08:17:07Z</time>
      </trkpt>
      <trkpt lat="49.33787" lon="0.90051">
        <ele>68.9</ele>
        <time>2016-10-09T08:17:10Z</time>
      </trkpt>
      <trkpt lat="49.33791" lon="0.90034">
        <ele>69.2</ele>
        <time>2016-10-09T08:17:13Z</time>
      </trkpt>
      <trkpt lat="49.33793" lon="0.90018">
        <ele>69.3</ele>
        <time>2016-10-09T08:17:15Z</time>
      </trkpt>
      <trkpt lat="49.33795" lon="0.90003">
        <ele>69.3</ele>
        <time>2016-10-09T08:17:17Z</time>
      </trkpt>
      <trkpt lat="49.33796" lon="0.89984">
        <ele>69.4</ele>
        <time>2016-10-09T08:17:20Z</time>
      </trkpt>
      <trkpt lat="49.338" lon="0.89971">
        <ele>69.4</ele>
        <time>2016-10-09T08:17:22Z</time>
      </trkpt>
      <trkpt lat="49.33805" lon="0.89956">
        <ele>69.6</ele>
        <time>2016-10-09T08:17:25Z</time>
      </trkpt>
      <trkpt lat="49.33807" lon="0.89938">
        <ele>69.9</ele>
        <time>2016-10-09T08:17:28Z</time>
      </trkpt>
      <trkpt lat="49.3381" lon="0.89922">
        <ele>70.3</ele>
        <time>2016-10-09T08:17:31Z</time>
      </trkpt>
      <trkpt lat="49.3381" lon="0.89903">
        <ele>70.8</ele>
        <time>2016-10-09T08:17:34Z</time>
      </trkpt>
      <trkpt lat="49.33813" lon="0.89883">
        <ele>71.3</ele>
        <time>2016-10-09T08:17:37Z</time>
      </trkpt>
      <trkpt lat="49.33816" lon="0.89869">
        <ele>71.5</ele>
        <time>2016-10-09T08:17:39Z</time>
      </trkpt>
      <trkpt lat="49.33818" lon="0.89852">
        <ele>71.8</ele>
        <time>2016-10-09T08:17:42Z</time>
      </trkpt>
      <trkpt lat="49.33819" lon="0.89838">
        <ele>71.8</ele>
        <time>2016-10-09T08:17:45Z</time>
      </trkpt>
      <trkpt lat="49.33821" lon="0.89822">
        <ele>71.3</ele>
        <time>2016-10-09T08:17:48Z</time>
      </trkpt>
      <trkpt lat="49.33817" lon="0.89806">
        <ele>70.4</ele>
        <time>2016-10-09T08:17:51Z</time>
      </trkpt>
      <trkpt lat="49.33817" lon="0.89792">
        <ele>69.1</ele>
        <time>2016-10-09T08:17:55Z</time>
      </trkpt>
      <trkpt lat="49.33813" lon="0.8978">
        <ele>68.3</ele>
        <time>2016-10-09T08:17:58Z</time>
      </trkpt>
      <trkpt lat="49.33818" lon="0.89765">
        <ele>67.3</ele>
        <time>2016-10-09T08:18:02Z</time>
      </trkpt>
      <trkpt lat="49.33818" lon="0.89749">
        <ele>66.7</ele>
        <time>2016-10-09T08:18:04Z</time>
      </trkpt>
      <trkpt lat="49.33819" lon="0.89734">
        <ele>65.6</ele>
        <time>2016-10-09T08:18:07Z</time>
      </trkpt>
      <trkpt lat="49.33823" lon="0.89718">
        <ele>64.6</ele>
        <time>2016-10-09T08:18:10Z</time>
      </trkpt>
      <trkpt lat="49.33819" lon="0.897">
        <ele>63.9</ele>
        <time>2016-10-09T08:18:12Z</time>
      </trkpt>
      <trkpt lat="49.33818" lon="0.89684">
        <ele>63.3</ele>
        <time>2016-10-09T08:18:14Z</time>
      </trkpt>
      <trkpt lat="49.33819" lon="0.89667">
        <ele>62.8</ele>
        <time>2016-10-09T08:18:16Z</time>
      </trkpt>
      <trkpt lat="49.3382" lon="0.8965">
        <ele>62.2</ele>
        <time>2016-10-09T08:18:18Z</time>
      </trkpt>
      <trkpt lat="49.33816" lon="0.89631">
        <ele>61.7</ele>
        <time>2016-10-09T08:18:20Z</time>
      </trkpt>
      <trkpt lat="49.33818" lon="0.89616">
        <ele>61.3</ele>
        <time>2016-10-09T08:18:22Z</time>
      </trkpt>
      <trkpt lat="49.33818" lon="0.89597">
        <ele>60.7</ele>
        <time>2016-10-09T08:18:25Z</time>
      </trkpt>
      <trkpt lat="49.33819" lon="0.8958">
        <ele>60.3</ele>
        <time>2016-10-09T08:18:28Z</time>
      </trkpt>
      <trkpt lat="49.33815" lon="0.89564">
        <ele>60</ele>
        <time>2016-10-09T08:18:31Z</time>
      </trkpt>
      <trkpt lat="49.33815" lon="0.8955">
        <ele>60.2</ele>
        <time>2016-10-09T08:18:35Z</time>
      </trkpt>
      <trkpt lat="49.33811" lon="0.89536">
        <ele>60.7</ele>
        <time>2016-10-09T08:18:39Z</time>
      </trkpt>
      <trkpt lat="49.33807" lon="0.8952">
        <ele>61.3</ele>
        <time>2016-10-09T08:18:44Z</time>
      </trkpt>
      <trkpt lat="49.33807" lon="0.89504">
        <ele>62.7</ele>
        <time>2016-10-09T08:18:50Z</time>
      </trkpt>
      <trkpt lat="49.33805" lon="0.89488">
        <ele>64.6</ele>
        <time>2016-10-09T08:18:57Z</time>
      </trkpt>
      <trkpt lat="49.33809" lon="0.89475">
        <ele>65.9</ele>
        <time>2016-10-09T08:19:03Z</time>
      </trkpt>
      <trkpt lat="49.33808" lon="0.8946">
        <ele>66.4</ele>
        <time>2016-10-09T08:19:06Z</time>
      </trkpt>
      <trkpt lat="49.33807" lon="0.89445">
        <ele>66.7</ele>
        <time>2016-10-09T08:19:09Z</time>
      </trkpt>
      <trkpt lat="49.33806" lon="0.8943">
        <ele>66.6</ele>
        <time>2016-10-09T08:19:13Z</time>
      </trkpt>
      <trkpt lat="49.33804" lon="0.89412">
        <ele>65.9</ele>
        <time>2016-10-09T08:19:17Z</time>
      </trkpt>
      <trkpt lat="49.33804" lon="0.89397">
        <ele>64.6</ele>
        <time>2016-10-09T08:19:22Z</time>
      </trkpt>
      <trkpt lat="49.33799" lon="0.89384">
        <ele>63</ele>
        <time>2016-10-09T08:19:27Z</time>
      </trkpt>
      <trkpt lat="49.33807" lon="0.89379">
        <ele>62.1</ele>
        <time>2016-10-09T08:19:31Z</time>
      </trkpt>
      <trkpt lat="49.3382" lon="0.89373">
        <ele>61.1</ele>
        <time>2016-10-09T08:19:36Z</time>
      </trkpt>
      <trkpt lat="49.33833" lon="0.89379">
        <ele>60.6</ele>
        <time>2016-10-09T08:19:39Z</time>
      </trkpt>
      <trkpt lat="49.33841" lon="0.89387">
        <ele>60.3</ele>
        <time>2016-10-09T08:19:41Z</time>
      </trkpt>
      <trkpt lat="49.33849" lon="0.89394">
        <ele>60</ele>
        <time>2016-10-09T08:19:43Z</time>
      </trkpt>
      <trkpt lat="49.3386" lon="0.89402">
        <ele>59.6</ele>
        <time>2016-10-09T08:19:45Z</time>
      </trkpt>
      <trkpt lat="49.33872" lon="0.89408">
        <ele>59.3</ele>
        <time>2016-10-09T08:19:47Z</time>
      </trkpt>
      <trkpt lat="49.33881" lon="0.89417">
        <ele>59</ele>
        <time>2016-10-09T08:19:49Z</time>
      </trkpt>
      <trkpt lat="49.33891" lon="0.89426">
        <ele>58.6</ele>
        <time>2016-10-09T08:19:51Z</time>
      </trkpt>
      <trkpt lat="49.33903" lon="0.89435">
        <ele>58.3</ele>
        <time>2016-10-09T08:19:53Z</time>
      </trkpt>
      <trkpt lat="49.33914" lon="0.89444">
        <ele>58</ele>
        <time>2016-10-09T08:19:55Z</time>
      </trkpt>
      <trkpt lat="49.33924" lon="0.89452">
        <ele>57.7</ele>
        <time>2016-10-09T08:19:57Z</time>
      </trkpt>
      <trkpt lat="49.33933" lon="0.8946">
        <ele>57.5</ele>
        <time>2016-10-09T08:19:59Z</time>
      </trkpt>
      <trkpt lat="49.33943" lon="0.89467">
        <ele>57.3</ele>
        <time>2016-10-09T08:20:01Z</time>
      </trkpt>
      <trkpt lat="49.33954" lon="0.89476">
        <ele>57.1</ele>
        <time>2016-10-09T08:20:03Z</time>
      </trkpt>
      <trkpt lat="49.33962" lon="0.89487">
        <ele>57</ele>
        <time>2016-10-09T08:20:05Z</time>
      </trkpt>
      <trkpt lat="49.33971" lon="0.89501">
        <ele>57.2</ele>
        <time>2016-10-09T08:20:08Z</time>
      </trkpt>
      <trkpt lat="49.33978" lon="0.89512">
        <ele>57.3</ele>
        <time>2016-10-09T08:20:10Z</time>
      </trkpt>
      <trkpt lat="49.33982" lon="0.89528">
        <ele>57.7</ele>
        <time>2016-10-09T08:20:13Z</time>
      </trkpt>
      <trkpt lat="49.33983" lon="0.89542">
        <ele>58.7</ele>
        <time>2016-10-09T08:20:18Z</time>
      </trkpt>
      <trkpt lat="49.33987" lon="0.89554">
        <ele>59.6</ele>
        <time>2016-10-09T08:20:22Z</time>
      </trkpt>
      <trkpt lat="49.3399" lon="0.89568">
        <ele>60.9</ele>
        <time>2016-10-09T08:20:27Z</time>
      </trkpt>
      <trkpt lat="49.33993" lon="0.89582">
        <ele>62.1</ele>
        <time>2016-10-09T08:20:32Z</time>
      </trkpt>
      <trkpt lat="49.33995" lon="0.89596">
        <ele>63.1</ele>
        <time>2016-10-09T08:20:36Z</time>
      </trkpt>
      <trkpt lat="49.33996" lon="0.89611">
        <ele>64.4</ele>
        <time>2016-10-09T08:20:41Z</time>
      </trkpt>
      <trkpt lat="49.33998" lon="0.89628">
        <ele>66</ele>
        <time>2016-10-09T08:20:47Z</time>
      </trkpt>
      <trkpt lat="49.34002" lon="0.89643">
        <ele>67.6</ele>
        <time>2016-10-09T08:20:53Z</time>
      </trkpt>
      <trkpt lat="49.34007" lon="0.89655">
        <ele>69</ele>
        <time>2016-10-09T08:20:59Z</time>
      </trkpt>
      <trkpt lat="49.34012" lon="0.89668">
        <ele>70.8</ele>
        <time>2016-10-09T08:21:05Z</time>
      </trkpt>
      <trkpt lat="49.34021" lon="0.89677">
        <ele>72.5</ele>
        <time>2016-10-09T08:21:11Z</time>
      </trkpt>
      <trkpt lat="49.34029" lon="0.89686">
        <ele>74.1</ele>
        <time>2016-10-09T08:21:17Z</time>
      </trkpt>
      <trkpt lat="49.34036" lon="0.89696">
        <ele>75.6</ele>
        <time>2016-10-09T08:21:23Z</time>
      </trkpt>
      <trkpt lat="49.34043" lon="0.89707">
        <ele>76.7</ele>
        <time>2016-10-09T08:21:28Z</time>
      </trkpt>
      <trkpt lat="49.3405" lon="0.89719">
        <ele>77.9</ele>
        <time>2016-10-09T08:21:33Z</time>
      </trkpt>
      <trkpt lat="49.34057" lon="0.8973">
        <ele>79.2</ele>
        <time>2016-10-09T08:21:38Z</time>
      </trkpt>
      <trkpt lat="49.34065" lon="0.89742">
        <ele>80.4</ele>
        <time>2016-10-09T08:21:43Z</time>
      </trkpt>
      <trkpt lat="49.34073" lon="0.89751">
        <ele>81.3</ele>
        <time>2016-10-09T08:21:47Z</time>
      </trkpt>
      <trkpt lat="49.34079" lon="0.89762">
        <ele>81.9</ele>
        <time>2016-10-09T08:21:50Z</time>
      </trkpt>
      <trkpt lat="49.34086" lon="0.89772">
        <ele>82.4</ele>
        <time>2016-10-09T08:21:53Z</time>
      </trkpt>
      <trkpt lat="49.34091" lon="0.89783">
        <ele>82.9</ele>
        <time>2016-10-09T08:21:56Z</time>
      </trkpt>
      <trkpt lat="49.34098" lon="0.89798">
        <ele>83.6</ele>
        <time>2016-10-09T08:22:00Z</time>
      </trkpt>
      <trkpt lat="49.34102" lon="0.89812">
        <ele>84</ele>
        <time>2016-10-09T08:22:03Z</time>
      </trkpt>
      <trkpt lat="49.34108" lon="0.89826">
        <ele>84.3</ele>
        <time>2016-10-09T08:22:06Z</time>
      </trkpt>
      <trkpt lat="49.34115" lon="0.89839">
        <ele>84.6</ele>
        <time>2016-10-09T08:22:09Z</time>
      </trkpt>
      <trkpt lat="49.34122" lon="0.89854">
        <ele>84.9</ele>
        <time>2016-10-09T08:22:12Z</time>
      </trkpt>
      <trkpt lat="49.34129" lon="0.89867">
        <ele>85.2</ele>
        <time>2016-10-09T08:22:15Z</time>
      </trkpt>
      <trkpt lat="49.34134" lon="0.89882">
        <ele>85.7</ele>
        <time>2016-10-09T08:22:19Z</time>
      </trkpt>
      <trkpt lat="49.34138" lon="0.89895">
        <ele>86.1</ele>
        <time>2016-10-09T08:22:22Z</time>
      </trkpt>
      <trkpt lat="49.34143" lon="0.89908">
        <ele>86.6</ele>
        <time>2016-10-09T08:22:25Z</time>
      </trkpt>
      <trkpt lat="49.34147" lon="0.89921">
        <ele>87</ele>
        <time>2016-10-09T08:22:28Z</time>
      </trkpt>
      <trkpt lat="49.34153" lon="0.89933">
        <ele>87.7</ele>
        <time>2016-10-09T08:22:32Z</time>
      </trkpt>
      <trkpt lat="49.34159" lon="0.89946">
        <ele>88.6</ele>
        <time>2016-10-09T08:22:37Z</time>
      </trkpt>
      <trkpt lat="49.34165" lon="0.89957">
        <ele>89.6</ele>
        <time>2016-10-09T08:22:43Z</time>
      </trkpt>
      <trkpt lat="49.34172" lon="0.89968">
        <ele>90.7</ele>
        <time>2016-10-09T08:22:48Z</time>
      </trkpt>
      <trkpt lat="49.34181" lon="0.89975">
        <ele>92</ele>
        <time>2016-10-09T08:22:53Z</time>
      </trkpt>
      <trkpt lat="49.34189" lon="0.89983">
        <ele>93.6</ele>
        <time>2016-10-09T08:22:59Z</time>
      </trkpt>
      <trkpt lat="49.34198" lon="0.89991">
        <ele>95.5</ele>
        <time>2016-10-09T08:23:05Z</time>
      </trkpt>
      <trkpt lat="49.34203" lon="0.90004">
        <ele>97.6</ele>
        <time>2016-10-09T08:23:12Z</time>
      </trkpt>
      <trkpt lat="49.34212" lon="0.90013">
        <ele>99.1</ele>
        <time>2016-10-09T08:23:17Z</time>
      </trkpt>
      <trkpt lat="49.34219" lon="0.90023">
        <ele>101.2</ele>
        <time>2016-10-09T08:23:24Z</time>
      </trkpt>
      <trkpt lat="49.34227" lon="0.90032">
        <ele>102.6</ele>
        <time>2016-10-09T08:23:29Z</time>
      </trkpt>
      <trkpt lat="49.34234" lon="0.90041">
        <ele>103.8</ele>
        <time>2016-10-09T08:23:34Z</time>
      </trkpt>
      <trkpt lat="49.34242" lon="0.90049">
        <ele>105</ele>
        <time>2016-10-09T08:23:39Z</time>
      </trkpt>
      <trkpt lat="49.34251" lon="0.90061">
        <ele>106.2</ele>
        <time>2016-10-09T08:23:44Z</time>
      </trkpt>
      <trkpt lat="49.34258" lon="0.9007">
        <ele>107.9</ele>
        <time>2016-10-09T08:23:51Z</time>
      </trkpt>
      <trkpt lat="49.34267" lon="0.90076">
        <ele>108.8</ele>
        <time>2016-10-09T08:23:55Z</time>
      </trkpt>
      <trkpt lat="49.34277" lon="0.90087">
        <ele>109.7</ele>
        <time>2016-10-09T08:24:00Z</time>
      </trkpt>
      <trkpt lat="49.34287" lon="0.90095">
        <ele>110.6</ele>
        <time>2016-10-09T08:24:05Z</time>
      </trkpt>
      <trkpt lat="49.34296" lon="0.90108">
        <ele>111.4</ele>
        <time>2016-10-09T08:24:10Z</time>
      </trkpt>
      <trkpt lat="49.34305" lon="0.90116">
        <ele>112</ele>
        <time>2016-10-09T08:24:14Z</time>
      </trkpt>
      <trkpt lat="49.34312" lon="0.90125">
        <ele>112.7</ele>
        <time>2016-10-09T08:24:19Z</time>
      </trkpt>
      <trkpt lat="49.34321" lon="0.90131">
        <ele>113.2</ele>
        <time>2016-10-09T08:24:24Z</time>
      </trkpt>
      <trkpt lat="49.3433" lon="0.90134">
        <ele>114.1</ele>
        <time>2016-10-09T08:24:38Z</time>
      </trkpt>
      <trkpt lat="49.3432" lon="0.90137">
        <ele>114.7</ele>
        <time>2016-10-09T08:25:03Z</time>
      </trkpt>
      <trkpt lat="49.34313" lon="0.90128">
        <ele>115.2</ele>
        <time>2016-10-09T08:27:23Z</time>
      </trkpt>
      <trkpt lat="49.34323" lon="0.90132">
        <ele>115.2</ele>
        <time>2016-10-09T08:27:42Z</time>
      </trkpt>
      <trkpt lat="49.34331" lon="0.90136">
        <ele>115.2</ele>
        <time>2016-10-09T08:27:54Z</time>
      </trkpt>
      <trkpt lat="49.34322" lon="0.90138">
        <ele>115.2</ele>
        <time>2016-10-09T08:28:51Z</time>
      </trkpt>
      <trkpt lat="49.3433" lon="0.90127">
        <ele>114.7</ele>
        <time>2016-10-09T08:31:01Z</time>
      </trkpt>
      <trkpt lat="49.34341" lon="0.90126">
        <ele>114.7</ele>
        <time>2016-10-09T08:31:05Z</time>
      </trkpt>
      <trkpt lat="49.34352" lon="0.9012">
        <ele>114.7</ele>
        <time>2016-10-09T08:31:08Z</time>
      </trkpt>
      <trkpt lat="49.34361" lon="0.90114">
        <ele>114.7</ele>
        <time>2016-10-09T08:31:11Z</time>
      </trkpt>
      <trkpt lat="49.34367" lon="0.90101">
        <ele>114.6</ele>
        <time>2016-10-09T08:31:14Z</time>
      </trkpt>
      <trkpt lat="49.34371" lon="0.90087">
        <ele>114.5</ele>
        <time>2016-10-09T08:31:17Z</time>
      </trkpt>
      <trkpt lat="49.34378" lon="0.90073">
        <ele>114.5</ele>
        <time>2016-10-09T08:31:20Z</time>
      </trkpt>
      <trkpt lat="49.34383" lon="0.9006">
        <ele>114.5</ele>
        <time>2016-10-09T08:31:23Z</time>
      </trkpt>
      <trkpt lat="49.3439" lon="0.90047">
        <ele>114.5</ele>
        <time>2016-10-09T08:31:25Z</time>
      </trkpt>
      <trkpt lat="49.34393" lon="0.90033">
        <ele>114.6</ele>
        <time>2016-10-09T08:31:28Z</time>
      </trkpt>
      <trkpt lat="49.34397" lon="0.90017">
        <ele>114.7</ele>
        <time>2016-10-09T08:31:31Z</time>
      </trkpt>
      <trkpt lat="49.34402" lon="0.9">
        <ele>114.8</ele>
        <time>2016-10-09T08:31:34Z</time>
      </trkpt>
      <trkpt lat="49.3441" lon="0.89984">
        <ele>115</ele>
        <time>2016-10-09T08:31:37Z</time>
      </trkpt>
      <trkpt lat="49.34414" lon="0.89971">
        <ele>115</ele>
        <time>2016-10-09T08:31:39Z</time>
      </trkpt>
      <trkpt lat="49.3442" lon="0.89957">
        <ele>115.1</ele>
        <time>2016-10-09T08:31:42Z</time>
      </trkpt>
      <trkpt lat="49.34425" lon="0.89944">
        <ele>115.2</ele>
        <time>2016-10-09T08:31:46Z</time>
      </trkpt>
      <trkpt lat="49.34431" lon="0.8993">
        <ele>115.3</ele>
        <time>2016-10-09T08:31:48Z</time>
      </trkpt>
      <trkpt lat="49.34439" lon="0.89912">
        <ele>115.3</ele>
        <time>2016-10-09T08:31:50Z</time>
      </trkpt>
      <trkpt lat="49.34446" lon="0.899">
        <ele>115.3</ele>
        <time>2016-10-09T08:31:52Z</time>
      </trkpt>
      <trkpt lat="49.34456" lon="0.89886">
        <ele>115.4</ele>
        <time>2016-10-09T08:31:55Z</time>
      </trkpt>
      <trkpt lat="49.34461" lon="0.89871">
        <ele>115.4</ele>
        <time>2016-10-09T08:31:58Z</time>
      </trkpt>
      <trkpt lat="49.34463" lon="0.89856">
        <ele>115.4</ele>
        <time>2016-10-09T08:32:02Z</time>
      </trkpt>
      <trkpt lat="49.34462" lon="0.89842">
        <ele>115.3</ele>
        <time>2016-10-09T08:32:05Z</time>
      </trkpt>
      <trkpt lat="49.34464" lon="0.89826">
        <ele>114.6</ele>
        <time>2016-10-09T08:32:09Z</time>
      </trkpt>
      <trkpt lat="49.34465" lon="0.89811">
        <ele>113</ele>
        <time>2016-10-09T08:32:14Z</time>
      </trkpt>
      <trkpt lat="49.34465" lon="0.89795">
        <ele>109.8</ele>
        <time>2016-10-09T08:32:21Z</time>
      </trkpt>
      <trkpt lat="49.34464" lon="0.8978">
        <ele>107</ele>
        <time>2016-10-09T08:32:26Z</time>
      </trkpt>
      <trkpt lat="49.34461" lon="0.89766">
        <ele>103.1</ele>
        <time>2016-10-09T08:32:34Z</time>
      </trkpt>
      <trkpt lat="49.34459" lon="0.89752">
        <ele>97.4</ele>
        <time>2016-10-09T08:32:49Z</time>
      </trkpt>
      <trkpt lat="49.34457" lon="0.89739">
        <ele>95.1</ele>
        <time>2016-10-09T08:32:59Z</time>
      </trkpt>
      <trkpt lat="49.34455" lon="0.89723">
        <ele>91.6</ele>
        <time>2016-10-09T08:33:10Z</time>
      </trkpt>
      <trkpt lat="49.34452" lon="0.89709">
        <ele>88.6</ele>
        <time>2016-10-09T08:33:17Z</time>
      </trkpt>
      <trkpt lat="49.3445" lon="0.89696">
        <ele>83.5</ele>
        <time>2016-10-09T08:33:30Z</time>
      </trkpt>
      <trkpt lat="49.3445" lon="0.89681">
        <ele>79.8</ele>
        <time>2016-10-09T08:33:40Z</time>
      </trkpt>
      <trkpt lat="49.3445" lon="0.89665">
        <ele>77.1</ele>
        <time>2016-10-09T08:33:47Z</time>
      </trkpt>
      <trkpt lat="49.34441" lon="0.89659">
        <ele>74.9</ele>
        <time>2016-10-09T08:33:53Z</time>
      </trkpt>
      <trkpt lat="49.34431" lon="0.89656">
        <ele>73.6</ele>
        <time>2016-10-09T08:33:56Z</time>
      </trkpt>
      <trkpt lat="49.34418" lon="0.89656">
        <ele>72.3</ele>
        <time>2016-10-09T08:33:59Z</time>
      </trkpt>
      <trkpt lat="49.34409" lon="0.89654">
        <ele>71.2</ele>
        <time>2016-10-09T08:34:01Z</time>
      </trkpt>
      <trkpt lat="49.344" lon="0.89649">
        <ele>70.4</ele>
        <time>2016-10-09T08:34:03Z</time>
      </trkpt>
      <trkpt lat="49.34393" lon="0.89635">
        <ele>69.2</ele>
        <time>2016-10-09T08:34:06Z</time>
      </trkpt>
      <trkpt lat="49.34389" lon="0.89619">
        <ele>68.2</ele>
        <time>2016-10-09T08:34:09Z</time>
      </trkpt>
      <trkpt lat="49.34387" lon="0.89599">
        <ele>67.1</ele>
        <time>2016-10-09T08:34:12Z</time>
      </trkpt>
      <trkpt lat="49.34385" lon="0.89581">
        <ele>66</ele>
        <time>2016-10-09T08:34:15Z</time>
      </trkpt>
      <trkpt lat="49.34382" lon="0.89566">
        <ele>65.3</ele>
        <time>2016-10-09T08:34:17Z</time>
      </trkpt>
      <trkpt lat="49.34377" lon="0.89547">
        <ele>64.3</ele>
        <time>2016-10-09T08:34:20Z</time>
      </trkpt>
      <trkpt lat="49.34374" lon="0.89531">
        <ele>63.5</ele>
        <time>2016-10-09T08:34:23Z</time>
      </trkpt>
      <trkpt lat="49.34371" lon="0.89517">
        <ele>62.8</ele>
        <time>2016-10-09T08:34:26Z</time>
      </trkpt>
      <trkpt lat="49.34367" lon="0.89502">
        <ele>62.3</ele>
        <time>2016-10-09T08:34:28Z</time>
      </trkpt>
      <trkpt lat="49.34364" lon="0.89489">
        <ele>61.9</ele>
        <time>2016-10-09T08:34:30Z</time>
      </trkpt>
      <trkpt lat="49.3436" lon="0.89476">
        <ele>61.5</ele>
        <time>2016-10-09T08:34:32Z</time>
      </trkpt>
      <trkpt lat="49.34357" lon="0.89461">
        <ele>61.1</ele>
        <time>2016-10-09T08:34:34Z</time>
      </trkpt>
      <trkpt lat="49.34352" lon="0.89446">
        <ele>60.8</ele>
        <time>2016-10-09T08:34:36Z</time>
      </trkpt>
      <trkpt lat="49.34348" lon="0.89433">
        <ele>60.6</ele>
        <time>2016-10-09T08:34:38Z</time>
      </trkpt>
      <trkpt lat="49.34343" lon="0.89417">
        <ele>60.3</ele>
        <time>2016-10-09T08:34:41Z</time>
      </trkpt>
      <trkpt lat="49.34339" lon="0.894">
        <ele>60</ele>
        <time>2016-10-09T08:34:44Z</time>
      </trkpt>
      <trkpt lat="49.34335" lon="0.89384">
        <ele>59.7</ele>
        <time>2016-10-09T08:34:47Z</time>
      </trkpt>
      <trkpt lat="49.34332" lon="0.89371">
        <ele>59.6</ele>
        <time>2016-10-09T08:34:49Z</time>
      </trkpt>
      <trkpt lat="49.34328" lon="0.89355">
        <ele>59.5</ele>
        <time>2016-10-09T08:34:52Z</time>
      </trkpt>
      <trkpt lat="49.34324" lon="0.8934">
        <ele>59.3</ele>
        <time>2016-10-09T08:34:55Z</time>
      </trkpt>
      <trkpt lat="49.34322" lon="0.89326">
        <ele>59.2</ele>
        <time>2016-10-09T08:34:58Z</time>
      </trkpt>
      <trkpt lat="49.34318" lon="0.89308">
        <ele>59.1</ele>
        <time>2016-10-09T08:35:01Z</time>
      </trkpt>
      <trkpt lat="49.34316" lon="0.89292">
        <ele>59</ele>
        <time>2016-10-09T08:35:04Z</time>
      </trkpt>
      <trkpt lat="49.34315" lon="0.89276">
        <ele>59</ele>
        <time>2016-10-09T08:35:07Z</time>
      </trkpt>
      <trkpt lat="49.34314" lon="0.89261">
        <ele>58.9</ele>
        <time>2016-10-09T08:35:10Z</time>
      </trkpt>
      <trkpt lat="49.34314" lon="0.89243">
        <ele>58.9</ele>
        <time>2016-10-09T08:35:14Z</time>
      </trkpt>
      <trkpt lat="49.34314" lon="0.89227">
        <ele>58.8</ele>
        <time>2016-10-09T08:35:18Z</time>
      </trkpt>
      <trkpt lat="49.34313" lon="0.89209">
        <ele>58.8</ele>
        <time>2016-10-09T08:35:22Z</time>
      </trkpt>
      <trkpt lat="49.34312" lon="0.89195">
        <ele>58.8</ele>
        <time>2016-10-09T08:35:25Z</time>
      </trkpt>
      <trkpt lat="49.34313" lon="0.89179">
        <ele>58.9</ele>
        <time>2016-10-09T08:35:29Z</time>
      </trkpt>
      <trkpt lat="49.34311" lon="0.89165">
        <ele>59</ele>
        <time>2016-10-09T08:35:32Z</time>
      </trkpt>
      <trkpt lat="49.3431" lon="0.89145">
        <ele>59.1</ele>
        <time>2016-10-09T08:35:36Z</time>
      </trkpt>
      <trkpt lat="49.3431" lon="0.89129">
        <ele>59.3</ele>
        <time>2016-10-09T08:35:40Z</time>
      </trkpt>
      <trkpt lat="49.3431" lon="0.89112">
        <ele>59.5</ele>
        <time>2016-10-09T08:35:44Z</time>
      </trkpt>
      <trkpt lat="49.34311" lon="0.89097">
        <ele>59.7</ele>
        <time>2016-10-09T08:35:48Z</time>
      </trkpt>
      <trkpt lat="49.34315" lon="0.89083">
        <ele>59.9</ele>
        <time>2016-10-09T08:35:52Z</time>
      </trkpt>
      <trkpt lat="49.34321" lon="0.89071">
        <ele>60.2</ele>
        <time>2016-10-09T08:35:56Z</time>
      </trkpt>
      <trkpt lat="49.34327" lon="0.89059">
        <ele>60.4</ele>
        <time>2016-10-09T08:36:00Z</time>
      </trkpt>
      <trkpt lat="49.34333" lon="0.89048">
        <ele>60.6</ele>
        <time>2016-10-09T08:36:04Z</time>
      </trkpt>
      <trkpt lat="49.34337" lon="0.89035">
        <ele>60.7</ele>
        <time>2016-10-09T08:36:07Z</time>
      </trkpt>
      <trkpt lat="49.34339" lon="0.8902">
        <ele>60.8</ele>
        <time>2016-10-09T08:36:10Z</time>
      </trkpt>
      <trkpt lat="49.34342" lon="0.89006">
        <ele>60.8</ele>
        <time>2016-10-09T08:36:13Z</time>
      </trkpt>
      <trkpt lat="49.34349" lon="0.88994">
        <ele>61</ele>
        <time>2016-10-09T08:36:17Z</time>
      </trkpt>
      <trkpt lat="49.34353" lon="0.88981">
        <ele>61.2</ele>
        <time>2016-10-09T08:36:21Z</time>
      </trkpt>
      <trkpt lat="49.34357" lon="0.88965">
        <ele>61.3</ele>
        <time>2016-10-09T08:36:25Z</time>
      </trkpt>
      <trkpt lat="49.34361" lon="0.8895">
        <ele>61.6</ele>
        <time>2016-10-09T08:36:29Z</time>
      </trkpt>
      <trkpt lat="49.34364" lon="0.88937">
        <ele>62</ele>
        <time>2016-10-09T08:36:33Z</time>
      </trkpt>
      <trkpt lat="49.3437" lon="0.88924">
        <ele>62.4</ele>
        <time>2016-10-09T08:36:38Z</time>
      </trkpt>
      <trkpt lat="49.34375" lon="0.88911">
        <ele>63.2</ele>
        <time>2016-10-09T08:36:44Z</time>
      </trkpt>
      <trkpt lat="49.34382" lon="0.88899">
        <ele>64.4</ele>
        <time>2016-10-09T08:36:50Z</time>
      </trkpt>
      <trkpt lat="49.34389" lon="0.8889">
        <ele>65.9</ele>
        <time>2016-10-09T08:36:57Z</time>
      </trkpt>
      <trkpt lat="49.34397" lon="0.88882">
        <ele>67.4</ele>
        <time>2016-10-09T08:37:03Z</time>
      </trkpt>
      <trkpt lat="49.34405" lon="0.88873">
        <ele>69.4</ele>
        <time>2016-10-09T08:37:11Z</time>
      </trkpt>
      <trkpt lat="49.34414" lon="0.88869">
        <ele>71.3</ele>
        <time>2016-10-09T08:37:18Z</time>
      </trkpt>
      <trkpt lat="49.34424" lon="0.88865">
        <ele>73.3</ele>
        <time>2016-10-09T08:37:26Z</time>
      </trkpt>
      <trkpt lat="49.34434" lon="0.88863">
        <ele>75</ele>
        <time>2016-10-09T08:37:33Z</time>
      </trkpt>
      <trkpt lat="49.34443" lon="0.88867">
        <ele>76.5</ele>
        <time>2016-10-09T08:37:39Z</time>
      </trkpt>
      <trkpt lat="49.34453" lon="0.88872">
        <ele>77.7</ele>
        <time>2016-10-09T08:37:44Z</time>
      </trkpt>
      <trkpt lat="49.34462" lon="0.88874">
        <ele>79.2</ele>
        <time>2016-10-09T08:37:50Z</time>
      </trkpt>
      <trkpt lat="49.3447" lon="0.88867">
        <ele>80.1</ele>
        <time>2016-10-09T08:37:54Z</time>
      </trkpt>
      <trkpt lat="49.34472" lon="0.88854">
        <ele>81.2</ele>
        <time>2016-10-09T08:38:00Z</time>
      </trkpt>
      <trkpt lat="49.34466" lon="0.8884">
        <ele>81.5</ele>
        <time>2016-10-09T08:38:04Z</time>
      </trkpt>
      <trkpt lat="49.34459" lon="0.88825">
        <ele>81.3</ele>
        <time>2016-10-09T08:38:06Z</time>
      </trkpt>
      <trkpt lat="49.34455" lon="0.88811">
        <ele>80.6</ele>
        <time>2016-10-09T08:38:09Z</time>
      </trkpt>
      <trkpt lat="49.34448" lon="0.88797">
        <ele>79.8</ele>
        <time>2016-10-09T08:38:11Z</time>
      </trkpt>
      <trkpt lat="49.34444" lon="0.8878">
        <ele>78.7</ele>
        <time>2016-10-09T08:38:13Z</time>
      </trkpt>
      <trkpt lat="49.34447" lon="0.88764">
        <ele>77.6</ele>
        <time>2016-10-09T08:38:15Z</time>
      </trkpt>
      <trkpt lat="49.34452" lon="0.88747">
        <ele>76.4</ele>
        <time>2016-10-09T08:38:17Z</time>
      </trkpt>
      <trkpt lat="49.34462" lon="0.88728">
        <ele>75.3</ele>
        <time>2016-10-09T08:38:19Z</time>
      </trkpt>
      <trkpt lat="49.34471" lon="0.88709">
        <ele>74.2</ele>
        <time>2016-10-09T08:38:21Z</time>
      </trkpt>
      <trkpt lat="49.34484" lon="0.88694">
        <ele>73</ele>
        <time>2016-10-09T08:38:23Z</time>
      </trkpt>
      <trkpt lat="49.34497" lon="0.88679">
        <ele>71.9</ele>
        <time>2016-10-09T08:38:25Z</time>
      </trkpt>
      <trkpt lat="49.34508" lon="0.88661">
        <ele>70.9</ele>
        <time>2016-10-09T08:38:27Z</time>
      </trkpt>
      <trkpt lat="49.34517" lon="0.88647">
        <ele>69.9</ele>
        <time>2016-10-09T08:38:29Z</time>
      </trkpt>
      <trkpt lat="49.34524" lon="0.88634">
        <ele>68.9</ele>
        <time>2016-10-09T08:38:31Z</time>
      </trkpt>
      <trkpt lat="49.34532" lon="0.88627">
        <ele>68</ele>
        <time>2016-10-09T08:38:33Z</time>
      </trkpt>
      <trkpt lat="49.34535" lon="0.88611">
        <ele>67.2</ele>
        <time>2016-10-09T08:38:35Z</time>
      </trkpt>
      <trkpt lat="49.34536" lon="0.88594">
        <ele>66.5</ele>
        <time>2016-10-09T08:38:37Z</time>
      </trkpt>
      <trkpt lat="49.34534" lon="0.88574">
        <ele>65.9</ele>
        <time>2016-10-09T08:38:39Z</time>
      </trkpt>
      <trkpt lat="49.34527" lon="0.8855">
        <ele>65.4</ele>
        <time>2016-10-09T08:38:41Z</time>
      </trkpt>
      <trkpt lat="49.34519" lon="0.88538">
        <ele>65.1</ele>
        <time>2016-10-09T08:38:42Z</time>
      </trkpt>
      <trkpt lat="49.34512" lon="0.88528">
        <ele>64.9</ele>
        <time>2016-10-09T08:38:43Z</time>
      </trkpt>
      <trkpt lat="49.34502" lon="0.88513">
        <ele>64.5</ele>
        <time>2016-10-09T08:38:45Z</time>
      </trkpt>
      <trkpt lat="49.34495" lon="0.88498">
        <ele>64</ele>
        <time>2016-10-09T08:38:48Z</time>
      </trkpt>
      <trkpt lat="49.34496" lon="0.88482">
        <ele>63.5</ele>
        <time>2016-10-09T08:38:51Z</time>
      </trkpt>
      <trkpt lat="49.34497" lon="0.88465">
        <ele>63.2</ele>
        <time>2016-10-09T08:38:54Z</time>
      </trkpt>
      <trkpt lat="49.34494" lon="0.88451">
        <ele>62.9</ele>
        <time>2016-10-09T08:38:56Z</time>
      </trkpt>
      <trkpt lat="49.34484" lon="0.88442">
        <ele>62.7</ele>
        <time>2016-10-09T08:38:59Z</time>
      </trkpt>
      <trkpt lat="49.34471" lon="0.8844">
        <ele>62.5</ele>
        <time>2016-10-09T08:39:02Z</time>
      </trkpt>
      <trkpt lat="49.34462" lon="0.88446">
        <ele>62.4</ele>
        <time>2016-10-09T08:39:05Z</time>
      </trkpt>
      <trkpt lat="49.34455" lon="0.88456">
        <ele>63.1</ele>
        <time>2016-10-09T08:39:11Z</time>
      </trkpt>
      <trkpt lat="49.34446" lon="0.88467">
        <ele>64.2</ele>
        <time>2016-10-09T08:39:16Z</time>
      </trkpt>
      <trkpt lat="49.34435" lon="0.88469">
        <ele>65.4</ele>
        <time>2016-10-09T08:39:21Z</time>
      </trkpt>
      <trkpt lat="49.34425" lon="0.88467">
        <ele>66.3</ele>
        <time>2016-10-09T08:39:25Z</time>
      </trkpt>
      <trkpt lat="49.34414" lon="0.88463">
        <ele>67.2</ele>
        <time>2016-10-09T08:39:29Z</time>
      </trkpt>
      <trkpt lat="49.34404" lon="0.88457">
        <ele>68</ele>
        <time>2016-10-09T08:39:33Z</time>
      </trkpt>
      <trkpt lat="49.34394" lon="0.88453">
        <ele>68.8</ele>
        <time>2016-10-09T08:39:37Z</time>
      </trkpt>
      <trkpt lat="49.34385" lon="0.8845">
        <ele>69.7</ele>
        <time>2016-10-09T08:39:41Z</time>
      </trkpt>
      <trkpt lat="49.34376" lon="0.88446">
        <ele>70.9</ele>
        <time>2016-10-09T08:39:46Z</time>
      </trkpt>
      <trkpt lat="49.34367" lon="0.88441">
        <ele>72.2</ele>
        <time>2016-10-09T08:39:51Z</time>
      </trkpt>
      <trkpt lat="49.34358" lon="0.88436">
        <ele>74</ele>
        <time>2016-10-09T08:39:57Z</time>
      </trkpt>
      <trkpt lat="49.34348" lon="0.88434">
        <ele>75.4</ele>
        <time>2016-10-09T08:40:02Z</time>
      </trkpt>
      <trkpt lat="49.34338" lon="0.88429">
        <ele>77</ele>
        <time>2016-10-09T08:40:08Z</time>
      </trkpt>
      <trkpt lat="49.34328" lon="0.88427">
        <ele>78.6</ele>
        <time>2016-10-09T08:40:14Z</time>
      </trkpt>
      <trkpt lat="49.34318" lon="0.88423">
        <ele>79.9</ele>
        <time>2016-10-09T08:40:19Z</time>
      </trkpt>
      <trkpt lat="49.34308" lon="0.88419">
        <ele>81.3</ele>
        <time>2016-10-09T08:40:24Z</time>
      </trkpt>
      <trkpt lat="49.34299" lon="0.88415">
        <ele>82.3</ele>
        <time>2016-10-09T08:40:28Z</time>
      </trkpt>
      <trkpt lat="49.34288" lon="0.88409">
        <ele>83.5</ele>
        <time>2016-10-09T08:40:33Z</time>
      </trkpt>
      <trkpt lat="49.34277" lon="0.88407">
        <ele>84.5</ele>
        <time>2016-10-09T08:40:37Z</time>
      </trkpt>
      <trkpt lat="49.34267" lon="0.88402">
        <ele>85.5</ele>
        <time>2016-10-09T08:40:41Z</time>
      </trkpt>
      <trkpt lat="49.34255" lon="0.88397">
        <ele>86.5</ele>
        <time>2016-10-09T08:40:45Z</time>
      </trkpt>
      <trkpt lat="49.34244" lon="0.88393">
        <ele>87.4</ele>
        <time>2016-10-09T08:40:49Z</time>
      </trkpt>
      <trkpt lat="49.34234" lon="0.88391">
        <ele>87.9</ele>
        <time>2016-10-09T08:40:52Z</time>
      </trkpt>
      <trkpt lat="49.34223" lon="0.88386">
        <ele>88.4</ele>
        <time>2016-10-09T08:40:55Z</time>
      </trkpt>
      <trkpt lat="49.34214" lon="0.88383">
        <ele>88.6</ele>
        <time>2016-10-09T08:40:57Z</time>
      </trkpt>
      <trkpt lat="49.34203" lon="0.88383">
        <ele>89</ele>
        <time>2016-10-09T08:41:00Z</time>
      </trkpt>
      <trkpt lat="49.34191" lon="0.88381">
        <ele>89.2</ele>
        <time>2016-10-09T08:41:03Z</time>
      </trkpt>
      <trkpt lat="49.34179" lon="0.88378">
        <ele>89.6</ele>
        <time>2016-10-09T08:41:06Z</time>
      </trkpt>
      <trkpt lat="49.3417" lon="0.88374">
        <ele>89.8</ele>
        <time>2016-10-09T08:41:08Z</time>
      </trkpt>
      <trkpt lat="49.3416" lon="0.88369">
        <ele>89.9</ele>
        <time>2016-10-09T08:41:10Z</time>
      </trkpt>
      <trkpt lat="49.3415" lon="0.88364">
        <ele>90.1</ele>
        <time>2016-10-09T08:41:12Z</time>
      </trkpt>
      <trkpt lat="49.34139" lon="0.88359">
        <ele>90.2</ele>
        <time>2016-10-09T08:41:14Z</time>
      </trkpt>
      <trkpt lat="49.34129" lon="0.88355">
        <ele>90.3</ele>
        <time>2016-10-09T08:41:16Z</time>
      </trkpt>
      <trkpt lat="49.34116" lon="0.88352">
        <ele>90.4</ele>
        <time>2016-10-09T08:41:18Z</time>
      </trkpt>
      <trkpt lat="49.34105" lon="0.88347">
        <ele>90</ele>
        <time>2016-10-09T08:41:20Z</time>
      </trkpt>
      <trkpt lat="49.34092" lon="0.88343">
        <ele>89.4</ele>
        <time>2016-10-09T08:41:22Z</time>
      </trkpt>
      <trkpt lat="49.34079" lon="0.88338">
        <ele>88.4</ele>
        <time>2016-10-09T08:41:24Z</time>
      </trkpt>
      <trkpt lat="49.3407" lon="0.88332">
        <ele>87.4</ele>
        <time>2016-10-09T08:41:26Z</time>
      </trkpt>
      <trkpt lat="49.34072" lon="0.88315">
        <ele>85.9</ele>
        <time>2016-10-09T08:41:30Z</time>
      </trkpt>
      <trkpt lat="49.34079" lon="0.88299">
        <ele>84.9</ele>
        <time>2016-10-09T08:41:33Z</time>
      </trkpt>
      <trkpt lat="49.34087" lon="0.88284">
        <ele>84.3</ele>
        <time>2016-10-09T08:41:35Z</time>
      </trkpt>
      <trkpt lat="49.34093" lon="0.88269">
        <ele>83.7</ele>
        <time>2016-10-09T08:41:37Z</time>
      </trkpt>
      <trkpt lat="49.34101" lon="0.88253">
        <ele>83.1</ele>
        <time>2016-10-09T08:41:39Z</time>
      </trkpt>
      <trkpt lat="49.34109" lon="0.88236">
        <ele>82.4</ele>
        <time>2016-10-09T08:41:41Z</time>
      </trkpt>
      <trkpt lat="49.34118" lon="0.88219">
        <ele>81.8</ele>
        <time>2016-10-09T08:41:43Z</time>
      </trkpt>
      <trkpt lat="49.34127" lon="0.88201">
        <ele>81.2</ele>
        <time>2016-10-09T08:41:45Z</time>
      </trkpt>
      <trkpt lat="49.3414" lon="0.88186">
        <ele>80.6</ele>
        <time>2016-10-09T08:41:47Z</time>
      </trkpt>
      <trkpt lat="49.34154" lon="0.88178">
        <ele>80</ele>
        <time>2016-10-09T08:41:49Z</time>
      </trkpt>
      <trkpt lat="49.34169" lon="0.88173">
        <ele>79.2</ele>
        <time>2016-10-09T08:41:51Z</time>
      </trkpt>
      <trkpt lat="49.34178" lon="0.88167">
        <ele>78.8</ele>
        <time>2016-10-09T08:41:52Z</time>
      </trkpt>
      <trkpt lat="49.34195" lon="0.88157">
        <ele>77.9</ele>
        <time>2016-10-09T08:41:54Z</time>
      </trkpt>
      <trkpt lat="49.34203" lon="0.8815">
        <ele>77.4</ele>
        <time>2016-10-09T08:41:55Z</time>
      </trkpt>
      <trkpt lat="49.3421" lon="0.88141">
        <ele>76.9</ele>
        <time>2016-10-09T08:41:56Z</time>
      </trkpt>
      <trkpt lat="49.34216" lon="0.8813">
        <ele>76.4</ele>
        <time>2016-10-09T08:41:57Z</time>
      </trkpt>
      <trkpt lat="49.34224" lon="0.88114">
        <ele>75.2</ele>
        <time>2016-10-09T08:41:59Z</time>
      </trkpt>
      <trkpt lat="49.34225" lon="0.88097">
        <ele>74.1</ele>
        <time>2016-10-09T08:42:01Z</time>
      </trkpt>
      <trkpt lat="49.34223" lon="0.88081">
        <ele>73.1</ele>
        <time>2016-10-09T08:42:03Z</time>
      </trkpt>
      <trkpt lat="49.34215" lon="0.88066">
        <ele>72.2</ele>
        <time>2016-10-09T08:42:05Z</time>
      </trkpt>
      <trkpt lat="49.34206" lon="0.88052">
        <ele>71.3</ele>
        <time>2016-10-09T08:42:07Z</time>
      </trkpt>
      <trkpt lat="49.34197" lon="0.88037">
        <ele>70.6</ele>
        <time>2016-10-09T08:42:09Z</time>
      </trkpt>
      <trkpt lat="49.34188" lon="0.88022">
        <ele>70</ele>
        <time>2016-10-09T08:42:11Z</time>
      </trkpt>
      <trkpt lat="49.34179" lon="0.88009">
        <ele>69.5</ele>
        <time>2016-10-09T08:42:13Z</time>
      </trkpt>
      <trkpt lat="49.3417" lon="0.87998">
        <ele>69.1</ele>
        <time>2016-10-09T08:42:15Z</time>
      </trkpt>
      <trkpt lat="49.34161" lon="0.87989">
        <ele>68.7</ele>
        <time>2016-10-09T08:42:17Z</time>
      </trkpt>
      <trkpt lat="49.34154" lon="0.8798">
        <ele>68.4</ele>
        <time>2016-10-09T08:42:19Z</time>
      </trkpt>
      <trkpt lat="49.34146" lon="0.87971">
        <ele>68.1</ele>
        <time>2016-10-09T08:42:21Z</time>
      </trkpt>
      <trkpt lat="49.34138" lon="0.87958">
        <ele>67.7</ele>
        <time>2016-10-09T08:42:24Z</time>
      </trkpt>
      <trkpt lat="49.3413" lon="0.87947">
        <ele>67.4</ele>
        <time>2016-10-09T08:42:27Z</time>
      </trkpt>
      <trkpt lat="49.34121" lon="0.87937">
        <ele>67.3</ele>
        <time>2016-10-09T08:42:30Z</time>
      </trkpt>
      <trkpt lat="49.34113" lon="0.87925">
        <ele>67.4</ele>
        <time>2016-10-09T08:42:33Z</time>
      </trkpt>
      <trkpt lat="49.34107" lon="0.8791">
        <ele>67.7</ele>
        <time>2016-10-09T08:42:37Z</time>
      </trkpt>
      <trkpt lat="49.34106" lon="0.87896">
        <ele>68.1</ele>
        <time>2016-10-09T08:42:40Z</time>
      </trkpt>
      <trkpt lat="49.34105" lon="0.8788">
        <ele>68.7</ele>
        <time>2016-10-09T08:42:44Z</time>
      </trkpt>
      <trkpt lat="49.34104" lon="0.87861">
        <ele>69.3</ele>
        <time>2016-10-09T08:42:48Z</time>
      </trkpt>
      <trkpt lat="49.34101" lon="0.87844">
        <ele>69.9</ele>
        <time>2016-10-09T08:42:52Z</time>
      </trkpt>
      <trkpt lat="49.34095" lon="0.87829">
        <ele>70.4</ele>
        <time>2016-10-09T08:42:55Z</time>
      </trkpt>
      <trkpt lat="49.34089" lon="0.87811">
        <ele>70.8</ele>
        <time>2016-10-09T08:42:58Z</time>
      </trkpt>
      <trkpt lat="49.34089" lon="0.87794">
        <ele>71.4</ele>
        <time>2016-10-09T08:43:02Z</time>
      </trkpt>
      <trkpt lat="49.34091" lon="0.87774">
        <ele>71.6</ele>
        <time>2016-10-09T08:43:05Z</time>
      </trkpt>
      <trkpt lat="49.34091" lon="0.87756">
        <ele>71.5</ele>
        <time>2016-10-09T08:43:07Z</time>
      </trkpt>
      <trkpt lat="49.34094" lon="0.87738">
        <ele>71.2</ele>
        <time>2016-10-09T08:43:09Z</time>
      </trkpt>
      <trkpt lat="49.341" lon="0.87718">
        <ele>70.7</ele>
        <time>2016-10-09T08:43:11Z</time>
      </trkpt>
      <trkpt lat="49.34105" lon="0.87702">
        <ele>70.1</ele>
        <time>2016-10-09T08:43:13Z</time>
      </trkpt>
      <trkpt lat="49.34113" lon="0.87685">
        <ele>69.4</ele>
        <time>2016-10-09T08:43:16Z</time>
      </trkpt>
      <trkpt lat="49.34114" lon="0.8767">
        <ele>69.1</ele>
        <time>2016-10-09T08:43:18Z</time>
      </trkpt>
      <trkpt lat="49.34113" lon="0.87655">
        <ele>68.9</ele>
        <time>2016-10-09T08:43:20Z</time>
      </trkpt>
      <trkpt lat="49.3411" lon="0.87636">
        <ele>68.7</ele>
        <time>2016-10-09T08:43:22Z</time>
      </trkpt>
      <trkpt lat="49.34105" lon="0.87617">
        <ele>68.5</ele>
        <time>2016-10-09T08:43:24Z</time>
      </trkpt>
      <trkpt lat="49.341" lon="0.87593">
        <ele>68.3</ele>
        <time>2016-10-09T08:43:26Z</time>
      </trkpt>
      <trkpt lat="49.34073" lon="0.87521">
        <ele>68</ele>
        <time>2016-10-09T08:43:31Z</time>
      </trkpt>
      <trkpt lat="49.34054" lon="0.87471">
        <ele>68</ele>
        <time>2016-10-09T08:43:36Z</time>
      </trkpt>
      <trkpt lat="49.34049" lon="0.87456">
        <ele>68</ele>
        <time>2016-10-09T08:43:38Z</time>
      </trkpt>
      <trkpt lat="49.3404" lon="0.87441">
        <ele>68</ele>
        <time>2016-10-09T08:43:40Z</time>
      </trkpt>
      <trkpt lat="49.34034" lon="0.87426">
        <ele>68</ele>
        <time>2016-10-09T08:43:42Z</time>
      </trkpt>
      <trkpt lat="49.34027" lon="0.87411">
        <ele>68.1</ele>
        <time>2016-10-09T08:43:44Z</time>
      </trkpt>
      <trkpt lat="49.34019" lon="0.87397">
        <ele>68.2</ele>
        <time>2016-10-09T08:43:47Z</time>
      </trkpt>
      <trkpt lat="49.34013" lon="0.87385">
        <ele>68.3</ele>
        <time>2016-10-09T08:43:50Z</time>
      </trkpt>
      <trkpt lat="49.34006" lon="0.8737">
        <ele>68.4</ele>
        <time>2016-10-09T08:43:53Z</time>
      </trkpt>
      <trkpt lat="49.34003" lon="0.87357">
        <ele>68.4</ele>
        <time>2016-10-09T08:43:56Z</time>
      </trkpt>
      <trkpt lat="49.33998" lon="0.8734">
        <ele>68.5</ele>
        <time>2016-10-09T08:43:59Z</time>
      </trkpt>
      <trkpt lat="49.33992" lon="0.87324">
        <ele>68.6</ele>
        <time>2016-10-09T08:44:02Z</time>
      </trkpt>
      <trkpt lat="49.33985" lon="0.87305">
        <ele>68.9</ele>
        <time>2016-10-09T08:44:05Z</time>
      </trkpt>
      <trkpt lat="49.33979" lon="0.87295">
        <ele>69.2</ele>
        <time>2016-10-09T08:44:08Z</time>
      </trkpt>
      <trkpt lat="49.33971" lon="0.87286">
        <ele>69.5</ele>
        <time>2016-10-09T08:44:11Z</time>
      </trkpt>
      <trkpt lat="49.33963" lon="0.87276">
        <ele>69.8</ele>
        <time>2016-10-09T08:44:14Z</time>
      </trkpt>
      <trkpt lat="49.33957" lon="0.87265">
        <ele>70.1</ele>
        <time>2016-10-09T08:44:17Z</time>
      </trkpt>
      <trkpt lat="49.3395" lon="0.87251">
        <ele>70.5</ele>
        <time>2016-10-09T08:44:21Z</time>
      </trkpt>
      <trkpt lat="49.33943" lon="0.87239">
        <ele>71</ele>
        <time>2016-10-09T08:44:26Z</time>
      </trkpt>
      <trkpt lat="49.33936" lon="0.87229">
        <ele>71.5</ele>
        <time>2016-10-09T08:44:30Z</time>
      </trkpt>
      <trkpt lat="49.33929" lon="0.87214">
        <ele>72</ele>
        <time>2016-10-09T08:44:34Z</time>
      </trkpt>
      <trkpt lat="49.33923" lon="0.872">
        <ele>73</ele>
        <time>2016-10-09T08:44:39Z</time>
      </trkpt>
      <trkpt lat="49.33918" lon="0.87188">
        <ele>73.5</ele>
        <time>2016-10-09T08:44:42Z</time>
      </trkpt>
      <trkpt lat="49.33911" lon="0.87174">
        <ele>74.5</ele>
        <time>2016-10-09T08:44:47Z</time>
      </trkpt>
      <trkpt lat="49.33905" lon="0.87163">
        <ele>75.2</ele>
        <time>2016-10-09T08:44:51Z</time>
      </trkpt>
      <trkpt lat="49.339" lon="0.8715">
        <ele>75.8</ele>
        <time>2016-10-09T08:44:55Z</time>
      </trkpt>
      <trkpt lat="49.33897" lon="0.87138">
        <ele>76.3</ele>
        <time>2016-10-09T08:44:59Z</time>
      </trkpt>
      <trkpt lat="49.33891" lon="0.87125">
        <ele>76.9</ele>
        <time>2016-10-09T08:45:03Z</time>
      </trkpt>
      <trkpt lat="49.33884" lon="0.87114">
        <ele>77.6</ele>
        <time>2016-10-09T08:45:08Z</time>
      </trkpt>
      <trkpt lat="49.33875" lon="0.871">
        <ele>78.3</ele>
        <time>2016-10-09T08:45:13Z</time>
      </trkpt>
      <trkpt lat="49.33868" lon="0.87087">
        <ele>78.9</ele>
        <time>2016-10-09T08:45:18Z</time>
      </trkpt>
      <trkpt lat="49.33862" lon="0.87077">
        <ele>79.4</ele>
        <time>2016-10-09T08:45:22Z</time>
      </trkpt>
      <trkpt lat="49.33853" lon="0.87067">
        <ele>79.8</ele>
        <time>2016-10-09T08:45:26Z</time>
      </trkpt>
      <trkpt lat="49.33845" lon="0.87058">
        <ele>80.2</ele>
        <time>2016-10-09T08:45:31Z</time>
      </trkpt>
      <trkpt lat="49.33837" lon="0.87051">
        <ele>80.5</ele>
        <time>2016-10-09T08:45:35Z</time>
      </trkpt>
      <trkpt lat="49.33825" lon="0.87047">
        <ele>80.9</ele>
        <time>2016-10-09T08:45:40Z</time>
      </trkpt>
      <trkpt lat="49.33815" lon="0.87041">
        <ele>81.2</ele>
        <time>2016-10-09T08:45:45Z</time>
      </trkpt>
      <trkpt lat="49.33807" lon="0.87032">
        <ele>81.6</ele>
        <time>2016-10-09T08:45:51Z</time>
      </trkpt>
      <trkpt lat="49.338" lon="0.87021">
        <ele>82.2</ele>
        <time>2016-10-09T08:45:57Z</time>
      </trkpt>
      <trkpt lat="49.33793" lon="0.87012">
        <ele>82.9</ele>
        <time>2016-10-09T08:46:03Z</time>
      </trkpt>
      <trkpt lat="49.33784" lon="0.87004">
        <ele>83.5</ele>
        <time>2016-10-09T08:46:09Z</time>
      </trkpt>
      <trkpt lat="49.33776" lon="0.86993">
        <ele>84</ele>
        <time>2016-10-09T08:46:14Z</time>
      </trkpt>
      <trkpt lat="49.33769" lon="0.86982">
        <ele>84.5</ele>
        <time>2016-10-09T08:46:19Z</time>
      </trkpt>
      <trkpt lat="49.33762" lon="0.86973">
        <ele>85.1</ele>
        <time>2016-10-09T08:46:24Z</time>
      </trkpt>
      <trkpt lat="49.33754" lon="0.86964">
        <ele>85.7</ele>
        <time>2016-10-09T08:46:29Z</time>
      </trkpt>
      <trkpt lat="49.33745" lon="0.86958">
        <ele>86.3</ele>
        <time>2016-10-09T08:46:33Z</time>
      </trkpt>
      <trkpt lat="49.33737" lon="0.86949">
        <ele>87.2</ele>
        <time>2016-10-09T08:46:39Z</time>
      </trkpt>
      <trkpt lat="49.33728" lon="0.86941">
        <ele>88</ele>
        <time>2016-10-09T08:46:45Z</time>
      </trkpt>
      <trkpt lat="49.3372" lon="0.86932">
        <ele>88.7</ele>
        <time>2016-10-09T08:46:50Z</time>
      </trkpt>
      <trkpt lat="49.33712" lon="0.86922">
        <ele>89.3</ele>
        <time>2016-10-09T08:46:55Z</time>
      </trkpt>
      <trkpt lat="49.33705" lon="0.86913">
        <ele>89.6</ele>
        <time>2016-10-09T08:46:59Z</time>
      </trkpt>
      <trkpt lat="49.33695" lon="0.86904">
        <ele>90</ele>
        <time>2016-10-09T08:47:03Z</time>
      </trkpt>
      <trkpt lat="49.33685" lon="0.86898">
        <ele>90.3</ele>
        <time>2016-10-09T08:47:08Z</time>
      </trkpt>
      <trkpt lat="49.33677" lon="0.86891">
        <ele>90.4</ele>
        <time>2016-10-09T08:47:11Z</time>
      </trkpt>
      <trkpt lat="49.33667" lon="0.86887">
        <ele>90.6</ele>
        <time>2016-10-09T08:47:14Z</time>
      </trkpt>
      <trkpt lat="49.33658" lon="0.8688">
        <ele>90.6</ele>
        <time>2016-10-09T08:47:18Z</time>
      </trkpt>
      <trkpt lat="49.3365" lon="0.86873">
        <ele>90.6</ele>
        <time>2016-10-09T08:47:22Z</time>
      </trkpt>
      <trkpt lat="49.33643" lon="0.8686">
        <ele>90.4</ele>
        <time>2016-10-09T08:47:27Z</time>
      </trkpt>
      <trkpt lat="49.33634" lon="0.8685">
        <ele>90.2</ele>
        <time>2016-10-09T08:47:31Z</time>
      </trkpt>
      <trkpt lat="49.33627" lon="0.86839">
        <ele>89.8</ele>
        <time>2016-10-09T08:47:34Z</time>
      </trkpt>
      <trkpt lat="49.33622" lon="0.86825">
        <ele>89.5</ele>
        <time>2016-10-09T08:47:37Z</time>
      </trkpt>
      <trkpt lat="49.33617" lon="0.86814">
        <ele>88.7</ele>
        <time>2016-10-09T08:47:44Z</time>
      </trkpt>
      <trkpt lat="49.33611" lon="0.86803">
        <ele>88.3</ele>
        <time>2016-10-09T08:47:50Z</time>
      </trkpt>
      <trkpt lat="49.33605" lon="0.86792">
        <ele>87.9</ele>
        <time>2016-10-09T08:47:57Z</time>
      </trkpt>
      <trkpt lat="49.33599" lon="0.86779">
        <ele>87.7</ele>
        <time>2016-10-09T08:48:04Z</time>
      </trkpt>
      <trkpt lat="49.33594" lon="0.86767">
        <ele>87.8</ele>
        <time>2016-10-09T08:48:08Z</time>
      </trkpt>
      <trkpt lat="49.33587" lon="0.86755">
        <ele>88.5</ele>
        <time>2016-10-09T08:48:13Z</time>
      </trkpt>
      <trkpt lat="49.33578" lon="0.86744">
        <ele>89.2</ele>
        <time>2016-10-09T08:48:18Z</time>
      </trkpt>
      <trkpt lat="49.33568" lon="0.86734">
        <ele>89.6</ele>
        <time>2016-10-09T08:48:22Z</time>
      </trkpt>
      <trkpt lat="49.33559" lon="0.86731">
        <ele>89.8</ele>
        <time>2016-10-09T08:48:25Z</time>
      </trkpt>
      <trkpt lat="49.33555" lon="0.86748">
        <ele>89.1</ele>
        <time>2016-10-09T08:48:31Z</time>
      </trkpt>
      <trkpt lat="49.33559" lon="0.86761">
        <ele>88.3</ele>
        <time>2016-10-09T08:48:34Z</time>
      </trkpt>
      <trkpt lat="49.3356" lon="0.86775">
        <ele>87.3</ele>
        <time>2016-10-09T08:48:37Z</time>
      </trkpt>
      <trkpt lat="49.33564" lon="0.86789">
        <ele>85.8</ele>
        <time>2016-10-09T08:48:41Z</time>
      </trkpt>
      <trkpt lat="49.33568" lon="0.86804">
        <ele>83.9</ele>
        <time>2016-10-09T08:48:47Z</time>
      </trkpt>
      <trkpt lat="49.33566" lon="0.86817">
        <ele>80.1</ele>
        <time>2016-10-09T08:49:02Z</time>
      </trkpt>
      <trkpt lat="49.33555" lon="0.86858">
        <ele>78</ele>
        <time>2016-10-09T08:49:15Z</time>
      </trkpt>
      <trkpt lat="49.33549" lon="0.86886">
        <ele>76.8</ele>
        <time>2016-10-09T08:49:21Z</time>
      </trkpt>
      <trkpt lat="49.3354" lon="0.86887">
        <ele>76</ele>
        <time>2016-10-09T08:49:24Z</time>
      </trkpt>
      <trkpt lat="49.3353" lon="0.86886">
        <ele>75.4</ele>
        <time>2016-10-09T08:49:27Z</time>
      </trkpt>
      <trkpt lat="49.33517" lon="0.86881">
        <ele>74.9</ele>
        <time>2016-10-09T08:49:30Z</time>
      </trkpt>
      <trkpt lat="49.33505" lon="0.86874">
        <ele>74.4</ele>
        <time>2016-10-09T08:49:33Z</time>
      </trkpt>
      <trkpt lat="49.33493" lon="0.86865">
        <ele>74.1</ele>
        <time>2016-10-09T08:49:36Z</time>
      </trkpt>
      <trkpt lat="49.3348" lon="0.86859">
        <ele>73.9</ele>
        <time>2016-10-09T08:49:39Z</time>
      </trkpt>
      <trkpt lat="49.33468" lon="0.86856">
        <ele>73.7</ele>
        <time>2016-10-09T08:49:42Z</time>
      </trkpt>
      <trkpt lat="49.33459" lon="0.86852">
        <ele>73.7</ele>
        <time>2016-10-09T08:49:44Z</time>
      </trkpt>
      <trkpt lat="49.3345" lon="0.86847">
        <ele>73.7</ele>
        <time>2016-10-09T08:49:46Z</time>
      </trkpt>
      <trkpt lat="49.33441" lon="0.86845">
        <ele>73.7</ele>
        <time>2016-10-09T08:49:48Z</time>
      </trkpt>
      <trkpt lat="49.33429" lon="0.86839">
        <ele>73.9</ele>
        <time>2016-10-09T08:49:51Z</time>
      </trkpt>
      <trkpt lat="49.33416" lon="0.86834">
        <ele>74</ele>
        <time>2016-10-09T08:49:54Z</time>
      </trkpt>
      <trkpt lat="49.33404" lon="0.8683">
        <ele>74.3</ele>
        <time>2016-10-09T08:49:57Z</time>
      </trkpt>
      <trkpt lat="49.33392" lon="0.86824">
        <ele>74.6</ele>
        <time>2016-10-09T08:50:00Z</time>
      </trkpt>
      <trkpt lat="49.33379" lon="0.86818">
        <ele>74.9</ele>
        <time>2016-10-09T08:50:03Z</time>
      </trkpt>
      <trkpt lat="49.33367" lon="0.86813">
        <ele>75.2</ele>
        <time>2016-10-09T08:50:06Z</time>
      </trkpt>
      <trkpt lat="49.33359" lon="0.86809">
        <ele>75.5</ele>
        <time>2016-10-09T08:50:08Z</time>
      </trkpt>
      <trkpt lat="49.3335" lon="0.86805">
        <ele>75.7</ele>
        <time>2016-10-09T08:50:10Z</time>
      </trkpt>
      <trkpt lat="49.33338" lon="0.86799">
        <ele>76.2</ele>
        <time>2016-10-09T08:50:13Z</time>
      </trkpt>
      <trkpt lat="49.33326" lon="0.86791">
        <ele>76.7</ele>
        <time>2016-10-09T08:50:16Z</time>
      </trkpt>
      <trkpt lat="49.33318" lon="0.86779">
        <ele>77.2</ele>
        <time>2016-10-09T08:50:20Z</time>
      </trkpt>
      <trkpt lat="49.33308" lon="0.86765">
        <ele>77.5</ele>
        <time>2016-10-09T08:50:23Z</time>
      </trkpt>
      <trkpt lat="49.333" lon="0.86756">
        <ele>77.7</ele>
        <time>2016-10-09T08:50:25Z</time>
      </trkpt>
      <trkpt lat="49.33292" lon="0.86744">
        <ele>77.7</ele>
        <time>2016-10-09T08:50:27Z</time>
      </trkpt>
      <trkpt lat="49.33289" lon="0.86727">
        <ele>77.6</ele>
        <time>2016-10-09T08:50:29Z</time>
      </trkpt>
      <trkpt lat="49.33284" lon="0.86701">
        <ele>77.4</ele>
        <time>2016-10-09T08:50:32Z</time>
      </trkpt>
      <trkpt lat="49.33279" lon="0.86688">
        <ele>77.3</ele>
        <time>2016-10-09T08:50:34Z</time>
      </trkpt>
      <trkpt lat="49.33275" lon="0.86669">
        <ele>77.1</ele>
        <time>2016-10-09T08:50:37Z</time>
      </trkpt>
      <trkpt lat="49.33265" lon="0.86657">
        <ele>77</ele>
        <time>2016-10-09T08:50:39Z</time>
      </trkpt>
      <trkpt lat="49.33256" lon="0.86651">
        <ele>76.9</ele>
        <time>2016-10-09T08:50:41Z</time>
      </trkpt>
      <trkpt lat="49.33248" lon="0.86641">
        <ele>76.7</ele>
        <time>2016-10-09T08:50:45Z</time>
      </trkpt>
      <trkpt lat="49.33238" lon="0.86632">
        <ele>76.7</ele>
        <time>2016-10-09T08:50:49Z</time>
      </trkpt>
      <trkpt lat="49.33229" lon="0.86622">
        <ele>76.9</ele>
        <time>2016-10-09T08:50:52Z</time>
      </trkpt>
      <trkpt lat="49.33221" lon="0.86605">
        <ele>77.3</ele>
        <time>2016-10-09T08:50:56Z</time>
      </trkpt>
      <trkpt lat="49.33218" lon="0.86591">
        <ele>77.7</ele>
        <time>2016-10-09T08:50:59Z</time>
      </trkpt>
      <trkpt lat="49.3321" lon="0.86575">
        <ele>78</ele>
        <time>2016-10-09T08:51:02Z</time>
      </trkpt>
      <trkpt lat="49.33202" lon="0.86568">
        <ele>78.3</ele>
        <time>2016-10-09T08:51:04Z</time>
      </trkpt>
      <trkpt lat="49.33194" lon="0.86557">
        <ele>78.8</ele>
        <time>2016-10-09T08:51:07Z</time>
      </trkpt>
      <trkpt lat="49.33185" lon="0.86547">
        <ele>79.6</ele>
        <time>2016-10-09T08:51:11Z</time>
      </trkpt>
      <trkpt lat="49.33176" lon="0.86541">
        <ele>80.5</ele>
        <time>2016-10-09T08:51:15Z</time>
      </trkpt>
      <trkpt lat="49.33167" lon="0.86538">
        <ele>81.4</ele>
        <time>2016-10-09T08:51:19Z</time>
      </trkpt>
      <trkpt lat="49.33157" lon="0.86539">
        <ele>82.9</ele>
        <time>2016-10-09T08:51:25Z</time>
      </trkpt>
      <trkpt lat="49.33148" lon="0.86536">
        <ele>84.8</ele>
        <time>2016-10-09T08:51:32Z</time>
      </trkpt>
      <trkpt lat="49.33139" lon="0.86539">
        <ele>86.9</ele>
        <time>2016-10-09T08:51:40Z</time>
      </trkpt>
      <trkpt lat="49.33129" lon="0.8654">
        <ele>90.4</ele>
        <time>2016-10-09T08:51:53Z</time>
      </trkpt>
      <trkpt lat="49.3312" lon="0.8654">
        <ele>92.7</ele>
        <time>2016-10-09T08:52:02Z</time>
      </trkpt>
      <trkpt lat="49.3311" lon="0.86541">
        <ele>96</ele>
        <time>2016-10-09T08:52:14Z</time>
      </trkpt>
      <trkpt lat="49.33101" lon="0.86537">
        <ele>99.2</ele>
        <time>2016-10-09T08:52:27Z</time>
      </trkpt>
      <trkpt lat="49.33092" lon="0.86532">
        <ele>100.3</ele>
        <time>2016-10-09T08:52:33Z</time>
      </trkpt>
      <trkpt lat="49.33083" lon="0.86523">
        <ele>101.1</ele>
        <time>2016-10-09T08:52:38Z</time>
      </trkpt>
      <trkpt lat="49.33074" lon="0.86515">
        <ele>101.7</ele>
        <time>2016-10-09T08:52:42Z</time>
      </trkpt>
      <trkpt lat="49.33064" lon="0.86505">
        <ele>102.5</ele>
        <time>2016-10-09T08:52:47Z</time>
      </trkpt>
      <trkpt lat="49.33055" lon="0.865">
        <ele>102.9</ele>
        <time>2016-10-09T08:52:50Z</time>
      </trkpt>
      <trkpt lat="49.33046" lon="0.86494">
        <ele>103.3</ele>
        <time>2016-10-09T08:52:53Z</time>
      </trkpt>
      <trkpt lat="49.33035" lon="0.86496">
        <ele>103.8</ele>
        <time>2016-10-09T08:52:56Z</time>
      </trkpt>
      <trkpt lat="49.33025" lon="0.86501">
        <ele>104.2</ele>
        <time>2016-10-09T08:52:59Z</time>
      </trkpt>
      <trkpt lat="49.33014" lon="0.86508">
        <ele>104.5</ele>
        <time>2016-10-09T08:53:02Z</time>
      </trkpt>
      <trkpt lat="49.33004" lon="0.86512">
        <ele>104.8</ele>
        <time>2016-10-09T08:53:05Z</time>
      </trkpt>
      <trkpt lat="49.32993" lon="0.86513">
        <ele>105.1</ele>
        <time>2016-10-09T08:53:08Z</time>
      </trkpt>
      <trkpt lat="49.32989" lon="0.86528">
        <ele>105.3</ele>
        <time>2016-10-09T08:53:11Z</time>
      </trkpt>
      <trkpt lat="49.32987" lon="0.86546">
        <ele>105.5</ele>
        <time>2016-10-09T08:53:14Z</time>
      </trkpt>
      <trkpt lat="49.32984" lon="0.86563">
        <ele>105.7</ele>
        <time>2016-10-09T08:53:17Z</time>
      </trkpt>
      <trkpt lat="49.3298" lon="0.86582">
        <ele>105.9</ele>
        <time>2016-10-09T08:53:20Z</time>
      </trkpt>
      <trkpt lat="49.32978" lon="0.86596">
        <ele>106.1</ele>
        <time>2016-10-09T08:53:22Z</time>
      </trkpt>
      <trkpt lat="49.32974" lon="0.86616">
        <ele>106.3</ele>
        <time>2016-10-09T08:53:25Z</time>
      </trkpt>
      <trkpt lat="49.3297" lon="0.86636">
        <ele>106.5</ele>
        <time>2016-10-09T08:53:28Z</time>
      </trkpt>
      <trkpt lat="49.32968" lon="0.8665">
        <ele>106.6</ele>
        <time>2016-10-09T08:53:30Z</time>
      </trkpt>
      <trkpt lat="49.32966" lon="0.86664">
        <ele>106.7</ele>
        <time>2016-10-09T08:53:32Z</time>
      </trkpt>
      <trkpt lat="49.32964" lon="0.86677">
        <ele>106.9</ele>
        <time>2016-10-09T08:53:34Z</time>
      </trkpt>
      <trkpt lat="49.32961" lon="0.86692">
        <ele>107.1</ele>
        <time>2016-10-09T08:53:36Z</time>
      </trkpt>
      <trkpt lat="49.3296" lon="0.86706">
        <ele>107.2</ele>
        <time>2016-10-09T08:53:38Z</time>
      </trkpt>
      <trkpt lat="49.32958" lon="0.86721">
        <ele>107.3</ele>
        <time>2016-10-09T08:53:40Z</time>
      </trkpt>
      <trkpt lat="49.32955" lon="0.86736">
        <ele>107.5</ele>
        <time>2016-10-09T08:53:42Z</time>
      </trkpt>
      <trkpt lat="49.32954" lon="0.8675">
        <ele>107.6</ele>
        <time>2016-10-09T08:53:44Z</time>
      </trkpt>
      <trkpt lat="49.32951" lon="0.86769">
        <ele>107.7</ele>
        <time>2016-10-09T08:53:47Z</time>
      </trkpt>
      <trkpt lat="49.32949" lon="0.86789">
        <ele>107.9</ele>
        <time>2016-10-09T08:53:50Z</time>
      </trkpt>
      <trkpt lat="49.32946" lon="0.86803">
        <ele>108</ele>
        <time>2016-10-09T08:53:52Z</time>
      </trkpt>
      <trkpt lat="49.32944" lon="0.86817">
        <ele>108.1</ele>
        <time>2016-10-09T08:53:54Z</time>
      </trkpt>
      <trkpt lat="49.32942" lon="0.86831">
        <ele>108.2</ele>
        <time>2016-10-09T08:53:56Z</time>
      </trkpt>
      <trkpt lat="49.32939" lon="0.86844">
        <ele>108.2</ele>
        <time>2016-10-09T08:53:58Z</time>
      </trkpt>
      <trkpt lat="49.32937" lon="0.86858">
        <ele>108.3</ele>
        <time>2016-10-09T08:54:00Z</time>
      </trkpt>
      <trkpt lat="49.32935" lon="0.86878">
        <ele>108.4</ele>
        <time>2016-10-09T08:54:03Z</time>
      </trkpt>
      <trkpt lat="49.32944" lon="0.86883">
        <ele>108.5</ele>
        <time>2016-10-09T08:54:09Z</time>
      </trkpt>
      <trkpt lat="49.32955" lon="0.86881">
        <ele>108.5</ele>
        <time>2016-10-09T08:54:12Z</time>
      </trkpt>
      <trkpt lat="49.32968" lon="0.86879">
        <ele>108.6</ele>
        <time>2016-10-09T08:54:15Z</time>
      </trkpt>
      <trkpt lat="49.3298" lon="0.86878">
        <ele>108.7</ele>
        <time>2016-10-09T08:54:18Z</time>
      </trkpt>
      <trkpt lat="49.32993" lon="0.86874">
        <ele>108.8</ele>
        <time>2016-10-09T08:54:21Z</time>
      </trkpt>
      <trkpt lat="49.33002" lon="0.86874">
        <ele>109</ele>
        <time>2016-10-09T08:54:23Z</time>
      </trkpt>
      <trkpt lat="49.33011" lon="0.86875">
        <ele>109.1</ele>
        <time>2016-10-09T08:54:25Z</time>
      </trkpt>
      <trkpt lat="49.3302" lon="0.86878">
        <ele>109.3</ele>
        <time>2016-10-09T08:54:27Z</time>
      </trkpt>
      <trkpt lat="49.33029" lon="0.86884">
        <ele>109.4</ele>
        <time>2016-10-09T08:54:29Z</time>
      </trkpt>
      <trkpt lat="49.33037" lon="0.86889">
        <ele>109.5</ele>
        <time>2016-10-09T08:54:31Z</time>
      </trkpt>
      <trkpt lat="49.33045" lon="0.86897">
        <ele>109.6</ele>
        <time>2016-10-09T08:54:33Z</time>
      </trkpt>
      <trkpt lat="49.33055" lon="0.86909">
        <ele>109.7</ele>
        <time>2016-10-09T08:54:36Z</time>
      </trkpt>
      <trkpt lat="49.33061" lon="0.86922">
        <ele>109.8</ele>
        <time>2016-10-09T08:54:38Z</time>
      </trkpt>
      <trkpt lat="49.33066" lon="0.86935">
        <ele>109.9</ele>
        <time>2016-10-09T08:54:40Z</time>
      </trkpt>
      <trkpt lat="49.33071" lon="0.86947">
        <ele>110.1</ele>
        <time>2016-10-09T08:54:42Z</time>
      </trkpt>
      <trkpt lat="49.33076" lon="0.86959">
        <ele>110.2</ele>
        <time>2016-10-09T08:54:44Z</time>
      </trkpt>
      <trkpt lat="49.33081" lon="0.86976">
        <ele>110.4</ele>
        <time>2016-10-09T08:54:47Z</time>
      </trkpt>
      <trkpt lat="49.33085" lon="0.8699">
        <ele>110.5</ele>
        <time>2016-10-09T08:54:49Z</time>
      </trkpt>
      <trkpt lat="49.33091" lon="0.87006">
        <ele>110.7</ele>
        <time>2016-10-09T08:54:52Z</time>
      </trkpt>
      <trkpt lat="49.33097" lon="0.87016">
        <ele>110.9</ele>
        <time>2016-10-09T08:54:55Z</time>
      </trkpt>
      <trkpt lat="49.33106" lon="0.87027">
        <ele>111.1</ele>
        <time>2016-10-09T08:54:58Z</time>
      </trkpt>
      <trkpt lat="49.33118" lon="0.8704">
        <ele>111.3</ele>
        <time>2016-10-09T08:55:01Z</time>
      </trkpt>
      <trkpt lat="49.33127" lon="0.87046">
        <ele>111.4</ele>
        <time>2016-10-09T08:55:03Z</time>
      </trkpt>
      <trkpt lat="49.33136" lon="0.87054">
        <ele>111.5</ele>
        <time>2016-10-09T08:55:05Z</time>
      </trkpt>
      <trkpt lat="49.33142" lon="0.87067">
        <ele>111.5</ele>
        <time>2016-10-09T08:55:07Z</time>
      </trkpt>
      <trkpt lat="49.33149" lon="0.8708">
        <ele>111.6</ele>
        <time>2016-10-09T08:55:09Z</time>
      </trkpt>
      <trkpt lat="49.33156" lon="0.87093">
        <ele>111.7</ele>
        <time>2016-10-09T08:55:11Z</time>
      </trkpt>
      <trkpt lat="49.33163" lon="0.87105">
        <ele>111.7</ele>
        <time>2016-10-09T08:55:13Z</time>
      </trkpt>
      <trkpt lat="49.3317" lon="0.87114">
        <ele>111.8</ele>
        <time>2016-10-09T08:55:15Z</time>
      </trkpt>
      <trkpt lat="49.33179" lon="0.87121">
        <ele>111.9</ele>
        <time>2016-10-09T08:55:17Z</time>
      </trkpt>
      <trkpt lat="49.33189" lon="0.87127">
        <ele>111.9</ele>
        <time>2016-10-09T08:55:19Z</time>
      </trkpt>
      <trkpt lat="49.33199" lon="0.87139">
        <ele>111.9</ele>
        <time>2016-10-09T08:55:21Z</time>
      </trkpt>
      <trkpt lat="49.33206" lon="0.87147">
        <ele>112</ele>
        <time>2016-10-09T08:55:23Z</time>
      </trkpt>
      <trkpt lat="49.33213" lon="0.87159">
        <ele>112</ele>
        <time>2016-10-09T08:55:25Z</time>
      </trkpt>
      <trkpt lat="49.3322" lon="0.87172">
        <ele>112</ele>
        <time>2016-10-09T08:55:27Z</time>
      </trkpt>
      <trkpt lat="49.33228" lon="0.87182">
        <ele>112.1</ele>
        <time>2016-10-09T08:55:29Z</time>
      </trkpt>
      <trkpt lat="49.33239" lon="0.87195">
        <ele>112.1</ele>
        <time>2016-10-09T08:55:32Z</time>
      </trkpt>
      <trkpt lat="49.33247" lon="0.87203">
        <ele>112.2</ele>
        <time>2016-10-09T08:55:34Z</time>
      </trkpt>
      <trkpt lat="49.33259" lon="0.87205">
        <ele>112.2</ele>
        <time>2016-10-09T08:55:37Z</time>
      </trkpt>
      <trkpt lat="49.3327" lon="0.87213">
        <ele>112.3</ele>
        <time>2016-10-09T08:55:39Z</time>
      </trkpt>
      <trkpt lat="49.33278" lon="0.87227">
        <ele>112.3</ele>
        <time>2016-10-09T08:55:41Z</time>
      </trkpt>
      <trkpt lat="49.33284" lon="0.87239">
        <ele>112.3</ele>
        <time>2016-10-09T08:55:43Z</time>
      </trkpt>
      <trkpt lat="49.3329" lon="0.87249">
        <ele>112.3</ele>
        <time>2016-10-09T08:55:45Z</time>
      </trkpt>
      <trkpt lat="49.33302" lon="0.87245">
        <ele>112.4</ele>
        <time>2016-10-09T08:55:49Z</time>
      </trkpt>
      <trkpt lat="49.33311" lon="0.8724">
        <ele>112.4</ele>
        <time>2016-10-09T08:55:51Z</time>
      </trkpt>
      <trkpt lat="49.3332" lon="0.87236">
        <ele>112.5</ele>
        <time>2016-10-09T08:55:53Z</time>
      </trkpt>
      <trkpt lat="49.33333" lon="0.87244">
        <ele>112.6</ele>
        <time>2016-10-09T08:55:56Z</time>
      </trkpt>
      <trkpt lat="49.33341" lon="0.8725">
        <ele>112.7</ele>
        <time>2016-10-09T08:55:58Z</time>
      </trkpt>
      <trkpt lat="49.3335" lon="0.87259">
        <ele>112.7</ele>
        <time>2016-10-09T08:56:00Z</time>
      </trkpt>
      <trkpt lat="49.33362" lon="0.87265">
        <ele>112.8</ele>
        <time>2016-10-09T08:56:03Z</time>
      </trkpt>
      <trkpt lat="49.33374" lon="0.87261">
        <ele>112.9</ele>
        <time>2016-10-09T08:56:06Z</time>
      </trkpt>
      <trkpt lat="49.33385" lon="0.87265">
        <ele>112.9</ele>
        <time>2016-10-09T08:56:09Z</time>
      </trkpt>
      <trkpt lat="49.33394" lon="0.87271">
        <ele>113</ele>
        <time>2016-10-09T08:56:11Z</time>
      </trkpt>
      <trkpt lat="49.33405" lon="0.87277">
        <ele>113</ele>
        <time>2016-10-09T08:56:13Z</time>
      </trkpt>
      <trkpt lat="49.33415" lon="0.87283">
        <ele>113</ele>
        <time>2016-10-09T08:56:15Z</time>
      </trkpt>
      <trkpt lat="49.33425" lon="0.87288">
        <ele>113</ele>
        <time>2016-10-09T08:56:17Z</time>
      </trkpt>
      <trkpt lat="49.33436" lon="0.87292">
        <ele>113.1</ele>
        <time>2016-10-09T08:56:19Z</time>
      </trkpt>
      <trkpt lat="49.33445" lon="0.87298">
        <ele>113.1</ele>
        <time>2016-10-09T08:56:21Z</time>
      </trkpt>
      <trkpt lat="49.33455" lon="0.87303">
        <ele>113.1</ele>
        <time>2016-10-09T08:56:23Z</time>
      </trkpt>
      <trkpt lat="49.33466" lon="0.8731">
        <ele>113.1</ele>
        <time>2016-10-09T08:56:25Z</time>
      </trkpt>
      <trkpt lat="49.33476" lon="0.87314">
        <ele>113.1</ele>
        <time>2016-10-09T08:56:27Z</time>
      </trkpt>
      <trkpt lat="49.33487" lon="0.87319">
        <ele>113.1</ele>
        <time>2016-10-09T08:56:29Z</time>
      </trkpt>
      <trkpt lat="49.33497" lon="0.87325">
        <ele>113.2</ele>
        <time>2016-10-09T08:56:31Z</time>
      </trkpt>
      <trkpt lat="49.33507" lon="0.87333">
        <ele>113.2</ele>
        <time>2016-10-09T08:56:33Z</time>
      </trkpt>
      <trkpt lat="49.33517" lon="0.87343">
        <ele>113.1</ele>
        <time>2016-10-09T08:56:35Z</time>
      </trkpt>
      <trkpt lat="49.33529" lon="0.87353">
        <ele>113</ele>
        <time>2016-10-09T08:56:37Z</time>
      </trkpt>
      <trkpt lat="49.33538" lon="0.8736">
        <ele>113</ele>
        <time>2016-10-09T08:56:39Z</time>
      </trkpt>
      <trkpt lat="49.3355" lon="0.87367">
        <ele>112.9</ele>
        <time>2016-10-09T08:56:41Z</time>
      </trkpt>
      <trkpt lat="49.33561" lon="0.87377">
        <ele>112.8</ele>
        <time>2016-10-09T08:56:43Z</time>
      </trkpt>
      <trkpt lat="49.33571" lon="0.87383">
        <ele>112.8</ele>
        <time>2016-10-09T08:56:45Z</time>
      </trkpt>
      <trkpt lat="49.33583" lon="0.87387">
        <ele>112.7</ele>
        <time>2016-10-09T08:56:47Z</time>
      </trkpt>
      <trkpt lat="49.33593" lon="0.87391">
        <ele>112.6</ele>
        <time>2016-10-09T08:56:49Z</time>
      </trkpt>
      <trkpt lat="49.33604" lon="0.87402">
        <ele>112.4</ele>
        <time>2016-10-09T08:56:52Z</time>
      </trkpt>
      <trkpt lat="49.33613" lon="0.87412">
        <ele>112.3</ele>
        <time>2016-10-09T08:56:55Z</time>
      </trkpt>
      <trkpt lat="49.33624" lon="0.87419">
        <ele>112.2</ele>
        <time>2016-10-09T08:56:58Z</time>
      </trkpt>
      <trkpt lat="49.33633" lon="0.87431">
        <ele>112.1</ele>
        <time>2016-10-09T08:57:01Z</time>
      </trkpt>
      <trkpt lat="49.33639" lon="0.87447">
        <ele>112</ele>
        <time>2016-10-09T08:57:04Z</time>
      </trkpt>
      <trkpt lat="49.33645" lon="0.8746">
        <ele>111.9</ele>
        <time>2016-10-09T08:57:06Z</time>
      </trkpt>
      <trkpt lat="49.33653" lon="0.87471">
        <ele>111.8</ele>
        <time>2016-10-09T08:57:08Z</time>
      </trkpt>
      <trkpt lat="49.33658" lon="0.87485">
        <ele>111.7</ele>
        <time>2016-10-09T08:57:10Z</time>
      </trkpt>
      <trkpt lat="49.33659" lon="0.87499">
        <ele>111.6</ele>
        <time>2016-10-09T08:57:12Z</time>
      </trkpt>
      <trkpt lat="49.3366" lon="0.87513">
        <ele>111.3</ele>
        <time>2016-10-09T08:57:14Z</time>
      </trkpt>
      <trkpt lat="49.33661" lon="0.87528">
        <ele>111</ele>
        <time>2016-10-09T08:57:16Z</time>
      </trkpt>
      <trkpt lat="49.3366" lon="0.87544">
        <ele>110.8</ele>
        <time>2016-10-09T08:57:18Z</time>
      </trkpt>
      <trkpt lat="49.33657" lon="0.87559">
        <ele>110.7</ele>
        <time>2016-10-09T08:57:20Z</time>
      </trkpt>
      <trkpt lat="49.33654" lon="0.87575">
        <ele>110.5</ele>
        <time>2016-10-09T08:57:22Z</time>
      </trkpt>
      <trkpt lat="49.33653" lon="0.87591">
        <ele>110.4</ele>
        <time>2016-10-09T08:57:24Z</time>
      </trkpt>
      <trkpt lat="49.33651" lon="0.87611">
        <ele>110.3</ele>
        <time>2016-10-09T08:57:27Z</time>
      </trkpt>
      <trkpt lat="49.33648" lon="0.87627">
        <ele>110.2</ele>
        <time>2016-10-09T08:57:30Z</time>
      </trkpt>
      <trkpt lat="49.33649" lon="0.87642">
        <ele>110.3</ele>
        <time>2016-10-09T08:57:33Z</time>
      </trkpt>
      <trkpt lat="49.33648" lon="0.87657">
        <ele>110.3</ele>
        <time>2016-10-09T08:57:35Z</time>
      </trkpt>
      <trkpt lat="49.33646" lon="0.87671">
        <ele>110.3</ele>
        <time>2016-10-09T08:57:37Z</time>
      </trkpt>
      <trkpt lat="49.33644" lon="0.87686">
        <ele>110.5</ele>
        <time>2016-10-09T08:57:39Z</time>
      </trkpt>
      <trkpt lat="49.33643" lon="0.87702">
        <ele>110.7</ele>
        <time>2016-10-09T08:57:41Z</time>
      </trkpt>
      <trkpt lat="49.33642" lon="0.87718">
        <ele>110.8</ele>
        <time>2016-10-09T08:57:43Z</time>
      </trkpt>
      <trkpt lat="49.3364" lon="0.87735">
        <ele>110.9</ele>
        <time>2016-10-09T08:57:45Z</time>
      </trkpt>
      <trkpt lat="49.33636" lon="0.87751">
        <ele>111</ele>
        <time>2016-10-09T08:57:47Z</time>
      </trkpt>
      <trkpt lat="49.33635" lon="0.87765">
        <ele>111.1</ele>
        <time>2016-10-09T08:57:49Z</time>
      </trkpt>
      <trkpt lat="49.33631" lon="0.87781">
        <ele>111.2</ele>
        <time>2016-10-09T08:57:51Z</time>
      </trkpt>
      <trkpt lat="49.33633" lon="0.87798">
        <ele>111.3</ele>
        <time>2016-10-09T08:57:54Z</time>
      </trkpt>
      <trkpt lat="49.33642" lon="0.8781">
        <ele>111.4</ele>
        <time>2016-10-09T08:57:58Z</time>
      </trkpt>
      <trkpt lat="49.33649" lon="0.8782">
        <ele>111.4</ele>
        <time>2016-10-09T08:58:00Z</time>
      </trkpt>
      <trkpt lat="49.33655" lon="0.87831">
        <ele>111.5</ele>
        <time>2016-10-09T08:58:02Z</time>
      </trkpt>
      <trkpt lat="49.33668" lon="0.8784">
        <ele>111.4</ele>
        <time>2016-10-09T08:58:04Z</time>
      </trkpt>
      <trkpt lat="49.33679" lon="0.8785">
        <ele>111.1</ele>
        <time>2016-10-09T08:58:06Z</time>
      </trkpt>
      <trkpt lat="49.33693" lon="0.87859">
        <ele>110.7</ele>
        <time>2016-10-09T08:58:08Z</time>
      </trkpt>
      <trkpt lat="49.33705" lon="0.87872">
        <ele>109.9</ele>
        <time>2016-10-09T08:58:10Z</time>
      </trkpt>
      <trkpt lat="49.33714" lon="0.87887">
        <ele>109.1</ele>
        <time>2016-10-09T08:58:12Z</time>
      </trkpt>
      <trkpt lat="49.33721" lon="0.87906">
        <ele>108.4</ele>
        <time>2016-10-09T08:58:14Z</time>
      </trkpt>
      <trkpt lat="49.33725" lon="0.87927">
        <ele>107.6</ele>
        <time>2016-10-09T08:58:16Z</time>
      </trkpt>
      <trkpt lat="49.33728" lon="0.87949">
        <ele>106.8</ele>
        <time>2016-10-09T08:58:18Z</time>
      </trkpt>
      <trkpt lat="49.33729" lon="0.87973">
        <ele>106</ele>
        <time>2016-10-09T08:58:20Z</time>
      </trkpt>
      <trkpt lat="49.3373" lon="0.87998">
        <ele>105.1</ele>
        <time>2016-10-09T08:58:22Z</time>
      </trkpt>
      <trkpt lat="49.33733" lon="0.88025">
        <ele>104.2</ele>
        <time>2016-10-09T08:58:24Z</time>
      </trkpt>
      <trkpt lat="49.33731" lon="0.8805">
        <ele>103.2</ele>
        <time>2016-10-09T08:58:26Z</time>
      </trkpt>
      <trkpt lat="49.33729" lon="0.88064">
        <ele>102.6</ele>
        <time>2016-10-09T08:58:27Z</time>
      </trkpt>
      <trkpt lat="49.33728" lon="0.8809">
        <ele>101.5</ele>
        <time>2016-10-09T08:58:29Z</time>
      </trkpt>
      <trkpt lat="49.33728" lon="0.88118">
        <ele>100.4</ele>
        <time>2016-10-09T08:58:31Z</time>
      </trkpt>
      <trkpt lat="49.33729" lon="0.88135">
        <ele>99.9</ele>
        <time>2016-10-09T08:58:32Z</time>
      </trkpt>
      <trkpt lat="49.33731" lon="0.8815">
        <ele>99.3</ele>
        <time>2016-10-09T08:58:33Z</time>
      </trkpt>
      <trkpt lat="49.33732" lon="0.88165">
        <ele>98.8</ele>
        <time>2016-10-09T08:58:34Z</time>
      </trkpt>
      <trkpt lat="49.33734" lon="0.88192">
        <ele>97.7</ele>
        <time>2016-10-09T08:58:36Z</time>
      </trkpt>
      <trkpt lat="49.33738" lon="0.88217">
        <ele>96.7</ele>
        <time>2016-10-09T08:58:38Z</time>
      </trkpt>
      <trkpt lat="49.33743" lon="0.88236">
        <ele>95.7</ele>
        <time>2016-10-09T08:58:40Z</time>
      </trkpt>
      <trkpt lat="49.33752" lon="0.88251">
        <ele>94.9</ele>
        <time>2016-10-09T08:58:42Z</time>
      </trkpt>
      <trkpt lat="49.33762" lon="0.88267">
        <ele>94.1</ele>
        <time>2016-10-09T08:58:44Z</time>
      </trkpt>
      <trkpt lat="49.33769" lon="0.88287">
        <ele>93.4</ele>
        <time>2016-10-09T08:58:46Z</time>
      </trkpt>
      <trkpt lat="49.33776" lon="0.88304">
        <ele>92.6</ele>
        <time>2016-10-09T08:58:48Z</time>
      </trkpt>
      <trkpt lat="49.33784" lon="0.8832">
        <ele>91.8</ele>
        <time>2016-10-09T08:58:50Z</time>
      </trkpt>
      <trkpt lat="49.33789" lon="0.88336">
        <ele>91.1</ele>
        <time>2016-10-09T08:58:52Z</time>
      </trkpt>
      <trkpt lat="49.3379" lon="0.88358">
        <ele>90.2</ele>
        <time>2016-10-09T08:58:54Z</time>
      </trkpt>
      <trkpt lat="49.3379" lon="0.88381">
        <ele>89.3</ele>
        <time>2016-10-09T08:58:56Z</time>
      </trkpt>
      <trkpt lat="49.33791" lon="0.88405">
        <ele>88.6</ele>
        <time>2016-10-09T08:58:58Z</time>
      </trkpt>
      <trkpt lat="49.33792" lon="0.88429">
        <ele>87.9</ele>
        <time>2016-10-09T08:59:00Z</time>
      </trkpt>
      <trkpt lat="49.33787" lon="0.88454">
        <ele>87.1</ele>
        <time>2016-10-09T08:59:02Z</time>
      </trkpt>
      <trkpt lat="49.33781" lon="0.88474">
        <ele>86.5</ele>
        <time>2016-10-09T08:59:04Z</time>
      </trkpt>
      <trkpt lat="49.33774" lon="0.88494">
        <ele>85.7</ele>
        <time>2016-10-09T08:59:06Z</time>
      </trkpt>
      <trkpt lat="49.33769" lon="0.88516">
        <ele>84.5</ele>
        <time>2016-10-09T08:59:08Z</time>
      </trkpt>
      <trkpt lat="49.33767" lon="0.88534">
        <ele>83.6</ele>
        <time>2016-10-09T08:59:10Z</time>
      </trkpt>
      <trkpt lat="49.33769" lon="0.88554">
        <ele>82.7</ele>
        <time>2016-10-09T08:59:12Z</time>
      </trkpt>
      <trkpt lat="49.33773" lon="0.88577">
        <ele>82</ele>
        <time>2016-10-09T08:59:14Z</time>
      </trkpt>
      <trkpt lat="49.33778" lon="0.886">
        <ele>81.3</ele>
        <time>2016-10-09T08:59:16Z</time>
      </trkpt>
      <trkpt lat="49.33787" lon="0.88624">
        <ele>80.6</ele>
        <time>2016-10-09T08:59:18Z</time>
      </trkpt>
      <trkpt lat="49.33795" lon="0.88647">
        <ele>79.8</ele>
        <time>2016-10-09T08:59:20Z</time>
      </trkpt>
      <trkpt lat="49.33802" lon="0.88658">
        <ele>79.3</ele>
        <time>2016-10-09T08:59:21Z</time>
      </trkpt>
      <trkpt lat="49.33807" lon="0.88671">
        <ele>78.9</ele>
        <time>2016-10-09T08:59:22Z</time>
      </trkpt>
      <trkpt lat="49.33812" lon="0.88684">
        <ele>78.3</ele>
        <time>2016-10-09T08:59:23Z</time>
      </trkpt>
      <trkpt lat="49.33815" lon="0.88698">
        <ele>77.8</ele>
        <time>2016-10-09T08:59:24Z</time>
      </trkpt>
      <trkpt lat="49.33821" lon="0.88722">
        <ele>76.8</ele>
        <time>2016-10-09T08:59:26Z</time>
      </trkpt>
      <trkpt lat="49.33827" lon="0.88744">
        <ele>75.9</ele>
        <time>2016-10-09T08:59:28Z</time>
      </trkpt>
      <trkpt lat="49.33825" lon="0.88766">
        <ele>75</ele>
        <time>2016-10-09T08:59:30Z</time>
      </trkpt>
      <trkpt lat="49.33822" lon="0.88788">
        <ele>74.2</ele>
        <time>2016-10-09T08:59:32Z</time>
      </trkpt>
      <trkpt lat="49.33817" lon="0.8881">
        <ele>73.4</ele>
        <time>2016-10-09T08:59:34Z</time>
      </trkpt>
      <trkpt lat="49.33813" lon="0.88833">
        <ele>72.7</ele>
        <time>2016-10-09T08:59:36Z</time>
      </trkpt>
      <trkpt lat="49.33809" lon="0.88857">
        <ele>72</ele>
        <time>2016-10-09T08:59:38Z</time>
      </trkpt>
      <trkpt lat="49.33807" lon="0.8887">
        <ele>71.7</ele>
        <time>2016-10-09T08:59:39Z</time>
      </trkpt>
      <trkpt lat="49.33805" lon="0.88896">
        <ele>71.1</ele>
        <time>2016-10-09T08:59:41Z</time>
      </trkpt>
      <trkpt lat="49.33804" lon="0.88922">
        <ele>70.6</ele>
        <time>2016-10-09T08:59:43Z</time>
      </trkpt>
      <trkpt lat="49.33803" lon="0.88946">
        <ele>70</ele>
        <time>2016-10-09T08:59:45Z</time>
      </trkpt>
      <trkpt lat="49.338" lon="0.88971">
        <ele>69.5</ele>
        <time>2016-10-09T08:59:47Z</time>
      </trkpt>
      <trkpt lat="49.33797" lon="0.88993">
        <ele>69.1</ele>
        <time>2016-10-09T08:59:49Z</time>
      </trkpt>
      <trkpt lat="49.33794" lon="0.89015">
        <ele>68.7</ele>
        <time>2016-10-09T08:59:51Z</time>
      </trkpt>
      <trkpt lat="49.3379" lon="0.89036">
        <ele>68.4</ele>
        <time>2016-10-09T08:59:53Z</time>
      </trkpt>
      <trkpt lat="49.33789" lon="0.89056">
        <ele>68</ele>
        <time>2016-10-09T08:59:55Z</time>
      </trkpt>
      <trkpt lat="49.33789" lon="0.89077">
        <ele>67.6</ele>
        <time>2016-10-09T08:59:57Z</time>
      </trkpt>
      <trkpt lat="49.33788" lon="0.89097">
        <ele>67.3</ele>
        <time>2016-10-09T08:59:59Z</time>
      </trkpt>
      <trkpt lat="49.33785" lon="0.89119">
        <ele>67.1</ele>
        <time>2016-10-09T09:00:01Z</time>
      </trkpt>
      <trkpt lat="49.33782" lon="0.89143">
        <ele>66.9</ele>
        <time>2016-10-09T09:00:03Z</time>
      </trkpt>
      <trkpt lat="49.3378" lon="0.89167">
        <ele>66.7</ele>
        <time>2016-10-09T09:00:05Z</time>
      </trkpt>
      <trkpt lat="49.3378" lon="0.89193">
        <ele>66.5</ele>
        <time>2016-10-09T09:00:07Z</time>
      </trkpt>
      <trkpt lat="49.33779" lon="0.89216">
        <ele>66.3</ele>
        <time>2016-10-09T09:00:09Z</time>
      </trkpt>
      <trkpt lat="49.33771" lon="0.89234">
        <ele>66.1</ele>
        <time>2016-10-09T09:00:11Z</time>
      </trkpt>
      <trkpt lat="49.33762" lon="0.89248">
        <ele>66</ele>
        <time>2016-10-09T09:00:13Z</time>
      </trkpt>
      <trkpt lat="49.33749" lon="0.89261">
        <ele>65.9</ele>
        <time>2016-10-09T09:00:15Z</time>
      </trkpt>
      <trkpt lat="49.33735" lon="0.89274">
        <ele>65.7</ele>
        <time>2016-10-09T09:00:17Z</time>
      </trkpt>
      <trkpt lat="49.33721" lon="0.89288">
        <ele>65.2</ele>
        <time>2016-10-09T09:00:19Z</time>
      </trkpt>
      <trkpt lat="49.33708" lon="0.89301">
        <ele>64.8</ele>
        <time>2016-10-09T09:00:21Z</time>
      </trkpt>
      <trkpt lat="49.33695" lon="0.89308">
        <ele>64.4</ele>
        <time>2016-10-09T09:00:23Z</time>
      </trkpt>
      <trkpt lat="49.33683" lon="0.89317">
        <ele>64.2</ele>
        <time>2016-10-09T09:00:25Z</time>
      </trkpt>
      <trkpt lat="49.33672" lon="0.89326">
        <ele>64</ele>
        <time>2016-10-09T09:00:27Z</time>
      </trkpt>
      <trkpt lat="49.33661" lon="0.89333">
        <ele>63.9</ele>
        <time>2016-10-09T09:00:29Z</time>
      </trkpt>
      <trkpt lat="49.33651" lon="0.8934">
        <ele>64</ele>
        <time>2016-10-09T09:00:31Z</time>
      </trkpt>
      <trkpt lat="49.33643" lon="0.89347">
        <ele>64</ele>
        <time>2016-10-09T09:00:33Z</time>
      </trkpt>
      <trkpt lat="49.33631" lon="0.89356">
        <ele>64.3</ele>
        <time>2016-10-09T09:00:36Z</time>
      </trkpt>
      <trkpt lat="49.33621" lon="0.89368">
        <ele>64.6</ele>
        <time>2016-10-09T09:00:39Z</time>
      </trkpt>
      <trkpt lat="49.33615" lon="0.89384">
        <ele>65.1</ele>
        <time>2016-10-09T09:00:42Z</time>
      </trkpt>
      <trkpt lat="49.33611" lon="0.89399">
        <ele>65.7</ele>
        <time>2016-10-09T09:00:45Z</time>
      </trkpt>
      <trkpt lat="49.33608" lon="0.89416">
        <ele>66.6</ele>
        <time>2016-10-09T09:00:49Z</time>
      </trkpt>
      <trkpt lat="49.33604" lon="0.89433">
        <ele>67.5</ele>
        <time>2016-10-09T09:00:53Z</time>
      </trkpt>
      <trkpt lat="49.33599" lon="0.89447">
        <ele>68.5</ele>
        <time>2016-10-09T09:00:57Z</time>
      </trkpt>
      <trkpt lat="49.33593" lon="0.8946">
        <ele>69.5</ele>
        <time>2016-10-09T09:01:01Z</time>
      </trkpt>
      <trkpt lat="49.33587" lon="0.89472">
        <ele>70.6</ele>
        <time>2016-10-09T09:01:05Z</time>
      </trkpt>
      <trkpt lat="49.33581" lon="0.89484">
        <ele>71.7</ele>
        <time>2016-10-09T09:01:09Z</time>
      </trkpt>
      <trkpt lat="49.33576" lon="0.89496">
        <ele>72.7</ele>
        <time>2016-10-09T09:01:13Z</time>
      </trkpt>
      <trkpt lat="49.3357" lon="0.89509">
        <ele>73.8</ele>
        <time>2016-10-09T09:01:17Z</time>
      </trkpt>
      <trkpt lat="49.33564" lon="0.89519">
        <ele>74.9</ele>
        <time>2016-10-09T09:01:21Z</time>
      </trkpt>
      <trkpt lat="49.33557" lon="0.89531">
        <ele>76</ele>
        <time>2016-10-09T09:01:25Z</time>
      </trkpt>
      <trkpt lat="49.3355" lon="0.89541">
        <ele>77.1</ele>
        <time>2016-10-09T09:01:29Z</time>
      </trkpt>
      <trkpt lat="49.33542" lon="0.89552">
        <ele>78.1</ele>
        <time>2016-10-09T09:01:33Z</time>
      </trkpt>
      <trkpt lat="49.33536" lon="0.89562">
        <ele>79.2</ele>
        <time>2016-10-09T09:01:37Z</time>
      </trkpt>
      <trkpt lat="49.3353" lon="0.89573">
        <ele>80.3</ele>
        <time>2016-10-09T09:01:41Z</time>
      </trkpt>
      <trkpt lat="49.33523" lon="0.89585">
        <ele>81.4</ele>
        <time>2016-10-09T09:01:45Z</time>
      </trkpt>
      <trkpt lat="49.33518" lon="0.89597">
        <ele>82.4</ele>
        <time>2016-10-09T09:01:49Z</time>
      </trkpt>
      <trkpt lat="49.33512" lon="0.8961">
        <ele>83.4</ele>
        <time>2016-10-09T09:01:53Z</time>
      </trkpt>
      <trkpt lat="49.33507" lon="0.89624">
        <ele>84.5</ele>
        <time>2016-10-09T09:01:57Z</time>
      </trkpt>
      <trkpt lat="49.33503" lon="0.8964">
        <ele>85.6</ele>
        <time>2016-10-09T09:02:01Z</time>
      </trkpt>
      <trkpt lat="49.33498" lon="0.89657">
        <ele>86.6</ele>
        <time>2016-10-09T09:02:05Z</time>
      </trkpt>
      <trkpt lat="49.33493" lon="0.89673">
        <ele>87.1</ele>
        <time>2016-10-09T09:02:08Z</time>
      </trkpt>
      <trkpt lat="49.33488" lon="0.89691">
        <ele>87.6</ele>
        <time>2016-10-09T09:02:11Z</time>
      </trkpt>
      <trkpt lat="49.33483" lon="0.89707">
        <ele>88.1</ele>
        <time>2016-10-09T09:02:14Z</time>
      </trkpt>
      <trkpt lat="49.33478" lon="0.89721">
        <ele>88.5</ele>
        <time>2016-10-09T09:02:17Z</time>
      </trkpt>
      <trkpt lat="49.33472" lon="0.89736">
        <ele>88.9</ele>
        <time>2016-10-09T09:02:21Z</time>
      </trkpt>
      <trkpt lat="49.33468" lon="0.89751">
        <ele>89.2</ele>
        <time>2016-10-09T09:02:25Z</time>
      </trkpt>
      <trkpt lat="49.33465" lon="0.89766">
        <ele>89.4</ele>
        <time>2016-10-09T09:02:29Z</time>
      </trkpt>
      <trkpt lat="49.33464" lon="0.8978">
        <ele>89.9</ele>
        <time>2016-10-09T09:02:45Z</time>
      </trkpt>
      <trkpt lat="49.33457" lon="0.89797">
        <ele>90</ele>
        <time>2016-10-09T09:02:49Z</time>
      </trkpt>
      <trkpt lat="49.33447" lon="0.89811">
        <ele>90</ele>
        <time>2016-10-09T09:02:52Z</time>
      </trkpt>
      <trkpt lat="49.33434" lon="0.89815">
        <ele>90.1</ele>
        <time>2016-10-09T09:02:55Z</time>
      </trkpt>
      <trkpt lat="49.33423" lon="0.89816">
        <ele>90.4</ele>
        <time>2016-10-09T09:02:58Z</time>
      </trkpt>
      <trkpt lat="49.33413" lon="0.8982">
        <ele>90.8</ele>
        <time>2016-10-09T09:03:01Z</time>
      </trkpt>
      <trkpt lat="49.33403" lon="0.89823">
        <ele>91.2</ele>
        <time>2016-10-09T09:03:04Z</time>
      </trkpt>
      <trkpt lat="49.33393" lon="0.89824">
        <ele>91.6</ele>
        <time>2016-10-09T09:03:07Z</time>
      </trkpt>
      <trkpt lat="49.33383" lon="0.89826">
        <ele>92.2</ele>
        <time>2016-10-09T09:03:10Z</time>
      </trkpt>
      <trkpt lat="49.33374" lon="0.8983">
        <ele>92.7</ele>
        <time>2016-10-09T09:03:13Z</time>
      </trkpt>
      <trkpt lat="49.33364" lon="0.89833">
        <ele>93.3</ele>
        <time>2016-10-09T09:03:16Z</time>
      </trkpt>
      <trkpt lat="49.33355" lon="0.89835">
        <ele>93.9</ele>
        <time>2016-10-09T09:03:19Z</time>
      </trkpt>
      <trkpt lat="49.33343" lon="0.89836">
        <ele>94.7</ele>
        <time>2016-10-09T09:03:23Z</time>
      </trkpt>
      <trkpt lat="49.33333" lon="0.89839">
        <ele>95.4</ele>
        <time>2016-10-09T09:03:26Z</time>
      </trkpt>
      <trkpt lat="49.33322" lon="0.89842">
        <ele>96.2</ele>
        <time>2016-10-09T09:03:30Z</time>
      </trkpt>
      <trkpt lat="49.33312" lon="0.89843">
        <ele>96.9</ele>
        <time>2016-10-09T09:03:33Z</time>
      </trkpt>
      <trkpt lat="49.333" lon="0.89845">
        <ele>97.9</ele>
        <time>2016-10-09T09:03:37Z</time>
      </trkpt>
      <trkpt lat="49.33289" lon="0.89848">
        <ele>98.8</ele>
        <time>2016-10-09T09:03:41Z</time>
      </trkpt>
      <trkpt lat="49.33278" lon="0.8985">
        <ele>99.7</ele>
        <time>2016-10-09T09:03:45Z</time>
      </trkpt>
      <trkpt lat="49.33267" lon="0.89853">
        <ele>100.7</ele>
        <time>2016-10-09T09:03:49Z</time>
      </trkpt>
      <trkpt lat="49.33256" lon="0.89853">
        <ele>101.5</ele>
        <time>2016-10-09T09:03:53Z</time>
      </trkpt>
      <trkpt lat="49.33246" lon="0.89854">
        <ele>102.4</ele>
        <time>2016-10-09T09:03:57Z</time>
      </trkpt>
      <trkpt lat="49.33235" lon="0.89857">
        <ele>103.2</ele>
        <time>2016-10-09T09:04:00Z</time>
      </trkpt>
      <trkpt lat="49.33224" lon="0.89862">
        <ele>103.8</ele>
        <time>2016-10-09T09:04:03Z</time>
      </trkpt>
      <trkpt lat="49.33212" lon="0.89865">
        <ele>104.6</ele>
        <time>2016-10-09T09:04:07Z</time>
      </trkpt>
      <trkpt lat="49.33203" lon="0.89868">
        <ele>105.3</ele>
        <time>2016-10-09T09:04:10Z</time>
      </trkpt>
      <trkpt lat="49.33192" lon="0.89871">
        <ele>106.1</ele>
        <time>2016-10-09T09:04:14Z</time>
      </trkpt>
      <trkpt lat="49.33183" lon="0.89873">
        <ele>106.8</ele>
        <time>2016-10-09T09:04:17Z</time>
      </trkpt>
      <trkpt lat="49.3317" lon="0.89877">
        <ele>107.8</ele>
        <time>2016-10-09T09:04:21Z</time>
      </trkpt>
      <trkpt lat="49.33158" lon="0.89877">
        <ele>108.7</ele>
        <time>2016-10-09T09:04:25Z</time>
      </trkpt>
      <trkpt lat="49.33149" lon="0.8988">
        <ele>109.4</ele>
        <time>2016-10-09T09:04:28Z</time>
      </trkpt>
      <trkpt lat="49.33137" lon="0.89882">
        <ele>110.3</ele>
        <time>2016-10-09T09:04:32Z</time>
      </trkpt>
      <trkpt lat="49.33128" lon="0.89883">
        <ele>111</ele>
        <time>2016-10-09T09:04:35Z</time>
      </trkpt>
      <trkpt lat="49.33118" lon="0.89884">
        <ele>111.6</ele>
        <time>2016-10-09T09:04:38Z</time>
      </trkpt>
      <trkpt lat="49.33107" lon="0.89885">
        <ele>112.1</ele>
        <time>2016-10-09T09:04:41Z</time>
      </trkpt>
      <trkpt lat="49.33095" lon="0.89887">
        <ele>112.6</ele>
        <time>2016-10-09T09:04:44Z</time>
      </trkpt>
      <trkpt lat="49.33084" lon="0.89886">
        <ele>113.1</ele>
        <time>2016-10-09T09:04:47Z</time>
      </trkpt>
      <trkpt lat="49.33071" lon="0.8989">
        <ele>113.5</ele>
        <time>2016-10-09T09:04:50Z</time>
      </trkpt>
      <trkpt lat="49.33062" lon="0.89893">
        <ele>113.8</ele>
        <time>2016-10-09T09:04:52Z</time>
      </trkpt>
      <trkpt lat="49.33052" lon="0.89897">
        <ele>114.1</ele>
        <time>2016-10-09T09:04:54Z</time>
      </trkpt>
      <trkpt lat="49.33042" lon="0.899">
        <ele>114.3</ele>
        <time>2016-10-09T09:04:56Z</time>
      </trkpt>
      <trkpt lat="49.33031" lon="0.89902">
        <ele>114.5</ele>
        <time>2016-10-09T09:04:58Z</time>
      </trkpt>
      <trkpt lat="49.33021" lon="0.89903">
        <ele>114.7</ele>
        <time>2016-10-09T09:05:00Z</time>
      </trkpt>
      <trkpt lat="49.33011" lon="0.89904">
        <ele>114.9</ele>
        <time>2016-10-09T09:05:02Z</time>
      </trkpt>
      <trkpt lat="49.32999" lon="0.89909">
        <ele>115</ele>
        <time>2016-10-09T09:05:04Z</time>
      </trkpt>
      <trkpt lat="49.32988" lon="0.89912">
        <ele>115.1</ele>
        <time>2016-10-09T09:05:06Z</time>
      </trkpt>
      <trkpt lat="49.32976" lon="0.89916">
        <ele>115.3</ele>
        <time>2016-10-09T09:05:08Z</time>
      </trkpt>
      <trkpt lat="49.32965" lon="0.89917">
        <ele>115.4</ele>
        <time>2016-10-09T09:05:10Z</time>
      </trkpt>
      <trkpt lat="49.32953" lon="0.89918">
        <ele>115.4</ele>
        <time>2016-10-09T09:05:12Z</time>
      </trkpt>
      <trkpt lat="49.32942" lon="0.8992">
        <ele>115.5</ele>
        <time>2016-10-09T09:05:14Z</time>
      </trkpt>
      <trkpt lat="49.32931" lon="0.89923">
        <ele>115.6</ele>
        <time>2016-10-09T09:05:16Z</time>
      </trkpt>
      <trkpt lat="49.3292" lon="0.89925">
        <ele>115.6</ele>
        <time>2016-10-09T09:05:18Z</time>
      </trkpt>
      <trkpt lat="49.32908" lon="0.89929">
        <ele>115.7</ele>
        <time>2016-10-09T09:05:20Z</time>
      </trkpt>
      <trkpt lat="49.329" lon="0.8992">
        <ele>115.8</ele>
        <time>2016-10-09T09:05:23Z</time>
      </trkpt>
      <trkpt lat="49.32903" lon="0.89901">
        <ele>115.8</ele>
        <time>2016-10-09T09:05:26Z</time>
      </trkpt>
      <trkpt lat="49.32904" lon="0.89881">
        <ele>115.9</ele>
        <time>2016-10-09T09:05:29Z</time>
      </trkpt>
      <trkpt lat="49.32906" lon="0.89867">
        <ele>115.9</ele>
        <time>2016-10-09T09:05:31Z</time>
      </trkpt>
      <trkpt lat="49.32908" lon="0.89849">
        <ele>116</ele>
        <time>2016-10-09T09:05:34Z</time>
      </trkpt>
      <trkpt lat="49.32911" lon="0.89835">
        <ele>116</ele>
        <time>2016-10-09T09:05:36Z</time>
      </trkpt>
      <trkpt lat="49.32912" lon="0.8982">
        <ele>116.1</ele>
        <time>2016-10-09T09:05:38Z</time>
      </trkpt>
      <trkpt lat="49.32915" lon="0.89805">
        <ele>116.3</ele>
        <time>2016-10-09T09:05:40Z</time>
      </trkpt>
      <trkpt lat="49.32916" lon="0.89786">
        <ele>116.4</ele>
        <time>2016-10-09T09:05:42Z</time>
      </trkpt>
      <trkpt lat="49.32916" lon="0.8977">
        <ele>116.5</ele>
        <time>2016-10-09T09:05:44Z</time>
      </trkpt>
      <trkpt lat="49.32918" lon="0.89756">
        <ele>116.6</ele>
        <time>2016-10-09T09:05:46Z</time>
      </trkpt>
      <trkpt lat="49.32918" lon="0.89742">
        <ele>116.7</ele>
        <time>2016-10-09T09:05:48Z</time>
      </trkpt>
      <trkpt lat="49.32914" lon="0.89728">
        <ele>116.9</ele>
        <time>2016-10-09T09:05:51Z</time>
      </trkpt>
      <trkpt lat="49.32905" lon="0.89719">
        <ele>117.1</ele>
        <time>2016-10-09T09:05:55Z</time>
      </trkpt>
      <trkpt lat="49.32896" lon="0.89712">
        <ele>117.4</ele>
        <time>2016-10-09T09:06:00Z</time>
      </trkpt>
      <trkpt lat="49.32884" lon="0.89711">
        <ele>117.6</ele>
        <time>2016-10-09T09:06:04Z</time>
      </trkpt>
      <trkpt lat="49.32872" lon="0.89707">
        <ele>117.7</ele>
        <time>2016-10-09T09:06:07Z</time>
      </trkpt>
      <trkpt lat="49.3286" lon="0.89699">
        <ele>117.8</ele>
        <time>2016-10-09T09:06:10Z</time>
      </trkpt>
      <trkpt lat="49.3285" lon="0.89695">
        <ele>117.9</ele>
        <time>2016-10-09T09:06:12Z</time>
      </trkpt>
      <trkpt lat="49.32841" lon="0.89693">
        <ele>118</ele>
        <time>2016-10-09T09:06:14Z</time>
      </trkpt>
      <trkpt lat="49.3283" lon="0.89689">
        <ele>118.1</ele>
        <time>2016-10-09T09:06:16Z</time>
      </trkpt>
      <trkpt lat="49.32821" lon="0.89687">
        <ele>118.2</ele>
        <time>2016-10-09T09:06:18Z</time>
      </trkpt>
      <trkpt lat="49.32811" lon="0.89685">
        <ele>118.3</ele>
        <time>2016-10-09T09:06:20Z</time>
      </trkpt>
      <trkpt lat="49.32802" lon="0.89682">
        <ele>118.4</ele>
        <time>2016-10-09T09:06:22Z</time>
      </trkpt>
      <trkpt lat="49.32793" lon="0.89679">
        <ele>118.5</ele>
        <time>2016-10-09T09:06:24Z</time>
      </trkpt>
      <trkpt lat="49.32782" lon="0.89675">
        <ele>118.6</ele>
        <time>2016-10-09T09:06:26Z</time>
      </trkpt>
      <trkpt lat="49.32772" lon="0.89673">
        <ele>118.7</ele>
        <time>2016-10-09T09:06:28Z</time>
      </trkpt>
      <trkpt lat="49.32763" lon="0.89669">
        <ele>118.8</ele>
        <time>2016-10-09T09:06:30Z</time>
      </trkpt>
      <trkpt lat="49.32754" lon="0.89669">
        <ele>118.9</ele>
        <time>2016-10-09T09:06:32Z</time>
      </trkpt>
      <trkpt lat="49.32743" lon="0.89665">
        <ele>119</ele>
        <time>2016-10-09T09:06:34Z</time>
      </trkpt>
      <trkpt lat="49.32733" lon="0.89662">
        <ele>119</ele>
        <time>2016-10-09T09:06:36Z</time>
      </trkpt>
      <trkpt lat="49.32723" lon="0.89658">
        <ele>119.1</ele>
        <time>2016-10-09T09:06:39Z</time>
      </trkpt>
      <trkpt lat="49.32709" lon="0.89652">
        <ele>119.2</ele>
        <time>2016-10-09T09:06:42Z</time>
      </trkpt>
      <trkpt lat="49.32697" lon="0.89648">
        <ele>119.2</ele>
        <time>2016-10-09T09:06:44Z</time>
      </trkpt>
      <trkpt lat="49.32688" lon="0.89645">
        <ele>119.3</ele>
        <time>2016-10-09T09:06:46Z</time>
      </trkpt>
      <trkpt lat="49.32677" lon="0.89642">
        <ele>119.2</ele>
        <time>2016-10-09T09:06:48Z</time>
      </trkpt>
      <trkpt lat="49.32667" lon="0.89639">
        <ele>119.2</ele>
        <time>2016-10-09T09:06:50Z</time>
      </trkpt>
      <trkpt lat="49.32656" lon="0.89635">
        <ele>119.2</ele>
        <time>2016-10-09T09:06:52Z</time>
      </trkpt>
      <trkpt lat="49.32645" lon="0.89635">
        <ele>119.2</ele>
        <time>2016-10-09T09:06:54Z</time>
      </trkpt>
      <trkpt lat="49.32634" lon="0.8963">
        <ele>119.3</ele>
        <time>2016-10-09T09:06:56Z</time>
      </trkpt>
      <trkpt lat="49.32623" lon="0.89626">
        <ele>119.3</ele>
        <time>2016-10-09T09:06:58Z</time>
      </trkpt>
      <trkpt lat="49.32613" lon="0.89622">
        <ele>119.3</ele>
        <time>2016-10-09T09:07:00Z</time>
      </trkpt>
      <trkpt lat="49.32602" lon="0.89617">
        <ele>119.3</ele>
        <time>2016-10-09T09:07:02Z</time>
      </trkpt>
      <trkpt lat="49.32592" lon="0.8961">
        <ele>119.3</ele>
        <time>2016-10-09T09:07:04Z</time>
      </trkpt>
      <trkpt lat="49.32579" lon="0.89605">
        <ele>119.3</ele>
        <time>2016-10-09T09:07:06Z</time>
      </trkpt>
      <trkpt lat="49.32568" lon="0.896">
        <ele>119.3</ele>
        <time>2016-10-09T09:07:08Z</time>
      </trkpt>
      <trkpt lat="49.32558" lon="0.89595">
        <ele>119.2</ele>
        <time>2016-10-09T09:07:10Z</time>
      </trkpt>
      <trkpt lat="49.32548" lon="0.89593">
        <ele>119.2</ele>
        <time>2016-10-09T09:07:12Z</time>
      </trkpt>
      <trkpt lat="49.3255" lon="0.89577">
        <ele>118.8</ele>
        <time>2016-10-09T09:07:17Z</time>
      </trkpt>
      <trkpt lat="49.32556" lon="0.89561">
        <ele>118.6</ele>
        <time>2016-10-09T09:07:20Z</time>
      </trkpt>
      <trkpt lat="49.32556" lon="0.89545">
        <ele>118.3</ele>
        <time>2016-10-09T09:07:22Z</time>
      </trkpt>
      <trkpt lat="49.32557" lon="0.89531">
        <ele>118.1</ele>
        <time>2016-10-09T09:07:24Z</time>
      </trkpt>
      <trkpt lat="49.32563" lon="0.89514">
        <ele>117.8</ele>
        <time>2016-10-09T09:07:27Z</time>
      </trkpt>
      <trkpt lat="49.32565" lon="0.89495">
        <ele>117.5</ele>
        <time>2016-10-09T09:07:30Z</time>
      </trkpt>
      <trkpt lat="49.32566" lon="0.89477">
        <ele>117.4</ele>
        <time>2016-10-09T09:07:32Z</time>
      </trkpt>
      <trkpt lat="49.32566" lon="0.89462">
        <ele>117.3</ele>
        <time>2016-10-09T09:07:34Z</time>
      </trkpt>
      <trkpt lat="49.32568" lon="0.89442">
        <ele>117.1</ele>
        <time>2016-10-09T09:07:37Z</time>
      </trkpt>
      <trkpt lat="49.32569" lon="0.89427">
        <ele>117</ele>
        <time>2016-10-09T09:07:39Z</time>
      </trkpt>
      <trkpt lat="49.32572" lon="0.89414">
        <ele>117</ele>
        <time>2016-10-09T09:07:41Z</time>
      </trkpt>
      <trkpt lat="49.32573" lon="0.89399">
        <ele>116.9</ele>
        <time>2016-10-09T09:07:43Z</time>
      </trkpt>
      <trkpt lat="49.32574" lon="0.89384">
        <ele>116.8</ele>
        <time>2016-10-09T09:07:45Z</time>
      </trkpt>
      <trkpt lat="49.32578" lon="0.89366">
        <ele>116.8</ele>
        <time>2016-10-09T09:07:48Z</time>
      </trkpt>
      <trkpt lat="49.32583" lon="0.89348">
        <ele>116.7</ele>
        <time>2016-10-09T09:07:51Z</time>
      </trkpt>
      <trkpt lat="49.32587" lon="0.8933">
        <ele>116.6</ele>
        <time>2016-10-09T09:07:54Z</time>
      </trkpt>
      <trkpt lat="49.32589" lon="0.89314">
        <ele>116.6</ele>
        <time>2016-10-09T09:07:56Z</time>
      </trkpt>
      <trkpt lat="49.32594" lon="0.89296">
        <ele>116.6</ele>
        <time>2016-10-09T09:07:59Z</time>
      </trkpt>
      <trkpt lat="49.32596" lon="0.8928">
        <ele>116.5</ele>
        <time>2016-10-09T09:08:01Z</time>
      </trkpt>
      <trkpt lat="49.326" lon="0.89266">
        <ele>116.5</ele>
        <time>2016-10-09T09:08:03Z</time>
      </trkpt>
      <trkpt lat="49.32603" lon="0.89251">
        <ele>116.6</ele>
        <time>2016-10-09T09:08:05Z</time>
      </trkpt>
      <trkpt lat="49.32604" lon="0.89236">
        <ele>116.6</ele>
        <time>2016-10-09T09:08:07Z</time>
      </trkpt>
      <trkpt lat="49.32609" lon="0.89224">
        <ele>116.6</ele>
        <time>2016-10-09T09:08:09Z</time>
      </trkpt>
      <trkpt lat="49.32611" lon="0.89205">
        <ele>116.6</ele>
        <time>2016-10-09T09:08:11Z</time>
      </trkpt>
      <trkpt lat="49.32615" lon="0.89192">
        <ele>116.6</ele>
        <time>2016-10-09T09:08:13Z</time>
      </trkpt>
      <trkpt lat="49.3262" lon="0.89176">
        <ele>116.6</ele>
        <time>2016-10-09T09:08:16Z</time>
      </trkpt>
      <trkpt lat="49.32621" lon="0.89161">
        <ele>116.6</ele>
        <time>2016-10-09T09:08:18Z</time>
      </trkpt>
      <trkpt lat="49.32617" lon="0.89146">
        <ele>116.6</ele>
        <time>2016-10-09T09:08:20Z</time>
      </trkpt>
      <trkpt lat="49.32607" lon="0.89132">
        <ele>116.5</ele>
        <time>2016-10-09T09:08:22Z</time>
      </trkpt>
      <trkpt lat="49.32598" lon="0.89124">
        <ele>116.4</ele>
        <time>2016-10-09T09:08:24Z</time>
      </trkpt>
      <trkpt lat="49.32589" lon="0.89119">
        <ele>116.4</ele>
        <time>2016-10-09T09:08:26Z</time>
      </trkpt>
      <trkpt lat="49.32581" lon="0.89113">
        <ele>116.3</ele>
        <time>2016-10-09T09:08:28Z</time>
      </trkpt>
      <trkpt lat="49.32571" lon="0.89105">
        <ele>116.3</ele>
        <time>2016-10-09T09:08:30Z</time>
      </trkpt>
      <trkpt lat="49.32562" lon="0.89097">
        <ele>116.2</ele>
        <time>2016-10-09T09:08:32Z</time>
      </trkpt>
      <trkpt lat="49.32553" lon="0.8909">
        <ele>116</ele>
        <time>2016-10-09T09:08:34Z</time>
      </trkpt>
      <trkpt lat="49.32544" lon="0.89082">
        <ele>115.8</ele>
        <time>2016-10-09T09:08:36Z</time>
      </trkpt>
      <trkpt lat="49.32536" lon="0.89073">
        <ele>115.7</ele>
        <time>2016-10-09T09:08:38Z</time>
      </trkpt>
      <trkpt lat="49.32527" lon="0.8906">
        <ele>115.5</ele>
        <time>2016-10-09T09:08:41Z</time>
      </trkpt>
      <trkpt lat="49.32518" lon="0.89051">
        <ele>115.4</ele>
        <time>2016-10-09T09:08:43Z</time>
      </trkpt>
      <trkpt lat="49.32509" lon="0.89043">
        <ele>115.3</ele>
        <time>2016-10-09T09:08:45Z</time>
      </trkpt>
      <trkpt lat="49.32498" lon="0.89038">
        <ele>115.1</ele>
        <time>2016-10-09T09:08:47Z</time>
      </trkpt>
      <trkpt lat="49.32486" lon="0.8903">
        <ele>115</ele>
        <time>2016-10-09T09:08:49Z</time>
      </trkpt>
      <trkpt lat="49.32474" lon="0.89021">
        <ele>114.7</ele>
        <time>2016-10-09T09:08:51Z</time>
      </trkpt>
      <trkpt lat="49.3246" lon="0.89013">
        <ele>114.4</ele>
        <time>2016-10-09T09:08:53Z</time>
      </trkpt>
      <trkpt lat="49.32447" lon="0.89006">
        <ele>114.1</ele>
        <time>2016-10-09T09:08:55Z</time>
      </trkpt>
      <trkpt lat="49.32435" lon="0.89001">
        <ele>113.7</ele>
        <time>2016-10-09T09:08:57Z</time>
      </trkpt>
      <trkpt lat="49.32425" lon="0.88999">
        <ele>113.3</ele>
        <time>2016-10-09T09:08:59Z</time>
      </trkpt>
      <trkpt lat="49.32413" lon="0.88993">
        <ele>112.8</ele>
        <time>2016-10-09T09:09:01Z</time>
      </trkpt>
      <trkpt lat="49.32401" lon="0.88986">
        <ele>112.4</ele>
        <time>2016-10-09T09:09:03Z</time>
      </trkpt>
      <trkpt lat="49.3239" lon="0.88977">
        <ele>112</ele>
        <time>2016-10-09T09:09:05Z</time>
      </trkpt>
      <trkpt lat="49.32379" lon="0.88971">
        <ele>111.6</ele>
        <time>2016-10-09T09:09:07Z</time>
      </trkpt>
      <trkpt lat="49.3237" lon="0.88964">
        <ele>111.1</ele>
        <time>2016-10-09T09:09:09Z</time>
      </trkpt>
      <trkpt lat="49.3236" lon="0.88962">
        <ele>110.6</ele>
        <time>2016-10-09T09:09:12Z</time>
      </trkpt>
      <trkpt lat="49.32361" lon="0.88976">
        <ele>109.9</ele>
        <time>2016-10-09T09:09:16Z</time>
      </trkpt>
      <trkpt lat="49.32362" lon="0.88997">
        <ele>109.5</ele>
        <time>2016-10-09T09:09:19Z</time>
      </trkpt>
      <trkpt lat="49.32364" lon="0.89018">
        <ele>109.2</ele>
        <time>2016-10-09T09:09:22Z</time>
      </trkpt>
      <trkpt lat="49.32366" lon="0.89033">
        <ele>109</ele>
        <time>2016-10-09T09:09:24Z</time>
      </trkpt>
      <trkpt lat="49.32369" lon="0.8905">
        <ele>108.8</ele>
        <time>2016-10-09T09:09:26Z</time>
      </trkpt>
      <trkpt lat="49.32371" lon="0.89067">
        <ele>108.7</ele>
        <time>2016-10-09T09:09:28Z</time>
      </trkpt>
      <trkpt lat="49.32375" lon="0.89084">
        <ele>108.5</ele>
        <time>2016-10-09T09:09:30Z</time>
      </trkpt>
      <trkpt lat="49.32377" lon="0.891">
        <ele>108.4</ele>
        <time>2016-10-09T09:09:32Z</time>
      </trkpt>
      <trkpt lat="49.3238" lon="0.89116">
        <ele>108.2</ele>
        <time>2016-10-09T09:09:34Z</time>
      </trkpt>
      <trkpt lat="49.32383" lon="0.89131">
        <ele>108.1</ele>
        <time>2016-10-09T09:09:36Z</time>
      </trkpt>
      <trkpt lat="49.32385" lon="0.89148">
        <ele>108</ele>
        <time>2016-10-09T09:09:38Z</time>
      </trkpt>
      <trkpt lat="49.32388" lon="0.89163">
        <ele>108</ele>
        <time>2016-10-09T09:09:40Z</time>
      </trkpt>
      <trkpt lat="49.32391" lon="0.89179">
        <ele>108</ele>
        <time>2016-10-09T09:09:42Z</time>
      </trkpt>
      <trkpt lat="49.32394" lon="0.89193">
        <ele>108</ele>
        <time>2016-10-09T09:09:44Z</time>
      </trkpt>
      <trkpt lat="49.32398" lon="0.89206">
        <ele>108.1</ele>
        <time>2016-10-09T09:09:46Z</time>
      </trkpt>
      <trkpt lat="49.32401" lon="0.89222">
        <ele>108.3</ele>
        <time>2016-10-09T09:09:48Z</time>
      </trkpt>
      <trkpt lat="49.32402" lon="0.89237">
        <ele>108.4</ele>
        <time>2016-10-09T09:09:50Z</time>
      </trkpt>
      <trkpt lat="49.32406" lon="0.89253">
        <ele>108.6</ele>
        <time>2016-10-09T09:09:52Z</time>
      </trkpt>
      <trkpt lat="49.32408" lon="0.89267">
        <ele>108.7</ele>
        <time>2016-10-09T09:09:54Z</time>
      </trkpt>
      <trkpt lat="49.32408" lon="0.89281">
        <ele>108.9</ele>
        <time>2016-10-09T09:09:56Z</time>
      </trkpt>
      <trkpt lat="49.3241" lon="0.89301">
        <ele>109.1</ele>
        <time>2016-10-09T09:09:59Z</time>
      </trkpt>
      <trkpt lat="49.32414" lon="0.89316">
        <ele>109.2</ele>
        <time>2016-10-09T09:10:01Z</time>
      </trkpt>
      <trkpt lat="49.32415" lon="0.89331">
        <ele>109.4</ele>
        <time>2016-10-09T09:10:03Z</time>
      </trkpt>
      <trkpt lat="49.32418" lon="0.89345">
        <ele>109.6</ele>
        <time>2016-10-09T09:10:05Z</time>
      </trkpt>
      <trkpt lat="49.32419" lon="0.89359">
        <ele>109.7</ele>
        <time>2016-10-09T09:10:07Z</time>
      </trkpt>
      <trkpt lat="49.32423" lon="0.8938">
        <ele>110</ele>
        <time>2016-10-09T09:10:10Z</time>
      </trkpt>
      <trkpt lat="49.32425" lon="0.89394">
        <ele>110.2</ele>
        <time>2016-10-09T09:10:12Z</time>
      </trkpt>
      <trkpt lat="49.3243" lon="0.89414">
        <ele>110.5</ele>
        <time>2016-10-09T09:10:15Z</time>
      </trkpt>
      <trkpt lat="49.32434" lon="0.89429">
        <ele>110.8</ele>
        <time>2016-10-09T09:10:17Z</time>
      </trkpt>
      <trkpt lat="49.32438" lon="0.89443">
        <ele>111.1</ele>
        <time>2016-10-09T09:10:19Z</time>
      </trkpt>
      <trkpt lat="49.32442" lon="0.89462">
        <ele>111.4</ele>
        <time>2016-10-09T09:10:22Z</time>
      </trkpt>
      <trkpt lat="49.32445" lon="0.89478">
        <ele>111.7</ele>
        <time>2016-10-09T09:10:24Z</time>
      </trkpt>
      <trkpt lat="49.32449" lon="0.89495">
        <ele>112</ele>
        <time>2016-10-09T09:10:26Z</time>
      </trkpt>
      <trkpt lat="49.32451" lon="0.89509">
        <ele>112.2</ele>
        <time>2016-10-09T09:10:28Z</time>
      </trkpt>
      <trkpt lat="49.32454" lon="0.89526">
        <ele>112.6</ele>
        <time>2016-10-09T09:10:31Z</time>
      </trkpt>
      <trkpt lat="49.32446" lon="0.89534">
        <ele>113</ele>
        <time>2016-10-09T09:10:35Z</time>
      </trkpt>
      <trkpt lat="49.32435" lon="0.89533">
        <ele>113.4</ele>
        <time>2016-10-09T09:10:39Z</time>
      </trkpt>
      <trkpt lat="49.32424" lon="0.89533">
        <ele>113.7</ele>
        <time>2016-10-09T09:10:42Z</time>
      </trkpt>
      <trkpt lat="49.32411" lon="0.89533">
        <ele>113.9</ele>
        <time>2016-10-09T09:10:45Z</time>
      </trkpt>
      <trkpt lat="49.32397" lon="0.89534">
        <ele>114</ele>
        <time>2016-10-09T09:10:48Z</time>
      </trkpt>
      <trkpt lat="49.32388" lon="0.89534">
        <ele>114.1</ele>
        <time>2016-10-09T09:10:50Z</time>
      </trkpt>
      <trkpt lat="49.32378" lon="0.89533">
        <ele>114.2</ele>
        <time>2016-10-09T09:10:52Z</time>
      </trkpt>
      <trkpt lat="49.32365" lon="0.89528">
        <ele>114.2</ele>
        <time>2016-10-09T09:10:55Z</time>
      </trkpt>
      <trkpt lat="49.32354" lon="0.89524">
        <ele>113.9</ele>
        <time>2016-10-09T09:10:57Z</time>
      </trkpt>
      <trkpt lat="49.32342" lon="0.89519">
        <ele>113.7</ele>
        <time>2016-10-09T09:10:59Z</time>
      </trkpt>
      <trkpt lat="49.32331" lon="0.89515">
        <ele>113.5</ele>
        <time>2016-10-09T09:11:01Z</time>
      </trkpt>
      <trkpt lat="49.32321" lon="0.89512">
        <ele>113.4</ele>
        <time>2016-10-09T09:11:03Z</time>
      </trkpt>
      <trkpt lat="49.3231" lon="0.89511">
        <ele>113.2</ele>
        <time>2016-10-09T09:11:05Z</time>
      </trkpt>
      <trkpt lat="49.323" lon="0.89505">
        <ele>113.1</ele>
        <time>2016-10-09T09:11:07Z</time>
      </trkpt>
      <trkpt lat="49.32289" lon="0.89502">
        <ele>113</ele>
        <time>2016-10-09T09:11:09Z</time>
      </trkpt>
      <trkpt lat="49.32278" lon="0.895">
        <ele>112.8</ele>
        <time>2016-10-09T09:11:11Z</time>
      </trkpt>
      <trkpt lat="49.32267" lon="0.89496">
        <ele>112.6</ele>
        <time>2016-10-09T09:11:13Z</time>
      </trkpt>
      <trkpt lat="49.32255" lon="0.89491">
        <ele>112.3</ele>
        <time>2016-10-09T09:11:15Z</time>
      </trkpt>
      <trkpt lat="49.32243" lon="0.89491">
        <ele>112.1</ele>
        <time>2016-10-09T09:11:17Z</time>
      </trkpt>
      <trkpt lat="49.32229" lon="0.89488">
        <ele>111.8</ele>
        <time>2016-10-09T09:11:19Z</time>
      </trkpt>
      <trkpt lat="49.32219" lon="0.89486">
        <ele>111.6</ele>
        <time>2016-10-09T09:11:21Z</time>
      </trkpt>
      <trkpt lat="49.32209" lon="0.89484">
        <ele>111.4</ele>
        <time>2016-10-09T09:11:23Z</time>
      </trkpt>
      <trkpt lat="49.322" lon="0.8948">
        <ele>111.3</ele>
        <time>2016-10-09T09:11:25Z</time>
      </trkpt>
      <trkpt lat="49.3219" lon="0.89478">
        <ele>111.2</ele>
        <time>2016-10-09T09:11:27Z</time>
      </trkpt>
      <trkpt lat="49.32181" lon="0.89474">
        <ele>111.1</ele>
        <time>2016-10-09T09:11:29Z</time>
      </trkpt>
      <trkpt lat="49.32172" lon="0.89471">
        <ele>111.2</ele>
        <time>2016-10-09T09:11:32Z</time>
      </trkpt>
      <trkpt lat="49.32163" lon="0.89466">
        <ele>111.3</ele>
        <time>2016-10-09T09:11:36Z</time>
      </trkpt>
      <trkpt lat="49.32167" lon="0.89449">
        <ele>111.5</ele>
        <time>2016-10-09T09:11:40Z</time>
      </trkpt>
      <trkpt lat="49.3217" lon="0.8943">
        <ele>111.7</ele>
        <time>2016-10-09T09:11:43Z</time>
      </trkpt>
      <trkpt lat="49.32171" lon="0.89413">
        <ele>111.8</ele>
        <time>2016-10-09T09:11:45Z</time>
      </trkpt>
      <trkpt lat="49.32172" lon="0.89398">
        <ele>111.9</ele>
        <time>2016-10-09T09:11:47Z</time>
      </trkpt>
      <trkpt lat="49.32174" lon="0.89384">
        <ele>112</ele>
        <time>2016-10-09T09:11:49Z</time>
      </trkpt>
      <trkpt lat="49.32176" lon="0.8937">
        <ele>112</ele>
        <time>2016-10-09T09:11:51Z</time>
      </trkpt>
      <trkpt lat="49.32178" lon="0.89355">
        <ele>112.1</ele>
        <time>2016-10-09T09:11:53Z</time>
      </trkpt>
      <trkpt lat="49.32181" lon="0.89341">
        <ele>112.1</ele>
        <time>2016-10-09T09:11:55Z</time>
      </trkpt>
      <trkpt lat="49.32184" lon="0.89324">
        <ele>112.2</ele>
        <time>2016-10-09T09:11:57Z</time>
      </trkpt>
      <trkpt lat="49.32187" lon="0.89305">
        <ele>112.2</ele>
        <time>2016-10-09T09:11:59Z</time>
      </trkpt>
      <trkpt lat="49.3219" lon="0.89289">
        <ele>112.1</ele>
        <time>2016-10-09T09:12:01Z</time>
      </trkpt>
      <trkpt lat="49.32193" lon="0.89267">
        <ele>112.1</ele>
        <time>2016-10-09T09:12:03Z</time>
      </trkpt>
      <trkpt lat="49.32196" lon="0.89245">
        <ele>111.9</ele>
        <time>2016-10-09T09:12:05Z</time>
      </trkpt>
      <trkpt lat="49.32199" lon="0.89224">
        <ele>111.8</ele>
        <time>2016-10-09T09:12:07Z</time>
      </trkpt>
      <trkpt lat="49.32202" lon="0.89203">
        <ele>111.6</ele>
        <time>2016-10-09T09:12:09Z</time>
      </trkpt>
      <trkpt lat="49.32205" lon="0.89181">
        <ele>111.3</ele>
        <time>2016-10-09T09:12:11Z</time>
      </trkpt>
      <trkpt lat="49.32209" lon="0.8916">
        <ele>111</ele>
        <time>2016-10-09T09:12:13Z</time>
      </trkpt>
      <trkpt lat="49.32211" lon="0.8914">
        <ele>110.6</ele>
        <time>2016-10-09T09:12:15Z</time>
      </trkpt>
      <trkpt lat="49.32213" lon="0.8912">
        <ele>110.3</ele>
        <time>2016-10-09T09:12:17Z</time>
      </trkpt>
      <trkpt lat="49.32216" lon="0.89101">
        <ele>110</ele>
        <time>2016-10-09T09:12:19Z</time>
      </trkpt>
      <trkpt lat="49.32207" lon="0.89089">
        <ele>109.4</ele>
        <time>2016-10-09T09:12:22Z</time>
      </trkpt>
      <trkpt lat="49.32194" lon="0.89076">
        <ele>109</ele>
        <time>2016-10-09T09:12:25Z</time>
      </trkpt>
      <trkpt lat="49.32185" lon="0.89068">
        <ele>108.7</ele>
        <time>2016-10-09T09:12:27Z</time>
      </trkpt>
      <trkpt lat="49.32176" lon="0.89061">
        <ele>108.5</ele>
        <time>2016-10-09T09:12:29Z</time>
      </trkpt>
      <trkpt lat="49.32167" lon="0.89056">
        <ele>108.3</ele>
        <time>2016-10-09T09:12:31Z</time>
      </trkpt>
      <trkpt lat="49.32159" lon="0.89052">
        <ele>108.1</ele>
        <time>2016-10-09T09:12:33Z</time>
      </trkpt>
      <trkpt lat="49.32149" lon="0.89047">
        <ele>108</ele>
        <time>2016-10-09T09:12:35Z</time>
      </trkpt>
      <trkpt lat="49.3214" lon="0.89041">
        <ele>107.9</ele>
        <time>2016-10-09T09:12:37Z</time>
      </trkpt>
      <trkpt lat="49.32127" lon="0.89036">
        <ele>107.9</ele>
        <time>2016-10-09T09:12:40Z</time>
      </trkpt>
      <trkpt lat="49.32118" lon="0.8903">
        <ele>108</ele>
        <time>2016-10-09T09:12:42Z</time>
      </trkpt>
      <trkpt lat="49.32111" lon="0.89022">
        <ele>108.1</ele>
        <time>2016-10-09T09:12:44Z</time>
      </trkpt>
      <trkpt lat="49.32099" lon="0.89017">
        <ele>108.3</ele>
        <time>2016-10-09T09:12:47Z</time>
      </trkpt>
      <trkpt lat="49.32086" lon="0.89014">
        <ele>108.4</ele>
        <time>2016-10-09T09:12:50Z</time>
      </trkpt>
      <trkpt lat="49.32075" lon="0.89009">
        <ele>108.6</ele>
        <time>2016-10-09T09:12:53Z</time>
      </trkpt>
      <trkpt lat="49.32066" lon="0.89007">
        <ele>108.7</ele>
        <time>2016-10-09T09:12:55Z</time>
      </trkpt>
      <trkpt lat="49.32055" lon="0.89008">
        <ele>109</ele>
        <time>2016-10-09T09:12:58Z</time>
      </trkpt>
      <trkpt lat="49.32045" lon="0.89001">
        <ele>109.2</ele>
        <time>2016-10-09T09:13:01Z</time>
      </trkpt>
      <trkpt lat="49.32036" lon="0.88994">
        <ele>109.4</ele>
        <time>2016-10-09T09:13:04Z</time>
      </trkpt>
      <trkpt lat="49.32033" lon="0.88978">
        <ele>109.7</ele>
        <time>2016-10-09T09:13:08Z</time>
      </trkpt>
      <trkpt lat="49.32028" lon="0.88963">
        <ele>109.8</ele>
        <time>2016-10-09T09:13:11Z</time>
      </trkpt>
      <trkpt lat="49.32021" lon="0.8895">
        <ele>109.9</ele>
        <time>2016-10-09T09:13:13Z</time>
      </trkpt>
      <trkpt lat="49.32013" lon="0.8894">
        <ele>109.9</ele>
        <time>2016-10-09T09:13:15Z</time>
      </trkpt>
      <trkpt lat="49.32005" lon="0.8893">
        <ele>110</ele>
        <time>2016-10-09T09:13:17Z</time>
      </trkpt>
      <trkpt lat="49.31997" lon="0.88918">
        <ele>110.1</ele>
        <time>2016-10-09T09:13:20Z</time>
      </trkpt>
      <trkpt lat="49.31986" lon="0.88909">
        <ele>110</ele>
        <time>2016-10-09T09:13:22Z</time>
      </trkpt>
      <trkpt lat="49.31975" lon="0.88899">
        <ele>109.9</ele>
        <time>2016-10-09T09:13:24Z</time>
      </trkpt>
      <trkpt lat="49.31962" lon="0.88891">
        <ele>109.8</ele>
        <time>2016-10-09T09:13:26Z</time>
      </trkpt>
      <trkpt lat="49.3195" lon="0.88884">
        <ele>109.6</ele>
        <time>2016-10-09T09:13:28Z</time>
      </trkpt>
      <trkpt lat="49.31937" lon="0.88881">
        <ele>109.3</ele>
        <time>2016-10-09T09:13:30Z</time>
      </trkpt>
      <trkpt lat="49.31923" lon="0.88878">
        <ele>108.8</ele>
        <time>2016-10-09T09:13:32Z</time>
      </trkpt>
      <trkpt lat="49.31909" lon="0.88873">
        <ele>108.4</ele>
        <time>2016-10-09T09:13:34Z</time>
      </trkpt>
      <trkpt lat="49.31895" lon="0.88869">
        <ele>107.9</ele>
        <time>2016-10-09T09:13:36Z</time>
      </trkpt>
      <trkpt lat="49.31881" lon="0.88868">
        <ele>107.2</ele>
        <time>2016-10-09T09:13:38Z</time>
      </trkpt>
      <trkpt lat="49.31872" lon="0.88861">
        <ele>106.2</ele>
        <time>2016-10-09T09:13:41Z</time>
      </trkpt>
      <trkpt lat="49.3187" lon="0.88845">
        <ele>105.1</ele>
        <time>2016-10-09T09:13:44Z</time>
      </trkpt>
      <trkpt lat="49.31872" lon="0.88829">
        <ele>103.5</ele>
        <time>2016-10-09T09:13:48Z</time>
      </trkpt>
      <trkpt lat="49.31879" lon="0.88819">
        <ele>102.5</ele>
        <time>2016-10-09T09:13:51Z</time>
      </trkpt>
      <trkpt lat="49.31887" lon="0.88806">
        <ele>101.3</ele>
        <time>2016-10-09T09:13:55Z</time>
      </trkpt>
      <trkpt lat="49.31895" lon="0.88801">
        <ele>100.2</ele>
        <time>2016-10-09T09:14:00Z</time>
      </trkpt>
      <trkpt lat="49.31904" lon="0.88795">
        <ele>99.4</ele>
        <time>2016-10-09T09:14:07Z</time>
      </trkpt>
      <trkpt lat="49.31913" lon="0.8879">
        <ele>99.6</ele>
        <time>2016-10-09T09:14:13Z</time>
      </trkpt>
      <trkpt lat="49.31922" lon="0.88789">
        <ele>100</ele>
        <time>2016-10-09T09:14:18Z</time>
      </trkpt>
      <trkpt lat="49.31932" lon="0.88787">
        <ele>100.9</ele>
        <time>2016-10-09T09:14:25Z</time>
      </trkpt>
      <trkpt lat="49.31942" lon="0.88788">
        <ele>101.6</ele>
        <time>2016-10-09T09:14:30Z</time>
      </trkpt>
      <trkpt lat="49.31952" lon="0.88788">
        <ele>102.2</ele>
        <time>2016-10-09T09:14:35Z</time>
      </trkpt>
      <trkpt lat="49.31961" lon="0.88789">
        <ele>103</ele>
        <time>2016-10-09T09:14:41Z</time>
      </trkpt>
      <trkpt lat="49.31971" lon="0.88785">
        <ele>103.8</ele>
        <time>2016-10-09T09:14:48Z</time>
      </trkpt>
      <trkpt lat="49.31975" lon="0.88772">
        <ele>104.3</ele>
        <time>2016-10-09T09:14:52Z</time>
      </trkpt>
      <trkpt lat="49.31979" lon="0.88757">
        <ele>104.6</ele>
        <time>2016-10-09T09:14:56Z</time>
      </trkpt>
      <trkpt lat="49.31986" lon="0.88745">
        <ele>104.9</ele>
        <time>2016-10-09T09:15:00Z</time>
      </trkpt>
      <trkpt lat="49.3199" lon="0.88729">
        <ele>105</ele>
        <time>2016-10-09T09:15:05Z</time>
      </trkpt>
      <trkpt lat="49.32001" lon="0.88729">
        <ele>105</ele>
        <time>2016-10-09T09:15:10Z</time>
      </trkpt>
      <trkpt lat="49.32008" lon="0.88739">
        <ele>104.9</ele>
        <time>2016-10-09T09:15:14Z</time>
      </trkpt>
      <trkpt lat="49.32019" lon="0.88743">
        <ele>104.9</ele>
        <time>2016-10-09T09:15:18Z</time>
      </trkpt>
      <trkpt lat="49.3203" lon="0.88751">
        <ele>104.8</ele>
        <time>2016-10-09T09:15:22Z</time>
      </trkpt>
      <trkpt lat="49.32037" lon="0.88765">
        <ele>104.8</ele>
        <time>2016-10-09T09:15:25Z</time>
      </trkpt>
      <trkpt lat="49.32047" lon="0.88772">
        <ele>104.7</ele>
        <time>2016-10-09T09:15:29Z</time>
      </trkpt>
      <trkpt lat="49.3206" lon="0.88769">
        <ele>104.6</ele>
        <time>2016-10-09T09:15:32Z</time>
      </trkpt>
      <trkpt lat="49.32071" lon="0.88767">
        <ele>104.4</ele>
        <time>2016-10-09T09:15:34Z</time>
      </trkpt>
      <trkpt lat="49.3208" lon="0.88763">
        <ele>104.1</ele>
        <time>2016-10-09T09:15:36Z</time>
      </trkpt>
      <trkpt lat="49.32086" lon="0.8875">
        <ele>103.8</ele>
        <time>2016-10-09T09:15:39Z</time>
      </trkpt>
      <trkpt lat="49.32092" lon="0.88736">
        <ele>103.5</ele>
        <time>2016-10-09T09:15:42Z</time>
      </trkpt>
      <trkpt lat="49.32089" lon="0.88722">
        <ele>103.3</ele>
        <time>2016-10-09T09:15:45Z</time>
      </trkpt>
      <trkpt lat="49.3209" lon="0.88705">
        <ele>102.9</ele>
        <time>2016-10-09T09:15:49Z</time>
      </trkpt>
      <trkpt lat="49.32092" lon="0.88688">
        <ele>102.8</ele>
        <time>2016-10-09T09:15:53Z</time>
      </trkpt>
      <trkpt lat="49.32093" lon="0.88673">
        <ele>102.8</ele>
        <time>2016-10-09T09:15:57Z</time>
      </trkpt>
      <trkpt lat="49.32091" lon="0.88656">
        <ele>102.8</ele>
        <time>2016-10-09T09:16:00Z</time>
      </trkpt>
      <trkpt lat="49.32087" lon="0.8864">
        <ele>102.8</ele>
        <time>2016-10-09T09:16:04Z</time>
      </trkpt>
      <trkpt lat="49.32083" lon="0.88624">
        <ele>102.8</ele>
        <time>2016-10-09T09:16:07Z</time>
      </trkpt>
      <trkpt lat="49.32083" lon="0.88607">
        <ele>102.8</ele>
        <time>2016-10-09T09:16:10Z</time>
      </trkpt>
      <trkpt lat="49.32079" lon="0.88592">
        <ele>102.9</ele>
        <time>2016-10-09T09:16:13Z</time>
      </trkpt>
      <trkpt lat="49.32077" lon="0.88576">
        <ele>103</ele>
        <time>2016-10-09T09:16:16Z</time>
      </trkpt>
      <trkpt lat="49.32074" lon="0.88563">
        <ele>103.2</ele>
        <time>2016-10-09T09:16:19Z</time>
      </trkpt>
      <trkpt lat="49.3207" lon="0.8855">
        <ele>103.5</ele>
        <time>2016-10-09T09:16:22Z</time>
      </trkpt>
      <trkpt lat="49.32066" lon="0.88537">
        <ele>103.7</ele>
        <time>2016-10-09T09:16:25Z</time>
      </trkpt>
      <trkpt lat="49.32062" lon="0.88524">
        <ele>103.8</ele>
        <time>2016-10-09T09:16:28Z</time>
      </trkpt>
      <trkpt lat="49.3206" lon="0.88507">
        <ele>104</ele>
        <time>2016-10-09T09:16:31Z</time>
      </trkpt>
      <trkpt lat="49.32057" lon="0.8849">
        <ele>104.1</ele>
        <time>2016-10-09T09:16:34Z</time>
      </trkpt>
      <trkpt lat="49.32057" lon="0.8847">
        <ele>104.2</ele>
        <time>2016-10-09T09:16:37Z</time>
      </trkpt>
      <trkpt lat="49.32057" lon="0.88452">
        <ele>104.3</ele>
        <time>2016-10-09T09:16:40Z</time>
      </trkpt>
      <trkpt lat="49.32058" lon="0.88438">
        <ele>104.3</ele>
        <time>2016-10-09T09:16:42Z</time>
      </trkpt>
      <trkpt lat="49.32059" lon="0.88419">
        <ele>104.4</ele>
        <time>2016-10-09T09:16:45Z</time>
      </trkpt>
      <trkpt lat="49.32062" lon="0.88402">
        <ele>104.4</ele>
        <time>2016-10-09T09:16:48Z</time>
      </trkpt>
      <trkpt lat="49.32064" lon="0.88385">
        <ele>104.5</ele>
        <time>2016-10-09T09:16:51Z</time>
      </trkpt>
      <trkpt lat="49.32066" lon="0.8837">
        <ele>104.5</ele>
        <time>2016-10-09T09:16:54Z</time>
      </trkpt>
      <trkpt lat="49.32067" lon="0.88354">
        <ele>104.5</ele>
        <time>2016-10-09T09:16:57Z</time>
      </trkpt>
      <trkpt lat="49.32068" lon="0.88335">
        <ele>104.5</ele>
        <time>2016-10-09T09:17:00Z</time>
      </trkpt>
      <trkpt lat="49.32072" lon="0.88321">
        <ele>104.4</ele>
        <time>2016-10-09T09:17:02Z</time>
      </trkpt>
      <trkpt lat="49.32075" lon="0.88308">
        <ele>104.4</ele>
        <time>2016-10-09T09:17:04Z</time>
      </trkpt>
      <trkpt lat="49.32075" lon="0.88289">
        <ele>104.3</ele>
        <time>2016-10-09T09:17:07Z</time>
      </trkpt>
      <trkpt lat="49.32067" lon="0.88276">
        <ele>104.2</ele>
        <time>2016-10-09T09:17:11Z</time>
      </trkpt>
      <trkpt lat="49.32058" lon="0.88272">
        <ele>104</ele>
        <time>2016-10-09T09:17:13Z</time>
      </trkpt>
      <trkpt lat="49.32044" lon="0.88269">
        <ele>103.8</ele>
        <time>2016-10-09T09:17:15Z</time>
      </trkpt>
      <trkpt lat="49.3203" lon="0.88265">
        <ele>103</ele>
        <time>2016-10-09T09:17:17Z</time>
      </trkpt>
      <trkpt lat="49.32008" lon="0.88257">
        <ele>102.5</ele>
        <time>2016-10-09T09:17:20Z</time>
      </trkpt>
      <trkpt lat="49.31993" lon="0.88248">
        <ele>101.9</ele>
        <time>2016-10-09T09:17:22Z</time>
      </trkpt>
      <trkpt lat="49.3198" lon="0.88239">
        <ele>101.3</ele>
        <time>2016-10-09T09:17:24Z</time>
      </trkpt>
      <trkpt lat="49.31968" lon="0.88231">
        <ele>100.8</ele>
        <time>2016-10-09T09:17:26Z</time>
      </trkpt>
      <trkpt lat="49.31956" lon="0.88227">
        <ele>100.3</ele>
        <time>2016-10-09T09:17:28Z</time>
      </trkpt>
      <trkpt lat="49.31947" lon="0.88229">
        <ele>99.9</ele>
        <time>2016-10-09T09:17:30Z</time>
      </trkpt>
      <trkpt lat="49.31937" lon="0.88242">
        <ele>99.2</ele>
        <time>2016-10-09T09:17:33Z</time>
      </trkpt>
      <trkpt lat="49.31931" lon="0.88253">
        <ele>98.9</ele>
        <time>2016-10-09T09:17:35Z</time>
      </trkpt>
      <trkpt lat="49.31922" lon="0.88262">
        <ele>98.6</ele>
        <time>2016-10-09T09:17:37Z</time>
      </trkpt>
      <trkpt lat="49.31913" lon="0.88266">
        <ele>98.3</ele>
        <time>2016-10-09T09:17:39Z</time>
      </trkpt>
      <trkpt lat="49.31903" lon="0.88267">
        <ele>98</ele>
        <time>2016-10-09T09:17:41Z</time>
      </trkpt>
      <trkpt lat="49.31893" lon="0.88266">
        <ele>97.8</ele>
        <time>2016-10-09T09:17:43Z</time>
      </trkpt>
      <trkpt lat="49.3188" lon="0.88264">
        <ele>97.6</ele>
        <time>2016-10-09T09:17:46Z</time>
      </trkpt>
      <trkpt lat="49.31871" lon="0.88262">
        <ele>97.4</ele>
        <time>2016-10-09T09:17:48Z</time>
      </trkpt>
      <trkpt lat="49.31861" lon="0.8826">
        <ele>97.2</ele>
        <time>2016-10-09T09:17:50Z</time>
      </trkpt>
      <trkpt lat="49.31852" lon="0.88257">
        <ele>97</ele>
        <time>2016-10-09T09:17:52Z</time>
      </trkpt>
      <trkpt lat="49.31842" lon="0.88254">
        <ele>96.9</ele>
        <time>2016-10-09T09:17:54Z</time>
      </trkpt>
      <trkpt lat="49.31833" lon="0.88251">
        <ele>96.8</ele>
        <time>2016-10-09T09:17:56Z</time>
      </trkpt>
      <trkpt lat="49.31824" lon="0.88247">
        <ele>96.7</ele>
        <time>2016-10-09T09:17:58Z</time>
      </trkpt>
      <trkpt lat="49.31814" lon="0.88243">
        <ele>96.6</ele>
        <time>2016-10-09T09:18:00Z</time>
      </trkpt>
      <trkpt lat="49.31804" lon="0.8824">
        <ele>96.5</ele>
        <time>2016-10-09T09:18:02Z</time>
      </trkpt>
      <trkpt lat="49.31794" lon="0.88236">
        <ele>96.4</ele>
        <time>2016-10-09T09:18:04Z</time>
      </trkpt>
      <trkpt lat="49.31784" lon="0.88233">
        <ele>96.4</ele>
        <time>2016-10-09T09:18:06Z</time>
      </trkpt>
      <trkpt lat="49.31772" lon="0.88228">
        <ele>96.4</ele>
        <time>2016-10-09T09:18:08Z</time>
      </trkpt>
      <trkpt lat="49.31762" lon="0.8822">
        <ele>96.4</ele>
        <time>2016-10-09T09:18:10Z</time>
      </trkpt>
      <trkpt lat="49.31751" lon="0.8821">
        <ele>96.5</ele>
        <time>2016-10-09T09:18:12Z</time>
      </trkpt>
      <trkpt lat="49.31741" lon="0.88198">
        <ele>96.6</ele>
        <time>2016-10-09T09:18:14Z</time>
      </trkpt>
      <trkpt lat="49.3173" lon="0.88186">
        <ele>96.7</ele>
        <time>2016-10-09T09:18:16Z</time>
      </trkpt>
      <trkpt lat="49.3172" lon="0.88174">
        <ele>96.7</ele>
        <time>2016-10-09T09:18:18Z</time>
      </trkpt>
      <trkpt lat="49.31711" lon="0.88163">
        <ele>96.8</ele>
        <time>2016-10-09T09:18:20Z</time>
      </trkpt>
      <trkpt lat="49.31701" lon="0.8816">
        <ele>96.9</ele>
        <time>2016-10-09T09:18:22Z</time>
      </trkpt>
      <trkpt lat="49.31689" lon="0.88166">
        <ele>96.9</ele>
        <time>2016-10-09T09:18:24Z</time>
      </trkpt>
      <trkpt lat="49.31679" lon="0.88176">
        <ele>97.1</ele>
        <time>2016-10-09T09:18:26Z</time>
      </trkpt>
      <trkpt lat="49.3167" lon="0.88187">
        <ele>97.2</ele>
        <time>2016-10-09T09:18:28Z</time>
      </trkpt>
      <trkpt lat="49.31661" lon="0.88198">
        <ele>97.5</ele>
        <time>2016-10-09T09:18:30Z</time>
      </trkpt>
      <trkpt lat="49.31652" lon="0.88208">
        <ele>97.8</ele>
        <time>2016-10-09T09:18:32Z</time>
      </trkpt>
      <trkpt lat="49.31643" lon="0.88218">
        <ele>98.2</ele>
        <time>2016-10-09T09:18:34Z</time>
      </trkpt>
      <trkpt lat="49.31634" lon="0.88228">
        <ele>98.6</ele>
        <time>2016-10-09T09:18:36Z</time>
      </trkpt>
      <trkpt lat="49.31626" lon="0.88237">
        <ele>99</ele>
        <time>2016-10-09T09:18:38Z</time>
      </trkpt>
      <trkpt lat="49.31617" lon="0.88246">
        <ele>99.4</ele>
        <time>2016-10-09T09:18:40Z</time>
      </trkpt>
      <trkpt lat="49.31608" lon="0.88255">
        <ele>99.8</ele>
        <time>2016-10-09T09:18:42Z</time>
      </trkpt>
      <trkpt lat="49.316" lon="0.88264">
        <ele>100.3</ele>
        <time>2016-10-09T09:18:44Z</time>
      </trkpt>
      <trkpt lat="49.31592" lon="0.88272">
        <ele>100.8</ele>
        <time>2016-10-09T09:18:46Z</time>
      </trkpt>
      <trkpt lat="49.31583" lon="0.8828">
        <ele>101.2</ele>
        <time>2016-10-09T09:18:48Z</time>
      </trkpt>
      <trkpt lat="49.31575" lon="0.88288">
        <ele>101.7</ele>
        <time>2016-10-09T09:18:50Z</time>
      </trkpt>
      <trkpt lat="49.31567" lon="0.88296">
        <ele>102.2</ele>
        <time>2016-10-09T09:18:52Z</time>
      </trkpt>
      <trkpt lat="49.31559" lon="0.88304">
        <ele>102.6</ele>
        <time>2016-10-09T09:18:54Z</time>
      </trkpt>
      <trkpt lat="49.31551" lon="0.88311">
        <ele>103.1</ele>
        <time>2016-10-09T09:18:56Z</time>
      </trkpt>
      <trkpt lat="49.31539" lon="0.88321">
        <ele>103.8</ele>
        <time>2016-10-09T09:18:59Z</time>
      </trkpt>
      <trkpt lat="49.31529" lon="0.88311">
        <ele>104.5</ele>
        <time>2016-10-09T09:19:02Z</time>
      </trkpt>
      <trkpt lat="49.31522" lon="0.88293">
        <ele>105.2</ele>
        <time>2016-10-09T09:19:05Z</time>
      </trkpt>
      <trkpt lat="49.31517" lon="0.88279">
        <ele>105.6</ele>
        <time>2016-10-09T09:19:07Z</time>
      </trkpt>
      <trkpt lat="49.31512" lon="0.88265">
        <ele>106</ele>
        <time>2016-10-09T09:19:09Z</time>
      </trkpt>
      <trkpt lat="49.31507" lon="0.8825">
        <ele>106.4</ele>
        <time>2016-10-09T09:19:11Z</time>
      </trkpt>
      <trkpt lat="49.31501" lon="0.88235">
        <ele>106.7</ele>
        <time>2016-10-09T09:19:13Z</time>
      </trkpt>
      <trkpt lat="49.31495" lon="0.8822">
        <ele>107.1</ele>
        <time>2016-10-09T09:19:15Z</time>
      </trkpt>
      <trkpt lat="49.31489" lon="0.88205">
        <ele>107.3</ele>
        <time>2016-10-09T09:19:17Z</time>
      </trkpt>
      <trkpt lat="49.31483" lon="0.88189">
        <ele>107.6</ele>
        <time>2016-10-09T09:19:19Z</time>
      </trkpt>
      <trkpt lat="49.31476" lon="0.88172">
        <ele>107.8</ele>
        <time>2016-10-09T09:19:21Z</time>
      </trkpt>
      <trkpt lat="49.3147" lon="0.88155">
        <ele>108</ele>
        <time>2016-10-09T09:19:23Z</time>
      </trkpt>
      <trkpt lat="49.31463" lon="0.88139">
        <ele>108.2</ele>
        <time>2016-10-09T09:19:25Z</time>
      </trkpt>
      <trkpt lat="49.31455" lon="0.88124">
        <ele>108.4</ele>
        <time>2016-10-09T09:19:27Z</time>
      </trkpt>
      <trkpt lat="49.31446" lon="0.88108">
        <ele>108.6</ele>
        <time>2016-10-09T09:19:29Z</time>
      </trkpt>
      <trkpt lat="49.31436" lon="0.88092">
        <ele>108.8</ele>
        <time>2016-10-09T09:19:31Z</time>
      </trkpt>
      <trkpt lat="49.31427" lon="0.88076">
        <ele>108.9</ele>
        <time>2016-10-09T09:19:33Z</time>
      </trkpt>
      <trkpt lat="49.31417" lon="0.8806">
        <ele>109.1</ele>
        <time>2016-10-09T09:19:35Z</time>
      </trkpt>
      <trkpt lat="49.31408" lon="0.88043">
        <ele>109.3</ele>
        <time>2016-10-09T09:19:37Z</time>
      </trkpt>
      <trkpt lat="49.314" lon="0.88027">
        <ele>109.5</ele>
        <time>2016-10-09T09:19:39Z</time>
      </trkpt>
      <trkpt lat="49.31392" lon="0.8801">
        <ele>109.7</ele>
        <time>2016-10-09T09:19:41Z</time>
      </trkpt>
      <trkpt lat="49.31385" lon="0.87992">
        <ele>109.9</ele>
        <time>2016-10-09T09:19:43Z</time>
      </trkpt>
      <trkpt lat="49.31378" lon="0.87974">
        <ele>110.1</ele>
        <time>2016-10-09T09:19:45Z</time>
      </trkpt>
      <trkpt lat="49.31372" lon="0.87955">
        <ele>110.3</ele>
        <time>2016-10-09T09:19:47Z</time>
      </trkpt>
      <trkpt lat="49.31366" lon="0.87938">
        <ele>110.4</ele>
        <time>2016-10-09T09:19:49Z</time>
      </trkpt>
      <trkpt lat="49.31361" lon="0.87921">
        <ele>110.6</ele>
        <time>2016-10-09T09:19:51Z</time>
      </trkpt>
      <trkpt lat="49.31357" lon="0.87903">
        <ele>110.7</ele>
        <time>2016-10-09T09:19:53Z</time>
      </trkpt>
      <trkpt lat="49.31353" lon="0.87883">
        <ele>110.8</ele>
        <time>2016-10-09T09:19:55Z</time>
      </trkpt>
      <trkpt lat="49.31349" lon="0.87863">
        <ele>111</ele>
        <time>2016-10-09T09:19:57Z</time>
      </trkpt>
      <trkpt lat="49.31344" lon="0.87842">
        <ele>111.1</ele>
        <time>2016-10-09T09:19:59Z</time>
      </trkpt>
      <trkpt lat="49.31339" lon="0.87821">
        <ele>111.2</ele>
        <time>2016-10-09T09:20:01Z</time>
      </trkpt>
      <trkpt lat="49.31334" lon="0.878">
        <ele>111.4</ele>
        <time>2016-10-09T09:20:03Z</time>
      </trkpt>
      <trkpt lat="49.31328" lon="0.87779">
        <ele>111.6</ele>
        <time>2016-10-09T09:20:05Z</time>
      </trkpt>
      <trkpt lat="49.3132" lon="0.8776">
        <ele>111.7</ele>
        <time>2016-10-09T09:20:07Z</time>
      </trkpt>
      <trkpt lat="49.31308" lon="0.87745">
        <ele>111.9</ele>
        <time>2016-10-09T09:20:09Z</time>
      </trkpt>
      <trkpt lat="49.31295" lon="0.87734">
        <ele>112</ele>
        <time>2016-10-09T09:20:11Z</time>
      </trkpt>
      <trkpt lat="49.31282" lon="0.87723">
        <ele>112.1</ele>
        <time>2016-10-09T09:20:13Z</time>
      </trkpt>
      <trkpt lat="49.3127" lon="0.87709">
        <ele>112.2</ele>
        <time>2016-10-09T09:20:15Z</time>
      </trkpt>
      <trkpt lat="49.3126" lon="0.87692">
        <ele>112.3</ele>
        <time>2016-10-09T09:20:17Z</time>
      </trkpt>
      <trkpt lat="49.3125" lon="0.87676">
        <ele>112.4</ele>
        <time>2016-10-09T09:20:19Z</time>
      </trkpt>
      <trkpt lat="49.3124" lon="0.8766">
        <ele>112.5</ele>
        <time>2016-10-09T09:20:21Z</time>
      </trkpt>
      <trkpt lat="49.3123" lon="0.87645">
        <ele>112.6</ele>
        <time>2016-10-09T09:20:23Z</time>
      </trkpt>
      <trkpt lat="49.3122" lon="0.8763">
        <ele>112.8</ele>
        <time>2016-10-09T09:20:25Z</time>
      </trkpt>
      <trkpt lat="49.3121" lon="0.87616">
        <ele>112.9</ele>
        <time>2016-10-09T09:20:27Z</time>
      </trkpt>
      <trkpt lat="49.312" lon="0.876">
        <ele>113</ele>
        <time>2016-10-09T09:20:29Z</time>
      </trkpt>
      <trkpt lat="49.31191" lon="0.87585">
        <ele>113.1</ele>
        <time>2016-10-09T09:20:31Z</time>
      </trkpt>
      <trkpt lat="49.31182" lon="0.8757">
        <ele>113.2</ele>
        <time>2016-10-09T09:20:33Z</time>
      </trkpt>
      <trkpt lat="49.31173" lon="0.87554">
        <ele>113.3</ele>
        <time>2016-10-09T09:20:35Z</time>
      </trkpt>
      <trkpt lat="49.31164" lon="0.87537">
        <ele>113.5</ele>
        <time>2016-10-09T09:20:37Z</time>
      </trkpt>
      <trkpt lat="49.31156" lon="0.8752">
        <ele>113.7</ele>
        <time>2016-10-09T09:20:39Z</time>
      </trkpt>
      <trkpt lat="49.31147" lon="0.87503">
        <ele>113.8</ele>
        <time>2016-10-09T09:20:41Z</time>
      </trkpt>
      <trkpt lat="49.31139" lon="0.87485">
        <ele>113.9</ele>
        <time>2016-10-09T09:20:43Z</time>
      </trkpt>
      <trkpt lat="49.31132" lon="0.87467">
        <ele>114</ele>
        <time>2016-10-09T09:20:45Z</time>
      </trkpt>
      <trkpt lat="49.31124" lon="0.87449">
        <ele>114.1</ele>
        <time>2016-10-09T09:20:47Z</time>
      </trkpt>
      <trkpt lat="49.31117" lon="0.87429">
        <ele>114.2</ele>
        <time>2016-10-09T09:20:49Z</time>
      </trkpt>
      <trkpt lat="49.31109" lon="0.8741">
        <ele>114.2</ele>
        <time>2016-10-09T09:20:51Z</time>
      </trkpt>
      <trkpt lat="49.31102" lon="0.87391">
        <ele>114.3</ele>
        <time>2016-10-09T09:20:53Z</time>
      </trkpt>
      <trkpt lat="49.31095" lon="0.87372">
        <ele>114.3</ele>
        <time>2016-10-09T09:20:55Z</time>
      </trkpt>
      <trkpt lat="49.31087" lon="0.87353">
        <ele>114.4</ele>
        <time>2016-10-09T09:20:57Z</time>
      </trkpt>
      <trkpt lat="49.3108" lon="0.87334">
        <ele>114.4</ele>
        <time>2016-10-09T09:20:59Z</time>
      </trkpt>
      <trkpt lat="49.31073" lon="0.87314">
        <ele>114.5</ele>
        <time>2016-10-09T09:21:01Z</time>
      </trkpt>
      <trkpt lat="49.31066" lon="0.87295">
        <ele>114.5</ele>
        <time>2016-10-09T09:21:03Z</time>
      </trkpt>
      <trkpt lat="49.31058" lon="0.87276">
        <ele>114.5</ele>
        <time>2016-10-09T09:21:05Z</time>
      </trkpt>
      <trkpt lat="49.31049" lon="0.87258">
        <ele>114.6</ele>
        <time>2016-10-09T09:21:07Z</time>
      </trkpt>
      <trkpt lat="49.31039" lon="0.87243">
        <ele>114.6</ele>
        <time>2016-10-09T09:21:09Z</time>
      </trkpt>
      <trkpt lat="49.31028" lon="0.87227">
        <ele>114.6</ele>
        <time>2016-10-09T09:21:11Z</time>
      </trkpt>
      <trkpt lat="49.31019" lon="0.87209">
        <ele>114.6</ele>
        <time>2016-10-09T09:21:13Z</time>
      </trkpt>
      <trkpt lat="49.31016" lon="0.87187">
        <ele>114.6</ele>
        <time>2016-10-09T09:21:15Z</time>
      </trkpt>
      <trkpt lat="49.31017" lon="0.87166">
        <ele>114.6</ele>
        <time>2016-10-09T09:21:17Z</time>
      </trkpt>
      <trkpt lat="49.31018" lon="0.87146">
        <ele>114.6</ele>
        <time>2016-10-09T09:21:19Z</time>
      </trkpt>
      <trkpt lat="49.31018" lon="0.87127">
        <ele>114.7</ele>
        <time>2016-10-09T09:21:21Z</time>
      </trkpt>
      <trkpt lat="49.31019" lon="0.8711">
        <ele>114.7</ele>
        <time>2016-10-09T09:21:23Z</time>
      </trkpt>
      <trkpt lat="49.31018" lon="0.87092">
        <ele>114.7</ele>
        <time>2016-10-09T09:21:26Z</time>
      </trkpt>
      <trkpt lat="49.31006" lon="0.87095">
        <ele>114.7</ele>
        <time>2016-10-09T09:21:29Z</time>
      </trkpt>
      <trkpt lat="49.30995" lon="0.87103">
        <ele>114.7</ele>
        <time>2016-10-09T09:21:31Z</time>
      </trkpt>
      <trkpt lat="49.30981" lon="0.8711">
        <ele>114.7</ele>
        <time>2016-10-09T09:21:33Z</time>
      </trkpt>
      <trkpt lat="49.30965" lon="0.87116">
        <ele>114.5</ele>
        <time>2016-10-09T09:21:35Z</time>
      </trkpt>
      <trkpt lat="49.30947" lon="0.87117">
        <ele>114.4</ele>
        <time>2016-10-09T09:21:37Z</time>
      </trkpt>
      <trkpt lat="49.30929" lon="0.87115">
        <ele>114.1</ele>
        <time>2016-10-09T09:21:39Z</time>
      </trkpt>
      <trkpt lat="49.3092" lon="0.87114">
        <ele>113.9</ele>
        <time>2016-10-09T09:21:40Z</time>
      </trkpt>
      <trkpt lat="49.30911" lon="0.87113">
        <ele>113.7</ele>
        <time>2016-10-09T09:21:41Z</time>
      </trkpt>
      <trkpt lat="49.30902" lon="0.87112">
        <ele>113.6</ele>
        <time>2016-10-09T09:21:42Z</time>
      </trkpt>
      <trkpt lat="49.30884" lon="0.87114">
        <ele>113.3</ele>
        <time>2016-10-09T09:21:44Z</time>
      </trkpt>
      <trkpt lat="49.30868" lon="0.87121">
        <ele>112.9</ele>
        <time>2016-10-09T09:21:46Z</time>
      </trkpt>
      <trkpt lat="49.30852" lon="0.87129">
        <ele>112.6</ele>
        <time>2016-10-09T09:21:48Z</time>
      </trkpt>
      <trkpt lat="49.30837" lon="0.87137">
        <ele>112.4</ele>
        <time>2016-10-09T09:21:50Z</time>
      </trkpt>
      <trkpt lat="49.30821" lon="0.87143">
        <ele>112.2</ele>
        <time>2016-10-09T09:21:52Z</time>
      </trkpt>
      <trkpt lat="49.30806" lon="0.87148">
        <ele>112</ele>
        <time>2016-10-09T09:21:54Z</time>
      </trkpt>
      <trkpt lat="49.30791" lon="0.87153">
        <ele>111.8</ele>
        <time>2016-10-09T09:21:56Z</time>
      </trkpt>
      <trkpt lat="49.30777" lon="0.87156">
        <ele>111.6</ele>
        <time>2016-10-09T09:21:58Z</time>
      </trkpt>
      <trkpt lat="49.30762" lon="0.87158">
        <ele>111.5</ele>
        <time>2016-10-09T09:22:00Z</time>
      </trkpt>
      <trkpt lat="49.30747" lon="0.87159">
        <ele>111.4</ele>
        <time>2016-10-09T09:22:02Z</time>
      </trkpt>
      <trkpt lat="49.30733" lon="0.87159">
        <ele>111.3</ele>
        <time>2016-10-09T09:22:04Z</time>
      </trkpt>
      <trkpt lat="49.30719" lon="0.87158">
        <ele>111.2</ele>
        <time>2016-10-09T09:22:06Z</time>
      </trkpt>
      <trkpt lat="49.30706" lon="0.87156">
        <ele>111.1</ele>
        <time>2016-10-09T09:22:08Z</time>
      </trkpt>
      <trkpt lat="49.30692" lon="0.87153">
        <ele>111.1</ele>
        <time>2016-10-09T09:22:10Z</time>
      </trkpt>
      <trkpt lat="49.30679" lon="0.8715">
        <ele>111.1</ele>
        <time>2016-10-09T09:22:12Z</time>
      </trkpt>
      <trkpt lat="49.30666" lon="0.87146">
        <ele>111.1</ele>
        <time>2016-10-09T09:22:14Z</time>
      </trkpt>
      <trkpt lat="49.30654" lon="0.87144">
        <ele>111.2</ele>
        <time>2016-10-09T09:22:16Z</time>
      </trkpt>
      <trkpt lat="49.30641" lon="0.87142">
        <ele>111.3</ele>
        <time>2016-10-09T09:22:18Z</time>
      </trkpt>
      <trkpt lat="49.30628" lon="0.8714">
        <ele>111.4</ele>
        <time>2016-10-09T09:22:20Z</time>
      </trkpt>
      <trkpt lat="49.30615" lon="0.87139">
        <ele>111.6</ele>
        <time>2016-10-09T09:22:22Z</time>
      </trkpt>
      <trkpt lat="49.30603" lon="0.8714">
        <ele>111.8</ele>
        <time>2016-10-09T09:22:24Z</time>
      </trkpt>
      <trkpt lat="49.3059" lon="0.87142">
        <ele>112</ele>
        <time>2016-10-09T09:22:26Z</time>
      </trkpt>
      <trkpt lat="49.30578" lon="0.87145">
        <ele>112.3</ele>
        <time>2016-10-09T09:22:28Z</time>
      </trkpt>
      <trkpt lat="49.30565" lon="0.87147">
        <ele>112.5</ele>
        <time>2016-10-09T09:22:30Z</time>
      </trkpt>
      <trkpt lat="49.30553" lon="0.87149">
        <ele>112.6</ele>
        <time>2016-10-09T09:22:32Z</time>
      </trkpt>
      <trkpt lat="49.3054" lon="0.87151">
        <ele>112.8</ele>
        <time>2016-10-09T09:22:34Z</time>
      </trkpt>
      <trkpt lat="49.30527" lon="0.87155">
        <ele>113</ele>
        <time>2016-10-09T09:22:36Z</time>
      </trkpt>
      <trkpt lat="49.30514" lon="0.87156">
        <ele>113.2</ele>
        <time>2016-10-09T09:22:38Z</time>
      </trkpt>
      <trkpt lat="49.305" lon="0.87157">
        <ele>113.4</ele>
        <time>2016-10-09T09:22:40Z</time>
      </trkpt>
      <trkpt lat="49.30487" lon="0.87158">
        <ele>113.5</ele>
        <time>2016-10-09T09:22:42Z</time>
      </trkpt>
      <trkpt lat="49.30473" lon="0.87157">
        <ele>113.7</ele>
        <time>2016-10-09T09:22:44Z</time>
      </trkpt>
      <trkpt lat="49.30459" lon="0.87156">
        <ele>113.8</ele>
        <time>2016-10-09T09:22:46Z</time>
      </trkpt>
      <trkpt lat="49.30446" lon="0.87155">
        <ele>113.9</ele>
        <time>2016-10-09T09:22:48Z</time>
      </trkpt>
      <trkpt lat="49.30432" lon="0.87153">
        <ele>114</ele>
        <time>2016-10-09T09:22:50Z</time>
      </trkpt>
      <trkpt lat="49.30419" lon="0.8715">
        <ele>114.1</ele>
        <time>2016-10-09T09:22:52Z</time>
      </trkpt>
      <trkpt lat="49.30406" lon="0.87147">
        <ele>114.2</ele>
        <time>2016-10-09T09:22:54Z</time>
      </trkpt>
      <trkpt lat="49.30393" lon="0.87145">
        <ele>114.2</ele>
        <time>2016-10-09T09:22:56Z</time>
      </trkpt>
      <trkpt lat="49.3038" lon="0.87144">
        <ele>114.3</ele>
        <time>2016-10-09T09:22:58Z</time>
      </trkpt>
      <trkpt lat="49.30368" lon="0.87144">
        <ele>114.4</ele>
        <time>2016-10-09T09:23:00Z</time>
      </trkpt>
      <trkpt lat="49.30355" lon="0.87146">
        <ele>114.4</ele>
        <time>2016-10-09T09:23:02Z</time>
      </trkpt>
      <trkpt lat="49.30343" lon="0.87148">
        <ele>114.4</ele>
        <time>2016-10-09T09:23:04Z</time>
      </trkpt>
      <trkpt lat="49.30333" lon="0.87148">
        <ele>114.4</ele>
        <time>2016-10-09T09:23:06Z</time>
      </trkpt>
      <trkpt lat="49.30322" lon="0.87152">
        <ele>114.5</ele>
        <time>2016-10-09T09:23:08Z</time>
      </trkpt>
      <trkpt lat="49.3031" lon="0.87153">
        <ele>114.4</ele>
        <time>2016-10-09T09:23:10Z</time>
      </trkpt>
      <trkpt lat="49.30297" lon="0.87153">
        <ele>114.4</ele>
        <time>2016-10-09T09:23:12Z</time>
      </trkpt>
      <trkpt lat="49.30284" lon="0.87152">
        <ele>114.4</ele>
        <time>2016-10-09T09:23:14Z</time>
      </trkpt>
      <trkpt lat="49.30271" lon="0.87152">
        <ele>114.4</ele>
        <time>2016-10-09T09:23:16Z</time>
      </trkpt>
      <trkpt lat="49.30257" lon="0.87152">
        <ele>114.4</ele>
        <time>2016-10-09T09:23:18Z</time>
      </trkpt>
      <trkpt lat="49.30244" lon="0.87154">
        <ele>114.3</ele>
        <time>2016-10-09T09:23:20Z</time>
      </trkpt>
      <trkpt lat="49.3023" lon="0.87157">
        <ele>114.3</ele>
        <time>2016-10-09T09:23:22Z</time>
      </trkpt>
      <trkpt lat="49.30215" lon="0.87161">
        <ele>114.3</ele>
        <time>2016-10-09T09:23:24Z</time>
      </trkpt>
      <trkpt lat="49.30202" lon="0.87164">
        <ele>114.3</ele>
        <time>2016-10-09T09:23:26Z</time>
      </trkpt>
      <trkpt lat="49.30189" lon="0.87168">
        <ele>114.4</ele>
        <time>2016-10-09T09:23:28Z</time>
      </trkpt>
      <trkpt lat="49.30177" lon="0.8717">
        <ele>114.6</ele>
        <time>2016-10-09T09:23:30Z</time>
      </trkpt>
      <trkpt lat="49.30164" lon="0.87171">
        <ele>114.9</ele>
        <time>2016-10-09T09:23:32Z</time>
      </trkpt>
      <trkpt lat="49.30152" lon="0.87172">
        <ele>115.2</ele>
        <time>2016-10-09T09:23:34Z</time>
      </trkpt>
      <trkpt lat="49.3014" lon="0.87172">
        <ele>115.5</ele>
        <time>2016-10-09T09:23:36Z</time>
      </trkpt>
      <trkpt lat="49.30129" lon="0.87173">
        <ele>115.8</ele>
        <time>2016-10-09T09:23:38Z</time>
      </trkpt>
      <trkpt lat="49.30117" lon="0.87174">
        <ele>116.1</ele>
        <time>2016-10-09T09:23:40Z</time>
      </trkpt>
      <trkpt lat="49.30105" lon="0.87174">
        <ele>116.4</ele>
        <time>2016-10-09T09:23:42Z</time>
      </trkpt>
      <trkpt lat="49.30093" lon="0.87175">
        <ele>116.7</ele>
        <time>2016-10-09T09:23:44Z</time>
      </trkpt>
      <trkpt lat="49.30081" lon="0.87174">
        <ele>117</ele>
        <time>2016-10-09T09:23:46Z</time>
      </trkpt>
      <trkpt lat="49.30069" lon="0.87175">
        <ele>117.2</ele>
        <time>2016-10-09T09:23:48Z</time>
      </trkpt>
      <trkpt lat="49.30058" lon="0.87176">
        <ele>117.4</ele>
        <time>2016-10-09T09:23:50Z</time>
      </trkpt>
      <trkpt lat="49.30048" lon="0.8718">
        <ele>117.7</ele>
        <time>2016-10-09T09:23:52Z</time>
      </trkpt>
      <trkpt lat="49.3004" lon="0.87188">
        <ele>117.9</ele>
        <time>2016-10-09T09:23:54Z</time>
      </trkpt>
      <trkpt lat="49.3003" lon="0.87188">
        <ele>118.2</ele>
        <time>2016-10-09T09:23:56Z</time>
      </trkpt>
      <trkpt lat="49.3002" lon="0.87191">
        <ele>118.4</ele>
        <time>2016-10-09T09:23:58Z</time>
      </trkpt>
      <trkpt lat="49.30011" lon="0.87197">
        <ele>118.6</ele>
        <time>2016-10-09T09:24:00Z</time>
      </trkpt>
      <trkpt lat="49.30003" lon="0.87207">
        <ele>118.8</ele>
        <time>2016-10-09T09:24:02Z</time>
      </trkpt>
      <trkpt lat="49.29998" lon="0.8722">
        <ele>119</ele>
        <time>2016-10-09T09:24:04Z</time>
      </trkpt>
      <trkpt lat="49.29993" lon="0.87233">
        <ele>119.2</ele>
        <time>2016-10-09T09:24:06Z</time>
      </trkpt>
      <trkpt lat="49.29987" lon="0.87247">
        <ele>119.3</ele>
        <time>2016-10-09T09:24:08Z</time>
      </trkpt>
      <trkpt lat="49.29981" lon="0.8726">
        <ele>119.5</ele>
        <time>2016-10-09T09:24:10Z</time>
      </trkpt>
      <trkpt lat="49.29975" lon="0.87273">
        <ele>119.6</ele>
        <time>2016-10-09T09:24:12Z</time>
      </trkpt>
      <trkpt lat="49.29967" lon="0.87286">
        <ele>119.7</ele>
        <time>2016-10-09T09:24:14Z</time>
      </trkpt>
      <trkpt lat="49.29961" lon="0.87299">
        <ele>119.8</ele>
        <time>2016-10-09T09:24:16Z</time>
      </trkpt>
      <trkpt lat="49.29961" lon="0.87314">
        <ele>120</ele>
        <time>2016-10-09T09:24:18Z</time>
      </trkpt>
      <trkpt lat="49.29965" lon="0.87326">
        <ele>120.1</ele>
        <time>2016-10-09T09:24:20Z</time>
      </trkpt>
      <trkpt lat="49.2996" lon="0.87344">
        <ele>120.3</ele>
        <time>2016-10-09T09:24:23Z</time>
      </trkpt>
      <trkpt lat="49.29952" lon="0.87359">
        <ele>120.5</ele>
        <time>2016-10-09T09:24:26Z</time>
      </trkpt>
      <trkpt lat="49.29952" lon="0.87374">
        <ele>120.6</ele>
        <time>2016-10-09T09:24:28Z</time>
      </trkpt>
      <trkpt lat="49.29954" lon="0.8739">
        <ele>120.7</ele>
        <time>2016-10-09T09:24:30Z</time>
      </trkpt>
      <trkpt lat="49.29953" lon="0.87405">
        <ele>120.8</ele>
        <time>2016-10-09T09:24:32Z</time>
      </trkpt>
      <trkpt lat="49.29953" lon="0.87419">
        <ele>120.8</ele>
        <time>2016-10-09T09:24:34Z</time>
      </trkpt>
      <trkpt lat="49.29958" lon="0.87433">
        <ele>120.9</ele>
        <time>2016-10-09T09:24:36Z</time>
      </trkpt>
      <trkpt lat="49.29958" lon="0.87448">
        <ele>121</ele>
        <time>2016-10-09T09:24:38Z</time>
      </trkpt>
      <trkpt lat="49.2995" lon="0.87458">
        <ele>121</ele>
        <time>2016-10-09T09:24:40Z</time>
      </trkpt>
      <trkpt lat="49.29945" lon="0.87472">
        <ele>121</ele>
        <time>2016-10-09T09:24:43Z</time>
      </trkpt>
      <trkpt lat="49.29946" lon="0.87491">
        <ele>120.9</ele>
        <time>2016-10-09T09:24:46Z</time>
      </trkpt>
      <trkpt lat="49.29939" lon="0.87508">
        <ele>120.7</ele>
        <time>2016-10-09T09:24:49Z</time>
      </trkpt>
      <trkpt lat="49.29935" lon="0.87525">
        <ele>120.6</ele>
        <time>2016-10-09T09:24:51Z</time>
      </trkpt>
      <trkpt lat="49.29932" lon="0.87541">
        <ele>120.5</ele>
        <time>2016-10-09T09:24:53Z</time>
      </trkpt>
      <trkpt lat="49.2993" lon="0.87558">
        <ele>120.3</ele>
        <time>2016-10-09T09:24:55Z</time>
      </trkpt>
      <trkpt lat="49.29931" lon="0.87575">
        <ele>120.3</ele>
        <time>2016-10-09T09:24:57Z</time>
      </trkpt>
      <trkpt lat="49.29937" lon="0.87588">
        <ele>120.2</ele>
        <time>2016-10-09T09:24:59Z</time>
      </trkpt>
      <trkpt lat="49.29942" lon="0.87606">
        <ele>120.1</ele>
        <time>2016-10-09T09:25:02Z</time>
      </trkpt>
      <trkpt lat="49.2994" lon="0.8762">
        <ele>120</ele>
        <time>2016-10-09T09:25:04Z</time>
      </trkpt>
      <trkpt lat="49.29934" lon="0.87633">
        <ele>119.9</ele>
        <time>2016-10-09T09:25:06Z</time>
      </trkpt>
      <trkpt lat="49.29927" lon="0.87649">
        <ele>119.8</ele>
        <time>2016-10-09T09:25:08Z</time>
      </trkpt>
      <trkpt lat="49.29922" lon="0.87668">
        <ele>119.6</ele>
        <time>2016-10-09T09:25:10Z</time>
      </trkpt>
      <trkpt lat="49.2992" lon="0.87687">
        <ele>119.4</ele>
        <time>2016-10-09T09:25:12Z</time>
      </trkpt>
      <trkpt lat="49.2992" lon="0.87705">
        <ele>119.1</ele>
        <time>2016-10-09T09:25:14Z</time>
      </trkpt>
      <trkpt lat="49.2992" lon="0.8772">
        <ele>118.9</ele>
        <time>2016-10-09T09:25:16Z</time>
      </trkpt>
      <trkpt lat="49.29918" lon="0.8774">
        <ele>118.7</ele>
        <time>2016-10-09T09:25:19Z</time>
      </trkpt>
      <trkpt lat="49.29917" lon="0.87754">
        <ele>118.5</ele>
        <time>2016-10-09T09:25:21Z</time>
      </trkpt>
      <trkpt lat="49.29916" lon="0.87768">
        <ele>118.4</ele>
        <time>2016-10-09T09:25:23Z</time>
      </trkpt>
      <trkpt lat="49.29913" lon="0.87782">
        <ele>118.3</ele>
        <time>2016-10-09T09:25:25Z</time>
      </trkpt>
      <trkpt lat="49.29912" lon="0.87802">
        <ele>118.2</ele>
        <time>2016-10-09T09:25:28Z</time>
      </trkpt>
      <trkpt lat="49.29912" lon="0.87817">
        <ele>118.1</ele>
        <time>2016-10-09T09:25:30Z</time>
      </trkpt>
      <trkpt lat="49.29912" lon="0.87831">
        <ele>118</ele>
        <time>2016-10-09T09:25:32Z</time>
      </trkpt>
      <trkpt lat="49.29907" lon="0.87848">
        <ele>118</ele>
        <time>2016-10-09T09:25:35Z</time>
      </trkpt>
      <trkpt lat="49.29896" lon="0.87847">
        <ele>117.9</ele>
        <time>2016-10-09T09:25:38Z</time>
      </trkpt>
      <trkpt lat="49.29888" lon="0.87856">
        <ele>117.9</ele>
        <time>2016-10-09T09:25:41Z</time>
      </trkpt>
      <trkpt lat="49.29885" lon="0.87872">
        <ele>117.9</ele>
        <time>2016-10-09T09:25:46Z</time>
      </trkpt>
      <trkpt lat="49.29882" lon="0.87884">
        <ele>117.8</ele>
        <time>2016-10-09T09:25:58Z</time>
      </trkpt>
    </trkseg>
  </trk>
</gpx>